<?xml version="1.0" encoding="UTF-8" standalone="no" ?>
<gpx xmlns="http://www.topografix.com/GPX/1/1" xmlns:xsi="http://www.w3.org/2001/XMLSchema-instance" xsi:schemaLocation="http://www.topografix.com/GPX/1/1 http://www.topografix.com/GPX/1/1/gpx.xsd" version="1.1" creator="VisuGPX - https://www.visugpx.com">
  <metadata>
    <name>Champagnat Cyclisme sur route</name>
  </metadata>
  <trk>
    <name><![CDATA[Champagnat Cyclisme sur route_1]]></name>
    <trkseg>
      <trkpt lat="46.48265" lon="5.36828">
        <ele>267</ele>
        <time>2022-05-16T12:07:44Z</time>
      </trkpt>
      <trkpt lat="46.48255" lon="5.36817">
        <ele>266.8</ele>
        <time>2022-05-16T12:07:45Z</time>
      </trkpt>
      <trkpt lat="46.48247" lon="5.36809">
        <ele>265.4</ele>
        <time>2022-05-16T12:07:46Z</time>
      </trkpt>
      <trkpt lat="46.48224" lon="5.3679">
        <ele>264</ele>
        <time>2022-05-16T12:07:48Z</time>
      </trkpt>
      <trkpt lat="46.48214" lon="5.36782">
        <ele>262.8</ele>
        <time>2022-05-16T12:07:49Z</time>
      </trkpt>
      <trkpt lat="46.48195" lon="5.36766">
        <ele>261.2</ele>
        <time>2022-05-16T12:07:51Z</time>
      </trkpt>
      <trkpt lat="46.48173" lon="5.36748">
        <ele>260.2</ele>
        <time>2022-05-16T12:07:53Z</time>
      </trkpt>
      <trkpt lat="46.48152" lon="5.36731">
        <ele>259</ele>
        <time>2022-05-16T12:07:55Z</time>
      </trkpt>
      <trkpt lat="46.48144" lon="5.36725">
        <ele>258</ele>
        <time>2022-05-16T12:07:56Z</time>
      </trkpt>
      <trkpt lat="46.48135" lon="5.36719">
        <ele>257.6</ele>
        <time>2022-05-16T12:07:57Z</time>
      </trkpt>
      <trkpt lat="46.48124" lon="5.36711">
        <ele>256.6</ele>
        <time>2022-05-16T12:07:58Z</time>
      </trkpt>
      <trkpt lat="46.48116" lon="5.36706">
        <ele>256.2</ele>
        <time>2022-05-16T12:07:59Z</time>
      </trkpt>
      <trkpt lat="46.48111" lon="5.36698">
        <ele>255.6</ele>
        <time>2022-05-16T12:08:00Z</time>
      </trkpt>
      <trkpt lat="46.4811" lon="5.36689">
        <ele>255</ele>
        <time>2022-05-16T12:08:01Z</time>
      </trkpt>
      <trkpt lat="46.48111" lon="5.36682">
        <ele>254.2</ele>
        <time>2022-05-16T12:08:02Z</time>
      </trkpt>
      <trkpt lat="46.48115" lon="5.36673">
        <ele>253.8</ele>
        <time>2022-05-16T12:08:03Z</time>
      </trkpt>
      <trkpt lat="46.48121" lon="5.36667">
        <ele>253</ele>
        <time>2022-05-16T12:08:04Z</time>
      </trkpt>
      <trkpt lat="46.48127" lon="5.36661">
        <ele>252</ele>
        <time>2022-05-16T12:08:05Z</time>
      </trkpt>
      <trkpt lat="46.48145" lon="5.36642">
        <ele>250.8</ele>
        <time>2022-05-16T12:08:08Z</time>
      </trkpt>
      <trkpt lat="46.48153" lon="5.36636">
        <ele>250.4</ele>
        <time>2022-05-16T12:08:09Z</time>
      </trkpt>
      <trkpt lat="46.48168" lon="5.36625">
        <ele>250</ele>
        <time>2022-05-16T12:08:11Z</time>
      </trkpt>
      <trkpt lat="46.48175" lon="5.36619">
        <ele>249.8</ele>
        <time>2022-05-16T12:08:12Z</time>
      </trkpt>
      <trkpt lat="46.4819" lon="5.36608">
        <ele>249.6</ele>
        <time>2022-05-16T12:08:14Z</time>
      </trkpt>
      <trkpt lat="46.48205" lon="5.36602">
        <ele>249.4</ele>
        <time>2022-05-16T12:08:16Z</time>
      </trkpt>
      <trkpt lat="46.48217" lon="5.36592">
        <ele>249.2</ele>
        <time>2022-05-16T12:08:18Z</time>
      </trkpt>
      <trkpt lat="46.48225" lon="5.36569">
        <ele>249</ele>
        <time>2022-05-16T12:08:20Z</time>
      </trkpt>
      <trkpt lat="46.48234" lon="5.36551">
        <ele>248.8</ele>
        <time>2022-05-16T12:08:22Z</time>
      </trkpt>
      <trkpt lat="46.48239" lon="5.36545">
        <ele>248.6</ele>
        <time>2022-05-16T12:08:23Z</time>
      </trkpt>
      <trkpt lat="46.48272" lon="5.36509">
        <ele>247.6</ele>
        <time>2022-05-16T12:08:28Z</time>
      </trkpt>
      <trkpt lat="46.48278" lon="5.36504">
        <ele>247.4</ele>
        <time>2022-05-16T12:08:29Z</time>
      </trkpt>
      <trkpt lat="46.48299" lon="5.3648">
        <ele>246.8</ele>
        <time>2022-05-16T12:08:32Z</time>
      </trkpt>
      <trkpt lat="46.48311" lon="5.36467">
        <ele>246.4</ele>
        <time>2022-05-16T12:08:34Z</time>
      </trkpt>
      <trkpt lat="46.48348" lon="5.36426">
        <ele>245</ele>
        <time>2022-05-16T12:08:39Z</time>
      </trkpt>
      <trkpt lat="46.48372" lon="5.36399">
        <ele>244.2</ele>
        <time>2022-05-16T12:08:42Z</time>
      </trkpt>
      <trkpt lat="46.48379" lon="5.36391">
        <ele>243.8</ele>
        <time>2022-05-16T12:08:44Z</time>
      </trkpt>
      <trkpt lat="46.48412" lon="5.36361">
        <ele>243</ele>
        <time>2022-05-16T12:08:48Z</time>
      </trkpt>
      <trkpt lat="46.4842" lon="5.36356">
        <ele>242.6</ele>
        <time>2022-05-16T12:08:49Z</time>
      </trkpt>
      <trkpt lat="46.48453" lon="5.36347">
        <ele>242</ele>
        <time>2022-05-16T12:08:53Z</time>
      </trkpt>
      <trkpt lat="46.4851" lon="5.36338">
        <ele>241.6</ele>
        <time>2022-05-16T12:09:00Z</time>
      </trkpt>
      <trkpt lat="46.48525" lon="5.36335">
        <ele>241.6</ele>
        <time>2022-05-16T12:09:02Z</time>
      </trkpt>
      <trkpt lat="46.48533" lon="5.36334">
        <ele>241.4</ele>
        <time>2022-05-16T12:09:03Z</time>
      </trkpt>
      <trkpt lat="46.48566" lon="5.36328">
        <ele>240.6</ele>
        <time>2022-05-16T12:09:07Z</time>
      </trkpt>
      <trkpt lat="46.48583" lon="5.36326">
        <ele>240.4</ele>
        <time>2022-05-16T12:09:09Z</time>
      </trkpt>
      <trkpt lat="46.48609" lon="5.36321">
        <ele>240</ele>
        <time>2022-05-16T12:09:12Z</time>
      </trkpt>
      <trkpt lat="46.48617" lon="5.36318">
        <ele>240</ele>
        <time>2022-05-16T12:09:13Z</time>
      </trkpt>
      <trkpt lat="46.48625" lon="5.36311">
        <ele>239.6</ele>
        <time>2022-05-16T12:09:14Z</time>
      </trkpt>
      <trkpt lat="46.48631" lon="5.363">
        <ele>239.4</ele>
        <time>2022-05-16T12:09:15Z</time>
      </trkpt>
      <trkpt lat="46.48635" lon="5.36287">
        <ele>239.2</ele>
        <time>2022-05-16T12:09:16Z</time>
      </trkpt>
      <trkpt lat="46.4864" lon="5.36258">
        <ele>238</ele>
        <time>2022-05-16T12:09:18Z</time>
      </trkpt>
      <trkpt lat="46.48644" lon="5.36214">
        <ele>237</ele>
        <time>2022-05-16T12:09:21Z</time>
      </trkpt>
      <trkpt lat="46.48648" lon="5.36169">
        <ele>236</ele>
        <time>2022-05-16T12:09:24Z</time>
      </trkpt>
      <trkpt lat="46.48648" lon="5.36158">
        <ele>235.8</ele>
        <time>2022-05-16T12:09:25Z</time>
      </trkpt>
      <trkpt lat="46.48657" lon="5.36103">
        <ele>235</ele>
        <time>2022-05-16T12:09:29Z</time>
      </trkpt>
      <trkpt lat="46.48662" lon="5.36078">
        <ele>234.6</ele>
        <time>2022-05-16T12:09:31Z</time>
      </trkpt>
      <trkpt lat="46.4867" lon="5.36044">
        <ele>234.6</ele>
        <time>2022-05-16T12:09:34Z</time>
      </trkpt>
      <trkpt lat="46.48672" lon="5.36031">
        <ele>234.6</ele>
        <time>2022-05-16T12:09:35Z</time>
      </trkpt>
      <trkpt lat="46.48674" lon="5.36022">
        <ele>234.6</ele>
        <time>2022-05-16T12:09:36Z</time>
      </trkpt>
      <trkpt lat="46.48677" lon="5.36006">
        <ele>234.6</ele>
        <time>2022-05-16T12:09:38Z</time>
      </trkpt>
      <trkpt lat="46.48678" lon="5.35997">
        <ele>234.8</ele>
        <time>2022-05-16T12:09:39Z</time>
      </trkpt>
      <trkpt lat="46.4868" lon="5.35975">
        <ele>235.2</ele>
        <time>2022-05-16T12:09:41Z</time>
      </trkpt>
      <trkpt lat="46.48681" lon="5.35965">
        <ele>235.4</ele>
        <time>2022-05-16T12:09:42Z</time>
      </trkpt>
      <trkpt lat="46.48686" lon="5.35932">
        <ele>236</ele>
        <time>2022-05-16T12:09:45Z</time>
      </trkpt>
      <trkpt lat="46.48694" lon="5.359">
        <ele>236</ele>
        <time>2022-05-16T12:09:48Z</time>
      </trkpt>
      <trkpt lat="46.48719" lon="5.35839">
        <ele>235.2</ele>
        <time>2022-05-16T12:09:54Z</time>
      </trkpt>
      <trkpt lat="46.48741" lon="5.35789">
        <ele>234.8</ele>
        <time>2022-05-16T12:09:59Z</time>
      </trkpt>
      <trkpt lat="46.48745" lon="5.35781">
        <ele>234.6</ele>
        <time>2022-05-16T12:10:00Z</time>
      </trkpt>
      <trkpt lat="46.48767" lon="5.3573">
        <ele>233.8</ele>
        <time>2022-05-16T12:10:05Z</time>
      </trkpt>
      <trkpt lat="46.48775" lon="5.35711">
        <ele>233.4</ele>
        <time>2022-05-16T12:10:07Z</time>
      </trkpt>
      <trkpt lat="46.48801" lon="5.35654">
        <ele>233.4</ele>
        <time>2022-05-16T12:10:13Z</time>
      </trkpt>
      <trkpt lat="46.48809" lon="5.35635">
        <ele>233.4</ele>
        <time>2022-05-16T12:10:16Z</time>
      </trkpt>
      <trkpt lat="46.48821" lon="5.3561">
        <ele>233.4</ele>
        <time>2022-05-16T12:10:19Z</time>
      </trkpt>
      <trkpt lat="46.48833" lon="5.35587">
        <ele>233.4</ele>
        <time>2022-05-16T12:10:22Z</time>
      </trkpt>
      <trkpt lat="46.4884" lon="5.3557">
        <ele>233.6</ele>
        <time>2022-05-16T12:10:24Z</time>
      </trkpt>
      <trkpt lat="46.48857" lon="5.35531">
        <ele>233.6</ele>
        <time>2022-05-16T12:10:29Z</time>
      </trkpt>
      <trkpt lat="46.48873" lon="5.35491">
        <ele>234.2</ele>
        <time>2022-05-16T12:10:34Z</time>
      </trkpt>
      <trkpt lat="46.48891" lon="5.3545">
        <ele>233.6</ele>
        <time>2022-05-16T12:10:39Z</time>
      </trkpt>
      <trkpt lat="46.48895" lon="5.35443">
        <ele>233.4</ele>
        <time>2022-05-16T12:10:40Z</time>
      </trkpt>
      <trkpt lat="46.48902" lon="5.35426">
        <ele>233.2</ele>
        <time>2022-05-16T12:10:42Z</time>
      </trkpt>
      <trkpt lat="46.48909" lon="5.35409">
        <ele>233.2</ele>
        <time>2022-05-16T12:10:44Z</time>
      </trkpt>
      <trkpt lat="46.48933" lon="5.35354">
        <ele>233</ele>
        <time>2022-05-16T12:10:50Z</time>
      </trkpt>
      <trkpt lat="46.48949" lon="5.35317">
        <ele>232.4</ele>
        <time>2022-05-16T12:10:54Z</time>
      </trkpt>
      <trkpt lat="46.48964" lon="5.35281">
        <ele>232.2</ele>
        <time>2022-05-16T12:10:58Z</time>
      </trkpt>
      <trkpt lat="46.48986" lon="5.35231">
        <ele>232.2</ele>
        <time>2022-05-16T12:11:04Z</time>
      </trkpt>
      <trkpt lat="46.49006" lon="5.35185">
        <ele>232.8</ele>
        <time>2022-05-16T12:11:10Z</time>
      </trkpt>
      <trkpt lat="46.49009" lon="5.35179">
        <ele>233.2</ele>
        <time>2022-05-16T12:11:11Z</time>
      </trkpt>
      <trkpt lat="46.49017" lon="5.35163">
        <ele>233.4</ele>
        <time>2022-05-16T12:11:13Z</time>
      </trkpt>
      <trkpt lat="46.49025" lon="5.35145">
        <ele>233.8</ele>
        <time>2022-05-16T12:11:16Z</time>
      </trkpt>
      <trkpt lat="46.49038" lon="5.35107">
        <ele>234.2</ele>
        <time>2022-05-16T12:11:21Z</time>
      </trkpt>
      <trkpt lat="46.49042" lon="5.3509">
        <ele>234.2</ele>
        <time>2022-05-16T12:11:23Z</time>
      </trkpt>
      <trkpt lat="46.49053" lon="5.35033">
        <ele>234</ele>
        <time>2022-05-16T12:11:29Z</time>
      </trkpt>
      <trkpt lat="46.49065" lon="5.34968">
        <ele>233.4</ele>
        <time>2022-05-16T12:11:35Z</time>
      </trkpt>
      <trkpt lat="46.49077" lon="5.34909">
        <ele>232.2</ele>
        <time>2022-05-16T12:11:40Z</time>
      </trkpt>
      <trkpt lat="46.49091" lon="5.34836">
        <ele>231.2</ele>
        <time>2022-05-16T12:11:46Z</time>
      </trkpt>
      <trkpt lat="46.49093" lon="5.34823">
        <ele>231</ele>
        <time>2022-05-16T12:11:47Z</time>
      </trkpt>
      <trkpt lat="46.49105" lon="5.34764">
        <ele>230</ele>
        <time>2022-05-16T12:11:52Z</time>
      </trkpt>
      <trkpt lat="46.4911" lon="5.3474">
        <ele>229.8</ele>
        <time>2022-05-16T12:11:54Z</time>
      </trkpt>
      <trkpt lat="46.49124" lon="5.34669">
        <ele>229</ele>
        <time>2022-05-16T12:12:00Z</time>
      </trkpt>
      <trkpt lat="46.49133" lon="5.34625">
        <ele>228.6</ele>
        <time>2022-05-16T12:12:04Z</time>
      </trkpt>
      <trkpt lat="46.4914" lon="5.34586">
        <ele>228.6</ele>
        <time>2022-05-16T12:12:08Z</time>
      </trkpt>
      <trkpt lat="46.49149" lon="5.34544">
        <ele>229</ele>
        <time>2022-05-16T12:12:12Z</time>
      </trkpt>
      <trkpt lat="46.49152" lon="5.34534">
        <ele>229.2</ele>
        <time>2022-05-16T12:12:14Z</time>
      </trkpt>
      <trkpt lat="46.49154" lon="5.34521">
        <ele>229.2</ele>
        <time>2022-05-16T12:12:15Z</time>
      </trkpt>
      <trkpt lat="46.49159" lon="5.34484">
        <ele>229</ele>
        <time>2022-05-16T12:12:18Z</time>
      </trkpt>
      <trkpt lat="46.49172" lon="5.34421">
        <ele>228</ele>
        <time>2022-05-16T12:12:24Z</time>
      </trkpt>
      <trkpt lat="46.49174" lon="5.34408">
        <ele>228</ele>
        <time>2022-05-16T12:12:25Z</time>
      </trkpt>
      <trkpt lat="46.49182" lon="5.34363">
        <ele>228</ele>
        <time>2022-05-16T12:12:30Z</time>
      </trkpt>
      <trkpt lat="46.49185" lon="5.34345">
        <ele>228.2</ele>
        <time>2022-05-16T12:12:32Z</time>
      </trkpt>
      <trkpt lat="46.49189" lon="5.34321">
        <ele>228.6</ele>
        <time>2022-05-16T12:12:35Z</time>
      </trkpt>
      <trkpt lat="46.49194" lon="5.34301">
        <ele>229</ele>
        <time>2022-05-16T12:12:37Z</time>
      </trkpt>
      <trkpt lat="46.49198" lon="5.3428">
        <ele>229.2</ele>
        <time>2022-05-16T12:12:39Z</time>
      </trkpt>
      <trkpt lat="46.49208" lon="5.34221">
        <ele>229</ele>
        <time>2022-05-16T12:12:44Z</time>
      </trkpt>
      <trkpt lat="46.49223" lon="5.34145">
        <ele>228.2</ele>
        <time>2022-05-16T12:12:51Z</time>
      </trkpt>
      <trkpt lat="46.49225" lon="5.34135">
        <ele>228.2</ele>
        <time>2022-05-16T12:12:52Z</time>
      </trkpt>
      <trkpt lat="46.49234" lon="5.34091">
        <ele>228.4</ele>
        <time>2022-05-16T12:12:57Z</time>
      </trkpt>
      <trkpt lat="46.49241" lon="5.34053">
        <ele>229.2</ele>
        <time>2022-05-16T12:13:02Z</time>
      </trkpt>
      <trkpt lat="46.49247" lon="5.34022">
        <ele>230</ele>
        <time>2022-05-16T12:13:06Z</time>
      </trkpt>
      <trkpt lat="46.49249" lon="5.34013">
        <ele>230.2</ele>
        <time>2022-05-16T12:13:07Z</time>
      </trkpt>
      <trkpt lat="46.49253" lon="5.33996">
        <ele>230.6</ele>
        <time>2022-05-16T12:13:09Z</time>
      </trkpt>
      <trkpt lat="46.49264" lon="5.33935">
        <ele>231</ele>
        <time>2022-05-16T12:13:16Z</time>
      </trkpt>
      <trkpt lat="46.49265" lon="5.33926">
        <ele>231</ele>
        <time>2022-05-16T12:13:17Z</time>
      </trkpt>
      <trkpt lat="46.49271" lon="5.33899">
        <ele>231.2</ele>
        <time>2022-05-16T12:13:20Z</time>
      </trkpt>
      <trkpt lat="46.49275" lon="5.33882">
        <ele>231.2</ele>
        <time>2022-05-16T12:13:22Z</time>
      </trkpt>
      <trkpt lat="46.49277" lon="5.33873">
        <ele>231.2</ele>
        <time>2022-05-16T12:13:23Z</time>
      </trkpt>
      <trkpt lat="46.4929" lon="5.33804">
        <ele>230.8</ele>
        <time>2022-05-16T12:13:31Z</time>
      </trkpt>
      <trkpt lat="46.49301" lon="5.33727">
        <ele>230.6</ele>
        <time>2022-05-16T12:13:39Z</time>
      </trkpt>
      <trkpt lat="46.49301" lon="5.33716">
        <ele>230.6</ele>
        <time>2022-05-16T12:13:40Z</time>
      </trkpt>
      <trkpt lat="46.49304" lon="5.33627">
        <ele>229.8</ele>
        <time>2022-05-16T12:13:48Z</time>
      </trkpt>
      <trkpt lat="46.49306" lon="5.33616">
        <ele>229.8</ele>
        <time>2022-05-16T12:13:49Z</time>
      </trkpt>
      <trkpt lat="46.49313" lon="5.33585">
        <ele>229.6</ele>
        <time>2022-05-16T12:13:52Z</time>
      </trkpt>
      <trkpt lat="46.49319" lon="5.33553">
        <ele>229.4</ele>
        <time>2022-05-16T12:13:55Z</time>
      </trkpt>
      <trkpt lat="46.49319" lon="5.33531">
        <ele>229.4</ele>
        <time>2022-05-16T12:13:57Z</time>
      </trkpt>
      <trkpt lat="46.49318" lon="5.3352">
        <ele>229.2</ele>
        <time>2022-05-16T12:13:58Z</time>
      </trkpt>
      <trkpt lat="46.49312" lon="5.33467">
        <ele>229</ele>
        <time>2022-05-16T12:14:03Z</time>
      </trkpt>
      <trkpt lat="46.49297" lon="5.33385">
        <ele>229</ele>
        <time>2022-05-16T12:14:11Z</time>
      </trkpt>
      <trkpt lat="46.49293" lon="5.33367">
        <ele>229</ele>
        <time>2022-05-16T12:14:12Z</time>
      </trkpt>
      <trkpt lat="46.49283" lon="5.33318">
        <ele>228.2</ele>
        <time>2022-05-16T12:14:17Z</time>
      </trkpt>
      <trkpt lat="46.49274" lon="5.33264">
        <ele>227.2</ele>
        <time>2022-05-16T12:14:22Z</time>
      </trkpt>
      <trkpt lat="46.49272" lon="5.33253">
        <ele>227</ele>
        <time>2022-05-16T12:14:23Z</time>
      </trkpt>
      <trkpt lat="46.49259" lon="5.33214">
        <ele>226.4</ele>
        <time>2022-05-16T12:14:27Z</time>
      </trkpt>
      <trkpt lat="46.49249" lon="5.33198">
        <ele>226.2</ele>
        <time>2022-05-16T12:14:29Z</time>
      </trkpt>
      <trkpt lat="46.49244" lon="5.33192">
        <ele>226</ele>
        <time>2022-05-16T12:14:30Z</time>
      </trkpt>
      <trkpt lat="46.49238" lon="5.33186">
        <ele>226</ele>
        <time>2022-05-16T12:14:31Z</time>
      </trkpt>
      <trkpt lat="46.49202" lon="5.33158">
        <ele>225</ele>
        <time>2022-05-16T12:14:36Z</time>
      </trkpt>
      <trkpt lat="46.49182" lon="5.3314">
        <ele>224.4</ele>
        <time>2022-05-16T12:14:39Z</time>
      </trkpt>
      <trkpt lat="46.4917" lon="5.33124">
        <ele>224</ele>
        <time>2022-05-16T12:14:41Z</time>
      </trkpt>
      <trkpt lat="46.49164" lon="5.33115">
        <ele>223.8</ele>
        <time>2022-05-16T12:14:42Z</time>
      </trkpt>
      <trkpt lat="46.49159" lon="5.33105">
        <ele>223.8</ele>
        <time>2022-05-16T12:14:43Z</time>
      </trkpt>
      <trkpt lat="46.49149" lon="5.33077">
        <ele>223.4</ele>
        <time>2022-05-16T12:14:46Z</time>
      </trkpt>
      <trkpt lat="46.49147" lon="5.33068">
        <ele>223.4</ele>
        <time>2022-05-16T12:14:47Z</time>
      </trkpt>
      <trkpt lat="46.49145" lon="5.33059">
        <ele>223.6</ele>
        <time>2022-05-16T12:14:48Z</time>
      </trkpt>
      <trkpt lat="46.49138" lon="5.33026">
        <ele>223.6</ele>
        <time>2022-05-16T12:14:51Z</time>
      </trkpt>
      <trkpt lat="46.49135" lon="5.33006">
        <ele>223.6</ele>
        <time>2022-05-16T12:14:53Z</time>
      </trkpt>
      <trkpt lat="46.49131" lon="5.32983">
        <ele>223.6</ele>
        <time>2022-05-16T12:14:55Z</time>
      </trkpt>
      <trkpt lat="46.4913" lon="5.32971">
        <ele>223.4</ele>
        <time>2022-05-16T12:14:56Z</time>
      </trkpt>
      <trkpt lat="46.49128" lon="5.32938">
        <ele>223.2</ele>
        <time>2022-05-16T12:14:59Z</time>
      </trkpt>
      <trkpt lat="46.49127" lon="5.32887">
        <ele>222.8</ele>
        <time>2022-05-16T12:15:03Z</time>
      </trkpt>
      <trkpt lat="46.49129" lon="5.32876">
        <ele>222.8</ele>
        <time>2022-05-16T12:15:04Z</time>
      </trkpt>
      <trkpt lat="46.49132" lon="5.32864">
        <ele>222.6</ele>
        <time>2022-05-16T12:15:05Z</time>
      </trkpt>
      <trkpt lat="46.49139" lon="5.32846">
        <ele>222.6</ele>
        <time>2022-05-16T12:15:07Z</time>
      </trkpt>
      <trkpt lat="46.49141" lon="5.32833">
        <ele>222.4</ele>
        <time>2022-05-16T12:15:08Z</time>
      </trkpt>
      <trkpt lat="46.49145" lon="5.32815">
        <ele>222.2</ele>
        <time>2022-05-16T12:15:10Z</time>
      </trkpt>
      <trkpt lat="46.49146" lon="5.32805">
        <ele>222.2</ele>
        <time>2022-05-16T12:15:11Z</time>
      </trkpt>
      <trkpt lat="46.49145" lon="5.32796">
        <ele>222.2</ele>
        <time>2022-05-16T12:15:12Z</time>
      </trkpt>
      <trkpt lat="46.4914" lon="5.32759">
        <ele>222.2</ele>
        <time>2022-05-16T12:15:16Z</time>
      </trkpt>
      <trkpt lat="46.49134" lon="5.32732">
        <ele>222.4</ele>
        <time>2022-05-16T12:15:19Z</time>
      </trkpt>
      <trkpt lat="46.49125" lon="5.3271">
        <ele>222.4</ele>
        <time>2022-05-16T12:15:21Z</time>
      </trkpt>
      <trkpt lat="46.49117" lon="5.32699">
        <ele>222.4</ele>
        <time>2022-05-16T12:15:23Z</time>
      </trkpt>
      <trkpt lat="46.4911" lon="5.32695">
        <ele>222.4</ele>
        <time>2022-05-16T12:15:24Z</time>
      </trkpt>
      <trkpt lat="46.49104" lon="5.32694">
        <ele>222.2</ele>
        <time>2022-05-16T12:15:25Z</time>
      </trkpt>
      <trkpt lat="46.49082" lon="5.32696">
        <ele>221.8</ele>
        <time>2022-05-16T12:15:28Z</time>
      </trkpt>
      <trkpt lat="46.49074" lon="5.32697">
        <ele>221.8</ele>
        <time>2022-05-16T12:15:29Z</time>
      </trkpt>
      <trkpt lat="46.4904" lon="5.32703">
        <ele>220.6</ele>
        <time>2022-05-16T12:15:33Z</time>
      </trkpt>
      <trkpt lat="46.49005" lon="5.3271">
        <ele>219.4</ele>
        <time>2022-05-16T12:15:37Z</time>
      </trkpt>
      <trkpt lat="46.48996" lon="5.32711">
        <ele>218.4</ele>
        <time>2022-05-16T12:15:38Z</time>
      </trkpt>
      <trkpt lat="46.48986" lon="5.32711">
        <ele>218.2</ele>
        <time>2022-05-16T12:15:39Z</time>
      </trkpt>
      <trkpt lat="46.48976" lon="5.3271">
        <ele>217.8</ele>
        <time>2022-05-16T12:15:40Z</time>
      </trkpt>
      <trkpt lat="46.48955" lon="5.32701">
        <ele>217</ele>
        <time>2022-05-16T12:15:42Z</time>
      </trkpt>
      <trkpt lat="46.48939" lon="5.32684">
        <ele>216.2</ele>
        <time>2022-05-16T12:15:44Z</time>
      </trkpt>
      <trkpt lat="46.48931" lon="5.32673">
        <ele>215.2</ele>
        <time>2022-05-16T12:15:45Z</time>
      </trkpt>
      <trkpt lat="46.48924" lon="5.32661">
        <ele>215</ele>
        <time>2022-05-16T12:15:46Z</time>
      </trkpt>
      <trkpt lat="46.48919" lon="5.32648">
        <ele>214.2</ele>
        <time>2022-05-16T12:15:47Z</time>
      </trkpt>
      <trkpt lat="46.48917" lon="5.32632">
        <ele>213.6</ele>
        <time>2022-05-16T12:15:48Z</time>
      </trkpt>
      <trkpt lat="46.48917" lon="5.32614">
        <ele>212.8</ele>
        <time>2022-05-16T12:15:49Z</time>
      </trkpt>
      <trkpt lat="46.48923" lon="5.326">
        <ele>212.6</ele>
        <time>2022-05-16T12:15:50Z</time>
      </trkpt>
      <trkpt lat="46.48931" lon="5.32588">
        <ele>211.6</ele>
        <time>2022-05-16T12:15:51Z</time>
      </trkpt>
      <trkpt lat="46.48947" lon="5.32564">
        <ele>210.2</ele>
        <time>2022-05-16T12:15:53Z</time>
      </trkpt>
      <trkpt lat="46.48954" lon="5.32536">
        <ele>209.4</ele>
        <time>2022-05-16T12:15:55Z</time>
      </trkpt>
      <trkpt lat="46.48954" lon="5.3252">
        <ele>209</ele>
        <time>2022-05-16T12:15:56Z</time>
      </trkpt>
      <trkpt lat="46.48952" lon="5.32507">
        <ele>208.6</ele>
        <time>2022-05-16T12:15:57Z</time>
      </trkpt>
      <trkpt lat="46.48946" lon="5.32483">
        <ele>208</ele>
        <time>2022-05-16T12:15:59Z</time>
      </trkpt>
      <trkpt lat="46.48938" lon="5.32461">
        <ele>206.8</ele>
        <time>2022-05-16T12:16:01Z</time>
      </trkpt>
      <trkpt lat="46.48924" lon="5.32413">
        <ele>206</ele>
        <time>2022-05-16T12:16:05Z</time>
      </trkpt>
      <trkpt lat="46.48917" lon="5.32384">
        <ele>206</ele>
        <time>2022-05-16T12:16:08Z</time>
      </trkpt>
      <trkpt lat="46.48914" lon="5.32374">
        <ele>206</ele>
        <time>2022-05-16T12:16:09Z</time>
      </trkpt>
      <trkpt lat="46.48901" lon="5.32342">
        <ele>206</ele>
        <time>2022-05-16T12:16:12Z</time>
      </trkpt>
      <trkpt lat="46.48896" lon="5.32333">
        <ele>206</ele>
        <time>2022-05-16T12:16:13Z</time>
      </trkpt>
      <trkpt lat="46.48875" lon="5.32299">
        <ele>207.2</ele>
        <time>2022-05-16T12:16:18Z</time>
      </trkpt>
      <trkpt lat="46.48865" lon="5.32285">
        <ele>208</ele>
        <time>2022-05-16T12:16:21Z</time>
      </trkpt>
      <trkpt lat="46.4886" lon="5.32277">
        <ele>208.6</ele>
        <time>2022-05-16T12:16:23Z</time>
      </trkpt>
      <trkpt lat="46.48854" lon="5.32267">
        <ele>209.2</ele>
        <time>2022-05-16T12:16:25Z</time>
      </trkpt>
      <trkpt lat="46.4884" lon="5.32244">
        <ele>210.2</ele>
        <time>2022-05-16T12:16:29Z</time>
      </trkpt>
      <trkpt lat="46.48834" lon="5.32229">
        <ele>211.2</ele>
        <time>2022-05-16T12:16:32Z</time>
      </trkpt>
      <trkpt lat="46.48832" lon="5.32221">
        <ele>211.8</ele>
        <time>2022-05-16T12:16:33Z</time>
      </trkpt>
      <trkpt lat="46.48831" lon="5.32213">
        <ele>212</ele>
        <time>2022-05-16T12:16:34Z</time>
      </trkpt>
      <trkpt lat="46.48828" lon="5.32197">
        <ele>212.4</ele>
        <time>2022-05-16T12:16:36Z</time>
      </trkpt>
      <trkpt lat="46.48824" lon="5.32159">
        <ele>212.4</ele>
        <time>2022-05-16T12:16:40Z</time>
      </trkpt>
      <trkpt lat="46.48825" lon="5.32132">
        <ele>212</ele>
        <time>2022-05-16T12:16:42Z</time>
      </trkpt>
      <trkpt lat="46.48826" lon="5.32122">
        <ele>211.6</ele>
        <time>2022-05-16T12:16:44Z</time>
      </trkpt>
      <trkpt lat="46.48829" lon="5.32104">
        <ele>211.4</ele>
        <time>2022-05-16T12:16:45Z</time>
      </trkpt>
      <trkpt lat="46.48839" lon="5.32051">
        <ele>210.2</ele>
        <time>2022-05-16T12:16:50Z</time>
      </trkpt>
      <trkpt lat="46.48841" lon="5.32041">
        <ele>210.2</ele>
        <time>2022-05-16T12:16:51Z</time>
      </trkpt>
      <trkpt lat="46.48849" lon="5.31975">
        <ele>209.2</ele>
        <time>2022-05-16T12:16:57Z</time>
      </trkpt>
      <trkpt lat="46.48849" lon="5.31964">
        <ele>209.2</ele>
        <time>2022-05-16T12:16:58Z</time>
      </trkpt>
      <trkpt lat="46.48844" lon="5.31907">
        <ele>208.8</ele>
        <time>2022-05-16T12:17:03Z</time>
      </trkpt>
      <trkpt lat="46.48841" lon="5.31885">
        <ele>208.4</ele>
        <time>2022-05-16T12:17:05Z</time>
      </trkpt>
      <trkpt lat="46.48838" lon="5.31874">
        <ele>208.2</ele>
        <time>2022-05-16T12:17:06Z</time>
      </trkpt>
      <trkpt lat="46.48833" lon="5.31865">
        <ele>208</ele>
        <time>2022-05-16T12:17:07Z</time>
      </trkpt>
      <trkpt lat="46.4882" lon="5.31852">
        <ele>207.8</ele>
        <time>2022-05-16T12:17:09Z</time>
      </trkpt>
      <trkpt lat="46.48812" lon="5.31849">
        <ele>207.8</ele>
        <time>2022-05-16T12:17:10Z</time>
      </trkpt>
      <trkpt lat="46.48804" lon="5.31846">
        <ele>207.6</ele>
        <time>2022-05-16T12:17:11Z</time>
      </trkpt>
      <trkpt lat="46.48797" lon="5.31841">
        <ele>207.6</ele>
        <time>2022-05-16T12:17:12Z</time>
      </trkpt>
      <trkpt lat="46.48785" lon="5.31828">
        <ele>207.6</ele>
        <time>2022-05-16T12:17:14Z</time>
      </trkpt>
      <trkpt lat="46.48781" lon="5.3181">
        <ele>207.6</ele>
        <time>2022-05-16T12:17:16Z</time>
      </trkpt>
      <trkpt lat="46.48778" lon="5.31756">
        <ele>207.6</ele>
        <time>2022-05-16T12:17:21Z</time>
      </trkpt>
      <trkpt lat="46.48777" lon="5.31745">
        <ele>207.6</ele>
        <time>2022-05-16T12:17:22Z</time>
      </trkpt>
      <trkpt lat="46.48774" lon="5.31725">
        <ele>207.6</ele>
        <time>2022-05-16T12:17:24Z</time>
      </trkpt>
      <trkpt lat="46.48771" lon="5.31716">
        <ele>207.8</ele>
        <time>2022-05-16T12:17:25Z</time>
      </trkpt>
      <trkpt lat="46.48768" lon="5.31708">
        <ele>207.8</ele>
        <time>2022-05-16T12:17:26Z</time>
      </trkpt>
      <trkpt lat="46.48759" lon="5.31696">
        <ele>207.8</ele>
        <time>2022-05-16T12:17:28Z</time>
      </trkpt>
      <trkpt lat="46.48725" lon="5.31654">
        <ele>208.2</ele>
        <time>2022-05-16T12:17:35Z</time>
      </trkpt>
      <trkpt lat="46.48695" lon="5.3162">
        <ele>209.2</ele>
        <time>2022-05-16T12:17:41Z</time>
      </trkpt>
      <trkpt lat="46.4869" lon="5.31613">
        <ele>209.4</ele>
        <time>2022-05-16T12:17:42Z</time>
      </trkpt>
      <trkpt lat="46.48679" lon="5.31598">
        <ele>209.6</ele>
        <time>2022-05-16T12:17:45Z</time>
      </trkpt>
      <trkpt lat="46.48665" lon="5.3158">
        <ele>209.4</ele>
        <time>2022-05-16T12:17:49Z</time>
      </trkpt>
      <trkpt lat="46.48661" lon="5.31575">
        <ele>209.4</ele>
        <time>2022-05-16T12:17:50Z</time>
      </trkpt>
      <trkpt lat="46.48649" lon="5.31563">
        <ele>209.4</ele>
        <time>2022-05-16T12:17:52Z</time>
      </trkpt>
      <trkpt lat="46.48639" lon="5.31555">
        <ele>209.4</ele>
        <time>2022-05-16T12:17:54Z</time>
      </trkpt>
      <trkpt lat="46.48614" lon="5.31519">
        <ele>209.4</ele>
        <time>2022-05-16T12:17:59Z</time>
      </trkpt>
      <trkpt lat="46.48612" lon="5.31511">
        <ele>209.2</ele>
        <time>2022-05-16T12:18:01Z</time>
      </trkpt>
      <trkpt lat="46.48612" lon="5.31494">
        <ele>209</ele>
        <time>2022-05-16T12:18:03Z</time>
      </trkpt>
      <trkpt lat="46.48611" lon="5.3147">
        <ele>209</ele>
        <time>2022-05-16T12:18:05Z</time>
      </trkpt>
      <trkpt lat="46.48609" lon="5.31455">
        <ele>208.8</ele>
        <time>2022-05-16T12:18:06Z</time>
      </trkpt>
      <trkpt lat="46.48607" lon="5.31444">
        <ele>208.8</ele>
        <time>2022-05-16T12:18:07Z</time>
      </trkpt>
      <trkpt lat="46.48601" lon="5.31424">
        <ele>208.8</ele>
        <time>2022-05-16T12:18:09Z</time>
      </trkpt>
      <trkpt lat="46.48585" lon="5.314">
        <ele>209</ele>
        <time>2022-05-16T12:18:14Z</time>
      </trkpt>
      <trkpt lat="46.48565" lon="5.31371">
        <ele>209.8</ele>
        <time>2022-05-16T12:18:19Z</time>
      </trkpt>
      <trkpt lat="46.48561" lon="5.31363">
        <ele>210</ele>
        <time>2022-05-16T12:18:20Z</time>
      </trkpt>
      <trkpt lat="46.48558" lon="5.3135">
        <ele>210.6</ele>
        <time>2022-05-16T12:18:22Z</time>
      </trkpt>
      <trkpt lat="46.48555" lon="5.31332">
        <ele>211.6</ele>
        <time>2022-05-16T12:18:25Z</time>
      </trkpt>
      <trkpt lat="46.48556" lon="5.31308">
        <ele>212.6</ele>
        <time>2022-05-16T12:18:29Z</time>
      </trkpt>
      <trkpt lat="46.48555" lon="5.31301">
        <ele>212.8</ele>
        <time>2022-05-16T12:18:30Z</time>
      </trkpt>
      <trkpt lat="46.48553" lon="5.31259">
        <ele>213.6</ele>
        <time>2022-05-16T12:18:36Z</time>
      </trkpt>
      <trkpt lat="46.48553" lon="5.31252">
        <ele>214</ele>
        <time>2022-05-16T12:18:37Z</time>
      </trkpt>
      <trkpt lat="46.48554" lon="5.31244">
        <ele>214</ele>
        <time>2022-05-16T12:18:38Z</time>
      </trkpt>
      <trkpt lat="46.48559" lon="5.31225">
        <ele>214.2</ele>
        <time>2022-05-16T12:18:41Z</time>
      </trkpt>
      <trkpt lat="46.48573" lon="5.31194">
        <ele>214.8</ele>
        <time>2022-05-16T12:18:46Z</time>
      </trkpt>
      <trkpt lat="46.48582" lon="5.31176">
        <ele>215</ele>
        <time>2022-05-16T12:18:49Z</time>
      </trkpt>
      <trkpt lat="46.4859" lon="5.31158">
        <ele>215.4</ele>
        <time>2022-05-16T12:18:52Z</time>
      </trkpt>
      <trkpt lat="46.48599" lon="5.31141">
        <ele>216</ele>
        <time>2022-05-16T12:18:55Z</time>
      </trkpt>
      <trkpt lat="46.48609" lon="5.31118">
        <ele>216.4</ele>
        <time>2022-05-16T12:18:59Z</time>
      </trkpt>
      <trkpt lat="46.48623" lon="5.31089">
        <ele>217.2</ele>
        <time>2022-05-16T12:19:04Z</time>
      </trkpt>
      <trkpt lat="46.48631" lon="5.31071">
        <ele>218</ele>
        <time>2022-05-16T12:19:07Z</time>
      </trkpt>
      <trkpt lat="46.48637" lon="5.31059">
        <ele>218.2</ele>
        <time>2022-05-16T12:19:09Z</time>
      </trkpt>
      <trkpt lat="46.48656" lon="5.3102">
        <ele>219.4</ele>
        <time>2022-05-16T12:19:16Z</time>
      </trkpt>
      <trkpt lat="46.48659" lon="5.31013">
        <ele>219.4</ele>
        <time>2022-05-16T12:19:17Z</time>
      </trkpt>
      <trkpt lat="46.48665" lon="5.31001">
        <ele>219.8</ele>
        <time>2022-05-16T12:19:19Z</time>
      </trkpt>
      <trkpt lat="46.48677" lon="5.30979">
        <ele>220.2</ele>
        <time>2022-05-16T12:19:23Z</time>
      </trkpt>
      <trkpt lat="46.48682" lon="5.30968">
        <ele>220.4</ele>
        <time>2022-05-16T12:19:25Z</time>
      </trkpt>
      <trkpt lat="46.48701" lon="5.30932">
        <ele>220.8</ele>
        <time>2022-05-16T12:19:30Z</time>
      </trkpt>
      <trkpt lat="46.4871" lon="5.30917">
        <ele>220.8</ele>
        <time>2022-05-16T12:19:32Z</time>
      </trkpt>
      <trkpt lat="46.48719" lon="5.30902">
        <ele>220.8</ele>
        <time>2022-05-16T12:19:34Z</time>
      </trkpt>
      <trkpt lat="46.48722" lon="5.30879">
        <ele>220.2</ele>
        <time>2022-05-16T12:19:36Z</time>
      </trkpt>
      <trkpt lat="46.48714" lon="5.30859">
        <ele>219.6</ele>
        <time>2022-05-16T12:19:38Z</time>
      </trkpt>
      <trkpt lat="46.4871" lon="5.30851">
        <ele>219.2</ele>
        <time>2022-05-16T12:19:39Z</time>
      </trkpt>
      <trkpt lat="46.48704" lon="5.30844">
        <ele>218.8</ele>
        <time>2022-05-16T12:19:40Z</time>
      </trkpt>
      <trkpt lat="46.48686" lon="5.30832">
        <ele>218.4</ele>
        <time>2022-05-16T12:19:42Z</time>
      </trkpt>
      <trkpt lat="46.48678" lon="5.30827">
        <ele>218.2</ele>
        <time>2022-05-16T12:19:44Z</time>
      </trkpt>
      <trkpt lat="46.48639" lon="5.30802">
        <ele>216.8</ele>
        <time>2022-05-16T12:19:49Z</time>
      </trkpt>
      <trkpt lat="46.48624" lon="5.30793">
        <ele>216.4</ele>
        <time>2022-05-16T12:19:51Z</time>
      </trkpt>
      <trkpt lat="46.48604" lon="5.30778">
        <ele>215.8</ele>
        <time>2022-05-16T12:19:54Z</time>
      </trkpt>
      <trkpt lat="46.48586" lon="5.30763">
        <ele>215.6</ele>
        <time>2022-05-16T12:19:57Z</time>
      </trkpt>
      <trkpt lat="46.48567" lon="5.30744">
        <ele>216</ele>
        <time>2022-05-16T12:20:01Z</time>
      </trkpt>
      <trkpt lat="46.48564" lon="5.30738">
        <ele>216.2</ele>
        <time>2022-05-16T12:20:02Z</time>
      </trkpt>
      <trkpt lat="46.48557" lon="5.30726">
        <ele>216.6</ele>
        <time>2022-05-16T12:20:04Z</time>
      </trkpt>
      <trkpt lat="46.48551" lon="5.30705">
        <ele>216.8</ele>
        <time>2022-05-16T12:20:07Z</time>
      </trkpt>
      <trkpt lat="46.48548" lon="5.3069">
        <ele>217</ele>
        <time>2022-05-16T12:20:09Z</time>
      </trkpt>
      <trkpt lat="46.48547" lon="5.30676">
        <ele>217.4</ele>
        <time>2022-05-16T12:20:11Z</time>
      </trkpt>
      <trkpt lat="46.48549" lon="5.30657">
        <ele>218</ele>
        <time>2022-05-16T12:20:14Z</time>
      </trkpt>
      <trkpt lat="46.48551" lon="5.30643">
        <ele>218.4</ele>
        <time>2022-05-16T12:20:16Z</time>
      </trkpt>
      <trkpt lat="46.48551" lon="5.30618">
        <ele>219.2</ele>
        <time>2022-05-16T12:20:20Z</time>
      </trkpt>
      <trkpt lat="46.48552" lon="5.30604">
        <ele>220</ele>
        <time>2022-05-16T12:20:22Z</time>
      </trkpt>
      <trkpt lat="46.48552" lon="5.30597">
        <ele>220.4</ele>
        <time>2022-05-16T12:20:23Z</time>
      </trkpt>
      <trkpt lat="46.48554" lon="5.30582">
        <ele>221</ele>
        <time>2022-05-16T12:20:25Z</time>
      </trkpt>
      <trkpt lat="46.48554" lon="5.3057">
        <ele>221.2</ele>
        <time>2022-05-16T12:20:27Z</time>
      </trkpt>
      <trkpt lat="46.48556" lon="5.30555">
        <ele>221.4</ele>
        <time>2022-05-16T12:20:29Z</time>
      </trkpt>
      <trkpt lat="46.48557" lon="5.30549">
        <ele>221.6</ele>
        <time>2022-05-16T12:20:30Z</time>
      </trkpt>
      <trkpt lat="46.48558" lon="5.30543">
        <ele>222</ele>
        <time>2022-05-16T12:20:31Z</time>
      </trkpt>
      <trkpt lat="46.48559" lon="5.30537">
        <ele>222</ele>
        <time>2022-05-16T12:20:32Z</time>
      </trkpt>
      <trkpt lat="46.48561" lon="5.30529">
        <ele>222.4</ele>
        <time>2022-05-16T12:20:33Z</time>
      </trkpt>
      <trkpt lat="46.48562" lon="5.30506">
        <ele>222.8</ele>
        <time>2022-05-16T12:20:36Z</time>
      </trkpt>
      <trkpt lat="46.48561" lon="5.30499">
        <ele>223</ele>
        <time>2022-05-16T12:20:37Z</time>
      </trkpt>
      <trkpt lat="46.48558" lon="5.30492">
        <ele>223.4</ele>
        <time>2022-05-16T12:20:38Z</time>
      </trkpt>
      <trkpt lat="46.48549" lon="5.30491">
        <ele>223.6</ele>
        <time>2022-05-16T12:20:40Z</time>
      </trkpt>
      <trkpt lat="46.48538" lon="5.30497">
        <ele>223.6</ele>
        <time>2022-05-16T12:20:41Z</time>
      </trkpt>
      <trkpt lat="46.48536" lon="5.30498">
        <ele>223.8</ele>
        <time>2022-05-16T12:20:42Z</time>
      </trkpt>
      <trkpt lat="46.48531" lon="5.305">
        <ele>223.8</ele>
        <time>2022-05-16T12:20:44Z</time>
      </trkpt>
      <trkpt lat="46.48526" lon="5.30504">
        <ele>223.8</ele>
        <time>2022-05-16T12:20:45Z</time>
      </trkpt>
      <trkpt lat="46.48503" lon="5.30523">
        <ele>224</ele>
        <time>2022-05-16T12:20:49Z</time>
      </trkpt>
      <trkpt lat="46.48472" lon="5.30552">
        <ele>224</ele>
        <time>2022-05-16T12:20:55Z</time>
      </trkpt>
      <trkpt lat="46.48461" lon="5.30563">
        <ele>224</ele>
        <time>2022-05-16T12:20:57Z</time>
      </trkpt>
      <trkpt lat="46.48438" lon="5.30586">
        <ele>223.8</ele>
        <time>2022-05-16T12:21:01Z</time>
      </trkpt>
      <trkpt lat="46.48432" lon="5.30592">
        <ele>223.6</ele>
        <time>2022-05-16T12:21:02Z</time>
      </trkpt>
      <trkpt lat="46.48408" lon="5.30615">
        <ele>223.2</ele>
        <time>2022-05-16T12:21:06Z</time>
      </trkpt>
      <trkpt lat="46.48384" lon="5.30638">
        <ele>223</ele>
        <time>2022-05-16T12:21:10Z</time>
      </trkpt>
      <trkpt lat="46.48359" lon="5.30662">
        <ele>222.6</ele>
        <time>2022-05-16T12:21:14Z</time>
      </trkpt>
      <trkpt lat="46.48322" lon="5.30692">
        <ele>221.8</ele>
        <time>2022-05-16T12:21:20Z</time>
      </trkpt>
      <trkpt lat="46.48308" lon="5.30697">
        <ele>221.8</ele>
        <time>2022-05-16T12:21:22Z</time>
      </trkpt>
      <trkpt lat="46.48301" lon="5.30699">
        <ele>221.8</ele>
        <time>2022-05-16T12:21:23Z</time>
      </trkpt>
      <trkpt lat="46.48286" lon="5.30699">
        <ele>221.6</ele>
        <time>2022-05-16T12:21:25Z</time>
      </trkpt>
      <trkpt lat="46.48246" lon="5.30688">
        <ele>221.6</ele>
        <time>2022-05-16T12:21:31Z</time>
      </trkpt>
      <trkpt lat="46.48234" lon="5.30685">
        <ele>221.8</ele>
        <time>2022-05-16T12:21:33Z</time>
      </trkpt>
      <trkpt lat="46.48216" lon="5.30684">
        <ele>222.2</ele>
        <time>2022-05-16T12:21:36Z</time>
      </trkpt>
      <trkpt lat="46.48196" lon="5.3069">
        <ele>222.8</ele>
        <time>2022-05-16T12:21:40Z</time>
      </trkpt>
      <trkpt lat="46.48183" lon="5.30695">
        <ele>222.8</ele>
        <time>2022-05-16T12:21:42Z</time>
      </trkpt>
      <trkpt lat="46.48157" lon="5.3071">
        <ele>223.8</ele>
        <time>2022-05-16T12:21:48Z</time>
      </trkpt>
      <trkpt lat="46.48147" lon="5.30715">
        <ele>224</ele>
        <time>2022-05-16T12:21:50Z</time>
      </trkpt>
      <trkpt lat="46.48127" lon="5.30726">
        <ele>224.8</ele>
        <time>2022-05-16T12:21:54Z</time>
      </trkpt>
      <trkpt lat="46.48102" lon="5.30741">
        <ele>225.2</ele>
        <time>2022-05-16T12:21:59Z</time>
      </trkpt>
      <trkpt lat="46.48065" lon="5.30762">
        <ele>225.6</ele>
        <time>2022-05-16T12:22:06Z</time>
      </trkpt>
      <trkpt lat="46.48028" lon="5.30781">
        <ele>225.6</ele>
        <time>2022-05-16T12:22:12Z</time>
      </trkpt>
      <trkpt lat="46.47974" lon="5.30809">
        <ele>225</ele>
        <time>2022-05-16T12:22:20Z</time>
      </trkpt>
      <trkpt lat="46.47952" lon="5.30816">
        <ele>224.4</ele>
        <time>2022-05-16T12:22:23Z</time>
      </trkpt>
      <trkpt lat="46.47938" lon="5.30817">
        <ele>224.2</ele>
        <time>2022-05-16T12:22:25Z</time>
      </trkpt>
      <trkpt lat="46.47931" lon="5.30816">
        <ele>224.2</ele>
        <time>2022-05-16T12:22:26Z</time>
      </trkpt>
      <trkpt lat="46.47915" lon="5.30812">
        <ele>224.2</ele>
        <time>2022-05-16T12:22:29Z</time>
      </trkpt>
      <trkpt lat="46.47899" lon="5.30806">
        <ele>224.8</ele>
        <time>2022-05-16T12:22:32Z</time>
      </trkpt>
      <trkpt lat="46.4789" lon="5.30804">
        <ele>225.2</ele>
        <time>2022-05-16T12:22:34Z</time>
      </trkpt>
      <trkpt lat="46.47876" lon="5.30801">
        <ele>226</ele>
        <time>2022-05-16T12:22:37Z</time>
      </trkpt>
      <trkpt lat="46.47858" lon="5.30798">
        <ele>227.2</ele>
        <time>2022-05-16T12:22:41Z</time>
      </trkpt>
      <trkpt lat="46.47853" lon="5.30798">
        <ele>227.4</ele>
        <time>2022-05-16T12:22:42Z</time>
      </trkpt>
      <trkpt lat="46.47845" lon="5.30801">
        <ele>228</ele>
        <time>2022-05-16T12:22:44Z</time>
      </trkpt>
      <trkpt lat="46.4784" lon="5.30802">
        <ele>228.2</ele>
        <time>2022-05-16T12:22:45Z</time>
      </trkpt>
      <trkpt lat="46.47836" lon="5.30805">
        <ele>228.6</ele>
        <time>2022-05-16T12:22:46Z</time>
      </trkpt>
      <trkpt lat="46.47829" lon="5.30811">
        <ele>228.8</ele>
        <time>2022-05-16T12:22:48Z</time>
      </trkpt>
      <trkpt lat="46.47821" lon="5.30818">
        <ele>229.4</ele>
        <time>2022-05-16T12:22:50Z</time>
      </trkpt>
      <trkpt lat="46.47813" lon="5.30826">
        <ele>230</ele>
        <time>2022-05-16T12:22:52Z</time>
      </trkpt>
      <trkpt lat="46.47811" lon="5.30829">
        <ele>230.4</ele>
        <time>2022-05-16T12:22:53Z</time>
      </trkpt>
      <trkpt lat="46.47803" lon="5.30841">
        <ele>230.6</ele>
        <time>2022-05-16T12:22:55Z</time>
      </trkpt>
      <trkpt lat="46.47778" lon="5.3088">
        <ele>231.6</ele>
        <time>2022-05-16T12:23:02Z</time>
      </trkpt>
      <trkpt lat="46.47773" lon="5.30886">
        <ele>231.6</ele>
        <time>2022-05-16T12:23:03Z</time>
      </trkpt>
      <trkpt lat="46.47757" lon="5.30899">
        <ele>231.6</ele>
        <time>2022-05-16T12:23:06Z</time>
      </trkpt>
      <trkpt lat="46.47748" lon="5.30903">
        <ele>231.6</ele>
        <time>2022-05-16T12:23:07Z</time>
      </trkpt>
      <trkpt lat="46.47733" lon="5.30906">
        <ele>231.4</ele>
        <time>2022-05-16T12:23:09Z</time>
      </trkpt>
      <trkpt lat="46.47725" lon="5.30905">
        <ele>231.2</ele>
        <time>2022-05-16T12:23:10Z</time>
      </trkpt>
      <trkpt lat="46.47695" lon="5.30897">
        <ele>230.2</ele>
        <time>2022-05-16T12:23:13Z</time>
      </trkpt>
      <trkpt lat="46.47687" lon="5.30893">
        <ele>229.6</ele>
        <time>2022-05-16T12:23:16Z</time>
      </trkpt>
      <trkpt lat="46.47675" lon="5.30889">
        <ele>229.2</ele>
        <time>2022-05-16T12:23:17Z</time>
      </trkpt>
      <trkpt lat="46.47652" lon="5.30888">
        <ele>228.4</ele>
        <time>2022-05-16T12:23:20Z</time>
      </trkpt>
      <trkpt lat="46.47642" lon="5.3089">
        <ele>228.2</ele>
        <time>2022-05-16T12:23:21Z</time>
      </trkpt>
      <trkpt lat="46.47618" lon="5.309">
        <ele>227.4</ele>
        <time>2022-05-16T12:23:24Z</time>
      </trkpt>
      <trkpt lat="46.4761" lon="5.30904">
        <ele>227.2</ele>
        <time>2022-05-16T12:23:25Z</time>
      </trkpt>
      <trkpt lat="46.47577" lon="5.30918">
        <ele>225.8</ele>
        <time>2022-05-16T12:23:29Z</time>
      </trkpt>
      <trkpt lat="46.47537" lon="5.30939">
        <ele>224.8</ele>
        <time>2022-05-16T12:23:34Z</time>
      </trkpt>
      <trkpt lat="46.47529" lon="5.30943">
        <ele>224.8</ele>
        <time>2022-05-16T12:23:35Z</time>
      </trkpt>
      <trkpt lat="46.47491" lon="5.30969">
        <ele>223.6</ele>
        <time>2022-05-16T12:23:40Z</time>
      </trkpt>
      <trkpt lat="46.47483" lon="5.30974">
        <ele>223.6</ele>
        <time>2022-05-16T12:23:41Z</time>
      </trkpt>
      <trkpt lat="46.47476" lon="5.30979">
        <ele>223.4</ele>
        <time>2022-05-16T12:23:42Z</time>
      </trkpt>
      <trkpt lat="46.47422" lon="5.31014">
        <ele>223.2</ele>
        <time>2022-05-16T12:23:50Z</time>
      </trkpt>
      <trkpt lat="46.47391" lon="5.31036">
        <ele>223.8</ele>
        <time>2022-05-16T12:23:56Z</time>
      </trkpt>
      <trkpt lat="46.47366" lon="5.31054">
        <ele>224.8</ele>
        <time>2022-05-16T12:24:01Z</time>
      </trkpt>
      <trkpt lat="46.47352" lon="5.31064">
        <ele>225.6</ele>
        <time>2022-05-16T12:24:04Z</time>
      </trkpt>
      <trkpt lat="46.47344" lon="5.31073">
        <ele>225.8</ele>
        <time>2022-05-16T12:24:06Z</time>
      </trkpt>
      <trkpt lat="46.4734" lon="5.31077">
        <ele>226</ele>
        <time>2022-05-16T12:24:07Z</time>
      </trkpt>
      <trkpt lat="46.47326" lon="5.31092">
        <ele>227</ele>
        <time>2022-05-16T12:24:10Z</time>
      </trkpt>
      <trkpt lat="46.47313" lon="5.31108">
        <ele>228</ele>
        <time>2022-05-16T12:24:13Z</time>
      </trkpt>
      <trkpt lat="46.47295" lon="5.31131">
        <ele>228.6</ele>
        <time>2022-05-16T12:24:17Z</time>
      </trkpt>
      <trkpt lat="46.47285" lon="5.31145">
        <ele>228.8</ele>
        <time>2022-05-16T12:24:19Z</time>
      </trkpt>
      <trkpt lat="46.47281" lon="5.31151">
        <ele>229</ele>
        <time>2022-05-16T12:24:20Z</time>
      </trkpt>
      <trkpt lat="46.47273" lon="5.31163">
        <ele>229.2</ele>
        <time>2022-05-16T12:24:22Z</time>
      </trkpt>
      <trkpt lat="46.47268" lon="5.31171">
        <ele>229.2</ele>
        <time>2022-05-16T12:24:23Z</time>
      </trkpt>
      <trkpt lat="46.47256" lon="5.31193">
        <ele>229.8</ele>
        <time>2022-05-16T12:24:26Z</time>
      </trkpt>
      <trkpt lat="46.47243" lon="5.31209">
        <ele>230.2</ele>
        <time>2022-05-16T12:24:29Z</time>
      </trkpt>
      <trkpt lat="46.4723" lon="5.31226">
        <ele>230.2</ele>
        <time>2022-05-16T12:24:32Z</time>
      </trkpt>
      <trkpt lat="46.47213" lon="5.31251">
        <ele>230.8</ele>
        <time>2022-05-16T12:24:36Z</time>
      </trkpt>
      <trkpt lat="46.472" lon="5.3127">
        <ele>231</ele>
        <time>2022-05-16T12:24:39Z</time>
      </trkpt>
      <trkpt lat="46.47196" lon="5.31275">
        <ele>231</ele>
        <time>2022-05-16T12:24:40Z</time>
      </trkpt>
      <trkpt lat="46.4718" lon="5.31298">
        <ele>231</ele>
        <time>2022-05-16T12:24:44Z</time>
      </trkpt>
      <trkpt lat="46.47165" lon="5.31323">
        <ele>231</ele>
        <time>2022-05-16T12:24:47Z</time>
      </trkpt>
      <trkpt lat="46.47156" lon="5.31335">
        <ele>231</ele>
        <time>2022-05-16T12:24:49Z</time>
      </trkpt>
      <trkpt lat="46.47145" lon="5.31353">
        <ele>231.2</ele>
        <time>2022-05-16T12:24:51Z</time>
      </trkpt>
      <trkpt lat="46.47143" lon="5.31357">
        <ele>231.4</ele>
        <time>2022-05-16T12:24:52Z</time>
      </trkpt>
      <trkpt lat="46.47135" lon="5.31369">
        <ele>231.8</ele>
        <time>2022-05-16T12:24:54Z</time>
      </trkpt>
      <trkpt lat="46.47126" lon="5.31384">
        <ele>232</ele>
        <time>2022-05-16T12:24:56Z</time>
      </trkpt>
      <trkpt lat="46.471" lon="5.31419">
        <ele>232.2</ele>
        <time>2022-05-16T12:25:02Z</time>
      </trkpt>
      <trkpt lat="46.47074" lon="5.3145">
        <ele>231.8</ele>
        <time>2022-05-16T12:25:07Z</time>
      </trkpt>
      <trkpt lat="46.47069" lon="5.31456">
        <ele>232</ele>
        <time>2022-05-16T12:25:08Z</time>
      </trkpt>
      <trkpt lat="46.47036" lon="5.315">
        <ele>232</ele>
        <time>2022-05-16T12:25:15Z</time>
      </trkpt>
      <trkpt lat="46.47018" lon="5.3152">
        <ele>231.6</ele>
        <time>2022-05-16T12:25:19Z</time>
      </trkpt>
      <trkpt lat="46.47006" lon="5.31533">
        <ele>231.8</ele>
        <time>2022-05-16T12:25:22Z</time>
      </trkpt>
      <trkpt lat="46.46976" lon="5.3157">
        <ele>231.8</ele>
        <time>2022-05-16T12:25:29Z</time>
      </trkpt>
      <trkpt lat="46.46951" lon="5.31603">
        <ele>232</ele>
        <time>2022-05-16T12:25:34Z</time>
      </trkpt>
      <trkpt lat="46.46941" lon="5.31616">
        <ele>232.2</ele>
        <time>2022-05-16T12:25:36Z</time>
      </trkpt>
      <trkpt lat="46.46937" lon="5.31623">
        <ele>232.2</ele>
        <time>2022-05-16T12:25:37Z</time>
      </trkpt>
      <trkpt lat="46.46934" lon="5.31629">
        <ele>232.4</ele>
        <time>2022-05-16T12:25:38Z</time>
      </trkpt>
      <trkpt lat="46.46914" lon="5.31653">
        <ele>233</ele>
        <time>2022-05-16T12:25:42Z</time>
      </trkpt>
      <trkpt lat="46.46905" lon="5.31664">
        <ele>233</ele>
        <time>2022-05-16T12:25:44Z</time>
      </trkpt>
      <trkpt lat="46.46899" lon="5.31671">
        <ele>233.2</ele>
        <time>2022-05-16T12:25:45Z</time>
      </trkpt>
      <trkpt lat="46.4689" lon="5.31682">
        <ele>233.2</ele>
        <time>2022-05-16T12:25:47Z</time>
      </trkpt>
      <trkpt lat="46.46888" lon="5.31685">
        <ele>233.2</ele>
        <time>2022-05-16T12:25:48Z</time>
      </trkpt>
      <trkpt lat="46.46871" lon="5.31705">
        <ele>233</ele>
        <time>2022-05-16T12:25:53Z</time>
      </trkpt>
      <trkpt lat="46.46851" lon="5.31727">
        <ele>232.8</ele>
        <time>2022-05-16T12:25:56Z</time>
      </trkpt>
      <trkpt lat="46.46812" lon="5.31773">
        <ele>232.2</ele>
        <time>2022-05-16T12:26:02Z</time>
      </trkpt>
      <trkpt lat="46.46788" lon="5.31803">
        <ele>231.4</ele>
        <time>2022-05-16T12:26:06Z</time>
      </trkpt>
      <trkpt lat="46.46776" lon="5.31817">
        <ele>231</ele>
        <time>2022-05-16T12:26:08Z</time>
      </trkpt>
      <trkpt lat="46.46744" lon="5.31854">
        <ele>230.6</ele>
        <time>2022-05-16T12:26:14Z</time>
      </trkpt>
      <trkpt lat="46.46708" lon="5.31884">
        <ele>230.4</ele>
        <time>2022-05-16T12:26:19Z</time>
      </trkpt>
      <trkpt lat="46.4666" lon="5.31924">
        <ele>230.6</ele>
        <time>2022-05-16T12:26:27Z</time>
      </trkpt>
      <trkpt lat="46.46655" lon="5.31929">
        <ele>230.6</ele>
        <time>2022-05-16T12:26:28Z</time>
      </trkpt>
      <trkpt lat="46.46625" lon="5.31967">
        <ele>231</ele>
        <time>2022-05-16T12:26:34Z</time>
      </trkpt>
      <trkpt lat="46.46593" lon="5.32022">
        <ele>231.4</ele>
        <time>2022-05-16T12:26:41Z</time>
      </trkpt>
      <trkpt lat="46.46556" lon="5.32088">
        <ele>231.6</ele>
        <time>2022-05-16T12:26:49Z</time>
      </trkpt>
      <trkpt lat="46.46521" lon="5.32151">
        <ele>231.6</ele>
        <time>2022-05-16T12:26:57Z</time>
      </trkpt>
      <trkpt lat="46.46484" lon="5.32221">
        <ele>232</ele>
        <time>2022-05-16T12:27:06Z</time>
      </trkpt>
      <trkpt lat="46.46447" lon="5.32289">
        <ele>232.2</ele>
        <time>2022-05-16T12:27:15Z</time>
      </trkpt>
      <trkpt lat="46.46442" lon="5.32297">
        <ele>232.2</ele>
        <time>2022-05-16T12:27:16Z</time>
      </trkpt>
      <trkpt lat="46.46426" lon="5.32327">
        <ele>232.2</ele>
        <time>2022-05-16T12:27:20Z</time>
      </trkpt>
      <trkpt lat="46.46393" lon="5.32387">
        <ele>232.6</ele>
        <time>2022-05-16T12:27:28Z</time>
      </trkpt>
      <trkpt lat="46.4637" lon="5.32447">
        <ele>232.8</ele>
        <time>2022-05-16T12:27:35Z</time>
      </trkpt>
      <trkpt lat="46.4636" lon="5.32474">
        <ele>232.8</ele>
        <time>2022-05-16T12:27:38Z</time>
      </trkpt>
      <trkpt lat="46.46345" lon="5.32508">
        <ele>232.8</ele>
        <time>2022-05-16T12:27:42Z</time>
      </trkpt>
      <trkpt lat="46.46326" lon="5.32564">
        <ele>232.6</ele>
        <time>2022-05-16T12:27:48Z</time>
      </trkpt>
      <trkpt lat="46.46318" lon="5.32626">
        <ele>232.6</ele>
        <time>2022-05-16T12:27:54Z</time>
      </trkpt>
      <trkpt lat="46.46319" lon="5.32711">
        <ele>232.2</ele>
        <time>2022-05-16T12:28:02Z</time>
      </trkpt>
      <trkpt lat="46.46314" lon="5.32772">
        <ele>232.2</ele>
        <time>2022-05-16T12:28:08Z</time>
      </trkpt>
      <trkpt lat="46.46307" lon="5.32791">
        <ele>232.2</ele>
        <time>2022-05-16T12:28:10Z</time>
      </trkpt>
      <trkpt lat="46.46299" lon="5.32808">
        <ele>232.2</ele>
        <time>2022-05-16T12:28:12Z</time>
      </trkpt>
      <trkpt lat="46.46262" lon="5.32857">
        <ele>232.6</ele>
        <time>2022-05-16T12:28:19Z</time>
      </trkpt>
      <trkpt lat="46.46242" lon="5.32888">
        <ele>233.4</ele>
        <time>2022-05-16T12:28:23Z</time>
      </trkpt>
      <trkpt lat="46.46215" lon="5.32927">
        <ele>233.6</ele>
        <time>2022-05-16T12:28:28Z</time>
      </trkpt>
      <trkpt lat="46.46191" lon="5.32955">
        <ele>233.4</ele>
        <time>2022-05-16T12:28:32Z</time>
      </trkpt>
      <trkpt lat="46.46185" lon="5.3296">
        <ele>233.4</ele>
        <time>2022-05-16T12:28:33Z</time>
      </trkpt>
      <trkpt lat="46.46178" lon="5.32964">
        <ele>233.4</ele>
        <time>2022-05-16T12:28:34Z</time>
      </trkpt>
      <trkpt lat="46.4614" lon="5.32988">
        <ele>233.4</ele>
        <time>2022-05-16T12:28:40Z</time>
      </trkpt>
      <trkpt lat="46.46106" lon="5.33006">
        <ele>234</ele>
        <time>2022-05-16T12:28:46Z</time>
      </trkpt>
      <trkpt lat="46.4609" lon="5.33016">
        <ele>234.4</ele>
        <time>2022-05-16T12:28:49Z</time>
      </trkpt>
      <trkpt lat="46.46085" lon="5.3302">
        <ele>234.6</ele>
        <time>2022-05-16T12:28:50Z</time>
      </trkpt>
      <trkpt lat="46.46074" lon="5.33029">
        <ele>234.6</ele>
        <time>2022-05-16T12:28:52Z</time>
      </trkpt>
      <trkpt lat="46.46036" lon="5.33065">
        <ele>234.4</ele>
        <time>2022-05-16T12:28:59Z</time>
      </trkpt>
      <trkpt lat="46.45991" lon="5.3311">
        <ele>234.2</ele>
        <time>2022-05-16T12:29:07Z</time>
      </trkpt>
      <trkpt lat="46.45947" lon="5.33155">
        <ele>234.4</ele>
        <time>2022-05-16T12:29:16Z</time>
      </trkpt>
      <trkpt lat="46.45935" lon="5.33168">
        <ele>234.4</ele>
        <time>2022-05-16T12:29:18Z</time>
      </trkpt>
      <trkpt lat="46.45891" lon="5.33216">
        <ele>234.8</ele>
        <time>2022-05-16T12:29:27Z</time>
      </trkpt>
      <trkpt lat="46.45851" lon="5.33268">
        <ele>235</ele>
        <time>2022-05-16T12:29:36Z</time>
      </trkpt>
      <trkpt lat="46.45821" lon="5.33324">
        <ele>235.2</ele>
        <time>2022-05-16T12:29:44Z</time>
      </trkpt>
      <trkpt lat="46.45805" lon="5.33353">
        <ele>235.6</ele>
        <time>2022-05-16T12:29:48Z</time>
      </trkpt>
      <trkpt lat="46.4579" lon="5.33383">
        <ele>235.8</ele>
        <time>2022-05-16T12:29:52Z</time>
      </trkpt>
      <trkpt lat="46.45761" lon="5.33449">
        <ele>236.4</ele>
        <time>2022-05-16T12:30:01Z</time>
      </trkpt>
      <trkpt lat="46.45755" lon="5.33464">
        <ele>236.8</ele>
        <time>2022-05-16T12:30:03Z</time>
      </trkpt>
      <trkpt lat="46.45746" lon="5.33486">
        <ele>237.2</ele>
        <time>2022-05-16T12:30:06Z</time>
      </trkpt>
      <trkpt lat="46.45742" lon="5.33495">
        <ele>237.4</ele>
        <time>2022-05-16T12:30:07Z</time>
      </trkpt>
      <trkpt lat="46.4574" lon="5.33503">
        <ele>237.4</ele>
        <time>2022-05-16T12:30:08Z</time>
      </trkpt>
      <trkpt lat="46.45734" lon="5.3352">
        <ele>237.8</ele>
        <time>2022-05-16T12:30:10Z</time>
      </trkpt>
      <trkpt lat="46.45731" lon="5.33527">
        <ele>237.8</ele>
        <time>2022-05-16T12:30:11Z</time>
      </trkpt>
      <trkpt lat="46.45724" lon="5.33545">
        <ele>238</ele>
        <time>2022-05-16T12:30:12Z</time>
      </trkpt>
      <trkpt lat="46.45711" lon="5.33574">
        <ele>238.6</ele>
        <time>2022-05-16T12:30:17Z</time>
      </trkpt>
      <trkpt lat="46.45702" lon="5.33594">
        <ele>239</ele>
        <time>2022-05-16T12:30:20Z</time>
      </trkpt>
      <trkpt lat="46.45686" lon="5.33628">
        <ele>239.4</ele>
        <time>2022-05-16T12:30:25Z</time>
      </trkpt>
      <trkpt lat="46.45677" lon="5.33651">
        <ele>240</ele>
        <time>2022-05-16T12:30:28Z</time>
      </trkpt>
      <trkpt lat="46.45666" lon="5.33682">
        <ele>240.2</ele>
        <time>2022-05-16T12:30:32Z</time>
      </trkpt>
      <trkpt lat="46.45663" lon="5.3369">
        <ele>240.2</ele>
        <time>2022-05-16T12:30:33Z</time>
      </trkpt>
      <trkpt lat="46.45656" lon="5.33704">
        <ele>240.4</ele>
        <time>2022-05-16T12:30:35Z</time>
      </trkpt>
      <trkpt lat="46.4565" lon="5.3372">
        <ele>240.8</ele>
        <time>2022-05-16T12:30:37Z</time>
      </trkpt>
      <trkpt lat="46.45647" lon="5.33727">
        <ele>241</ele>
        <time>2022-05-16T12:30:38Z</time>
      </trkpt>
      <trkpt lat="46.45629" lon="5.3377">
        <ele>242</ele>
        <time>2022-05-16T12:30:44Z</time>
      </trkpt>
      <trkpt lat="46.45612" lon="5.33812">
        <ele>242.8</ele>
        <time>2022-05-16T12:30:50Z</time>
      </trkpt>
      <trkpt lat="46.45607" lon="5.33825">
        <ele>243.2</ele>
        <time>2022-05-16T12:30:52Z</time>
      </trkpt>
      <trkpt lat="46.45592" lon="5.33857">
        <ele>244.2</ele>
        <time>2022-05-16T12:30:57Z</time>
      </trkpt>
      <trkpt lat="46.45589" lon="5.33864">
        <ele>244.4</ele>
        <time>2022-05-16T12:30:58Z</time>
      </trkpt>
      <trkpt lat="46.45575" lon="5.33899">
        <ele>245.6</ele>
        <time>2022-05-16T12:31:04Z</time>
      </trkpt>
      <trkpt lat="46.45573" lon="5.33905">
        <ele>245.8</ele>
        <time>2022-05-16T12:31:05Z</time>
      </trkpt>
      <trkpt lat="46.4557" lon="5.33911">
        <ele>246</ele>
        <time>2022-05-16T12:31:06Z</time>
      </trkpt>
      <trkpt lat="46.45558" lon="5.33935">
        <ele>246.4</ele>
        <time>2022-05-16T12:31:10Z</time>
      </trkpt>
      <trkpt lat="46.45555" lon="5.33941">
        <ele>246.4</ele>
        <time>2022-05-16T12:31:11Z</time>
      </trkpt>
      <trkpt lat="46.45539" lon="5.33968">
        <ele>247.4</ele>
        <time>2022-05-16T12:31:16Z</time>
      </trkpt>
      <trkpt lat="46.45529" lon="5.33982">
        <ele>248</ele>
        <time>2022-05-16T12:31:19Z</time>
      </trkpt>
      <trkpt lat="46.45519" lon="5.33994">
        <ele>248.6</ele>
        <time>2022-05-16T12:31:22Z</time>
      </trkpt>
      <trkpt lat="46.45503" lon="5.34007">
        <ele>249.4</ele>
        <time>2022-05-16T12:31:26Z</time>
      </trkpt>
      <trkpt lat="46.45499" lon="5.3401">
        <ele>249.8</ele>
        <time>2022-05-16T12:31:27Z</time>
      </trkpt>
      <trkpt lat="46.45478" lon="5.34024">
        <ele>250.8</ele>
        <time>2022-05-16T12:31:32Z</time>
      </trkpt>
      <trkpt lat="46.45474" lon="5.34028">
        <ele>250.8</ele>
        <time>2022-05-16T12:31:33Z</time>
      </trkpt>
      <trkpt lat="46.4547" lon="5.3403">
        <ele>251</ele>
        <time>2022-05-16T12:31:34Z</time>
      </trkpt>
      <trkpt lat="46.45462" lon="5.34036">
        <ele>251.4</ele>
        <time>2022-05-16T12:31:36Z</time>
      </trkpt>
      <trkpt lat="46.45454" lon="5.34041">
        <ele>251.8</ele>
        <time>2022-05-16T12:31:38Z</time>
      </trkpt>
      <trkpt lat="46.45447" lon="5.34046">
        <ele>252.2</ele>
        <time>2022-05-16T12:31:40Z</time>
      </trkpt>
      <trkpt lat="46.45443" lon="5.34047">
        <ele>252.6</ele>
        <time>2022-05-16T12:31:41Z</time>
      </trkpt>
      <trkpt lat="46.4543" lon="5.34051">
        <ele>253.2</ele>
        <time>2022-05-16T12:31:44Z</time>
      </trkpt>
      <trkpt lat="46.45425" lon="5.34052">
        <ele>253.6</ele>
        <time>2022-05-16T12:31:45Z</time>
      </trkpt>
      <trkpt lat="46.45421" lon="5.34053">
        <ele>253.6</ele>
        <time>2022-05-16T12:31:46Z</time>
      </trkpt>
      <trkpt lat="46.454" lon="5.34052">
        <ele>254.4</ele>
        <time>2022-05-16T12:31:50Z</time>
      </trkpt>
      <trkpt lat="46.45379" lon="5.34058">
        <ele>254.8</ele>
        <time>2022-05-16T12:31:54Z</time>
      </trkpt>
      <trkpt lat="46.45368" lon="5.34059">
        <ele>255</ele>
        <time>2022-05-16T12:31:56Z</time>
      </trkpt>
      <trkpt lat="46.45363" lon="5.34058">
        <ele>255.2</ele>
        <time>2022-05-16T12:31:57Z</time>
      </trkpt>
      <trkpt lat="46.45358" lon="5.34059">
        <ele>255.4</ele>
        <time>2022-05-16T12:31:58Z</time>
      </trkpt>
      <trkpt lat="46.45353" lon="5.34059">
        <ele>255.6</ele>
        <time>2022-05-16T12:31:59Z</time>
      </trkpt>
      <trkpt lat="46.45349" lon="5.34059">
        <ele>255.6</ele>
        <time>2022-05-16T12:32:00Z</time>
      </trkpt>
      <trkpt lat="46.4534" lon="5.34061">
        <ele>256</ele>
        <time>2022-05-16T12:32:02Z</time>
      </trkpt>
      <trkpt lat="46.45325" lon="5.34066">
        <ele>256.6</ele>
        <time>2022-05-16T12:32:05Z</time>
      </trkpt>
      <trkpt lat="46.45305" lon="5.34068">
        <ele>257.2</ele>
        <time>2022-05-16T12:32:09Z</time>
      </trkpt>
      <trkpt lat="46.45276" lon="5.34075">
        <ele>257.4</ele>
        <time>2022-05-16T12:32:14Z</time>
      </trkpt>
      <trkpt lat="46.45276" lon="5.34075">
        <ele>257.8</ele>
        <time>2022-05-16T12:32:15Z</time>
      </trkpt>
      <trkpt lat="46.45233" lon="5.34083">
        <ele>257.4</ele>
        <time>2022-05-16T12:32:23Z</time>
      </trkpt>
      <trkpt lat="46.45189" lon="5.34092">
        <ele>258.2</ele>
        <time>2022-05-16T12:32:32Z</time>
      </trkpt>
      <trkpt lat="46.4517" lon="5.34096">
        <ele>258.6</ele>
        <time>2022-05-16T12:32:36Z</time>
      </trkpt>
      <trkpt lat="46.45145" lon="5.341">
        <ele>259</ele>
        <time>2022-05-16T12:32:41Z</time>
      </trkpt>
      <trkpt lat="46.45096" lon="5.34112">
        <ele>259.4</ele>
        <time>2022-05-16T12:32:50Z</time>
      </trkpt>
      <trkpt lat="46.45044" lon="5.34119">
        <ele>258.8</ele>
        <time>2022-05-16T12:32:58Z</time>
      </trkpt>
      <trkpt lat="46.45" lon="5.34117">
        <ele>258</ele>
        <time>2022-05-16T12:33:04Z</time>
      </trkpt>
      <trkpt lat="46.44975" lon="5.34111">
        <ele>257.2</ele>
        <time>2022-05-16T12:33:07Z</time>
      </trkpt>
      <trkpt lat="46.44942" lon="5.34101">
        <ele>256</ele>
        <time>2022-05-16T12:33:11Z</time>
      </trkpt>
      <trkpt lat="46.44916" lon="5.34093">
        <ele>254.8</ele>
        <time>2022-05-16T12:33:14Z</time>
      </trkpt>
      <trkpt lat="46.4489" lon="5.34087">
        <ele>253.8</ele>
        <time>2022-05-16T12:33:17Z</time>
      </trkpt>
      <trkpt lat="46.44872" lon="5.34086">
        <ele>253.2</ele>
        <time>2022-05-16T12:33:19Z</time>
      </trkpt>
      <trkpt lat="46.44854" lon="5.3409">
        <ele>252.6</ele>
        <time>2022-05-16T12:33:21Z</time>
      </trkpt>
      <trkpt lat="46.44836" lon="5.341">
        <ele>251.6</ele>
        <time>2022-05-16T12:33:23Z</time>
      </trkpt>
      <trkpt lat="46.44814" lon="5.34124">
        <ele>250.2</ele>
        <time>2022-05-16T12:33:26Z</time>
      </trkpt>
      <trkpt lat="46.44806" lon="5.34133">
        <ele>250</ele>
        <time>2022-05-16T12:33:27Z</time>
      </trkpt>
      <trkpt lat="46.448" lon="5.34142">
        <ele>249.6</ele>
        <time>2022-05-16T12:33:28Z</time>
      </trkpt>
      <trkpt lat="46.44791" lon="5.34164">
        <ele>249</ele>
        <time>2022-05-16T12:33:30Z</time>
      </trkpt>
      <trkpt lat="46.44769" lon="5.34216">
        <ele>247.8</ele>
        <time>2022-05-16T12:33:34Z</time>
      </trkpt>
      <trkpt lat="46.44757" lon="5.34239">
        <ele>247.2</ele>
        <time>2022-05-16T12:33:36Z</time>
      </trkpt>
      <trkpt lat="46.4475" lon="5.3425">
        <ele>246.6</ele>
        <time>2022-05-16T12:33:37Z</time>
      </trkpt>
      <trkpt lat="46.44742" lon="5.34259">
        <ele>246.2</ele>
        <time>2022-05-16T12:33:38Z</time>
      </trkpt>
      <trkpt lat="46.44724" lon="5.34274">
        <ele>245.4</ele>
        <time>2022-05-16T12:33:40Z</time>
      </trkpt>
      <trkpt lat="46.44704" lon="5.34281">
        <ele>244.4</ele>
        <time>2022-05-16T12:33:42Z</time>
      </trkpt>
      <trkpt lat="46.44694" lon="5.3428">
        <ele>244.2</ele>
        <time>2022-05-16T12:33:43Z</time>
      </trkpt>
      <trkpt lat="46.44676" lon="5.34281">
        <ele>243.4</ele>
        <time>2022-05-16T12:33:45Z</time>
      </trkpt>
      <trkpt lat="46.4467" lon="5.34286">
        <ele>242.8</ele>
        <time>2022-05-16T12:33:46Z</time>
      </trkpt>
      <trkpt lat="46.44665" lon="5.34293">
        <ele>242.2</ele>
        <time>2022-05-16T12:33:47Z</time>
      </trkpt>
      <trkpt lat="46.44654" lon="5.34305">
        <ele>241.2</ele>
        <time>2022-05-16T12:33:49Z</time>
      </trkpt>
      <trkpt lat="46.44641" lon="5.34302">
        <ele>240.2</ele>
        <time>2022-05-16T12:33:51Z</time>
      </trkpt>
      <trkpt lat="46.44635" lon="5.34297">
        <ele>240</ele>
        <time>2022-05-16T12:33:52Z</time>
      </trkpt>
      <trkpt lat="46.44611" lon="5.34275">
        <ele>238.8</ele>
        <time>2022-05-16T12:33:56Z</time>
      </trkpt>
      <trkpt lat="46.44605" lon="5.34269">
        <ele>238.6</ele>
        <time>2022-05-16T12:33:57Z</time>
      </trkpt>
      <trkpt lat="46.44591" lon="5.34259">
        <ele>238.2</ele>
        <time>2022-05-16T12:33:59Z</time>
      </trkpt>
      <trkpt lat="46.44568" lon="5.34249">
        <ele>238</ele>
        <time>2022-05-16T12:34:02Z</time>
      </trkpt>
      <trkpt lat="46.4456" lon="5.34244">
        <ele>237.8</ele>
        <time>2022-05-16T12:34:03Z</time>
      </trkpt>
      <trkpt lat="46.44554" lon="5.34237">
        <ele>237.8</ele>
        <time>2022-05-16T12:34:04Z</time>
      </trkpt>
      <trkpt lat="46.44549" lon="5.34228">
        <ele>237.6</ele>
        <time>2022-05-16T12:34:05Z</time>
      </trkpt>
      <trkpt lat="46.44545" lon="5.34206">
        <ele>237.6</ele>
        <time>2022-05-16T12:34:07Z</time>
      </trkpt>
      <trkpt lat="46.44545" lon="5.34181">
        <ele>237</ele>
        <time>2022-05-16T12:34:09Z</time>
      </trkpt>
      <trkpt lat="46.44543" lon="5.34168">
        <ele>236.6</ele>
        <time>2022-05-16T12:34:10Z</time>
      </trkpt>
      <trkpt lat="46.44541" lon="5.34156">
        <ele>236.4</ele>
        <time>2022-05-16T12:34:11Z</time>
      </trkpt>
      <trkpt lat="46.44528" lon="5.34106">
        <ele>235.4</ele>
        <time>2022-05-16T12:34:15Z</time>
      </trkpt>
      <trkpt lat="46.44518" lon="5.34072">
        <ele>234.6</ele>
        <time>2022-05-16T12:34:18Z</time>
      </trkpt>
      <trkpt lat="46.44513" lon="5.34062">
        <ele>234.4</ele>
        <time>2022-05-16T12:34:19Z</time>
      </trkpt>
      <trkpt lat="46.44492" lon="5.34015">
        <ele>233.4</ele>
        <time>2022-05-16T12:34:24Z</time>
      </trkpt>
      <trkpt lat="46.4448" lon="5.33997">
        <ele>233.2</ele>
        <time>2022-05-16T12:34:26Z</time>
      </trkpt>
      <trkpt lat="46.44462" lon="5.33974">
        <ele>233</ele>
        <time>2022-05-16T12:34:29Z</time>
      </trkpt>
      <trkpt lat="46.44449" lon="5.33962">
        <ele>232.6</ele>
        <time>2022-05-16T12:34:31Z</time>
      </trkpt>
      <trkpt lat="46.44421" lon="5.33941">
        <ele>232.2</ele>
        <time>2022-05-16T12:34:35Z</time>
      </trkpt>
      <trkpt lat="46.44387" lon="5.33912">
        <ele>231.2</ele>
        <time>2022-05-16T12:34:40Z</time>
      </trkpt>
      <trkpt lat="46.44381" lon="5.33905">
        <ele>231</ele>
        <time>2022-05-16T12:34:41Z</time>
      </trkpt>
      <trkpt lat="46.44353" lon="5.33867">
        <ele>230.2</ele>
        <time>2022-05-16T12:34:46Z</time>
      </trkpt>
      <trkpt lat="46.44311" lon="5.33815">
        <ele>229.8</ele>
        <time>2022-05-16T12:34:53Z</time>
      </trkpt>
      <trkpt lat="46.44306" lon="5.33808">
        <ele>229.8</ele>
        <time>2022-05-16T12:34:54Z</time>
      </trkpt>
      <trkpt lat="46.44282" lon="5.33788">
        <ele>229.6</ele>
        <time>2022-05-16T12:34:58Z</time>
      </trkpt>
      <trkpt lat="46.44263" lon="5.33773">
        <ele>229.6</ele>
        <time>2022-05-16T12:35:01Z</time>
      </trkpt>
      <trkpt lat="46.44217" lon="5.33742">
        <ele>229.2</ele>
        <time>2022-05-16T12:35:08Z</time>
      </trkpt>
      <trkpt lat="46.44191" lon="5.33721">
        <ele>229</ele>
        <time>2022-05-16T12:35:12Z</time>
      </trkpt>
      <trkpt lat="46.44167" lon="5.33697">
        <ele>228.8</ele>
        <time>2022-05-16T12:35:16Z</time>
      </trkpt>
      <trkpt lat="46.44127" lon="5.33651">
        <ele>228.4</ele>
        <time>2022-05-16T12:35:23Z</time>
      </trkpt>
      <trkpt lat="46.44087" lon="5.33604">
        <ele>228.2</ele>
        <time>2022-05-16T12:35:30Z</time>
      </trkpt>
      <trkpt lat="46.44082" lon="5.33596">
        <ele>228.2</ele>
        <time>2022-05-16T12:35:31Z</time>
      </trkpt>
      <trkpt lat="46.44071" lon="5.3356">
        <ele>228</ele>
        <time>2022-05-16T12:35:35Z</time>
      </trkpt>
      <trkpt lat="46.44067" lon="5.33541">
        <ele>228</ele>
        <time>2022-05-16T12:35:37Z</time>
      </trkpt>
      <trkpt lat="46.44059" lon="5.33525">
        <ele>227.6</ele>
        <time>2022-05-16T12:35:39Z</time>
      </trkpt>
      <trkpt lat="46.44046" lon="5.33517">
        <ele>227.4</ele>
        <time>2022-05-16T12:35:41Z</time>
      </trkpt>
      <trkpt lat="46.44038" lon="5.33514">
        <ele>227.4</ele>
        <time>2022-05-16T12:35:42Z</time>
      </trkpt>
      <trkpt lat="46.44018" lon="5.33508">
        <ele>227.2</ele>
        <time>2022-05-16T12:35:45Z</time>
      </trkpt>
      <trkpt lat="46.43984" lon="5.33493">
        <ele>226.8</ele>
        <time>2022-05-16T12:35:50Z</time>
      </trkpt>
      <trkpt lat="46.43932" lon="5.3346">
        <ele>226.8</ele>
        <time>2022-05-16T12:35:58Z</time>
      </trkpt>
      <trkpt lat="46.43891" lon="5.3344">
        <ele>226.4</ele>
        <time>2022-05-16T12:36:04Z</time>
      </trkpt>
      <trkpt lat="46.43877" lon="5.33436">
        <ele>226.2</ele>
        <time>2022-05-16T12:36:05Z</time>
      </trkpt>
      <trkpt lat="46.43877" lon="5.33436">
        <ele>226.2</ele>
        <time>2022-05-16T12:36:06Z</time>
      </trkpt>
      <trkpt lat="46.43848" lon="5.33431">
        <ele>225.8</ele>
        <time>2022-05-16T12:36:10Z</time>
      </trkpt>
      <trkpt lat="46.4379" lon="5.33434">
        <ele>225.6</ele>
        <time>2022-05-16T12:36:17Z</time>
      </trkpt>
      <trkpt lat="46.43732" lon="5.33443">
        <ele>225.4</ele>
        <time>2022-05-16T12:36:25Z</time>
      </trkpt>
      <trkpt lat="46.43688" lon="5.33447">
        <ele>225.4</ele>
        <time>2022-05-16T12:36:31Z</time>
      </trkpt>
      <trkpt lat="46.43633" lon="5.33449">
        <ele>225.2</ele>
        <time>2022-05-16T12:36:39Z</time>
      </trkpt>
      <trkpt lat="46.43627" lon="5.33449">
        <ele>225.2</ele>
        <time>2022-05-16T12:36:40Z</time>
      </trkpt>
      <trkpt lat="46.43614" lon="5.3345">
        <ele>224.8</ele>
        <time>2022-05-16T12:36:42Z</time>
      </trkpt>
      <trkpt lat="46.43584" lon="5.33448">
        <ele>225.4</ele>
        <time>2022-05-16T12:36:47Z</time>
      </trkpt>
      <trkpt lat="46.43542" lon="5.33447">
        <ele>226</ele>
        <time>2022-05-16T12:36:55Z</time>
      </trkpt>
      <trkpt lat="46.43525" lon="5.33458">
        <ele>226.2</ele>
        <time>2022-05-16T12:36:57Z</time>
      </trkpt>
      <trkpt lat="46.43519" lon="5.33464">
        <ele>226</ele>
        <time>2022-05-16T12:36:58Z</time>
      </trkpt>
      <trkpt lat="46.43484" lon="5.33509">
        <ele>225.8</ele>
        <time>2022-05-16T12:37:05Z</time>
      </trkpt>
      <trkpt lat="46.43475" lon="5.33524">
        <ele>225.6</ele>
        <time>2022-05-16T12:37:07Z</time>
      </trkpt>
      <trkpt lat="46.43463" lon="5.33547">
        <ele>225.8</ele>
        <time>2022-05-16T12:37:10Z</time>
      </trkpt>
      <trkpt lat="46.43456" lon="5.33573">
        <ele>225.8</ele>
        <time>2022-05-16T12:37:13Z</time>
      </trkpt>
      <trkpt lat="46.43454" lon="5.3359">
        <ele>226</ele>
        <time>2022-05-16T12:37:15Z</time>
      </trkpt>
      <trkpt lat="46.43454" lon="5.3362">
        <ele>226.8</ele>
        <time>2022-05-16T12:37:19Z</time>
      </trkpt>
      <trkpt lat="46.43453" lon="5.33634">
        <ele>227.2</ele>
        <time>2022-05-16T12:37:21Z</time>
      </trkpt>
      <trkpt lat="46.43454" lon="5.33641">
        <ele>227.4</ele>
        <time>2022-05-16T12:37:22Z</time>
      </trkpt>
      <trkpt lat="46.43458" lon="5.33661">
        <ele>228.4</ele>
        <time>2022-05-16T12:37:25Z</time>
      </trkpt>
      <trkpt lat="46.43459" lon="5.33667">
        <ele>228.6</ele>
        <time>2022-05-16T12:37:26Z</time>
      </trkpt>
      <trkpt lat="46.43461" lon="5.33673">
        <ele>229</ele>
        <time>2022-05-16T12:37:27Z</time>
      </trkpt>
      <trkpt lat="46.43463" lon="5.33679">
        <ele>229.2</ele>
        <time>2022-05-16T12:37:28Z</time>
      </trkpt>
      <trkpt lat="46.43465" lon="5.33685">
        <ele>229.4</ele>
        <time>2022-05-16T12:37:29Z</time>
      </trkpt>
      <trkpt lat="46.43473" lon="5.33701">
        <ele>230.2</ele>
        <time>2022-05-16T12:37:32Z</time>
      </trkpt>
      <trkpt lat="46.43481" lon="5.33718">
        <ele>230.6</ele>
        <time>2022-05-16T12:37:35Z</time>
      </trkpt>
      <trkpt lat="46.43486" lon="5.33727">
        <ele>231.2</ele>
        <time>2022-05-16T12:37:37Z</time>
      </trkpt>
      <trkpt lat="46.43489" lon="5.33732">
        <ele>231.8</ele>
        <time>2022-05-16T12:37:38Z</time>
      </trkpt>
      <trkpt lat="46.43492" lon="5.33737">
        <ele>232</ele>
        <time>2022-05-16T12:37:39Z</time>
      </trkpt>
      <trkpt lat="46.43499" lon="5.33751">
        <ele>232.4</ele>
        <time>2022-05-16T12:37:42Z</time>
      </trkpt>
      <trkpt lat="46.435" lon="5.33757">
        <ele>232.6</ele>
        <time>2022-05-16T12:37:43Z</time>
      </trkpt>
      <trkpt lat="46.435" lon="5.3377">
        <ele>233</ele>
        <time>2022-05-16T12:37:45Z</time>
      </trkpt>
      <trkpt lat="46.435" lon="5.33776">
        <ele>233.2</ele>
        <time>2022-05-16T12:37:46Z</time>
      </trkpt>
      <trkpt lat="46.43496" lon="5.33803">
        <ele>234.2</ele>
        <time>2022-05-16T12:37:50Z</time>
      </trkpt>
      <trkpt lat="46.43495" lon="5.33832">
        <ele>234.6</ele>
        <time>2022-05-16T12:37:54Z</time>
      </trkpt>
      <trkpt lat="46.43492" lon="5.33868">
        <ele>235.4</ele>
        <time>2022-05-16T12:37:59Z</time>
      </trkpt>
      <trkpt lat="46.43491" lon="5.3388">
        <ele>235.8</ele>
        <time>2022-05-16T12:38:01Z</time>
      </trkpt>
      <trkpt lat="46.4349" lon="5.33897">
        <ele>237</ele>
        <time>2022-05-16T12:38:04Z</time>
      </trkpt>
      <trkpt lat="46.43487" lon="5.33919">
        <ele>238.4</ele>
        <time>2022-05-16T12:38:08Z</time>
      </trkpt>
      <trkpt lat="46.43487" lon="5.33924">
        <ele>238.6</ele>
        <time>2022-05-16T12:38:09Z</time>
      </trkpt>
      <trkpt lat="46.43485" lon="5.33947">
        <ele>239.6</ele>
        <time>2022-05-16T12:38:13Z</time>
      </trkpt>
      <trkpt lat="46.43483" lon="5.3397">
        <ele>240.6</ele>
        <time>2022-05-16T12:38:17Z</time>
      </trkpt>
      <trkpt lat="46.43483" lon="5.33976">
        <ele>240.8</ele>
        <time>2022-05-16T12:38:18Z</time>
      </trkpt>
      <trkpt lat="46.4348" lon="5.34005">
        <ele>241.6</ele>
        <time>2022-05-16T12:38:23Z</time>
      </trkpt>
      <trkpt lat="46.43479" lon="5.34012">
        <ele>242</ele>
        <time>2022-05-16T12:38:24Z</time>
      </trkpt>
      <trkpt lat="46.43474" lon="5.34052">
        <ele>243</ele>
        <time>2022-05-16T12:38:30Z</time>
      </trkpt>
      <trkpt lat="46.43472" lon="5.34074">
        <ele>243.4</ele>
        <time>2022-05-16T12:38:33Z</time>
      </trkpt>
      <trkpt lat="46.43469" lon="5.34118">
        <ele>244.2</ele>
        <time>2022-05-16T12:38:39Z</time>
      </trkpt>
      <trkpt lat="46.43468" lon="5.34125">
        <ele>244.2</ele>
        <time>2022-05-16T12:38:40Z</time>
      </trkpt>
      <trkpt lat="46.43466" lon="5.34138">
        <ele>244.6</ele>
        <time>2022-05-16T12:38:42Z</time>
      </trkpt>
      <trkpt lat="46.43463" lon="5.34166">
        <ele>244.8</ele>
        <time>2022-05-16T12:38:46Z</time>
      </trkpt>
      <trkpt lat="46.4346" lon="5.34186">
        <ele>244.8</ele>
        <time>2022-05-16T12:38:49Z</time>
      </trkpt>
      <trkpt lat="46.43454" lon="5.34205">
        <ele>245</ele>
        <time>2022-05-16T12:38:52Z</time>
      </trkpt>
      <trkpt lat="46.43452" lon="5.34212">
        <ele>245</ele>
        <time>2022-05-16T12:38:53Z</time>
      </trkpt>
      <trkpt lat="46.43449" lon="5.34226">
        <ele>245</ele>
        <time>2022-05-16T12:38:55Z</time>
      </trkpt>
      <trkpt lat="46.43448" lon="5.34241">
        <ele>245.2</ele>
        <time>2022-05-16T12:38:57Z</time>
      </trkpt>
      <trkpt lat="46.43448" lon="5.34254">
        <ele>245.2</ele>
        <time>2022-05-16T12:38:59Z</time>
      </trkpt>
      <trkpt lat="46.43448" lon="5.34262">
        <ele>245.2</ele>
        <time>2022-05-16T12:39:00Z</time>
      </trkpt>
      <trkpt lat="46.43446" lon="5.34268">
        <ele>245.2</ele>
        <time>2022-05-16T12:39:01Z</time>
      </trkpt>
      <trkpt lat="46.43441" lon="5.34272">
        <ele>245.2</ele>
        <time>2022-05-16T12:39:02Z</time>
      </trkpt>
      <trkpt lat="46.43425" lon="5.34271">
        <ele>245.2</ele>
        <time>2022-05-16T12:39:04Z</time>
      </trkpt>
      <trkpt lat="46.43388" lon="5.34259">
        <ele>244.8</ele>
        <time>2022-05-16T12:39:08Z</time>
      </trkpt>
      <trkpt lat="46.43367" lon="5.34251">
        <ele>244.2</ele>
        <time>2022-05-16T12:39:10Z</time>
      </trkpt>
      <trkpt lat="46.43346" lon="5.34243">
        <ele>243</ele>
        <time>2022-05-16T12:39:12Z</time>
      </trkpt>
      <trkpt lat="46.43336" lon="5.34239">
        <ele>242.2</ele>
        <time>2022-05-16T12:39:13Z</time>
      </trkpt>
      <trkpt lat="46.43326" lon="5.34234">
        <ele>241.2</ele>
        <time>2022-05-16T12:39:14Z</time>
      </trkpt>
      <trkpt lat="46.43306" lon="5.34222">
        <ele>240.2</ele>
        <time>2022-05-16T12:39:16Z</time>
      </trkpt>
      <trkpt lat="46.43287" lon="5.34209">
        <ele>239</ele>
        <time>2022-05-16T12:39:18Z</time>
      </trkpt>
      <trkpt lat="46.43262" lon="5.34188">
        <ele>237.6</ele>
        <time>2022-05-16T12:39:21Z</time>
      </trkpt>
      <trkpt lat="46.43251" lon="5.34179">
        <ele>236.4</ele>
        <time>2022-05-16T12:39:23Z</time>
      </trkpt>
      <trkpt lat="46.43225" lon="5.34155">
        <ele>235.4</ele>
        <time>2022-05-16T12:39:25Z</time>
      </trkpt>
      <trkpt lat="46.43217" lon="5.34146">
        <ele>235.2</ele>
        <time>2022-05-16T12:39:26Z</time>
      </trkpt>
      <trkpt lat="46.43204" lon="5.34132">
        <ele>234.4</ele>
        <time>2022-05-16T12:39:28Z</time>
      </trkpt>
      <trkpt lat="46.43196" lon="5.34124">
        <ele>234.2</ele>
        <time>2022-05-16T12:39:29Z</time>
      </trkpt>
      <trkpt lat="46.43177" lon="5.341">
        <ele>233.6</ele>
        <time>2022-05-16T12:39:32Z</time>
      </trkpt>
      <trkpt lat="46.43171" lon="5.34091">
        <ele>233.6</ele>
        <time>2022-05-16T12:39:33Z</time>
      </trkpt>
      <trkpt lat="46.43155" lon="5.34065">
        <ele>233.4</ele>
        <time>2022-05-16T12:39:36Z</time>
      </trkpt>
      <trkpt lat="46.43125" lon="5.3402">
        <ele>233.8</ele>
        <time>2022-05-16T12:39:42Z</time>
      </trkpt>
      <trkpt lat="46.431" lon="5.33986">
        <ele>234.4</ele>
        <time>2022-05-16T12:39:47Z</time>
      </trkpt>
      <trkpt lat="46.43095" lon="5.33979">
        <ele>234.4</ele>
        <time>2022-05-16T12:39:48Z</time>
      </trkpt>
      <trkpt lat="46.43048" lon="5.33934">
        <ele>235</ele>
        <time>2022-05-16T12:39:56Z</time>
      </trkpt>
      <trkpt lat="46.43007" lon="5.33896">
        <ele>234.8</ele>
        <time>2022-05-16T12:40:03Z</time>
      </trkpt>
      <trkpt lat="46.42955" lon="5.3386">
        <ele>234.4</ele>
        <time>2022-05-16T12:40:11Z</time>
      </trkpt>
      <trkpt lat="46.42949" lon="5.33856">
        <ele>234.4</ele>
        <time>2022-05-16T12:40:12Z</time>
      </trkpt>
      <trkpt lat="46.42921" lon="5.33843">
        <ele>234.2</ele>
        <time>2022-05-16T12:40:16Z</time>
      </trkpt>
      <trkpt lat="46.42914" lon="5.33841">
        <ele>234.2</ele>
        <time>2022-05-16T12:40:17Z</time>
      </trkpt>
      <trkpt lat="46.42861" lon="5.33836">
        <ele>233.8</ele>
        <time>2022-05-16T12:40:24Z</time>
      </trkpt>
      <trkpt lat="46.42832" lon="5.33834">
        <ele>233.2</ele>
        <time>2022-05-16T12:40:28Z</time>
      </trkpt>
      <trkpt lat="46.4281" lon="5.33832">
        <ele>232.6</ele>
        <time>2022-05-16T12:40:31Z</time>
      </trkpt>
      <trkpt lat="46.4278" lon="5.33826">
        <ele>232.8</ele>
        <time>2022-05-16T12:40:36Z</time>
      </trkpt>
      <trkpt lat="46.42751" lon="5.33813">
        <ele>234</ele>
        <time>2022-05-16T12:40:42Z</time>
      </trkpt>
      <trkpt lat="46.42742" lon="5.33808">
        <ele>234.6</ele>
        <time>2022-05-16T12:40:44Z</time>
      </trkpt>
      <trkpt lat="46.42734" lon="5.33803">
        <ele>235</ele>
        <time>2022-05-16T12:40:46Z</time>
      </trkpt>
      <trkpt lat="46.42725" lon="5.33799">
        <ele>235.6</ele>
        <time>2022-05-16T12:40:48Z</time>
      </trkpt>
      <trkpt lat="46.42721" lon="5.33798">
        <ele>235.8</ele>
        <time>2022-05-16T12:40:49Z</time>
      </trkpt>
      <trkpt lat="46.42702" lon="5.33794">
        <ele>236.8</ele>
        <time>2022-05-16T12:40:53Z</time>
      </trkpt>
      <trkpt lat="46.42683" lon="5.33792">
        <ele>237.4</ele>
        <time>2022-05-16T12:40:57Z</time>
      </trkpt>
      <trkpt lat="46.42679" lon="5.33792">
        <ele>237.8</ele>
        <time>2022-05-16T12:40:58Z</time>
      </trkpt>
      <trkpt lat="46.42669" lon="5.33793">
        <ele>237.8</ele>
        <time>2022-05-16T12:41:00Z</time>
      </trkpt>
      <trkpt lat="46.42641" lon="5.33796">
        <ele>238.4</ele>
        <time>2022-05-16T12:41:05Z</time>
      </trkpt>
      <trkpt lat="46.42597" lon="5.33799">
        <ele>238.8</ele>
        <time>2022-05-16T12:41:13Z</time>
      </trkpt>
      <trkpt lat="46.42592" lon="5.33798">
        <ele>239</ele>
        <time>2022-05-16T12:41:14Z</time>
      </trkpt>
      <trkpt lat="46.42563" lon="5.33786">
        <ele>239.6</ele>
        <time>2022-05-16T12:41:20Z</time>
      </trkpt>
      <trkpt lat="46.42559" lon="5.33783">
        <ele>239.8</ele>
        <time>2022-05-16T12:41:21Z</time>
      </trkpt>
      <trkpt lat="46.42554" lon="5.33779">
        <ele>240.2</ele>
        <time>2022-05-16T12:41:22Z</time>
      </trkpt>
      <trkpt lat="46.42545" lon="5.33773">
        <ele>240.6</ele>
        <time>2022-05-16T12:41:24Z</time>
      </trkpt>
      <trkpt lat="46.42538" lon="5.33769">
        <ele>241.2</ele>
        <time>2022-05-16T12:41:26Z</time>
      </trkpt>
      <trkpt lat="46.42533" lon="5.33766">
        <ele>241.4</ele>
        <time>2022-05-16T12:41:27Z</time>
      </trkpt>
      <trkpt lat="46.42517" lon="5.33756">
        <ele>242</ele>
        <time>2022-05-16T12:41:32Z</time>
      </trkpt>
      <trkpt lat="46.4251" lon="5.3375">
        <ele>242.6</ele>
        <time>2022-05-16T12:41:34Z</time>
      </trkpt>
      <trkpt lat="46.42503" lon="5.33745">
        <ele>243.4</ele>
        <time>2022-05-16T12:41:36Z</time>
      </trkpt>
      <trkpt lat="46.42497" lon="5.3374">
        <ele>244</ele>
        <time>2022-05-16T12:41:38Z</time>
      </trkpt>
      <trkpt lat="46.42485" lon="5.33732">
        <ele>244.8</ele>
        <time>2022-05-16T12:41:41Z</time>
      </trkpt>
      <trkpt lat="46.42478" lon="5.33725">
        <ele>245</ele>
        <time>2022-05-16T12:41:43Z</time>
      </trkpt>
      <trkpt lat="46.42456" lon="5.33707">
        <ele>246.2</ele>
        <time>2022-05-16T12:41:48Z</time>
      </trkpt>
      <trkpt lat="46.42452" lon="5.33704">
        <ele>246.2</ele>
        <time>2022-05-16T12:41:49Z</time>
      </trkpt>
      <trkpt lat="46.42429" lon="5.33688">
        <ele>247</ele>
        <time>2022-05-16T12:41:54Z</time>
      </trkpt>
      <trkpt lat="46.42415" lon="5.33682">
        <ele>247.2</ele>
        <time>2022-05-16T12:41:57Z</time>
      </trkpt>
      <trkpt lat="46.42391" lon="5.33675">
        <ele>247.6</ele>
        <time>2022-05-16T12:42:02Z</time>
      </trkpt>
      <trkpt lat="46.42382" lon="5.33676">
        <ele>247.6</ele>
        <time>2022-05-16T12:42:04Z</time>
      </trkpt>
      <trkpt lat="46.42378" lon="5.33677">
        <ele>247.6</ele>
        <time>2022-05-16T12:42:05Z</time>
      </trkpt>
      <trkpt lat="46.42361" lon="5.33686">
        <ele>248.2</ele>
        <time>2022-05-16T12:42:09Z</time>
      </trkpt>
      <trkpt lat="46.42357" lon="5.33689">
        <ele>248.4</ele>
        <time>2022-05-16T12:42:10Z</time>
      </trkpt>
      <trkpt lat="46.42335" lon="5.33704">
        <ele>249.4</ele>
        <time>2022-05-16T12:42:16Z</time>
      </trkpt>
      <trkpt lat="46.42332" lon="5.33706">
        <ele>249.4</ele>
        <time>2022-05-16T12:42:17Z</time>
      </trkpt>
      <trkpt lat="46.4232" lon="5.33714">
        <ele>250.6</ele>
        <time>2022-05-16T12:42:21Z</time>
      </trkpt>
      <trkpt lat="46.42314" lon="5.33718">
        <ele>251</ele>
        <time>2022-05-16T12:42:23Z</time>
      </trkpt>
      <trkpt lat="46.42309" lon="5.33722">
        <ele>252</ele>
        <time>2022-05-16T12:42:25Z</time>
      </trkpt>
      <trkpt lat="46.42298" lon="5.33736">
        <ele>253.2</ele>
        <time>2022-05-16T12:42:29Z</time>
      </trkpt>
      <trkpt lat="46.42295" lon="5.33741">
        <ele>253.4</ele>
        <time>2022-05-16T12:42:30Z</time>
      </trkpt>
      <trkpt lat="46.4228" lon="5.33771">
        <ele>254.2</ele>
        <time>2022-05-16T12:42:36Z</time>
      </trkpt>
      <trkpt lat="46.42277" lon="5.33777">
        <ele>254.4</ele>
        <time>2022-05-16T12:42:37Z</time>
      </trkpt>
      <trkpt lat="46.42258" lon="5.33817">
        <ele>255.4</ele>
        <time>2022-05-16T12:42:44Z</time>
      </trkpt>
      <trkpt lat="46.42254" lon="5.33827">
        <ele>255.6</ele>
        <time>2022-05-16T12:42:46Z</time>
      </trkpt>
      <trkpt lat="46.42241" lon="5.33851">
        <ele>256.4</ele>
        <time>2022-05-16T12:42:51Z</time>
      </trkpt>
      <trkpt lat="46.4223" lon="5.33876">
        <ele>257</ele>
        <time>2022-05-16T12:42:56Z</time>
      </trkpt>
      <trkpt lat="46.42225" lon="5.33885">
        <ele>257.8</ele>
        <time>2022-05-16T12:42:58Z</time>
      </trkpt>
      <trkpt lat="46.42208" lon="5.33914">
        <ele>258.8</ele>
        <time>2022-05-16T12:43:04Z</time>
      </trkpt>
      <trkpt lat="46.42208" lon="5.33914">
        <ele>258.8</ele>
        <time>2022-05-16T12:43:05Z</time>
      </trkpt>
      <trkpt lat="46.42201" lon="5.33924">
        <ele>258.8</ele>
        <time>2022-05-16T12:43:06Z</time>
      </trkpt>
      <trkpt lat="46.4219" lon="5.33933">
        <ele>259.4</ele>
        <time>2022-05-16T12:43:09Z</time>
      </trkpt>
      <trkpt lat="46.42186" lon="5.33935">
        <ele>260</ele>
        <time>2022-05-16T12:43:11Z</time>
      </trkpt>
      <trkpt lat="46.42178" lon="5.33938">
        <ele>260.2</ele>
        <time>2022-05-16T12:43:13Z</time>
      </trkpt>
      <trkpt lat="46.42171" lon="5.33938">
        <ele>260.6</ele>
        <time>2022-05-16T12:43:14Z</time>
      </trkpt>
      <trkpt lat="46.42168" lon="5.33937">
        <ele>260.6</ele>
        <time>2022-05-16T12:43:15Z</time>
      </trkpt>
      <trkpt lat="46.42154" lon="5.33933">
        <ele>261.2</ele>
        <time>2022-05-16T12:43:18Z</time>
      </trkpt>
      <trkpt lat="46.42146" lon="5.33929">
        <ele>261.4</ele>
        <time>2022-05-16T12:43:20Z</time>
      </trkpt>
      <trkpt lat="46.42135" lon="5.33924">
        <ele>262.6</ele>
        <time>2022-05-16T12:43:23Z</time>
      </trkpt>
      <trkpt lat="46.42122" lon="5.33918">
        <ele>263.2</ele>
        <time>2022-05-16T12:43:26Z</time>
      </trkpt>
      <trkpt lat="46.42117" lon="5.33916">
        <ele>263.4</ele>
        <time>2022-05-16T12:43:27Z</time>
      </trkpt>
      <trkpt lat="46.42103" lon="5.33907">
        <ele>263.8</ele>
        <time>2022-05-16T12:43:30Z</time>
      </trkpt>
      <trkpt lat="46.42082" lon="5.33901">
        <ele>264.2</ele>
        <time>2022-05-16T12:43:34Z</time>
      </trkpt>
      <trkpt lat="46.42034" lon="5.33901">
        <ele>264.2</ele>
        <time>2022-05-16T12:43:43Z</time>
      </trkpt>
      <trkpt lat="46.42003" lon="5.33899">
        <ele>263.6</ele>
        <time>2022-05-16T12:43:48Z</time>
      </trkpt>
      <trkpt lat="46.41988" lon="5.33891">
        <ele>263.4</ele>
        <time>2022-05-16T12:43:50Z</time>
      </trkpt>
      <trkpt lat="46.41975" lon="5.33881">
        <ele>263.2</ele>
        <time>2022-05-16T12:43:52Z</time>
      </trkpt>
      <trkpt lat="46.41967" lon="5.33876">
        <ele>262.8</ele>
        <time>2022-05-16T12:43:53Z</time>
      </trkpt>
      <trkpt lat="46.41959" lon="5.33873">
        <ele>262.4</ele>
        <time>2022-05-16T12:43:54Z</time>
      </trkpt>
      <trkpt lat="46.4195" lon="5.33871">
        <ele>262</ele>
        <time>2022-05-16T12:43:55Z</time>
      </trkpt>
      <trkpt lat="46.41941" lon="5.3387">
        <ele>261.6</ele>
        <time>2022-05-16T12:43:56Z</time>
      </trkpt>
      <trkpt lat="46.41921" lon="5.33871">
        <ele>261</ele>
        <time>2022-05-16T12:43:58Z</time>
      </trkpt>
      <trkpt lat="46.419" lon="5.33876">
        <ele>260.2</ele>
        <time>2022-05-16T12:44:00Z</time>
      </trkpt>
      <trkpt lat="46.41893" lon="5.33877">
        <ele>259.6</ele>
        <time>2022-05-16T12:44:01Z</time>
      </trkpt>
      <trkpt lat="46.41866" lon="5.3388">
        <ele>258.6</ele>
        <time>2022-05-16T12:44:04Z</time>
      </trkpt>
      <trkpt lat="46.41847" lon="5.3388">
        <ele>258.2</ele>
        <time>2022-05-16T12:44:06Z</time>
      </trkpt>
      <trkpt lat="46.41814" lon="5.33875">
        <ele>258</ele>
        <time>2022-05-16T12:44:11Z</time>
      </trkpt>
      <trkpt lat="46.41787" lon="5.33866">
        <ele>259.2</ele>
        <time>2022-05-16T12:44:16Z</time>
      </trkpt>
      <trkpt lat="46.41781" lon="5.33863">
        <ele>259.6</ele>
        <time>2022-05-16T12:44:17Z</time>
      </trkpt>
      <trkpt lat="46.41767" lon="5.33859">
        <ele>260.8</ele>
        <time>2022-05-16T12:44:20Z</time>
      </trkpt>
      <trkpt lat="46.41753" lon="5.33857">
        <ele>261.6</ele>
        <time>2022-05-16T12:44:23Z</time>
      </trkpt>
      <trkpt lat="46.41749" lon="5.33857">
        <ele>262.2</ele>
        <time>2022-05-16T12:44:24Z</time>
      </trkpt>
      <trkpt lat="46.41729" lon="5.33865">
        <ele>263.4</ele>
        <time>2022-05-16T12:44:29Z</time>
      </trkpt>
      <trkpt lat="46.41722" lon="5.3387">
        <ele>264.2</ele>
        <time>2022-05-16T12:44:31Z</time>
      </trkpt>
      <trkpt lat="46.41714" lon="5.33872">
        <ele>264.6</ele>
        <time>2022-05-16T12:44:33Z</time>
      </trkpt>
      <trkpt lat="46.41706" lon="5.33874">
        <ele>265.2</ele>
        <time>2022-05-16T12:44:35Z</time>
      </trkpt>
      <trkpt lat="46.41698" lon="5.33876">
        <ele>265.6</ele>
        <time>2022-05-16T12:44:37Z</time>
      </trkpt>
      <trkpt lat="46.41683" lon="5.3388">
        <ele>266.8</ele>
        <time>2022-05-16T12:44:41Z</time>
      </trkpt>
      <trkpt lat="46.41664" lon="5.33877">
        <ele>267.8</ele>
        <time>2022-05-16T12:44:46Z</time>
      </trkpt>
      <trkpt lat="46.4166" lon="5.33876">
        <ele>268.2</ele>
        <time>2022-05-16T12:44:47Z</time>
      </trkpt>
      <trkpt lat="46.41644" lon="5.33875">
        <ele>269</ele>
        <time>2022-05-16T12:44:50Z</time>
      </trkpt>
      <trkpt lat="46.41634" lon="5.33877">
        <ele>269.6</ele>
        <time>2022-05-16T12:44:52Z</time>
      </trkpt>
      <trkpt lat="46.41626" lon="5.33879">
        <ele>270</ele>
        <time>2022-05-16T12:44:54Z</time>
      </trkpt>
      <trkpt lat="46.41605" lon="5.33883">
        <ele>271.2</ele>
        <time>2022-05-16T12:44:59Z</time>
      </trkpt>
      <trkpt lat="46.41594" lon="5.33884">
        <ele>271.2</ele>
        <time>2022-05-16T12:45:00Z</time>
      </trkpt>
      <trkpt lat="46.41589" lon="5.33883">
        <ele>271.4</ele>
        <time>2022-05-16T12:45:01Z</time>
      </trkpt>
      <trkpt lat="46.4154" lon="5.33875">
        <ele>271.6</ele>
        <time>2022-05-16T12:45:10Z</time>
      </trkpt>
      <trkpt lat="46.41502" lon="5.33866">
        <ele>271.4</ele>
        <time>2022-05-16T12:45:16Z</time>
      </trkpt>
      <trkpt lat="46.41495" lon="5.33862">
        <ele>271.2</ele>
        <time>2022-05-16T12:45:17Z</time>
      </trkpt>
      <trkpt lat="46.41488" lon="5.33858">
        <ele>271</ele>
        <time>2022-05-16T12:45:18Z</time>
      </trkpt>
      <trkpt lat="46.41462" lon="5.33838">
        <ele>270.2</ele>
        <time>2022-05-16T12:45:22Z</time>
      </trkpt>
      <trkpt lat="46.41454" lon="5.33833">
        <ele>270</ele>
        <time>2022-05-16T12:45:23Z</time>
      </trkpt>
      <trkpt lat="46.41446" lon="5.3383">
        <ele>269.8</ele>
        <time>2022-05-16T12:45:24Z</time>
      </trkpt>
      <trkpt lat="46.41428" lon="5.33825">
        <ele>269.6</ele>
        <time>2022-05-16T12:45:26Z</time>
      </trkpt>
      <trkpt lat="46.41402" lon="5.33817">
        <ele>268.8</ele>
        <time>2022-05-16T12:45:29Z</time>
      </trkpt>
      <trkpt lat="46.41375" lon="5.33809">
        <ele>267.8</ele>
        <time>2022-05-16T12:45:32Z</time>
      </trkpt>
      <trkpt lat="46.41366" lon="5.33807">
        <ele>267.6</ele>
        <time>2022-05-16T12:45:33Z</time>
      </trkpt>
      <trkpt lat="46.41349" lon="5.33802">
        <ele>266.6</ele>
        <time>2022-05-16T12:45:35Z</time>
      </trkpt>
      <trkpt lat="46.41322" lon="5.33792">
        <ele>265.6</ele>
        <time>2022-05-16T12:45:38Z</time>
      </trkpt>
      <trkpt lat="46.41313" lon="5.33785">
        <ele>265.4</ele>
        <time>2022-05-16T12:45:39Z</time>
      </trkpt>
      <trkpt lat="46.41305" lon="5.33777">
        <ele>265.2</ele>
        <time>2022-05-16T12:45:40Z</time>
      </trkpt>
      <trkpt lat="46.41289" lon="5.33759">
        <ele>264.6</ele>
        <time>2022-05-16T12:45:42Z</time>
      </trkpt>
      <trkpt lat="46.41281" lon="5.3375">
        <ele>263.8</ele>
        <time>2022-05-16T12:45:43Z</time>
      </trkpt>
      <trkpt lat="46.41264" lon="5.33733">
        <ele>263.2</ele>
        <time>2022-05-16T12:45:45Z</time>
      </trkpt>
      <trkpt lat="46.4124" lon="5.3371">
        <ele>261.8</ele>
        <time>2022-05-16T12:45:48Z</time>
      </trkpt>
      <trkpt lat="46.4123" lon="5.337">
        <ele>261.6</ele>
        <time>2022-05-16T12:45:49Z</time>
      </trkpt>
      <trkpt lat="46.41195" lon="5.33669">
        <ele>260.6</ele>
        <time>2022-05-16T12:45:53Z</time>
      </trkpt>
      <trkpt lat="46.4117" lon="5.33645">
        <ele>260</ele>
        <time>2022-05-16T12:45:56Z</time>
      </trkpt>
      <trkpt lat="46.41145" lon="5.33623">
        <ele>259.4</ele>
        <time>2022-05-16T12:45:59Z</time>
      </trkpt>
      <trkpt lat="46.41112" lon="5.33599">
        <ele>259.2</ele>
        <time>2022-05-16T12:46:03Z</time>
      </trkpt>
      <trkpt lat="46.41067" lon="5.33574">
        <ele>259.2</ele>
        <time>2022-05-16T12:46:09Z</time>
      </trkpt>
      <trkpt lat="46.4102" lon="5.33558">
        <ele>259.6</ele>
        <time>2022-05-16T12:46:16Z</time>
      </trkpt>
      <trkpt lat="46.40975" lon="5.33544">
        <ele>260.4</ele>
        <time>2022-05-16T12:46:23Z</time>
      </trkpt>
      <trkpt lat="46.40962" lon="5.33539">
        <ele>260.8</ele>
        <time>2022-05-16T12:46:25Z</time>
      </trkpt>
      <trkpt lat="46.40931" lon="5.3353">
        <ele>261.8</ele>
        <time>2022-05-16T12:46:30Z</time>
      </trkpt>
      <trkpt lat="46.40912" lon="5.33525">
        <ele>262.4</ele>
        <time>2022-05-16T12:46:33Z</time>
      </trkpt>
      <trkpt lat="46.40855" lon="5.33511">
        <ele>262.6</ele>
        <time>2022-05-16T12:46:41Z</time>
      </trkpt>
      <trkpt lat="46.40798" lon="5.33496">
        <ele>261.6</ele>
        <time>2022-05-16T12:46:48Z</time>
      </trkpt>
      <trkpt lat="46.40774" lon="5.33488">
        <ele>260.8</ele>
        <time>2022-05-16T12:46:51Z</time>
      </trkpt>
      <trkpt lat="46.40733" lon="5.33467">
        <ele>259.4</ele>
        <time>2022-05-16T12:46:56Z</time>
      </trkpt>
      <trkpt lat="46.40701" lon="5.33448">
        <ele>258.2</ele>
        <time>2022-05-16T12:47:00Z</time>
      </trkpt>
      <trkpt lat="46.40677" lon="5.33433">
        <ele>257.4</ele>
        <time>2022-05-16T12:47:03Z</time>
      </trkpt>
      <trkpt lat="46.40668" lon="5.33429">
        <ele>257.2</ele>
        <time>2022-05-16T12:47:04Z</time>
      </trkpt>
      <trkpt lat="46.40635" lon="5.33408">
        <ele>256.2</ele>
        <time>2022-05-16T12:47:08Z</time>
      </trkpt>
      <trkpt lat="46.40618" lon="5.33397">
        <ele>255.6</ele>
        <time>2022-05-16T12:47:10Z</time>
      </trkpt>
      <trkpt lat="46.406" lon="5.33386">
        <ele>254.8</ele>
        <time>2022-05-16T12:47:13Z</time>
      </trkpt>
      <trkpt lat="46.40579" lon="5.33374">
        <ele>253.6</ele>
        <time>2022-05-16T12:47:15Z</time>
      </trkpt>
      <trkpt lat="46.40547" lon="5.33354">
        <ele>252.8</ele>
        <time>2022-05-16T12:47:18Z</time>
      </trkpt>
      <trkpt lat="46.40538" lon="5.33349">
        <ele>252.2</ele>
        <time>2022-05-16T12:47:19Z</time>
      </trkpt>
      <trkpt lat="46.4052" lon="5.33336">
        <ele>251.4</ele>
        <time>2022-05-16T12:47:21Z</time>
      </trkpt>
      <trkpt lat="46.40511" lon="5.33328">
        <ele>250.8</ele>
        <time>2022-05-16T12:47:22Z</time>
      </trkpt>
      <trkpt lat="46.40504" lon="5.33319">
        <ele>250.4</ele>
        <time>2022-05-16T12:47:23Z</time>
      </trkpt>
      <trkpt lat="46.40496" lon="5.3331">
        <ele>250</ele>
        <time>2022-05-16T12:47:24Z</time>
      </trkpt>
      <trkpt lat="46.40487" lon="5.33303">
        <ele>249.8</ele>
        <time>2022-05-16T12:47:25Z</time>
      </trkpt>
      <trkpt lat="46.40478" lon="5.33298">
        <ele>249.4</ele>
        <time>2022-05-16T12:47:26Z</time>
      </trkpt>
      <trkpt lat="46.40459" lon="5.3329">
        <ele>248.6</ele>
        <time>2022-05-16T12:47:28Z</time>
      </trkpt>
      <trkpt lat="46.40433" lon="5.33274">
        <ele>247.8</ele>
        <time>2022-05-16T12:47:31Z</time>
      </trkpt>
      <trkpt lat="46.40418" lon="5.3326">
        <ele>247.4</ele>
        <time>2022-05-16T12:47:33Z</time>
      </trkpt>
      <trkpt lat="46.40399" lon="5.33238">
        <ele>246.8</ele>
        <time>2022-05-16T12:47:36Z</time>
      </trkpt>
      <trkpt lat="46.40359" lon="5.33187">
        <ele>247</ele>
        <time>2022-05-16T12:47:43Z</time>
      </trkpt>
      <trkpt lat="46.40318" lon="5.33128">
        <ele>247.6</ele>
        <time>2022-05-16T12:47:51Z</time>
      </trkpt>
      <trkpt lat="46.40299" lon="5.33101">
        <ele>248.4</ele>
        <time>2022-05-16T12:47:55Z</time>
      </trkpt>
      <trkpt lat="46.40286" lon="5.33083">
        <ele>248.8</ele>
        <time>2022-05-16T12:47:58Z</time>
      </trkpt>
      <trkpt lat="46.40258" lon="5.33043">
        <ele>249.4</ele>
        <time>2022-05-16T12:48:04Z</time>
      </trkpt>
      <trkpt lat="46.40244" lon="5.33023">
        <ele>249.6</ele>
        <time>2022-05-16T12:48:07Z</time>
      </trkpt>
      <trkpt lat="46.40206" lon="5.32967">
        <ele>249.2</ele>
        <time>2022-05-16T12:48:15Z</time>
      </trkpt>
      <trkpt lat="46.40171" lon="5.32903">
        <ele>248.4</ele>
        <time>2022-05-16T12:48:24Z</time>
      </trkpt>
      <trkpt lat="46.4014" lon="5.32832">
        <ele>248.2</ele>
        <time>2022-05-16T12:48:33Z</time>
      </trkpt>
      <trkpt lat="46.40108" lon="5.3276">
        <ele>248.8</ele>
        <time>2022-05-16T12:48:42Z</time>
      </trkpt>
      <trkpt lat="46.40084" lon="5.327">
        <ele>248.4</ele>
        <time>2022-05-16T12:48:49Z</time>
      </trkpt>
      <trkpt lat="46.40071" lon="5.32647">
        <ele>248.2</ele>
        <time>2022-05-16T12:48:55Z</time>
      </trkpt>
      <trkpt lat="46.40069" lon="5.32639">
        <ele>248.2</ele>
        <time>2022-05-16T12:48:56Z</time>
      </trkpt>
      <trkpt lat="46.40061" lon="5.32625">
        <ele>248</ele>
        <time>2022-05-16T12:48:58Z</time>
      </trkpt>
      <trkpt lat="46.40049" lon="5.32623">
        <ele>247.8</ele>
        <time>2022-05-16T12:49:00Z</time>
      </trkpt>
      <trkpt lat="46.40026" lon="5.32635">
        <ele>247.8</ele>
        <time>2022-05-16T12:49:04Z</time>
      </trkpt>
      <trkpt lat="46.3997" lon="5.32664">
        <ele>247.6</ele>
        <time>2022-05-16T12:49:13Z</time>
      </trkpt>
      <trkpt lat="46.39921" lon="5.32686">
        <ele>246.4</ele>
        <time>2022-05-16T12:49:20Z</time>
      </trkpt>
      <trkpt lat="46.39907" lon="5.32693">
        <ele>246.2</ele>
        <time>2022-05-16T12:49:22Z</time>
      </trkpt>
      <trkpt lat="46.39855" lon="5.32718">
        <ele>245.6</ele>
        <time>2022-05-16T12:49:29Z</time>
      </trkpt>
      <trkpt lat="46.3984" lon="5.32724">
        <ele>245.4</ele>
        <time>2022-05-16T12:49:31Z</time>
      </trkpt>
      <trkpt lat="46.3981" lon="5.32738">
        <ele>244</ele>
        <time>2022-05-16T12:49:35Z</time>
      </trkpt>
      <trkpt lat="46.3977" lon="5.32758">
        <ele>242.8</ele>
        <time>2022-05-16T12:49:40Z</time>
      </trkpt>
      <trkpt lat="46.39754" lon="5.32766">
        <ele>242.4</ele>
        <time>2022-05-16T12:49:42Z</time>
      </trkpt>
      <trkpt lat="46.39721" lon="5.32785">
        <ele>241.6</ele>
        <time>2022-05-16T12:49:46Z</time>
      </trkpt>
      <trkpt lat="46.39704" lon="5.32794">
        <ele>241.2</ele>
        <time>2022-05-16T12:49:48Z</time>
      </trkpt>
      <trkpt lat="46.39686" lon="5.32804">
        <ele>240.4</ele>
        <time>2022-05-16T12:49:50Z</time>
      </trkpt>
      <trkpt lat="46.39657" lon="5.32818">
        <ele>239.4</ele>
        <time>2022-05-16T12:49:53Z</time>
      </trkpt>
      <trkpt lat="46.39638" lon="5.32825">
        <ele>238.4</ele>
        <time>2022-05-16T12:49:55Z</time>
      </trkpt>
      <trkpt lat="46.39628" lon="5.32827">
        <ele>237.6</ele>
        <time>2022-05-16T12:49:56Z</time>
      </trkpt>
      <trkpt lat="46.39608" lon="5.32832">
        <ele>236.4</ele>
        <time>2022-05-16T12:49:58Z</time>
      </trkpt>
      <trkpt lat="46.3958" lon="5.32843">
        <ele>235.6</ele>
        <time>2022-05-16T12:50:01Z</time>
      </trkpt>
      <trkpt lat="46.39571" lon="5.32848">
        <ele>235.2</ele>
        <time>2022-05-16T12:50:02Z</time>
      </trkpt>
      <trkpt lat="46.39546" lon="5.32863">
        <ele>233.8</ele>
        <time>2022-05-16T12:50:05Z</time>
      </trkpt>
      <trkpt lat="46.39539" lon="5.32867">
        <ele>233.8</ele>
        <time>2022-05-16T12:50:06Z</time>
      </trkpt>
      <trkpt lat="46.39482" lon="5.32891">
        <ele>233</ele>
        <time>2022-05-16T12:50:13Z</time>
      </trkpt>
      <trkpt lat="46.39473" lon="5.32894">
        <ele>232.6</ele>
        <time>2022-05-16T12:50:14Z</time>
      </trkpt>
      <trkpt lat="46.39427" lon="5.32908">
        <ele>231.2</ele>
        <time>2022-05-16T12:50:19Z</time>
      </trkpt>
      <trkpt lat="46.39418" lon="5.3291">
        <ele>231</ele>
        <time>2022-05-16T12:50:20Z</time>
      </trkpt>
      <trkpt lat="46.39399" lon="5.32908">
        <ele>230.2</ele>
        <time>2022-05-16T12:50:22Z</time>
      </trkpt>
      <trkpt lat="46.39382" lon="5.32899">
        <ele>229.4</ele>
        <time>2022-05-16T12:50:24Z</time>
      </trkpt>
      <trkpt lat="46.39375" lon="5.32893">
        <ele>229.2</ele>
        <time>2022-05-16T12:50:25Z</time>
      </trkpt>
      <trkpt lat="46.39368" lon="5.32888">
        <ele>228.6</ele>
        <time>2022-05-16T12:50:26Z</time>
      </trkpt>
      <trkpt lat="46.39363" lon="5.32885">
        <ele>228.2</ele>
        <time>2022-05-16T12:50:27Z</time>
      </trkpt>
      <trkpt lat="46.39357" lon="5.32886">
        <ele>227.8</ele>
        <time>2022-05-16T12:50:28Z</time>
      </trkpt>
      <trkpt lat="46.39353" lon="5.32891">
        <ele>227.2</ele>
        <time>2022-05-16T12:50:29Z</time>
      </trkpt>
      <trkpt lat="46.39349" lon="5.32909">
        <ele>226.4</ele>
        <time>2022-05-16T12:50:31Z</time>
      </trkpt>
      <trkpt lat="46.39346" lon="5.32919">
        <ele>226.2</ele>
        <time>2022-05-16T12:50:32Z</time>
      </trkpt>
      <trkpt lat="46.39341" lon="5.32928">
        <ele>226</ele>
        <time>2022-05-16T12:50:33Z</time>
      </trkpt>
      <trkpt lat="46.39334" lon="5.32934">
        <ele>225.8</ele>
        <time>2022-05-16T12:50:34Z</time>
      </trkpt>
      <trkpt lat="46.39319" lon="5.32942">
        <ele>225</ele>
        <time>2022-05-16T12:50:36Z</time>
      </trkpt>
      <trkpt lat="46.39302" lon="5.32949">
        <ele>224</ele>
        <time>2022-05-16T12:50:38Z</time>
      </trkpt>
      <trkpt lat="46.39293" lon="5.32953">
        <ele>223.8</ele>
        <time>2022-05-16T12:50:39Z</time>
      </trkpt>
      <trkpt lat="46.39268" lon="5.32965">
        <ele>222.8</ele>
        <time>2022-05-16T12:50:42Z</time>
      </trkpt>
      <trkpt lat="46.39234" lon="5.32981">
        <ele>222.2</ele>
        <time>2022-05-16T12:50:46Z</time>
      </trkpt>
      <trkpt lat="46.39209" lon="5.32991">
        <ele>221.8</ele>
        <time>2022-05-16T12:50:49Z</time>
      </trkpt>
      <trkpt lat="46.39169" lon="5.33006">
        <ele>221.4</ele>
        <time>2022-05-16T12:50:54Z</time>
      </trkpt>
      <trkpt lat="46.39116" lon="5.33022">
        <ele>221</ele>
        <time>2022-05-16T12:51:01Z</time>
      </trkpt>
      <trkpt lat="46.39081" lon="5.33022">
        <ele>221</ele>
        <time>2022-05-16T12:51:06Z</time>
      </trkpt>
      <trkpt lat="46.39034" lon="5.33007">
        <ele>221.6</ele>
        <time>2022-05-16T12:51:13Z</time>
      </trkpt>
      <trkpt lat="46.38976" lon="5.32987">
        <ele>221.2</ele>
        <time>2022-05-16T12:51:21Z</time>
      </trkpt>
      <trkpt lat="46.38962" lon="5.32981">
        <ele>221.2</ele>
        <time>2022-05-16T12:51:23Z</time>
      </trkpt>
      <trkpt lat="46.38904" lon="5.32959">
        <ele>221.4</ele>
        <time>2022-05-16T12:51:31Z</time>
      </trkpt>
      <trkpt lat="46.3889" lon="5.32953">
        <ele>221.2</ele>
        <time>2022-05-16T12:51:33Z</time>
      </trkpt>
      <trkpt lat="46.38868" lon="5.32945">
        <ele>220.6</ele>
        <time>2022-05-16T12:51:36Z</time>
      </trkpt>
      <trkpt lat="46.38833" lon="5.32931">
        <ele>220</ele>
        <time>2022-05-16T12:51:41Z</time>
      </trkpt>
      <trkpt lat="46.38819" lon="5.32925">
        <ele>219.6</ele>
        <time>2022-05-16T12:51:43Z</time>
      </trkpt>
      <trkpt lat="46.38787" lon="5.32912">
        <ele>219.2</ele>
        <time>2022-05-16T12:51:48Z</time>
      </trkpt>
      <trkpt lat="46.3878" lon="5.3291">
        <ele>219.2</ele>
        <time>2022-05-16T12:51:49Z</time>
      </trkpt>
      <trkpt lat="46.38769" lon="5.329">
        <ele>219.2</ele>
        <time>2022-05-16T12:51:51Z</time>
      </trkpt>
      <trkpt lat="46.38763" lon="5.32882">
        <ele>219.2</ele>
        <time>2022-05-16T12:51:53Z</time>
      </trkpt>
      <trkpt lat="46.38761" lon="5.32871">
        <ele>219.2</ele>
        <time>2022-05-16T12:51:54Z</time>
      </trkpt>
      <trkpt lat="46.38761" lon="5.3286">
        <ele>219.2</ele>
        <time>2022-05-16T12:51:55Z</time>
      </trkpt>
      <trkpt lat="46.38762" lon="5.32828">
        <ele>219.2</ele>
        <time>2022-05-16T12:51:58Z</time>
      </trkpt>
      <trkpt lat="46.38775" lon="5.32778">
        <ele>219</ele>
        <time>2022-05-16T12:52:03Z</time>
      </trkpt>
      <trkpt lat="46.3879" lon="5.32719">
        <ele>218.8</ele>
        <time>2022-05-16T12:52:09Z</time>
      </trkpt>
      <trkpt lat="46.38791" lon="5.32671">
        <ele>218.4</ele>
        <time>2022-05-16T12:52:14Z</time>
      </trkpt>
      <trkpt lat="46.38791" lon="5.32661">
        <ele>218.4</ele>
        <time>2022-05-16T12:52:15Z</time>
      </trkpt>
      <trkpt lat="46.38785" lon="5.32645">
        <ele>218.4</ele>
        <time>2022-05-16T12:52:17Z</time>
      </trkpt>
      <trkpt lat="46.38764" lon="5.32627">
        <ele>218.4</ele>
        <time>2022-05-16T12:52:21Z</time>
      </trkpt>
      <trkpt lat="46.38717" lon="5.32589">
        <ele>218.8</ele>
        <time>2022-05-16T12:52:29Z</time>
      </trkpt>
      <trkpt lat="46.38675" lon="5.32547">
        <ele>218.8</ele>
        <time>2022-05-16T12:52:37Z</time>
      </trkpt>
      <trkpt lat="46.38637" lon="5.32513">
        <ele>218.8</ele>
        <time>2022-05-16T12:52:44Z</time>
      </trkpt>
      <trkpt lat="46.38607" lon="5.32492">
        <ele>218.4</ele>
        <time>2022-05-16T12:52:49Z</time>
      </trkpt>
      <trkpt lat="46.38601" lon="5.32487">
        <ele>218.2</ele>
        <time>2022-05-16T12:52:50Z</time>
      </trkpt>
      <trkpt lat="46.38567" lon="5.32453">
        <ele>217.8</ele>
        <time>2022-05-16T12:52:56Z</time>
      </trkpt>
      <trkpt lat="46.38542" lon="5.32431">
        <ele>217.2</ele>
        <time>2022-05-16T12:53:00Z</time>
      </trkpt>
      <trkpt lat="46.38517" lon="5.32407">
        <ele>217</ele>
        <time>2022-05-16T12:53:04Z</time>
      </trkpt>
      <trkpt lat="46.38495" lon="5.32381">
        <ele>217</ele>
        <time>2022-05-16T12:53:08Z</time>
      </trkpt>
      <trkpt lat="46.38488" lon="5.32376">
        <ele>216.8</ele>
        <time>2022-05-16T12:53:09Z</time>
      </trkpt>
      <trkpt lat="46.38462" lon="5.32363">
        <ele>216.8</ele>
        <time>2022-05-16T12:53:13Z</time>
      </trkpt>
      <trkpt lat="46.38455" lon="5.32363">
        <ele>216.8</ele>
        <time>2022-05-16T12:53:14Z</time>
      </trkpt>
      <trkpt lat="46.38449" lon="5.32365">
        <ele>216.8</ele>
        <time>2022-05-16T12:53:15Z</time>
      </trkpt>
      <trkpt lat="46.38436" lon="5.32374">
        <ele>216.8</ele>
        <time>2022-05-16T12:53:17Z</time>
      </trkpt>
      <trkpt lat="46.38426" lon="5.32389">
        <ele>216.8</ele>
        <time>2022-05-16T12:53:19Z</time>
      </trkpt>
      <trkpt lat="46.38418" lon="5.32406">
        <ele>216.6</ele>
        <time>2022-05-16T12:53:21Z</time>
      </trkpt>
      <trkpt lat="46.38411" lon="5.32423">
        <ele>216.6</ele>
        <time>2022-05-16T12:53:23Z</time>
      </trkpt>
      <trkpt lat="46.38408" lon="5.32442">
        <ele>216.8</ele>
        <time>2022-05-16T12:53:25Z</time>
      </trkpt>
      <trkpt lat="46.38401" lon="5.32479">
        <ele>216.6</ele>
        <time>2022-05-16T12:53:29Z</time>
      </trkpt>
      <trkpt lat="46.38392" lon="5.32495">
        <ele>216.6</ele>
        <time>2022-05-16T12:53:31Z</time>
      </trkpt>
      <trkpt lat="46.38379" lon="5.32503">
        <ele>216.6</ele>
        <time>2022-05-16T12:53:33Z</time>
      </trkpt>
      <trkpt lat="46.38372" lon="5.32504">
        <ele>216.6</ele>
        <time>2022-05-16T12:53:34Z</time>
      </trkpt>
      <trkpt lat="46.38337" lon="5.32494">
        <ele>216.2</ele>
        <time>2022-05-16T12:53:39Z</time>
      </trkpt>
      <trkpt lat="46.38291" lon="5.32478">
        <ele>216.2</ele>
        <time>2022-05-16T12:53:46Z</time>
      </trkpt>
      <trkpt lat="46.38252" lon="5.32472">
        <ele>215.8</ele>
        <time>2022-05-16T12:53:52Z</time>
      </trkpt>
      <trkpt lat="46.38245" lon="5.32471">
        <ele>215.8</ele>
        <time>2022-05-16T12:53:53Z</time>
      </trkpt>
      <trkpt lat="46.38226" lon="5.32463">
        <ele>216</ele>
        <time>2022-05-16T12:53:56Z</time>
      </trkpt>
      <trkpt lat="46.38195" lon="5.32435">
        <ele>215.6</ele>
        <time>2022-05-16T12:54:01Z</time>
      </trkpt>
      <trkpt lat="46.38165" lon="5.32406">
        <ele>215.2</ele>
        <time>2022-05-16T12:54:06Z</time>
      </trkpt>
      <trkpt lat="46.38147" lon="5.3239">
        <ele>215.2</ele>
        <time>2022-05-16T12:54:09Z</time>
      </trkpt>
      <trkpt lat="46.38119" lon="5.32359">
        <ele>215.2</ele>
        <time>2022-05-16T12:54:14Z</time>
      </trkpt>
      <trkpt lat="46.38095" lon="5.32308">
        <ele>215.4</ele>
        <time>2022-05-16T12:54:20Z</time>
      </trkpt>
      <trkpt lat="46.38091" lon="5.323">
        <ele>215.4</ele>
        <time>2022-05-16T12:54:21Z</time>
      </trkpt>
      <trkpt lat="46.38083" lon="5.32286">
        <ele>215.4</ele>
        <time>2022-05-16T12:54:23Z</time>
      </trkpt>
      <trkpt lat="46.38078" lon="5.3228">
        <ele>215.6</ele>
        <time>2022-05-16T12:54:24Z</time>
      </trkpt>
      <trkpt lat="46.38073" lon="5.32275">
        <ele>215.6</ele>
        <time>2022-05-16T12:54:25Z</time>
      </trkpt>
      <trkpt lat="46.38063" lon="5.32269">
        <ele>215.8</ele>
        <time>2022-05-16T12:54:27Z</time>
      </trkpt>
      <trkpt lat="46.38058" lon="5.32265">
        <ele>215.8</ele>
        <time>2022-05-16T12:54:28Z</time>
      </trkpt>
      <trkpt lat="46.38051" lon="5.32254">
        <ele>216.4</ele>
        <time>2022-05-16T12:54:30Z</time>
      </trkpt>
      <trkpt lat="46.38049" lon="5.32248">
        <ele>216.6</ele>
        <time>2022-05-16T12:54:31Z</time>
      </trkpt>
      <trkpt lat="46.38046" lon="5.32233">
        <ele>217</ele>
        <time>2022-05-16T12:54:33Z</time>
      </trkpt>
      <trkpt lat="46.38041" lon="5.32207">
        <ele>217</ele>
        <time>2022-05-16T12:54:36Z</time>
      </trkpt>
      <trkpt lat="46.38025" lon="5.3215">
        <ele>216.6</ele>
        <time>2022-05-16T12:54:42Z</time>
      </trkpt>
      <trkpt lat="46.38006" lon="5.32112">
        <ele>216.4</ele>
        <time>2022-05-16T12:54:46Z</time>
      </trkpt>
      <trkpt lat="46.37972" lon="5.32058">
        <ele>215.2</ele>
        <time>2022-05-16T12:54:52Z</time>
      </trkpt>
      <trkpt lat="46.37963" lon="5.3204">
        <ele>215</ele>
        <time>2022-05-16T12:54:54Z</time>
      </trkpt>
      <trkpt lat="46.37948" lon="5.31991">
        <ele>214.6</ele>
        <time>2022-05-16T12:54:59Z</time>
      </trkpt>
      <trkpt lat="46.37931" lon="5.31923">
        <ele>214.4</ele>
        <time>2022-05-16T12:55:06Z</time>
      </trkpt>
      <trkpt lat="46.37912" lon="5.3188">
        <ele>214.8</ele>
        <time>2022-05-16T12:55:11Z</time>
      </trkpt>
      <trkpt lat="46.37876" lon="5.31827">
        <ele>215.2</ele>
        <time>2022-05-16T12:55:18Z</time>
      </trkpt>
      <trkpt lat="46.3785" lon="5.31789">
        <ele>215.2</ele>
        <time>2022-05-16T12:55:23Z</time>
      </trkpt>
      <trkpt lat="46.37809" lon="5.31729">
        <ele>214.4</ele>
        <time>2022-05-16T12:55:31Z</time>
      </trkpt>
      <trkpt lat="46.37799" lon="5.31714">
        <ele>214.2</ele>
        <time>2022-05-16T12:55:33Z</time>
      </trkpt>
      <trkpt lat="46.37774" lon="5.3168">
        <ele>214</ele>
        <time>2022-05-16T12:55:38Z</time>
      </trkpt>
      <trkpt lat="46.37738" lon="5.31631">
        <ele>213.8</ele>
        <time>2022-05-16T12:55:45Z</time>
      </trkpt>
      <trkpt lat="46.37722" lon="5.31609">
        <ele>213.2</ele>
        <time>2022-05-16T12:55:48Z</time>
      </trkpt>
      <trkpt lat="46.37702" lon="5.31579">
        <ele>213</ele>
        <time>2022-05-16T12:55:52Z</time>
      </trkpt>
      <trkpt lat="46.3766" lon="5.31515">
        <ele>212.8</ele>
        <time>2022-05-16T12:56:00Z</time>
      </trkpt>
      <trkpt lat="46.37649" lon="5.31499">
        <ele>212.6</ele>
        <time>2022-05-16T12:56:02Z</time>
      </trkpt>
      <trkpt lat="46.37619" lon="5.31451">
        <ele>212.2</ele>
        <time>2022-05-16T12:56:08Z</time>
      </trkpt>
      <trkpt lat="46.37588" lon="5.31408">
        <ele>212</ele>
        <time>2022-05-16T12:56:14Z</time>
      </trkpt>
      <trkpt lat="46.3755" lon="5.31351">
        <ele>211.8</ele>
        <time>2022-05-16T12:56:22Z</time>
      </trkpt>
      <trkpt lat="46.37511" lon="5.31294">
        <ele>212.2</ele>
        <time>2022-05-16T12:56:30Z</time>
      </trkpt>
      <trkpt lat="46.37506" lon="5.31287">
        <ele>212.2</ele>
        <time>2022-05-16T12:56:31Z</time>
      </trkpt>
      <trkpt lat="46.37466" lon="5.31228">
        <ele>212.2</ele>
        <time>2022-05-16T12:56:39Z</time>
      </trkpt>
      <trkpt lat="46.37456" lon="5.31214">
        <ele>212.2</ele>
        <time>2022-05-16T12:56:41Z</time>
      </trkpt>
      <trkpt lat="46.37418" lon="5.31158">
        <ele>212.2</ele>
        <time>2022-05-16T12:56:49Z</time>
      </trkpt>
      <trkpt lat="46.37403" lon="5.31135">
        <ele>212.2</ele>
        <time>2022-05-16T12:56:52Z</time>
      </trkpt>
      <trkpt lat="46.37361" lon="5.31074">
        <ele>211.8</ele>
        <time>2022-05-16T12:57:00Z</time>
      </trkpt>
      <trkpt lat="46.37356" lon="5.31067">
        <ele>211.6</ele>
        <time>2022-05-16T12:57:01Z</time>
      </trkpt>
      <trkpt lat="46.3733" lon="5.31028">
        <ele>211</ele>
        <time>2022-05-16T12:57:06Z</time>
      </trkpt>
      <trkpt lat="46.37309" lon="5.30998">
        <ele>210.8</ele>
        <time>2022-05-16T12:57:10Z</time>
      </trkpt>
      <trkpt lat="46.37268" lon="5.30939">
        <ele>210.8</ele>
        <time>2022-05-16T12:57:18Z</time>
      </trkpt>
      <trkpt lat="46.37228" lon="5.30881">
        <ele>210.8</ele>
        <time>2022-05-16T12:57:26Z</time>
      </trkpt>
      <trkpt lat="46.37189" lon="5.30822">
        <ele>210.6</ele>
        <time>2022-05-16T12:57:34Z</time>
      </trkpt>
      <trkpt lat="46.3718" lon="5.30807">
        <ele>210.6</ele>
        <time>2022-05-16T12:57:36Z</time>
      </trkpt>
      <trkpt lat="46.37151" lon="5.3074">
        <ele>210.4</ele>
        <time>2022-05-16T12:57:44Z</time>
      </trkpt>
      <trkpt lat="46.37129" lon="5.30668">
        <ele>210.4</ele>
        <time>2022-05-16T12:57:52Z</time>
      </trkpt>
      <trkpt lat="46.37127" lon="5.30658">
        <ele>210.4</ele>
        <time>2022-05-16T12:57:53Z</time>
      </trkpt>
      <trkpt lat="46.37116" lon="5.30591">
        <ele>210.4</ele>
        <time>2022-05-16T12:58:00Z</time>
      </trkpt>
      <trkpt lat="46.37119" lon="5.30531">
        <ele>210.4</ele>
        <time>2022-05-16T12:58:06Z</time>
      </trkpt>
      <trkpt lat="46.37125" lon="5.30452">
        <ele>210.8</ele>
        <time>2022-05-16T12:58:14Z</time>
      </trkpt>
      <trkpt lat="46.37127" lon="5.30433">
        <ele>210.6</ele>
        <time>2022-05-16T12:58:16Z</time>
      </trkpt>
      <trkpt lat="46.37133" lon="5.3035">
        <ele>211.2</ele>
        <time>2022-05-16T12:58:25Z</time>
      </trkpt>
      <trkpt lat="46.37134" lon="5.3034">
        <ele>211.2</ele>
        <time>2022-05-16T12:58:26Z</time>
      </trkpt>
      <trkpt lat="46.3714" lon="5.30277">
        <ele>211.4</ele>
        <time>2022-05-16T12:58:33Z</time>
      </trkpt>
      <trkpt lat="46.37141" lon="5.30269">
        <ele>211.4</ele>
        <time>2022-05-16T12:58:34Z</time>
      </trkpt>
      <trkpt lat="46.37146" lon="5.30253">
        <ele>211.6</ele>
        <time>2022-05-16T12:58:36Z</time>
      </trkpt>
      <trkpt lat="46.3715" lon="5.30246">
        <ele>211.6</ele>
        <time>2022-05-16T12:58:37Z</time>
      </trkpt>
      <trkpt lat="46.37153" lon="5.30242">
        <ele>211.8</ele>
        <time>2022-05-16T12:58:38Z</time>
      </trkpt>
      <trkpt lat="46.37161" lon="5.30232">
        <ele>212.2</ele>
        <time>2022-05-16T12:58:40Z</time>
      </trkpt>
      <trkpt lat="46.37166" lon="5.30228">
        <ele>212.2</ele>
        <time>2022-05-16T12:58:41Z</time>
      </trkpt>
      <trkpt lat="46.37186" lon="5.30217">
        <ele>212.6</ele>
        <time>2022-05-16T12:58:45Z</time>
      </trkpt>
      <trkpt lat="46.372" lon="5.30209">
        <ele>213.4</ele>
        <time>2022-05-16T12:58:48Z</time>
      </trkpt>
      <trkpt lat="46.37205" lon="5.30207">
        <ele>213.8</ele>
        <time>2022-05-16T12:58:49Z</time>
      </trkpt>
      <trkpt lat="46.37223" lon="5.30197">
        <ele>215</ele>
        <time>2022-05-16T12:58:53Z</time>
      </trkpt>
      <trkpt lat="46.37236" lon="5.3019">
        <ele>215.6</ele>
        <time>2022-05-16T12:58:56Z</time>
      </trkpt>
      <trkpt lat="46.3724" lon="5.30187">
        <ele>215.8</ele>
        <time>2022-05-16T12:58:57Z</time>
      </trkpt>
      <trkpt lat="46.37244" lon="5.30184">
        <ele>216.6</ele>
        <time>2022-05-16T12:58:58Z</time>
      </trkpt>
      <trkpt lat="46.37247" lon="5.3018">
        <ele>216.8</ele>
        <time>2022-05-16T12:58:59Z</time>
      </trkpt>
      <trkpt lat="46.3725" lon="5.30176">
        <ele>217.2</ele>
        <time>2022-05-16T12:59:00Z</time>
      </trkpt>
      <trkpt lat="46.37253" lon="5.30172">
        <ele>217.4</ele>
        <time>2022-05-16T12:59:01Z</time>
      </trkpt>
      <trkpt lat="46.37258" lon="5.30162">
        <ele>217.6</ele>
        <time>2022-05-16T12:59:03Z</time>
      </trkpt>
      <trkpt lat="46.37261" lon="5.30151">
        <ele>218.2</ele>
        <time>2022-05-16T12:59:05Z</time>
      </trkpt>
      <trkpt lat="46.37262" lon="5.3014">
        <ele>218.8</ele>
        <time>2022-05-16T12:59:07Z</time>
      </trkpt>
      <trkpt lat="46.37263" lon="5.3011">
        <ele>219.6</ele>
        <time>2022-05-16T12:59:12Z</time>
      </trkpt>
      <trkpt lat="46.37262" lon="5.30098">
        <ele>220</ele>
        <time>2022-05-16T12:59:14Z</time>
      </trkpt>
      <trkpt lat="46.37261" lon="5.30069">
        <ele>221</ele>
        <time>2022-05-16T12:59:19Z</time>
      </trkpt>
      <trkpt lat="46.3726" lon="5.30053">
        <ele>221.4</ele>
        <time>2022-05-16T12:59:22Z</time>
      </trkpt>
      <trkpt lat="46.3726" lon="5.3004">
        <ele>222</ele>
        <time>2022-05-16T12:59:24Z</time>
      </trkpt>
      <trkpt lat="46.37262" lon="5.30009">
        <ele>223</ele>
        <time>2022-05-16T12:59:30Z</time>
      </trkpt>
      <trkpt lat="46.37274" lon="5.29986">
        <ele>224.2</ele>
        <time>2022-05-16T12:59:35Z</time>
      </trkpt>
      <trkpt lat="46.37295" lon="5.29973">
        <ele>224.8</ele>
        <time>2022-05-16T12:59:41Z</time>
      </trkpt>
      <trkpt lat="46.37302" lon="5.29969">
        <ele>225.2</ele>
        <time>2022-05-16T12:59:43Z</time>
      </trkpt>
      <trkpt lat="46.37315" lon="5.29956">
        <ele>226.4</ele>
        <time>2022-05-16T12:59:47Z</time>
      </trkpt>
      <trkpt lat="46.37316" lon="5.29934">
        <ele>227.4</ele>
        <time>2022-05-16T12:59:51Z</time>
      </trkpt>
      <trkpt lat="46.37308" lon="5.29915">
        <ele>228.4</ele>
        <time>2022-05-16T12:59:55Z</time>
      </trkpt>
      <trkpt lat="46.37305" lon="5.29912">
        <ele>228.4</ele>
        <time>2022-05-16T12:59:56Z</time>
      </trkpt>
      <trkpt lat="46.3729" lon="5.29904">
        <ele>229.4</ele>
        <time>2022-05-16T13:00:00Z</time>
      </trkpt>
      <trkpt lat="46.37286" lon="5.29903">
        <ele>229.8</ele>
        <time>2022-05-16T13:00:01Z</time>
      </trkpt>
      <trkpt lat="46.37267" lon="5.29903">
        <ele>230.8</ele>
        <time>2022-05-16T13:00:06Z</time>
      </trkpt>
      <trkpt lat="46.37263" lon="5.29904">
        <ele>231</ele>
        <time>2022-05-16T13:00:07Z</time>
      </trkpt>
      <trkpt lat="46.37251" lon="5.29906">
        <ele>232.4</ele>
        <time>2022-05-16T13:00:10Z</time>
      </trkpt>
      <trkpt lat="46.37236" lon="5.2991">
        <ele>233.2</ele>
        <time>2022-05-16T13:00:14Z</time>
      </trkpt>
      <trkpt lat="46.37231" lon="5.29912">
        <ele>233.4</ele>
        <time>2022-05-16T13:00:15Z</time>
      </trkpt>
      <trkpt lat="46.37209" lon="5.29923">
        <ele>234.2</ele>
        <time>2022-05-16T13:00:20Z</time>
      </trkpt>
      <trkpt lat="46.37205" lon="5.29925">
        <ele>234.4</ele>
        <time>2022-05-16T13:00:21Z</time>
      </trkpt>
      <trkpt lat="46.37201" lon="5.29926">
        <ele>234.6</ele>
        <time>2022-05-16T13:00:22Z</time>
      </trkpt>
      <trkpt lat="46.37191" lon="5.29927">
        <ele>234.8</ele>
        <time>2022-05-16T13:00:24Z</time>
      </trkpt>
      <trkpt lat="46.37181" lon="5.29927">
        <ele>235.2</ele>
        <time>2022-05-16T13:00:26Z</time>
      </trkpt>
      <trkpt lat="46.37167" lon="5.29921">
        <ele>235.4</ele>
        <time>2022-05-16T13:00:29Z</time>
      </trkpt>
      <trkpt lat="46.37158" lon="5.29915">
        <ele>235.6</ele>
        <time>2022-05-16T13:00:31Z</time>
      </trkpt>
      <trkpt lat="46.37132" lon="5.29898">
        <ele>235.8</ele>
        <time>2022-05-16T13:00:36Z</time>
      </trkpt>
      <trkpt lat="46.37095" lon="5.29871">
        <ele>235.2</ele>
        <time>2022-05-16T13:00:42Z</time>
      </trkpt>
      <trkpt lat="46.37075" lon="5.29856">
        <ele>234.4</ele>
        <time>2022-05-16T13:00:45Z</time>
      </trkpt>
      <trkpt lat="46.37041" lon="5.29833">
        <ele>233.4</ele>
        <time>2022-05-16T13:00:50Z</time>
      </trkpt>
      <trkpt lat="46.37026" lon="5.29823">
        <ele>232.8</ele>
        <time>2022-05-16T13:00:52Z</time>
      </trkpt>
      <trkpt lat="46.3701" lon="5.29818">
        <ele>232.2</ele>
        <time>2022-05-16T13:00:54Z</time>
      </trkpt>
      <trkpt lat="46.3698" lon="5.29817">
        <ele>231.2</ele>
        <time>2022-05-16T13:00:58Z</time>
      </trkpt>
      <trkpt lat="46.36974" lon="5.29816">
        <ele>231.2</ele>
        <time>2022-05-16T13:00:59Z</time>
      </trkpt>
      <trkpt lat="46.36945" lon="5.2981">
        <ele>231.8</ele>
        <time>2022-05-16T13:01:04Z</time>
      </trkpt>
      <trkpt lat="46.36935" lon="5.2981">
        <ele>232.2</ele>
        <time>2022-05-16T13:01:06Z</time>
      </trkpt>
      <trkpt lat="46.36925" lon="5.29812">
        <ele>232.6</ele>
        <time>2022-05-16T13:01:08Z</time>
      </trkpt>
      <trkpt lat="46.3692" lon="5.29814">
        <ele>233</ele>
        <time>2022-05-16T13:01:09Z</time>
      </trkpt>
      <trkpt lat="46.36906" lon="5.29818">
        <ele>233.6</ele>
        <time>2022-05-16T13:01:12Z</time>
      </trkpt>
      <trkpt lat="46.36887" lon="5.29824">
        <ele>234.8</ele>
        <time>2022-05-16T13:01:16Z</time>
      </trkpt>
      <trkpt lat="46.36868" lon="5.2983">
        <ele>235.8</ele>
        <time>2022-05-16T13:01:20Z</time>
      </trkpt>
      <trkpt lat="46.36844" lon="5.29837">
        <ele>236.8</ele>
        <time>2022-05-16T13:01:25Z</time>
      </trkpt>
      <trkpt lat="46.36828" lon="5.29843">
        <ele>237.2</ele>
        <time>2022-05-16T13:01:28Z</time>
      </trkpt>
      <trkpt lat="46.36816" lon="5.29845">
        <ele>237.6</ele>
        <time>2022-05-16T13:01:30Z</time>
      </trkpt>
      <trkpt lat="46.36804" lon="5.29844">
        <ele>237.8</ele>
        <time>2022-05-16T13:01:32Z</time>
      </trkpt>
      <trkpt lat="46.36797" lon="5.29842">
        <ele>237.8</ele>
        <time>2022-05-16T13:01:33Z</time>
      </trkpt>
      <trkpt lat="46.3677" lon="5.29828">
        <ele>237.8</ele>
        <time>2022-05-16T13:01:37Z</time>
      </trkpt>
      <trkpt lat="46.3673" lon="5.29798">
        <ele>237.2</ele>
        <time>2022-05-16T13:01:43Z</time>
      </trkpt>
      <trkpt lat="46.36683" lon="5.2976">
        <ele>236.6</ele>
        <time>2022-05-16T13:01:50Z</time>
      </trkpt>
      <trkpt lat="46.36631" lon="5.29732">
        <ele>236.6</ele>
        <time>2022-05-16T13:01:58Z</time>
      </trkpt>
      <trkpt lat="46.3658" lon="5.29707">
        <ele>236.8</ele>
        <time>2022-05-16T13:02:06Z</time>
      </trkpt>
      <trkpt lat="46.36568" lon="5.29701">
        <ele>237</ele>
        <time>2022-05-16T13:02:08Z</time>
      </trkpt>
      <trkpt lat="46.36509" lon="5.29679">
        <ele>237.4</ele>
        <time>2022-05-16T13:02:17Z</time>
      </trkpt>
      <trkpt lat="46.36458" lon="5.29652">
        <ele>237.4</ele>
        <time>2022-05-16T13:02:25Z</time>
      </trkpt>
      <trkpt lat="46.36419" lon="5.29624">
        <ele>237.8</ele>
        <time>2022-05-16T13:02:32Z</time>
      </trkpt>
      <trkpt lat="46.36414" lon="5.2962">
        <ele>238.2</ele>
        <time>2022-05-16T13:02:33Z</time>
      </trkpt>
      <trkpt lat="46.36393" lon="5.29602">
        <ele>238.8</ele>
        <time>2022-05-16T13:02:37Z</time>
      </trkpt>
      <trkpt lat="46.36388" lon="5.29596">
        <ele>238.8</ele>
        <time>2022-05-16T13:02:38Z</time>
      </trkpt>
      <trkpt lat="46.36364" lon="5.29558">
        <ele>239.2</ele>
        <time>2022-05-16T13:02:44Z</time>
      </trkpt>
      <trkpt lat="46.36354" lon="5.29537">
        <ele>239.2</ele>
        <time>2022-05-16T13:02:47Z</time>
      </trkpt>
      <trkpt lat="46.3634" lon="5.29517">
        <ele>239.2</ele>
        <time>2022-05-16T13:02:50Z</time>
      </trkpt>
      <trkpt lat="46.36329" lon="5.29506">
        <ele>239.2</ele>
        <time>2022-05-16T13:02:52Z</time>
      </trkpt>
      <trkpt lat="46.36317" lon="5.29495">
        <ele>239</ele>
        <time>2022-05-16T13:02:54Z</time>
      </trkpt>
      <trkpt lat="46.36304" lon="5.29484">
        <ele>239</ele>
        <time>2022-05-16T13:02:56Z</time>
      </trkpt>
      <trkpt lat="46.36283" lon="5.29472">
        <ele>238.6</ele>
        <time>2022-05-16T13:02:59Z</time>
      </trkpt>
      <trkpt lat="46.36275" lon="5.2947">
        <ele>238.2</ele>
        <time>2022-05-16T13:03:00Z</time>
      </trkpt>
      <trkpt lat="46.3625" lon="5.29464">
        <ele>237.4</ele>
        <time>2022-05-16T13:03:03Z</time>
      </trkpt>
      <trkpt lat="46.36242" lon="5.29464">
        <ele>237.2</ele>
        <time>2022-05-16T13:03:04Z</time>
      </trkpt>
      <trkpt lat="46.36234" lon="5.29466">
        <ele>237</ele>
        <time>2022-05-16T13:03:05Z</time>
      </trkpt>
      <trkpt lat="46.36221" lon="5.29475">
        <ele>236.6</ele>
        <time>2022-05-16T13:03:07Z</time>
      </trkpt>
      <trkpt lat="46.36188" lon="5.29508">
        <ele>236.6</ele>
        <time>2022-05-16T13:03:13Z</time>
      </trkpt>
      <trkpt lat="46.36156" lon="5.29526">
        <ele>237.8</ele>
        <time>2022-05-16T13:03:18Z</time>
      </trkpt>
      <trkpt lat="46.36114" lon="5.29533">
        <ele>238</ele>
        <time>2022-05-16T13:03:23Z</time>
      </trkpt>
      <trkpt lat="46.36054" lon="5.2954">
        <ele>237.6</ele>
        <time>2022-05-16T13:03:30Z</time>
      </trkpt>
      <trkpt lat="46.35997" lon="5.29546">
        <ele>237.4</ele>
        <time>2022-05-16T13:03:37Z</time>
      </trkpt>
      <trkpt lat="46.35981" lon="5.29549">
        <ele>237.4</ele>
        <time>2022-05-16T13:03:39Z</time>
      </trkpt>
      <trkpt lat="46.35922" lon="5.29553">
        <ele>237</ele>
        <time>2022-05-16T13:03:47Z</time>
      </trkpt>
      <trkpt lat="46.35915" lon="5.29553">
        <ele>237</ele>
        <time>2022-05-16T13:03:48Z</time>
      </trkpt>
      <trkpt lat="46.359" lon="5.29552">
        <ele>237</ele>
        <time>2022-05-16T13:03:50Z</time>
      </trkpt>
      <trkpt lat="46.35881" lon="5.29547">
        <ele>237.4</ele>
        <time>2022-05-16T13:03:53Z</time>
      </trkpt>
      <trkpt lat="46.35864" lon="5.29542">
        <ele>238</ele>
        <time>2022-05-16T13:03:56Z</time>
      </trkpt>
      <trkpt lat="46.35853" lon="5.29541">
        <ele>238.4</ele>
        <time>2022-05-16T13:03:58Z</time>
      </trkpt>
      <trkpt lat="46.35836" lon="5.29542">
        <ele>239.2</ele>
        <time>2022-05-16T13:04:01Z</time>
      </trkpt>
      <trkpt lat="46.35825" lon="5.29542">
        <ele>239.4</ele>
        <time>2022-05-16T13:04:03Z</time>
      </trkpt>
      <trkpt lat="46.35812" lon="5.29541">
        <ele>239.8</ele>
        <time>2022-05-16T13:04:05Z</time>
      </trkpt>
      <trkpt lat="46.35781" lon="5.2954">
        <ele>240.4</ele>
        <time>2022-05-16T13:04:10Z</time>
      </trkpt>
      <trkpt lat="46.35776" lon="5.2954">
        <ele>240.6</ele>
        <time>2022-05-16T13:04:11Z</time>
      </trkpt>
      <trkpt lat="46.35771" lon="5.29539">
        <ele>240.8</ele>
        <time>2022-05-16T13:04:12Z</time>
      </trkpt>
      <trkpt lat="46.35756" lon="5.29538">
        <ele>241.2</ele>
        <time>2022-05-16T13:04:15Z</time>
      </trkpt>
      <trkpt lat="46.35751" lon="5.29537">
        <ele>241.6</ele>
        <time>2022-05-16T13:04:16Z</time>
      </trkpt>
      <trkpt lat="46.35728" lon="5.29538">
        <ele>242.2</ele>
        <time>2022-05-16T13:04:20Z</time>
      </trkpt>
      <trkpt lat="46.35705" lon="5.29547">
        <ele>242.6</ele>
        <time>2022-05-16T13:04:24Z</time>
      </trkpt>
      <trkpt lat="46.357" lon="5.29551">
        <ele>242.6</ele>
        <time>2022-05-16T13:04:25Z</time>
      </trkpt>
      <trkpt lat="46.35693" lon="5.29556">
        <ele>242.6</ele>
        <time>2022-05-16T13:04:26Z</time>
      </trkpt>
      <trkpt lat="46.35673" lon="5.29579">
        <ele>242.8</ele>
        <time>2022-05-16T13:04:30Z</time>
      </trkpt>
      <trkpt lat="46.3563" lon="5.29607">
        <ele>242.6</ele>
        <time>2022-05-16T13:04:37Z</time>
      </trkpt>
      <trkpt lat="46.35577" lon="5.29635">
        <ele>242.8</ele>
        <time>2022-05-16T13:04:46Z</time>
      </trkpt>
      <trkpt lat="46.35531" lon="5.29647">
        <ele>243.2</ele>
        <time>2022-05-16T13:04:53Z</time>
      </trkpt>
      <trkpt lat="46.35501" lon="5.29655">
        <ele>243.2</ele>
        <time>2022-05-16T13:04:57Z</time>
      </trkpt>
      <trkpt lat="46.35496" lon="5.29659">
        <ele>243</ele>
        <time>2022-05-16T13:04:58Z</time>
      </trkpt>
      <trkpt lat="46.3549" lon="5.29668">
        <ele>242.8</ele>
        <time>2022-05-16T13:04:59Z</time>
      </trkpt>
      <trkpt lat="46.3548" lon="5.29685">
        <ele>242.6</ele>
        <time>2022-05-16T13:05:01Z</time>
      </trkpt>
      <trkpt lat="46.35467" lon="5.29696">
        <ele>242.6</ele>
        <time>2022-05-16T13:05:03Z</time>
      </trkpt>
      <trkpt lat="46.35461" lon="5.29696">
        <ele>242.6</ele>
        <time>2022-05-16T13:05:04Z</time>
      </trkpt>
      <trkpt lat="46.35454" lon="5.29695">
        <ele>242.6</ele>
        <time>2022-05-16T13:05:05Z</time>
      </trkpt>
      <trkpt lat="46.35424" lon="5.29687">
        <ele>242.6</ele>
        <time>2022-05-16T13:05:09Z</time>
      </trkpt>
      <trkpt lat="46.35375" lon="5.29669">
        <ele>243.2</ele>
        <time>2022-05-16T13:05:16Z</time>
      </trkpt>
      <trkpt lat="46.35325" lon="5.29653">
        <ele>243.6</ele>
        <time>2022-05-16T13:05:23Z</time>
      </trkpt>
      <trkpt lat="46.35311" lon="5.2965">
        <ele>243.8</ele>
        <time>2022-05-16T13:05:25Z</time>
      </trkpt>
      <trkpt lat="46.35253" lon="5.29642">
        <ele>243.8</ele>
        <time>2022-05-16T13:05:33Z</time>
      </trkpt>
      <trkpt lat="46.35195" lon="5.2965">
        <ele>243.2</ele>
        <time>2022-05-16T13:05:41Z</time>
      </trkpt>
      <trkpt lat="46.35143" lon="5.29657">
        <ele>242.6</ele>
        <time>2022-05-16T13:05:47Z</time>
      </trkpt>
      <trkpt lat="46.35108" lon="5.29661">
        <ele>241.4</ele>
        <time>2022-05-16T13:05:51Z</time>
      </trkpt>
      <trkpt lat="46.35081" lon="5.2966">
        <ele>240.6</ele>
        <time>2022-05-16T13:05:54Z</time>
      </trkpt>
      <trkpt lat="46.35064" lon="5.29656">
        <ele>240.2</ele>
        <time>2022-05-16T13:05:56Z</time>
      </trkpt>
      <trkpt lat="46.35056" lon="5.29652">
        <ele>240.2</ele>
        <time>2022-05-16T13:05:57Z</time>
      </trkpt>
      <trkpt lat="46.35049" lon="5.29648">
        <ele>240</ele>
        <time>2022-05-16T13:05:58Z</time>
      </trkpt>
      <trkpt lat="46.35021" lon="5.29635">
        <ele>240</ele>
        <time>2022-05-16T13:06:02Z</time>
      </trkpt>
      <trkpt lat="46.34989" lon="5.29631">
        <ele>241.4</ele>
        <time>2022-05-16T13:06:07Z</time>
      </trkpt>
      <trkpt lat="46.34977" lon="5.29632">
        <ele>241.8</ele>
        <time>2022-05-16T13:06:09Z</time>
      </trkpt>
      <trkpt lat="46.34958" lon="5.29642">
        <ele>242.2</ele>
        <time>2022-05-16T13:06:12Z</time>
      </trkpt>
      <trkpt lat="46.34952" lon="5.29647">
        <ele>242.2</ele>
        <time>2022-05-16T13:06:13Z</time>
      </trkpt>
      <trkpt lat="46.3494" lon="5.2966">
        <ele>242.6</ele>
        <time>2022-05-16T13:06:15Z</time>
      </trkpt>
      <trkpt lat="46.34933" lon="5.29663">
        <ele>242.6</ele>
        <time>2022-05-16T13:06:16Z</time>
      </trkpt>
      <trkpt lat="46.34925" lon="5.29664">
        <ele>242.6</ele>
        <time>2022-05-16T13:06:17Z</time>
      </trkpt>
      <trkpt lat="46.3491" lon="5.29659">
        <ele>242.6</ele>
        <time>2022-05-16T13:06:19Z</time>
      </trkpt>
      <trkpt lat="46.34879" lon="5.29637">
        <ele>242.8</ele>
        <time>2022-05-16T13:06:24Z</time>
      </trkpt>
      <trkpt lat="46.34839" lon="5.29618">
        <ele>242.8</ele>
        <time>2022-05-16T13:06:30Z</time>
      </trkpt>
      <trkpt lat="46.34819" lon="5.29613">
        <ele>243</ele>
        <time>2022-05-16T13:06:33Z</time>
      </trkpt>
      <trkpt lat="46.34806" lon="5.29613">
        <ele>243</ele>
        <time>2022-05-16T13:06:35Z</time>
      </trkpt>
      <trkpt lat="46.34751" lon="5.29621">
        <ele>242.8</ele>
        <time>2022-05-16T13:06:43Z</time>
      </trkpt>
      <trkpt lat="46.34715" lon="5.29642">
        <ele>242.4</ele>
        <time>2022-05-16T13:06:48Z</time>
      </trkpt>
      <trkpt lat="46.347" lon="5.29644">
        <ele>242</ele>
        <time>2022-05-16T13:06:50Z</time>
      </trkpt>
      <trkpt lat="46.34692" lon="5.29642">
        <ele>242</ele>
        <time>2022-05-16T13:06:51Z</time>
      </trkpt>
      <trkpt lat="46.34661" lon="5.29636">
        <ele>241.6</ele>
        <time>2022-05-16T13:06:55Z</time>
      </trkpt>
      <trkpt lat="46.34653" lon="5.29636">
        <ele>241.4</ele>
        <time>2022-05-16T13:06:56Z</time>
      </trkpt>
      <trkpt lat="46.34646" lon="5.29634">
        <ele>241.2</ele>
        <time>2022-05-16T13:06:57Z</time>
      </trkpt>
      <trkpt lat="46.34602" lon="5.29623">
        <ele>240.4</ele>
        <time>2022-05-16T13:07:03Z</time>
      </trkpt>
      <trkpt lat="46.34586" lon="5.2962">
        <ele>240.4</ele>
        <time>2022-05-16T13:07:05Z</time>
      </trkpt>
      <trkpt lat="46.34529" lon="5.29611">
        <ele>240</ele>
        <time>2022-05-16T13:07:13Z</time>
      </trkpt>
      <trkpt lat="46.34475" lon="5.296">
        <ele>239.8</ele>
        <time>2022-05-16T13:07:21Z</time>
      </trkpt>
      <trkpt lat="46.34469" lon="5.29596">
        <ele>239.8</ele>
        <time>2022-05-16T13:07:22Z</time>
      </trkpt>
      <trkpt lat="46.34463" lon="5.29591">
        <ele>239.8</ele>
        <time>2022-05-16T13:07:23Z</time>
      </trkpt>
      <trkpt lat="46.34457" lon="5.29576">
        <ele>240</ele>
        <time>2022-05-16T13:07:25Z</time>
      </trkpt>
      <trkpt lat="46.34458" lon="5.29559">
        <ele>240</ele>
        <time>2022-05-16T13:07:27Z</time>
      </trkpt>
      <trkpt lat="46.34459" lon="5.2955">
        <ele>240.2</ele>
        <time>2022-05-16T13:07:28Z</time>
      </trkpt>
      <trkpt lat="46.34469" lon="5.29492">
        <ele>241.4</ele>
        <time>2022-05-16T13:07:35Z</time>
      </trkpt>
      <trkpt lat="46.3447" lon="5.29483">
        <ele>241.8</ele>
        <time>2022-05-16T13:07:36Z</time>
      </trkpt>
      <trkpt lat="46.34471" lon="5.29475">
        <ele>241.8</ele>
        <time>2022-05-16T13:07:37Z</time>
      </trkpt>
      <trkpt lat="46.34469" lon="5.29458">
        <ele>242</ele>
        <time>2022-05-16T13:07:39Z</time>
      </trkpt>
      <trkpt lat="46.34463" lon="5.29445">
        <ele>242.4</ele>
        <time>2022-05-16T13:07:41Z</time>
      </trkpt>
      <trkpt lat="46.34459" lon="5.29439">
        <ele>242.6</ele>
        <time>2022-05-16T13:07:42Z</time>
      </trkpt>
      <trkpt lat="46.34454" lon="5.29434">
        <ele>243</ele>
        <time>2022-05-16T13:07:43Z</time>
      </trkpt>
      <trkpt lat="46.34435" lon="5.29402">
        <ele>244.2</ele>
        <time>2022-05-16T13:07:48Z</time>
      </trkpt>
      <trkpt lat="46.34411" lon="5.29357">
        <ele>244.6</ele>
        <time>2022-05-16T13:07:54Z</time>
      </trkpt>
      <trkpt lat="46.344" lon="5.29346">
        <ele>244.6</ele>
        <time>2022-05-16T13:07:56Z</time>
      </trkpt>
      <trkpt lat="46.34387" lon="5.29339">
        <ele>244.4</ele>
        <time>2022-05-16T13:07:58Z</time>
      </trkpt>
      <trkpt lat="46.34344" lon="5.29322">
        <ele>244</ele>
        <time>2022-05-16T13:08:04Z</time>
      </trkpt>
      <trkpt lat="46.3431" lon="5.293">
        <ele>243.8</ele>
        <time>2022-05-16T13:08:09Z</time>
      </trkpt>
      <trkpt lat="46.34287" lon="5.29292">
        <ele>243.2</ele>
        <time>2022-05-16T13:08:12Z</time>
      </trkpt>
      <trkpt lat="46.3428" lon="5.2929">
        <ele>243</ele>
        <time>2022-05-16T13:08:13Z</time>
      </trkpt>
      <trkpt lat="46.34264" lon="5.29287">
        <ele>242.8</ele>
        <time>2022-05-16T13:08:15Z</time>
      </trkpt>
      <trkpt lat="46.34206" lon="5.29265">
        <ele>242.6</ele>
        <time>2022-05-16T13:08:23Z</time>
      </trkpt>
      <trkpt lat="46.34199" lon="5.29262">
        <ele>242.6</ele>
        <time>2022-05-16T13:08:24Z</time>
      </trkpt>
      <trkpt lat="46.34191" lon="5.2926">
        <ele>242.4</ele>
        <time>2022-05-16T13:08:25Z</time>
      </trkpt>
      <trkpt lat="46.34175" lon="5.29261">
        <ele>242.4</ele>
        <time>2022-05-16T13:08:27Z</time>
      </trkpt>
      <trkpt lat="46.34128" lon="5.29269">
        <ele>242.2</ele>
        <time>2022-05-16T13:08:33Z</time>
      </trkpt>
      <trkpt lat="46.3412" lon="5.29271">
        <ele>242</ele>
        <time>2022-05-16T13:08:34Z</time>
      </trkpt>
      <trkpt lat="46.34106" lon="5.2928">
        <ele>241.8</ele>
        <time>2022-05-16T13:08:36Z</time>
      </trkpt>
      <trkpt lat="46.34094" lon="5.29295">
        <ele>241.6</ele>
        <time>2022-05-16T13:08:38Z</time>
      </trkpt>
      <trkpt lat="46.3409" lon="5.29304">
        <ele>241.6</ele>
        <time>2022-05-16T13:08:39Z</time>
      </trkpt>
      <trkpt lat="46.34067" lon="5.29349">
        <ele>241</ele>
        <time>2022-05-16T13:08:44Z</time>
      </trkpt>
      <trkpt lat="46.34061" lon="5.29356">
        <ele>241</ele>
        <time>2022-05-16T13:08:45Z</time>
      </trkpt>
      <trkpt lat="46.34054" lon="5.29363">
        <ele>241</ele>
        <time>2022-05-16T13:08:46Z</time>
      </trkpt>
      <trkpt lat="46.34036" lon="5.29372">
        <ele>241.2</ele>
        <time>2022-05-16T13:08:49Z</time>
      </trkpt>
      <trkpt lat="46.34005" lon="5.29387">
        <ele>241.6</ele>
        <time>2022-05-16T13:08:54Z</time>
      </trkpt>
      <trkpt lat="46.33986" lon="5.29408">
        <ele>242.2</ele>
        <time>2022-05-16T13:08:58Z</time>
      </trkpt>
      <trkpt lat="46.33981" lon="5.29414">
        <ele>242.4</ele>
        <time>2022-05-16T13:08:59Z</time>
      </trkpt>
      <trkpt lat="46.33966" lon="5.2944">
        <ele>242.8</ele>
        <time>2022-05-16T13:09:03Z</time>
      </trkpt>
      <trkpt lat="46.33961" lon="5.29455">
        <ele>243.2</ele>
        <time>2022-05-16T13:09:05Z</time>
      </trkpt>
      <trkpt lat="46.33948" lon="5.29495">
        <ele>243.8</ele>
        <time>2022-05-16T13:09:10Z</time>
      </trkpt>
      <trkpt lat="46.33944" lon="5.29503">
        <ele>243.8</ele>
        <time>2022-05-16T13:09:11Z</time>
      </trkpt>
      <trkpt lat="46.33939" lon="5.29509">
        <ele>244</ele>
        <time>2022-05-16T13:09:12Z</time>
      </trkpt>
      <trkpt lat="46.33926" lon="5.29514">
        <ele>244.2</ele>
        <time>2022-05-16T13:09:14Z</time>
      </trkpt>
      <trkpt lat="46.33885" lon="5.29516">
        <ele>244.2</ele>
        <time>2022-05-16T13:09:20Z</time>
      </trkpt>
      <trkpt lat="46.33828" lon="5.29516">
        <ele>244</ele>
        <time>2022-05-16T13:09:28Z</time>
      </trkpt>
      <trkpt lat="46.33814" lon="5.29516">
        <ele>244</ele>
        <time>2022-05-16T13:09:30Z</time>
      </trkpt>
      <trkpt lat="46.3378" lon="5.29499">
        <ele>244.2</ele>
        <time>2022-05-16T13:09:35Z</time>
      </trkpt>
      <trkpt lat="46.33774" lon="5.29494">
        <ele>244.2</ele>
        <time>2022-05-16T13:09:36Z</time>
      </trkpt>
      <trkpt lat="46.33739" lon="5.29457">
        <ele>244.2</ele>
        <time>2022-05-16T13:09:42Z</time>
      </trkpt>
      <trkpt lat="46.33698" lon="5.294">
        <ele>244.4</ele>
        <time>2022-05-16T13:09:50Z</time>
      </trkpt>
      <trkpt lat="46.33678" lon="5.29374">
        <ele>244.8</ele>
        <time>2022-05-16T13:09:54Z</time>
      </trkpt>
      <trkpt lat="46.33672" lon="5.29369">
        <ele>244.8</ele>
        <time>2022-05-16T13:09:55Z</time>
      </trkpt>
      <trkpt lat="46.33665" lon="5.29366">
        <ele>244.8</ele>
        <time>2022-05-16T13:09:56Z</time>
      </trkpt>
      <trkpt lat="46.33651" lon="5.29363">
        <ele>245</ele>
        <time>2022-05-16T13:09:58Z</time>
      </trkpt>
      <trkpt lat="46.33644" lon="5.29364">
        <ele>245</ele>
        <time>2022-05-16T13:09:59Z</time>
      </trkpt>
      <trkpt lat="46.33637" lon="5.29365">
        <ele>245</ele>
        <time>2022-05-16T13:10:00Z</time>
      </trkpt>
      <trkpt lat="46.33608" lon="5.29371">
        <ele>245.4</ele>
        <time>2022-05-16T13:10:04Z</time>
      </trkpt>
      <trkpt lat="46.33574" lon="5.29365">
        <ele>245.6</ele>
        <time>2022-05-16T13:10:09Z</time>
      </trkpt>
      <trkpt lat="46.33527" lon="5.2935">
        <ele>246.6</ele>
        <time>2022-05-16T13:10:16Z</time>
      </trkpt>
      <trkpt lat="46.33479" lon="5.29331">
        <ele>246.6</ele>
        <time>2022-05-16T13:10:23Z</time>
      </trkpt>
      <trkpt lat="46.33473" lon="5.29327">
        <ele>246.6</ele>
        <time>2022-05-16T13:10:24Z</time>
      </trkpt>
      <trkpt lat="46.33436" lon="5.29298">
        <ele>246.2</ele>
        <time>2022-05-16T13:10:30Z</time>
      </trkpt>
      <trkpt lat="46.33431" lon="5.29293">
        <ele>246.2</ele>
        <time>2022-05-16T13:10:31Z</time>
      </trkpt>
      <trkpt lat="46.33424" lon="5.29284">
        <ele>246</ele>
        <time>2022-05-16T13:10:33Z</time>
      </trkpt>
      <trkpt lat="46.33423" lon="5.29275">
        <ele>245.4</ele>
        <time>2022-05-16T13:10:36Z</time>
      </trkpt>
      <trkpt lat="46.33424" lon="5.29269">
        <ele>245</ele>
        <time>2022-05-16T13:10:38Z</time>
      </trkpt>
      <trkpt lat="46.33421" lon="5.29266">
        <ele>244.8</ele>
        <time>2022-05-16T13:10:40Z</time>
      </trkpt>
      <trkpt lat="46.33415" lon="5.2928">
        <ele>244.6</ele>
        <time>2022-05-16T13:10:43Z</time>
      </trkpt>
      <trkpt lat="46.33404" lon="5.29312">
        <ele>244.4</ele>
        <time>2022-05-16T13:10:47Z</time>
      </trkpt>
      <trkpt lat="46.33397" lon="5.2933">
        <ele>244.4</ele>
        <time>2022-05-16T13:10:49Z</time>
      </trkpt>
      <trkpt lat="46.33381" lon="5.29369">
        <ele>244.4</ele>
        <time>2022-05-16T13:10:53Z</time>
      </trkpt>
      <trkpt lat="46.33361" lon="5.29433">
        <ele>243.8</ele>
        <time>2022-05-16T13:10:59Z</time>
      </trkpt>
      <trkpt lat="46.33346" lon="5.29515">
        <ele>243.6</ele>
        <time>2022-05-16T13:11:06Z</time>
      </trkpt>
      <trkpt lat="46.33343" lon="5.29527">
        <ele>243.4</ele>
        <time>2022-05-16T13:11:07Z</time>
      </trkpt>
      <trkpt lat="46.33341" lon="5.29539">
        <ele>243.4</ele>
        <time>2022-05-16T13:11:08Z</time>
      </trkpt>
      <trkpt lat="46.33328" lon="5.29618">
        <ele>243</ele>
        <time>2022-05-16T13:11:15Z</time>
      </trkpt>
      <trkpt lat="46.33316" lon="5.297">
        <ele>242.6</ele>
        <time>2022-05-16T13:11:22Z</time>
      </trkpt>
      <trkpt lat="46.33314" lon="5.29712">
        <ele>242.4</ele>
        <time>2022-05-16T13:11:23Z</time>
      </trkpt>
      <trkpt lat="46.333" lon="5.29796">
        <ele>241.8</ele>
        <time>2022-05-16T13:11:30Z</time>
      </trkpt>
      <trkpt lat="46.33297" lon="5.29819">
        <ele>241.2</ele>
        <time>2022-05-16T13:11:32Z</time>
      </trkpt>
      <trkpt lat="46.33289" lon="5.29866">
        <ele>240.6</ele>
        <time>2022-05-16T13:11:36Z</time>
      </trkpt>
      <trkpt lat="46.33282" lon="5.2991">
        <ele>240.2</ele>
        <time>2022-05-16T13:11:40Z</time>
      </trkpt>
      <trkpt lat="46.3327" lon="5.2998">
        <ele>239</ele>
        <time>2022-05-16T13:11:46Z</time>
      </trkpt>
      <trkpt lat="46.33268" lon="5.29992">
        <ele>238.8</ele>
        <time>2022-05-16T13:11:47Z</time>
      </trkpt>
      <trkpt lat="46.33255" lon="5.30072">
        <ele>237.8</ele>
        <time>2022-05-16T13:11:54Z</time>
      </trkpt>
      <trkpt lat="46.33248" lon="5.30115">
        <ele>237.6</ele>
        <time>2022-05-16T13:11:58Z</time>
      </trkpt>
      <trkpt lat="46.33238" lon="5.30188">
        <ele>237.6</ele>
        <time>2022-05-16T13:12:05Z</time>
      </trkpt>
      <trkpt lat="46.33224" lon="5.30267">
        <ele>237.6</ele>
        <time>2022-05-16T13:12:12Z</time>
      </trkpt>
      <trkpt lat="46.33209" lon="5.30347">
        <ele>236.8</ele>
        <time>2022-05-16T13:12:18Z</time>
      </trkpt>
      <trkpt lat="46.33205" lon="5.3036">
        <ele>236.6</ele>
        <time>2022-05-16T13:12:19Z</time>
      </trkpt>
      <trkpt lat="46.33194" lon="5.30418">
        <ele>235.6</ele>
        <time>2022-05-16T13:12:23Z</time>
      </trkpt>
      <trkpt lat="46.33185" lon="5.30464">
        <ele>234</ele>
        <time>2022-05-16T13:12:26Z</time>
      </trkpt>
      <trkpt lat="46.33175" lon="5.30511">
        <ele>232.4</ele>
        <time>2022-05-16T13:12:29Z</time>
      </trkpt>
      <trkpt lat="46.33169" lon="5.30543">
        <ele>231.4</ele>
        <time>2022-05-16T13:12:31Z</time>
      </trkpt>
      <trkpt lat="46.33159" lon="5.3059">
        <ele>229.4</ele>
        <time>2022-05-16T13:12:34Z</time>
      </trkpt>
      <trkpt lat="46.33156" lon="5.30606">
        <ele>228.8</ele>
        <time>2022-05-16T13:12:35Z</time>
      </trkpt>
      <trkpt lat="46.3315" lon="5.30637">
        <ele>228.2</ele>
        <time>2022-05-16T13:12:37Z</time>
      </trkpt>
      <trkpt lat="46.33138" lon="5.30697">
        <ele>226.8</ele>
        <time>2022-05-16T13:12:41Z</time>
      </trkpt>
      <trkpt lat="46.33122" lon="5.30781">
        <ele>226</ele>
        <time>2022-05-16T13:12:47Z</time>
      </trkpt>
      <trkpt lat="46.33119" lon="5.30794">
        <ele>225.6</ele>
        <time>2022-05-16T13:12:48Z</time>
      </trkpt>
      <trkpt lat="46.33104" lon="5.30873">
        <ele>225</ele>
        <time>2022-05-16T13:12:54Z</time>
      </trkpt>
      <trkpt lat="46.33101" lon="5.30886">
        <ele>224.4</ele>
        <time>2022-05-16T13:12:55Z</time>
      </trkpt>
      <trkpt lat="46.33096" lon="5.30912">
        <ele>224</ele>
        <time>2022-05-16T13:12:57Z</time>
      </trkpt>
      <trkpt lat="46.33084" lon="5.30976">
        <ele>223.6</ele>
        <time>2022-05-16T13:13:02Z</time>
      </trkpt>
      <trkpt lat="46.33074" lon="5.31026">
        <ele>222.6</ele>
        <time>2022-05-16T13:13:06Z</time>
      </trkpt>
      <trkpt lat="46.33066" lon="5.31063">
        <ele>222.4</ele>
        <time>2022-05-16T13:13:09Z</time>
      </trkpt>
      <trkpt lat="46.33055" lon="5.31114">
        <ele>221.8</ele>
        <time>2022-05-16T13:13:13Z</time>
      </trkpt>
      <trkpt lat="46.33051" lon="5.31133">
        <ele>221.4</ele>
        <time>2022-05-16T13:13:15Z</time>
      </trkpt>
      <trkpt lat="46.3304" lon="5.31182">
        <ele>221</ele>
        <time>2022-05-16T13:13:19Z</time>
      </trkpt>
      <trkpt lat="46.33033" lon="5.31221">
        <ele>220.4</ele>
        <time>2022-05-16T13:13:22Z</time>
      </trkpt>
      <trkpt lat="46.33023" lon="5.3127">
        <ele>219.6</ele>
        <time>2022-05-16T13:13:26Z</time>
      </trkpt>
      <trkpt lat="46.33016" lon="5.31305">
        <ele>219.2</ele>
        <time>2022-05-16T13:13:29Z</time>
      </trkpt>
      <trkpt lat="46.33012" lon="5.31315">
        <ele>219</ele>
        <time>2022-05-16T13:13:30Z</time>
      </trkpt>
      <trkpt lat="46.33007" lon="5.31324">
        <ele>219</ele>
        <time>2022-05-16T13:13:31Z</time>
      </trkpt>
      <trkpt lat="46.32983" lon="5.31351">
        <ele>218.8</ele>
        <time>2022-05-16T13:13:35Z</time>
      </trkpt>
      <trkpt lat="46.32974" lon="5.31368">
        <ele>218.8</ele>
        <time>2022-05-16T13:13:37Z</time>
      </trkpt>
      <trkpt lat="46.32972" lon="5.31378">
        <ele>218.8</ele>
        <time>2022-05-16T13:13:38Z</time>
      </trkpt>
      <trkpt lat="46.32974" lon="5.31389">
        <ele>219</ele>
        <time>2022-05-16T13:13:39Z</time>
      </trkpt>
      <trkpt lat="46.32978" lon="5.31398">
        <ele>219</ele>
        <time>2022-05-16T13:13:40Z</time>
      </trkpt>
      <trkpt lat="46.32986" lon="5.31417">
        <ele>219.2</ele>
        <time>2022-05-16T13:13:42Z</time>
      </trkpt>
      <trkpt lat="46.32992" lon="5.31438">
        <ele>219.4</ele>
        <time>2022-05-16T13:13:44Z</time>
      </trkpt>
      <trkpt lat="46.32997" lon="5.31461">
        <ele>219.4</ele>
        <time>2022-05-16T13:13:46Z</time>
      </trkpt>
      <trkpt lat="46.33" lon="5.31496">
        <ele>219.4</ele>
        <time>2022-05-16T13:13:49Z</time>
      </trkpt>
      <trkpt lat="46.33" lon="5.31519">
        <ele>219.4</ele>
        <time>2022-05-16T13:13:51Z</time>
      </trkpt>
      <trkpt lat="46.33005" lon="5.31553">
        <ele>219.2</ele>
        <time>2022-05-16T13:13:54Z</time>
      </trkpt>
      <trkpt lat="46.33019" lon="5.31607">
        <ele>219</ele>
        <time>2022-05-16T13:13:59Z</time>
      </trkpt>
      <trkpt lat="46.33045" lon="5.31679">
        <ele>219.2</ele>
        <time>2022-05-16T13:14:06Z</time>
      </trkpt>
      <trkpt lat="46.33049" lon="5.3169">
        <ele>219</ele>
        <time>2022-05-16T13:14:07Z</time>
      </trkpt>
      <trkpt lat="46.33065" lon="5.31755">
        <ele>218.6</ele>
        <time>2022-05-16T13:14:13Z</time>
      </trkpt>
      <trkpt lat="46.33083" lon="5.31819">
        <ele>219</ele>
        <time>2022-05-16T13:14:19Z</time>
      </trkpt>
      <trkpt lat="46.33101" lon="5.31893">
        <ele>219</ele>
        <time>2022-05-16T13:14:26Z</time>
      </trkpt>
      <trkpt lat="46.33106" lon="5.31914">
        <ele>219</ele>
        <time>2022-05-16T13:14:28Z</time>
      </trkpt>
      <trkpt lat="46.33123" lon="5.31988">
        <ele>218.8</ele>
        <time>2022-05-16T13:14:35Z</time>
      </trkpt>
      <trkpt lat="46.33126" lon="5.31999">
        <ele>218.8</ele>
        <time>2022-05-16T13:14:36Z</time>
      </trkpt>
      <trkpt lat="46.33144" lon="5.32063">
        <ele>219.2</ele>
        <time>2022-05-16T13:14:42Z</time>
      </trkpt>
      <trkpt lat="46.33162" lon="5.32137">
        <ele>219</ele>
        <time>2022-05-16T13:14:49Z</time>
      </trkpt>
      <trkpt lat="46.33168" lon="5.32158">
        <ele>219.2</ele>
        <time>2022-05-16T13:14:51Z</time>
      </trkpt>
      <trkpt lat="46.3319" lon="5.32228">
        <ele>219.4</ele>
        <time>2022-05-16T13:14:58Z</time>
      </trkpt>
      <trkpt lat="46.33226" lon="5.323">
        <ele>220.6</ele>
        <time>2022-05-16T13:15:06Z</time>
      </trkpt>
      <trkpt lat="46.3323" lon="5.32309">
        <ele>220.6</ele>
        <time>2022-05-16T13:15:07Z</time>
      </trkpt>
      <trkpt lat="46.33264" lon="5.32376">
        <ele>221.4</ele>
        <time>2022-05-16T13:15:15Z</time>
      </trkpt>
      <trkpt lat="46.33287" lon="5.32418">
        <ele>221.6</ele>
        <time>2022-05-16T13:15:20Z</time>
      </trkpt>
      <trkpt lat="46.33292" lon="5.32426">
        <ele>221.8</ele>
        <time>2022-05-16T13:15:21Z</time>
      </trkpt>
      <trkpt lat="46.33301" lon="5.32441">
        <ele>221.8</ele>
        <time>2022-05-16T13:15:23Z</time>
      </trkpt>
      <trkpt lat="46.33326" lon="5.32489">
        <ele>222.2</ele>
        <time>2022-05-16T13:15:29Z</time>
      </trkpt>
      <trkpt lat="46.33353" lon="5.32541">
        <ele>222.8</ele>
        <time>2022-05-16T13:15:36Z</time>
      </trkpt>
      <trkpt lat="46.33357" lon="5.32548">
        <ele>223</ele>
        <time>2022-05-16T13:15:37Z</time>
      </trkpt>
      <trkpt lat="46.33386" lon="5.32604">
        <ele>223.8</ele>
        <time>2022-05-16T13:15:45Z</time>
      </trkpt>
      <trkpt lat="46.3339" lon="5.32611">
        <ele>224</ele>
        <time>2022-05-16T13:15:46Z</time>
      </trkpt>
      <trkpt lat="46.33415" lon="5.32656">
        <ele>224.2</ele>
        <time>2022-05-16T13:15:52Z</time>
      </trkpt>
      <trkpt lat="46.33424" lon="5.3267">
        <ele>224</ele>
        <time>2022-05-16T13:15:54Z</time>
      </trkpt>
      <trkpt lat="46.33461" lon="5.32709">
        <ele>224.2</ele>
        <time>2022-05-16T13:16:01Z</time>
      </trkpt>
      <trkpt lat="46.33512" lon="5.32747">
        <ele>224.4</ele>
        <time>2022-05-16T13:16:10Z</time>
      </trkpt>
      <trkpt lat="46.33563" lon="5.32778">
        <ele>224.2</ele>
        <time>2022-05-16T13:16:18Z</time>
      </trkpt>
      <trkpt lat="46.3357" lon="5.32782">
        <ele>224.2</ele>
        <time>2022-05-16T13:16:19Z</time>
      </trkpt>
      <trkpt lat="46.33623" lon="5.32818">
        <ele>223.8</ele>
        <time>2022-05-16T13:16:27Z</time>
      </trkpt>
      <trkpt lat="46.33635" lon="5.32833">
        <ele>223.6</ele>
        <time>2022-05-16T13:16:29Z</time>
      </trkpt>
      <trkpt lat="46.33644" lon="5.3285">
        <ele>223.4</ele>
        <time>2022-05-16T13:16:31Z</time>
      </trkpt>
      <trkpt lat="46.33667" lon="5.32918">
        <ele>223.2</ele>
        <time>2022-05-16T13:16:38Z</time>
      </trkpt>
      <trkpt lat="46.33673" lon="5.32971">
        <ele>223.4</ele>
        <time>2022-05-16T13:16:43Z</time>
      </trkpt>
      <trkpt lat="46.33673" lon="5.3305">
        <ele>223.2</ele>
        <time>2022-05-16T13:16:50Z</time>
      </trkpt>
      <trkpt lat="46.33671" lon="5.33083">
        <ele>223</ele>
        <time>2022-05-16T13:16:53Z</time>
      </trkpt>
      <trkpt lat="46.33673" lon="5.33169">
        <ele>222.2</ele>
        <time>2022-05-16T13:17:01Z</time>
      </trkpt>
      <trkpt lat="46.33686" lon="5.33224">
        <ele>222.2</ele>
        <time>2022-05-16T13:17:06Z</time>
      </trkpt>
      <trkpt lat="46.33713" lon="5.33292">
        <ele>222.2</ele>
        <time>2022-05-16T13:17:13Z</time>
      </trkpt>
      <trkpt lat="46.33721" lon="5.33312">
        <ele>222</ele>
        <time>2022-05-16T13:17:15Z</time>
      </trkpt>
      <trkpt lat="46.33725" lon="5.33321">
        <ele>222</ele>
        <time>2022-05-16T13:17:16Z</time>
      </trkpt>
      <trkpt lat="46.33756" lon="5.33396">
        <ele>221.6</ele>
        <time>2022-05-16T13:17:24Z</time>
      </trkpt>
      <trkpt lat="46.33776" lon="5.33463">
        <ele>221.6</ele>
        <time>2022-05-16T13:17:31Z</time>
      </trkpt>
      <trkpt lat="46.33777" lon="5.33474">
        <ele>221.6</ele>
        <time>2022-05-16T13:17:32Z</time>
      </trkpt>
      <trkpt lat="46.33779" lon="5.33493">
        <ele>221.6</ele>
        <time>2022-05-16T13:17:34Z</time>
      </trkpt>
      <trkpt lat="46.3378" lon="5.33516">
        <ele>221.6</ele>
        <time>2022-05-16T13:17:36Z</time>
      </trkpt>
      <trkpt lat="46.33779" lon="5.33588">
        <ele>221.8</ele>
        <time>2022-05-16T13:17:43Z</time>
      </trkpt>
      <trkpt lat="46.33778" lon="5.33674">
        <ele>222.2</ele>
        <time>2022-05-16T13:17:52Z</time>
      </trkpt>
      <trkpt lat="46.33776" lon="5.33727">
        <ele>223.4</ele>
        <time>2022-05-16T13:17:58Z</time>
      </trkpt>
      <trkpt lat="46.33775" lon="5.33735">
        <ele>223.4</ele>
        <time>2022-05-16T13:17:59Z</time>
      </trkpt>
      <trkpt lat="46.3377" lon="5.33776">
        <ele>224.4</ele>
        <time>2022-05-16T13:18:05Z</time>
      </trkpt>
      <trkpt lat="46.3377" lon="5.33783">
        <ele>224.8</ele>
        <time>2022-05-16T13:18:06Z</time>
      </trkpt>
      <trkpt lat="46.33767" lon="5.33802">
        <ele>225.6</ele>
        <time>2022-05-16T13:18:09Z</time>
      </trkpt>
      <trkpt lat="46.33764" lon="5.33827">
        <ele>226.6</ele>
        <time>2022-05-16T13:18:13Z</time>
      </trkpt>
      <trkpt lat="46.33763" lon="5.33833">
        <ele>226.8</ele>
        <time>2022-05-16T13:18:14Z</time>
      </trkpt>
      <trkpt lat="46.3376" lon="5.33858">
        <ele>227.6</ele>
        <time>2022-05-16T13:18:18Z</time>
      </trkpt>
      <trkpt lat="46.33758" lon="5.33883">
        <ele>229</ele>
        <time>2022-05-16T13:18:22Z</time>
      </trkpt>
      <trkpt lat="46.33758" lon="5.33907">
        <ele>230.2</ele>
        <time>2022-05-16T13:18:26Z</time>
      </trkpt>
      <trkpt lat="46.33758" lon="5.33924">
        <ele>231.2</ele>
        <time>2022-05-16T13:18:29Z</time>
      </trkpt>
      <trkpt lat="46.33758" lon="5.33935">
        <ele>231.8</ele>
        <time>2022-05-16T13:18:31Z</time>
      </trkpt>
      <trkpt lat="46.33759" lon="5.33952">
        <ele>232.4</ele>
        <time>2022-05-16T13:18:34Z</time>
      </trkpt>
      <trkpt lat="46.3376" lon="5.33963">
        <ele>233.4</ele>
        <time>2022-05-16T13:18:36Z</time>
      </trkpt>
      <trkpt lat="46.33762" lon="5.33984">
        <ele>234.2</ele>
        <time>2022-05-16T13:18:40Z</time>
      </trkpt>
      <trkpt lat="46.33763" lon="5.33996">
        <ele>234.8</ele>
        <time>2022-05-16T13:18:42Z</time>
      </trkpt>
      <trkpt lat="46.33765" lon="5.34021">
        <ele>235.8</ele>
        <time>2022-05-16T13:18:46Z</time>
      </trkpt>
      <trkpt lat="46.33768" lon="5.34043">
        <ele>236.8</ele>
        <time>2022-05-16T13:18:50Z</time>
      </trkpt>
      <trkpt lat="46.33769" lon="5.34048">
        <ele>236.8</ele>
        <time>2022-05-16T13:18:51Z</time>
      </trkpt>
      <trkpt lat="46.33772" lon="5.34076">
        <ele>238</ele>
        <time>2022-05-16T13:18:56Z</time>
      </trkpt>
      <trkpt lat="46.33774" lon="5.34098">
        <ele>238.6</ele>
        <time>2022-05-16T13:19:00Z</time>
      </trkpt>
      <trkpt lat="46.33777" lon="5.34121">
        <ele>239.2</ele>
        <time>2022-05-16T13:19:04Z</time>
      </trkpt>
      <trkpt lat="46.3378" lon="5.34152">
        <ele>240</ele>
        <time>2022-05-16T13:19:09Z</time>
      </trkpt>
      <trkpt lat="46.33781" lon="5.34165">
        <ele>240.2</ele>
        <time>2022-05-16T13:19:11Z</time>
      </trkpt>
      <trkpt lat="46.3378" lon="5.34196">
        <ele>241</ele>
        <time>2022-05-16T13:19:15Z</time>
      </trkpt>
      <trkpt lat="46.3378" lon="5.34221">
        <ele>241.2</ele>
        <time>2022-05-16T13:19:18Z</time>
      </trkpt>
      <trkpt lat="46.33779" lon="5.34247">
        <ele>241.4</ele>
        <time>2022-05-16T13:19:21Z</time>
      </trkpt>
      <trkpt lat="46.33782" lon="5.34302">
        <ele>241.6</ele>
        <time>2022-05-16T13:19:27Z</time>
      </trkpt>
      <trkpt lat="46.33786" lon="5.34319">
        <ele>241.8</ele>
        <time>2022-05-16T13:19:29Z</time>
      </trkpt>
      <trkpt lat="46.33793" lon="5.34334">
        <ele>241.8</ele>
        <time>2022-05-16T13:19:31Z</time>
      </trkpt>
      <trkpt lat="46.33812" lon="5.34367">
        <ele>242.4</ele>
        <time>2022-05-16T13:19:36Z</time>
      </trkpt>
      <trkpt lat="46.33824" lon="5.34385">
        <ele>243</ele>
        <time>2022-05-16T13:19:39Z</time>
      </trkpt>
      <trkpt lat="46.3383" lon="5.34398">
        <ele>243.8</ele>
        <time>2022-05-16T13:19:41Z</time>
      </trkpt>
      <trkpt lat="46.3385" lon="5.34439">
        <ele>244.4</ele>
        <time>2022-05-16T13:19:47Z</time>
      </trkpt>
      <trkpt lat="46.33854" lon="5.34453">
        <ele>244.8</ele>
        <time>2022-05-16T13:19:49Z</time>
      </trkpt>
      <trkpt lat="46.33857" lon="5.34469">
        <ele>245.2</ele>
        <time>2022-05-16T13:19:51Z</time>
      </trkpt>
      <trkpt lat="46.33858" lon="5.34479">
        <ele>245.2</ele>
        <time>2022-05-16T13:19:52Z</time>
      </trkpt>
      <trkpt lat="46.3386" lon="5.34558">
        <ele>245.8</ele>
        <time>2022-05-16T13:20:01Z</time>
      </trkpt>
      <trkpt lat="46.33859" lon="5.34585">
        <ele>245.8</ele>
        <time>2022-05-16T13:20:04Z</time>
      </trkpt>
      <trkpt lat="46.33858" lon="5.34621">
        <ele>246</ele>
        <time>2022-05-16T13:20:08Z</time>
      </trkpt>
      <trkpt lat="46.33854" lon="5.34706">
        <ele>246.6</ele>
        <time>2022-05-16T13:20:17Z</time>
      </trkpt>
      <trkpt lat="46.33844" lon="5.34773">
        <ele>246.4</ele>
        <time>2022-05-16T13:20:24Z</time>
      </trkpt>
      <trkpt lat="46.33832" lon="5.34837">
        <ele>246.8</ele>
        <time>2022-05-16T13:20:31Z</time>
      </trkpt>
      <trkpt lat="46.33827" lon="5.34874">
        <ele>247</ele>
        <time>2022-05-16T13:20:35Z</time>
      </trkpt>
      <trkpt lat="46.33826" lon="5.34881">
        <ele>247</ele>
        <time>2022-05-16T13:20:36Z</time>
      </trkpt>
      <trkpt lat="46.33823" lon="5.3492">
        <ele>247.4</ele>
        <time>2022-05-16T13:20:40Z</time>
      </trkpt>
      <trkpt lat="46.33821" lon="5.34946">
        <ele>247.4</ele>
        <time>2022-05-16T13:20:43Z</time>
      </trkpt>
      <trkpt lat="46.33821" lon="5.34974">
        <ele>247.8</ele>
        <time>2022-05-16T13:20:46Z</time>
      </trkpt>
      <trkpt lat="46.33819" lon="5.35059">
        <ele>248</ele>
        <time>2022-05-16T13:20:55Z</time>
      </trkpt>
      <trkpt lat="46.33818" lon="5.35069">
        <ele>248</ele>
        <time>2022-05-16T13:20:56Z</time>
      </trkpt>
      <trkpt lat="46.33816" lon="5.35106">
        <ele>248.2</ele>
        <time>2022-05-16T13:21:00Z</time>
      </trkpt>
      <trkpt lat="46.33813" lon="5.35132">
        <ele>249.2</ele>
        <time>2022-05-16T13:21:03Z</time>
      </trkpt>
      <trkpt lat="46.33813" lon="5.35141">
        <ele>249.6</ele>
        <time>2022-05-16T13:21:04Z</time>
      </trkpt>
      <trkpt lat="46.3381" lon="5.35167">
        <ele>250.4</ele>
        <time>2022-05-16T13:21:07Z</time>
      </trkpt>
      <trkpt lat="46.33805" lon="5.35217">
        <ele>250.2</ele>
        <time>2022-05-16T13:21:13Z</time>
      </trkpt>
      <trkpt lat="46.33804" lon="5.35241">
        <ele>250</ele>
        <time>2022-05-16T13:21:16Z</time>
      </trkpt>
      <trkpt lat="46.33806" lon="5.35267">
        <ele>250</ele>
        <time>2022-05-16T13:21:19Z</time>
      </trkpt>
      <trkpt lat="46.33808" lon="5.35284">
        <ele>250</ele>
        <time>2022-05-16T13:21:21Z</time>
      </trkpt>
      <trkpt lat="46.33814" lon="5.35308">
        <ele>250.4</ele>
        <time>2022-05-16T13:21:24Z</time>
      </trkpt>
      <trkpt lat="46.33827" lon="5.3536">
        <ele>251.4</ele>
        <time>2022-05-16T13:21:31Z</time>
      </trkpt>
      <trkpt lat="46.33837" lon="5.35396">
        <ele>252.6</ele>
        <time>2022-05-16T13:21:36Z</time>
      </trkpt>
      <trkpt lat="46.33843" lon="5.35417">
        <ele>253</ele>
        <time>2022-05-16T13:21:39Z</time>
      </trkpt>
      <trkpt lat="46.33851" lon="5.35444">
        <ele>253.8</ele>
        <time>2022-05-16T13:21:43Z</time>
      </trkpt>
      <trkpt lat="46.33862" lon="5.35477">
        <ele>254.4</ele>
        <time>2022-05-16T13:21:48Z</time>
      </trkpt>
      <trkpt lat="46.33865" lon="5.35492">
        <ele>255</ele>
        <time>2022-05-16T13:21:50Z</time>
      </trkpt>
      <trkpt lat="46.33874" lon="5.35524">
        <ele>256</ele>
        <time>2022-05-16T13:21:55Z</time>
      </trkpt>
      <trkpt lat="46.33876" lon="5.35531">
        <ele>256.4</ele>
        <time>2022-05-16T13:21:56Z</time>
      </trkpt>
      <trkpt lat="46.33883" lon="5.3557">
        <ele>257.2</ele>
        <time>2022-05-16T13:22:01Z</time>
      </trkpt>
      <trkpt lat="46.33885" lon="5.35585">
        <ele>257.4</ele>
        <time>2022-05-16T13:22:03Z</time>
      </trkpt>
      <trkpt lat="46.33889" lon="5.35636">
        <ele>258</ele>
        <time>2022-05-16T13:22:10Z</time>
      </trkpt>
      <trkpt lat="46.33888" lon="5.35671">
        <ele>258.2</ele>
        <time>2022-05-16T13:22:15Z</time>
      </trkpt>
      <trkpt lat="46.33888" lon="5.35691">
        <ele>259.2</ele>
        <time>2022-05-16T13:22:18Z</time>
      </trkpt>
      <trkpt lat="46.33888" lon="5.35704">
        <ele>259.4</ele>
        <time>2022-05-16T13:22:20Z</time>
      </trkpt>
      <trkpt lat="46.33888" lon="5.3573">
        <ele>260.2</ele>
        <time>2022-05-16T13:22:24Z</time>
      </trkpt>
      <trkpt lat="46.33889" lon="5.35755">
        <ele>261</ele>
        <time>2022-05-16T13:22:28Z</time>
      </trkpt>
      <trkpt lat="46.33891" lon="5.35767">
        <ele>261.2</ele>
        <time>2022-05-16T13:22:30Z</time>
      </trkpt>
      <trkpt lat="46.33897" lon="5.35813">
        <ele>262.4</ele>
        <time>2022-05-16T13:22:38Z</time>
      </trkpt>
      <trkpt lat="46.33898" lon="5.35819">
        <ele>262.8</ele>
        <time>2022-05-16T13:22:39Z</time>
      </trkpt>
      <trkpt lat="46.33903" lon="5.35841">
        <ele>263.6</ele>
        <time>2022-05-16T13:22:43Z</time>
      </trkpt>
      <trkpt lat="46.33906" lon="5.35857">
        <ele>264.2</ele>
        <time>2022-05-16T13:22:46Z</time>
      </trkpt>
      <trkpt lat="46.33911" lon="5.35873">
        <ele>264.8</ele>
        <time>2022-05-16T13:22:49Z</time>
      </trkpt>
      <trkpt lat="46.33921" lon="5.35901">
        <ele>265.8</ele>
        <time>2022-05-16T13:22:55Z</time>
      </trkpt>
      <trkpt lat="46.33929" lon="5.35926">
        <ele>267</ele>
        <time>2022-05-16T13:23:00Z</time>
      </trkpt>
      <trkpt lat="46.33936" lon="5.35945">
        <ele>268</ele>
        <time>2022-05-16T13:23:04Z</time>
      </trkpt>
      <trkpt lat="46.33943" lon="5.35965">
        <ele>269.2</ele>
        <time>2022-05-16T13:23:08Z</time>
      </trkpt>
      <trkpt lat="46.33952" lon="5.35993">
        <ele>270.2</ele>
        <time>2022-05-16T13:23:13Z</time>
      </trkpt>
      <trkpt lat="46.33955" lon="5.36003">
        <ele>270.6</ele>
        <time>2022-05-16T13:23:15Z</time>
      </trkpt>
      <trkpt lat="46.33965" lon="5.36028">
        <ele>271.4</ele>
        <time>2022-05-16T13:23:20Z</time>
      </trkpt>
      <trkpt lat="46.33972" lon="5.36042">
        <ele>272</ele>
        <time>2022-05-16T13:23:23Z</time>
      </trkpt>
      <trkpt lat="46.33977" lon="5.36051">
        <ele>272.6</ele>
        <time>2022-05-16T13:23:25Z</time>
      </trkpt>
      <trkpt lat="46.33988" lon="5.36072">
        <ele>273.6</ele>
        <time>2022-05-16T13:23:30Z</time>
      </trkpt>
      <trkpt lat="46.33998" lon="5.36089">
        <ele>274.6</ele>
        <time>2022-05-16T13:23:34Z</time>
      </trkpt>
      <trkpt lat="46.34013" lon="5.36113">
        <ele>275.6</ele>
        <time>2022-05-16T13:23:39Z</time>
      </trkpt>
      <trkpt lat="46.34024" lon="5.36127">
        <ele>276.2</ele>
        <time>2022-05-16T13:23:42Z</time>
      </trkpt>
      <trkpt lat="46.34051" lon="5.36152">
        <ele>276.8</ele>
        <time>2022-05-16T13:23:48Z</time>
      </trkpt>
      <trkpt lat="46.34068" lon="5.36161">
        <ele>276.8</ele>
        <time>2022-05-16T13:23:51Z</time>
      </trkpt>
      <trkpt lat="46.34085" lon="5.36167">
        <ele>276.6</ele>
        <time>2022-05-16T13:23:54Z</time>
      </trkpt>
      <trkpt lat="46.34132" lon="5.36187">
        <ele>276.4</ele>
        <time>2022-05-16T13:24:02Z</time>
      </trkpt>
      <trkpt lat="46.34143" lon="5.36194">
        <ele>276.4</ele>
        <time>2022-05-16T13:24:04Z</time>
      </trkpt>
      <trkpt lat="46.34158" lon="5.3621">
        <ele>276.4</ele>
        <time>2022-05-16T13:24:07Z</time>
      </trkpt>
      <trkpt lat="46.34184" lon="5.36247">
        <ele>276.6</ele>
        <time>2022-05-16T13:24:13Z</time>
      </trkpt>
      <trkpt lat="46.34204" lon="5.363">
        <ele>277</ele>
        <time>2022-05-16T13:24:20Z</time>
      </trkpt>
      <trkpt lat="46.34227" lon="5.3637">
        <ele>277</ele>
        <time>2022-05-16T13:24:29Z</time>
      </trkpt>
      <trkpt lat="46.34243" lon="5.36426">
        <ele>277.6</ele>
        <time>2022-05-16T13:24:36Z</time>
      </trkpt>
      <trkpt lat="46.3424" lon="5.36443">
        <ele>277.6</ele>
        <time>2022-05-16T13:24:38Z</time>
      </trkpt>
      <trkpt lat="46.34237" lon="5.36449">
        <ele>277.6</ele>
        <time>2022-05-16T13:24:39Z</time>
      </trkpt>
      <trkpt lat="46.3421" lon="5.36486">
        <ele>277.6</ele>
        <time>2022-05-16T13:24:45Z</time>
      </trkpt>
      <trkpt lat="46.34201" lon="5.36496">
        <ele>277.8</ele>
        <time>2022-05-16T13:24:47Z</time>
      </trkpt>
      <trkpt lat="46.34183" lon="5.36517">
        <ele>278.4</ele>
        <time>2022-05-16T13:24:52Z</time>
      </trkpt>
      <trkpt lat="46.34176" lon="5.36524">
        <ele>279</ele>
        <time>2022-05-16T13:24:54Z</time>
      </trkpt>
      <trkpt lat="46.3416" lon="5.36543">
        <ele>280.2</ele>
        <time>2022-05-16T13:24:59Z</time>
      </trkpt>
      <trkpt lat="46.34154" lon="5.36552">
        <ele>280.4</ele>
        <time>2022-05-16T13:25:01Z</time>
      </trkpt>
      <trkpt lat="46.34143" lon="5.36566">
        <ele>281.2</ele>
        <time>2022-05-16T13:25:05Z</time>
      </trkpt>
      <trkpt lat="46.34129" lon="5.36584">
        <ele>282.2</ele>
        <time>2022-05-16T13:25:10Z</time>
      </trkpt>
      <trkpt lat="46.34124" lon="5.36591">
        <ele>282.6</ele>
        <time>2022-05-16T13:25:12Z</time>
      </trkpt>
      <trkpt lat="46.34114" lon="5.366">
        <ele>283.4</ele>
        <time>2022-05-16T13:25:15Z</time>
      </trkpt>
      <trkpt lat="46.341" lon="5.36607">
        <ele>284.4</ele>
        <time>2022-05-16T13:25:19Z</time>
      </trkpt>
      <trkpt lat="46.34089" lon="5.36611">
        <ele>285.6</ele>
        <time>2022-05-16T13:25:22Z</time>
      </trkpt>
      <trkpt lat="46.34073" lon="5.36611">
        <ele>286.6</ele>
        <time>2022-05-16T13:25:26Z</time>
      </trkpt>
      <trkpt lat="46.34049" lon="5.36606">
        <ele>287.8</ele>
        <time>2022-05-16T13:25:32Z</time>
      </trkpt>
      <trkpt lat="46.34045" lon="5.36605">
        <ele>288</ele>
        <time>2022-05-16T13:25:33Z</time>
      </trkpt>
      <trkpt lat="46.34023" lon="5.36597">
        <ele>289</ele>
        <time>2022-05-16T13:25:39Z</time>
      </trkpt>
      <trkpt lat="46.34012" lon="5.36593">
        <ele>290</ele>
        <time>2022-05-16T13:25:42Z</time>
      </trkpt>
      <trkpt lat="46.34008" lon="5.36592">
        <ele>290.4</ele>
        <time>2022-05-16T13:25:43Z</time>
      </trkpt>
      <trkpt lat="46.33997" lon="5.36592">
        <ele>291.4</ele>
        <time>2022-05-16T13:25:46Z</time>
      </trkpt>
      <trkpt lat="46.33994" lon="5.36594">
        <ele>291.4</ele>
        <time>2022-05-16T13:25:47Z</time>
      </trkpt>
      <trkpt lat="46.33982" lon="5.36609">
        <ele>292.4</ele>
        <time>2022-05-16T13:25:51Z</time>
      </trkpt>
      <trkpt lat="46.3398" lon="5.36614">
        <ele>292.6</ele>
        <time>2022-05-16T13:25:52Z</time>
      </trkpt>
      <trkpt lat="46.33975" lon="5.36637">
        <ele>293.8</ele>
        <time>2022-05-16T13:25:56Z</time>
      </trkpt>
      <trkpt lat="46.33966" lon="5.36673">
        <ele>294.6</ele>
        <time>2022-05-16T13:26:02Z</time>
      </trkpt>
      <trkpt lat="46.33962" lon="5.36693">
        <ele>295</ele>
        <time>2022-05-16T13:26:05Z</time>
      </trkpt>
      <trkpt lat="46.3396" lon="5.36701">
        <ele>295</ele>
        <time>2022-05-16T13:26:06Z</time>
      </trkpt>
      <trkpt lat="46.33951" lon="5.3673">
        <ele>295.2</ele>
        <time>2022-05-16T13:26:10Z</time>
      </trkpt>
      <trkpt lat="46.33948" lon="5.36745">
        <ele>295.2</ele>
        <time>2022-05-16T13:26:12Z</time>
      </trkpt>
      <trkpt lat="46.33937" lon="5.36785">
        <ele>295.2</ele>
        <time>2022-05-16T13:26:17Z</time>
      </trkpt>
      <trkpt lat="46.33921" lon="5.36843">
        <ele>295.4</ele>
        <time>2022-05-16T13:26:24Z</time>
      </trkpt>
      <trkpt lat="46.33902" lon="5.36894">
        <ele>295</ele>
        <time>2022-05-16T13:26:30Z</time>
      </trkpt>
      <trkpt lat="46.33877" lon="5.36964">
        <ele>293.6</ele>
        <time>2022-05-16T13:26:37Z</time>
      </trkpt>
      <trkpt lat="46.33874" lon="5.36972">
        <ele>293.2</ele>
        <time>2022-05-16T13:26:38Z</time>
      </trkpt>
      <trkpt lat="46.33866" lon="5.3699">
        <ele>292.4</ele>
        <time>2022-05-16T13:26:40Z</time>
      </trkpt>
      <trkpt lat="46.33863" lon="5.36998">
        <ele>292.4</ele>
        <time>2022-05-16T13:26:41Z</time>
      </trkpt>
      <trkpt lat="46.33855" lon="5.37014">
        <ele>292.2</ele>
        <time>2022-05-16T13:26:43Z</time>
      </trkpt>
      <trkpt lat="46.33839" lon="5.37054">
        <ele>292</ele>
        <time>2022-05-16T13:26:47Z</time>
      </trkpt>
      <trkpt lat="46.33829" lon="5.37092">
        <ele>291.8</ele>
        <time>2022-05-16T13:26:51Z</time>
      </trkpt>
      <trkpt lat="46.33822" lon="5.37138">
        <ele>291.8</ele>
        <time>2022-05-16T13:26:57Z</time>
      </trkpt>
      <trkpt lat="46.33817" lon="5.37173">
        <ele>293.6</ele>
        <time>2022-05-16T13:27:03Z</time>
      </trkpt>
      <trkpt lat="46.33816" lon="5.37196">
        <ele>295.2</ele>
        <time>2022-05-16T13:27:07Z</time>
      </trkpt>
      <trkpt lat="46.33815" lon="5.37206">
        <ele>295.6</ele>
        <time>2022-05-16T13:27:09Z</time>
      </trkpt>
      <trkpt lat="46.33816" lon="5.37217">
        <ele>296.2</ele>
        <time>2022-05-16T13:27:11Z</time>
      </trkpt>
      <trkpt lat="46.33819" lon="5.3724">
        <ele>297.2</ele>
        <time>2022-05-16T13:27:15Z</time>
      </trkpt>
      <trkpt lat="46.3382" lon="5.37246">
        <ele>297.4</ele>
        <time>2022-05-16T13:27:16Z</time>
      </trkpt>
      <trkpt lat="46.33823" lon="5.37269">
        <ele>298.6</ele>
        <time>2022-05-16T13:27:20Z</time>
      </trkpt>
      <trkpt lat="46.33824" lon="5.37286">
        <ele>299.2</ele>
        <time>2022-05-16T13:27:23Z</time>
      </trkpt>
      <trkpt lat="46.33822" lon="5.37297">
        <ele>299.6</ele>
        <time>2022-05-16T13:27:25Z</time>
      </trkpt>
      <trkpt lat="46.33817" lon="5.37314">
        <ele>300.6</ele>
        <time>2022-05-16T13:27:28Z</time>
      </trkpt>
      <trkpt lat="46.33815" lon="5.37318">
        <ele>301</ele>
        <time>2022-05-16T13:27:29Z</time>
      </trkpt>
      <trkpt lat="46.33805" lon="5.37336">
        <ele>301.8</ele>
        <time>2022-05-16T13:27:33Z</time>
      </trkpt>
      <trkpt lat="46.33798" lon="5.37342">
        <ele>302.2</ele>
        <time>2022-05-16T13:27:35Z</time>
      </trkpt>
      <trkpt lat="46.33784" lon="5.37352">
        <ele>303</ele>
        <time>2022-05-16T13:27:39Z</time>
      </trkpt>
      <trkpt lat="46.3377" lon="5.3736">
        <ele>304</ele>
        <time>2022-05-16T13:27:43Z</time>
      </trkpt>
      <trkpt lat="46.33767" lon="5.37362">
        <ele>304.2</ele>
        <time>2022-05-16T13:27:44Z</time>
      </trkpt>
      <trkpt lat="46.33758" lon="5.3737">
        <ele>305.4</ele>
        <time>2022-05-16T13:27:47Z</time>
      </trkpt>
      <trkpt lat="46.33748" lon="5.37384">
        <ele>306.2</ele>
        <time>2022-05-16T13:27:51Z</time>
      </trkpt>
      <trkpt lat="46.33743" lon="5.37392">
        <ele>306.4</ele>
        <time>2022-05-16T13:27:53Z</time>
      </trkpt>
      <trkpt lat="46.33734" lon="5.37407">
        <ele>307.4</ele>
        <time>2022-05-16T13:27:57Z</time>
      </trkpt>
      <trkpt lat="46.33727" lon="5.37417">
        <ele>308</ele>
        <time>2022-05-16T13:28:00Z</time>
      </trkpt>
      <trkpt lat="46.33722" lon="5.37424">
        <ele>308.6</ele>
        <time>2022-05-16T13:28:02Z</time>
      </trkpt>
      <trkpt lat="46.33709" lon="5.37439">
        <ele>309.6</ele>
        <time>2022-05-16T13:28:07Z</time>
      </trkpt>
      <trkpt lat="46.33706" lon="5.37442">
        <ele>310</ele>
        <time>2022-05-16T13:28:08Z</time>
      </trkpt>
      <trkpt lat="46.33695" lon="5.37452">
        <ele>310.6</ele>
        <time>2022-05-16T13:28:12Z</time>
      </trkpt>
      <trkpt lat="46.33681" lon="5.37465">
        <ele>311.8</ele>
        <time>2022-05-16T13:28:17Z</time>
      </trkpt>
      <trkpt lat="46.33679" lon="5.37468">
        <ele>311.8</ele>
        <time>2022-05-16T13:28:18Z</time>
      </trkpt>
      <trkpt lat="46.33669" lon="5.37482">
        <ele>312.8</ele>
        <time>2022-05-16T13:28:22Z</time>
      </trkpt>
      <trkpt lat="46.33659" lon="5.375">
        <ele>314</ele>
        <time>2022-05-16T13:28:27Z</time>
      </trkpt>
      <trkpt lat="46.33651" lon="5.37521">
        <ele>315.2</ele>
        <time>2022-05-16T13:28:32Z</time>
      </trkpt>
      <trkpt lat="46.33646" lon="5.37534">
        <ele>315.6</ele>
        <time>2022-05-16T13:28:35Z</time>
      </trkpt>
      <trkpt lat="46.33642" lon="5.37543">
        <ele>316.2</ele>
        <time>2022-05-16T13:28:37Z</time>
      </trkpt>
      <trkpt lat="46.3363" lon="5.37562">
        <ele>316.8</ele>
        <time>2022-05-16T13:28:42Z</time>
      </trkpt>
      <trkpt lat="46.33628" lon="5.37565">
        <ele>317.2</ele>
        <time>2022-05-16T13:28:43Z</time>
      </trkpt>
      <trkpt lat="46.33618" lon="5.37585">
        <ele>318.2</ele>
        <time>2022-05-16T13:28:48Z</time>
      </trkpt>
      <trkpt lat="46.3361" lon="5.37602">
        <ele>319.2</ele>
        <time>2022-05-16T13:28:52Z</time>
      </trkpt>
      <trkpt lat="46.33608" lon="5.37607">
        <ele>319.4</ele>
        <time>2022-05-16T13:28:53Z</time>
      </trkpt>
      <trkpt lat="46.33602" lon="5.37624">
        <ele>320.6</ele>
        <time>2022-05-16T13:28:57Z</time>
      </trkpt>
      <trkpt lat="46.33595" lon="5.37641">
        <ele>321.4</ele>
        <time>2022-05-16T13:29:01Z</time>
      </trkpt>
      <trkpt lat="46.33591" lon="5.37654">
        <ele>321.8</ele>
        <time>2022-05-16T13:29:04Z</time>
      </trkpt>
      <trkpt lat="46.33585" lon="5.37671">
        <ele>322.8</ele>
        <time>2022-05-16T13:29:08Z</time>
      </trkpt>
      <trkpt lat="46.33583" lon="5.37676">
        <ele>323.4</ele>
        <time>2022-05-16T13:29:09Z</time>
      </trkpt>
      <trkpt lat="46.3358" lon="5.37684">
        <ele>324.2</ele>
        <time>2022-05-16T13:29:11Z</time>
      </trkpt>
      <trkpt lat="46.33576" lon="5.37697">
        <ele>325.2</ele>
        <time>2022-05-16T13:29:14Z</time>
      </trkpt>
      <trkpt lat="46.33571" lon="5.37713">
        <ele>326.2</ele>
        <time>2022-05-16T13:29:18Z</time>
      </trkpt>
      <trkpt lat="46.33569" lon="5.37717">
        <ele>326.6</ele>
        <time>2022-05-16T13:29:19Z</time>
      </trkpt>
      <trkpt lat="46.33562" lon="5.37738">
        <ele>327.6</ele>
        <time>2022-05-16T13:29:24Z</time>
      </trkpt>
      <trkpt lat="46.33557" lon="5.37751">
        <ele>328.2</ele>
        <time>2022-05-16T13:29:27Z</time>
      </trkpt>
      <trkpt lat="46.33553" lon="5.37765">
        <ele>328.6</ele>
        <time>2022-05-16T13:29:30Z</time>
      </trkpt>
      <trkpt lat="46.33549" lon="5.37778">
        <ele>329.8</ele>
        <time>2022-05-16T13:29:33Z</time>
      </trkpt>
      <trkpt lat="46.33544" lon="5.37791">
        <ele>330.4</ele>
        <time>2022-05-16T13:29:36Z</time>
      </trkpt>
      <trkpt lat="46.33537" lon="5.37813">
        <ele>330.8</ele>
        <time>2022-05-16T13:29:41Z</time>
      </trkpt>
      <trkpt lat="46.33528" lon="5.3784">
        <ele>332</ele>
        <time>2022-05-16T13:29:47Z</time>
      </trkpt>
      <trkpt lat="46.33527" lon="5.37845">
        <ele>332</ele>
        <time>2022-05-16T13:29:48Z</time>
      </trkpt>
      <trkpt lat="46.33521" lon="5.37862">
        <ele>333</ele>
        <time>2022-05-16T13:29:52Z</time>
      </trkpt>
      <trkpt lat="46.33513" lon="5.37884">
        <ele>334</ele>
        <time>2022-05-16T13:29:57Z</time>
      </trkpt>
      <trkpt lat="46.33512" lon="5.37888">
        <ele>334.4</ele>
        <time>2022-05-16T13:29:58Z</time>
      </trkpt>
      <trkpt lat="46.33508" lon="5.37901">
        <ele>335</ele>
        <time>2022-05-16T13:30:01Z</time>
      </trkpt>
      <trkpt lat="46.33503" lon="5.37923">
        <ele>335.8</ele>
        <time>2022-05-16T13:30:05Z</time>
      </trkpt>
      <trkpt lat="46.33504" lon="5.37939">
        <ele>336.2</ele>
        <time>2022-05-16T13:30:08Z</time>
      </trkpt>
      <trkpt lat="46.33507" lon="5.37949">
        <ele>336.4</ele>
        <time>2022-05-16T13:30:10Z</time>
      </trkpt>
      <trkpt lat="46.33518" lon="5.37968">
        <ele>337.4</ele>
        <time>2022-05-16T13:30:15Z</time>
      </trkpt>
      <trkpt lat="46.33521" lon="5.37972">
        <ele>338</ele>
        <time>2022-05-16T13:30:16Z</time>
      </trkpt>
      <trkpt lat="46.33523" lon="5.37974">
        <ele>338.4</ele>
        <time>2022-05-16T13:30:17Z</time>
      </trkpt>
      <trkpt lat="46.33541" lon="5.3799">
        <ele>339.4</ele>
        <time>2022-05-16T13:30:23Z</time>
      </trkpt>
      <trkpt lat="46.33544" lon="5.37992">
        <ele>339.6</ele>
        <time>2022-05-16T13:30:24Z</time>
      </trkpt>
      <trkpt lat="46.33558" lon="5.38002">
        <ele>340.8</ele>
        <time>2022-05-16T13:30:29Z</time>
      </trkpt>
      <trkpt lat="46.33567" lon="5.38012">
        <ele>341.2</ele>
        <time>2022-05-16T13:30:32Z</time>
      </trkpt>
      <trkpt lat="46.33574" lon="5.38021">
        <ele>342</ele>
        <time>2022-05-16T13:30:35Z</time>
      </trkpt>
      <trkpt lat="46.33581" lon="5.38036">
        <ele>343.2</ele>
        <time>2022-05-16T13:30:39Z</time>
      </trkpt>
      <trkpt lat="46.33588" lon="5.38054">
        <ele>344.4</ele>
        <time>2022-05-16T13:30:43Z</time>
      </trkpt>
      <trkpt lat="46.33593" lon="5.38071">
        <ele>345.4</ele>
        <time>2022-05-16T13:30:47Z</time>
      </trkpt>
      <trkpt lat="46.33594" lon="5.38076">
        <ele>345.4</ele>
        <time>2022-05-16T13:30:48Z</time>
      </trkpt>
      <trkpt lat="46.33598" lon="5.38098">
        <ele>346.4</ele>
        <time>2022-05-16T13:30:53Z</time>
      </trkpt>
      <trkpt lat="46.336" lon="5.38113">
        <ele>347</ele>
        <time>2022-05-16T13:30:56Z</time>
      </trkpt>
      <trkpt lat="46.33601" lon="5.38123">
        <ele>347.6</ele>
        <time>2022-05-16T13:30:58Z</time>
      </trkpt>
      <trkpt lat="46.33602" lon="5.38158">
        <ele>348.8</ele>
        <time>2022-05-16T13:31:05Z</time>
      </trkpt>
      <trkpt lat="46.33598" lon="5.38192">
        <ele>349.8</ele>
        <time>2022-05-16T13:31:12Z</time>
      </trkpt>
      <trkpt lat="46.33597" lon="5.38202">
        <ele>350.2</ele>
        <time>2022-05-16T13:31:14Z</time>
      </trkpt>
      <trkpt lat="46.33596" lon="5.38216">
        <ele>351</ele>
        <time>2022-05-16T13:31:17Z</time>
      </trkpt>
      <trkpt lat="46.33594" lon="5.38241">
        <ele>352.2</ele>
        <time>2022-05-16T13:31:22Z</time>
      </trkpt>
      <trkpt lat="46.33594" lon="5.38251">
        <ele>352.8</ele>
        <time>2022-05-16T13:31:24Z</time>
      </trkpt>
      <trkpt lat="46.33594" lon="5.38261">
        <ele>353.6</ele>
        <time>2022-05-16T13:31:26Z</time>
      </trkpt>
      <trkpt lat="46.33596" lon="5.38293">
        <ele>354.6</ele>
        <time>2022-05-16T13:31:32Z</time>
      </trkpt>
      <trkpt lat="46.33599" lon="5.38313">
        <ele>356</ele>
        <time>2022-05-16T13:31:36Z</time>
      </trkpt>
      <trkpt lat="46.336" lon="5.38324">
        <ele>356.6</ele>
        <time>2022-05-16T13:31:38Z</time>
      </trkpt>
      <trkpt lat="46.33601" lon="5.38332">
        <ele>357</ele>
        <time>2022-05-16T13:31:40Z</time>
      </trkpt>
      <trkpt lat="46.33601" lon="5.38354">
        <ele>358</ele>
        <time>2022-05-16T13:31:44Z</time>
      </trkpt>
      <trkpt lat="46.33601" lon="5.38369">
        <ele>358.6</ele>
        <time>2022-05-16T13:31:47Z</time>
      </trkpt>
      <trkpt lat="46.336" lon="5.38374">
        <ele>359</ele>
        <time>2022-05-16T13:31:48Z</time>
      </trkpt>
      <trkpt lat="46.33599" lon="5.38395">
        <ele>360.2</ele>
        <time>2022-05-16T13:31:52Z</time>
      </trkpt>
      <trkpt lat="46.33598" lon="5.38421">
        <ele>361.2</ele>
        <time>2022-05-16T13:31:57Z</time>
      </trkpt>
      <trkpt lat="46.33598" lon="5.38426">
        <ele>361.6</ele>
        <time>2022-05-16T13:31:58Z</time>
      </trkpt>
      <trkpt lat="46.33597" lon="5.3844">
        <ele>362.4</ele>
        <time>2022-05-16T13:32:01Z</time>
      </trkpt>
      <trkpt lat="46.33594" lon="5.38462">
        <ele>363.6</ele>
        <time>2022-05-16T13:32:06Z</time>
      </trkpt>
      <trkpt lat="46.33591" lon="5.38483">
        <ele>364.6</ele>
        <time>2022-05-16T13:32:11Z</time>
      </trkpt>
      <trkpt lat="46.33588" lon="5.38496">
        <ele>365.4</ele>
        <time>2022-05-16T13:32:14Z</time>
      </trkpt>
      <trkpt lat="46.33584" lon="5.38513">
        <ele>365.8</ele>
        <time>2022-05-16T13:32:18Z</time>
      </trkpt>
      <trkpt lat="46.33576" lon="5.38543">
        <ele>367</ele>
        <time>2022-05-16T13:32:25Z</time>
      </trkpt>
      <trkpt lat="46.33565" lon="5.38567">
        <ele>368.2</ele>
        <time>2022-05-16T13:32:31Z</time>
      </trkpt>
      <trkpt lat="46.33559" lon="5.38579">
        <ele>368.6</ele>
        <time>2022-05-16T13:32:34Z</time>
      </trkpt>
      <trkpt lat="46.33551" lon="5.38595">
        <ele>369.2</ele>
        <time>2022-05-16T13:32:38Z</time>
      </trkpt>
      <trkpt lat="46.33546" lon="5.38613">
        <ele>370</ele>
        <time>2022-05-16T13:32:42Z</time>
      </trkpt>
      <trkpt lat="46.33546" lon="5.38618">
        <ele>370.2</ele>
        <time>2022-05-16T13:32:43Z</time>
      </trkpt>
      <trkpt lat="46.33551" lon="5.38635">
        <ele>370.8</ele>
        <time>2022-05-16T13:32:47Z</time>
      </trkpt>
      <trkpt lat="46.3356" lon="5.38641">
        <ele>371.4</ele>
        <time>2022-05-16T13:32:50Z</time>
      </trkpt>
      <trkpt lat="46.33563" lon="5.38642">
        <ele>371.6</ele>
        <time>2022-05-16T13:32:51Z</time>
      </trkpt>
      <trkpt lat="46.33569" lon="5.38643">
        <ele>372.8</ele>
        <time>2022-05-16T13:32:53Z</time>
      </trkpt>
      <trkpt lat="46.33581" lon="5.3864">
        <ele>374</ele>
        <time>2022-05-16T13:32:57Z</time>
      </trkpt>
      <trkpt lat="46.33585" lon="5.38638">
        <ele>374</ele>
        <time>2022-05-16T13:32:58Z</time>
      </trkpt>
      <trkpt lat="46.33602" lon="5.38623">
        <ele>375</ele>
        <time>2022-05-16T13:33:04Z</time>
      </trkpt>
      <trkpt lat="46.33604" lon="5.38622">
        <ele>375.2</ele>
        <time>2022-05-16T13:33:05Z</time>
      </trkpt>
      <trkpt lat="46.3361" lon="5.38616">
        <ele>376</ele>
        <time>2022-05-16T13:33:07Z</time>
      </trkpt>
      <trkpt lat="46.33625" lon="5.38598">
        <ele>377.6</ele>
        <time>2022-05-16T13:33:13Z</time>
      </trkpt>
      <trkpt lat="46.33632" lon="5.38589">
        <ele>378.4</ele>
        <time>2022-05-16T13:33:16Z</time>
      </trkpt>
      <trkpt lat="46.33637" lon="5.38583">
        <ele>378.6</ele>
        <time>2022-05-16T13:33:18Z</time>
      </trkpt>
      <trkpt lat="46.33651" lon="5.38565">
        <ele>379.8</ele>
        <time>2022-05-16T13:33:24Z</time>
      </trkpt>
      <trkpt lat="46.33657" lon="5.38557">
        <ele>380.8</ele>
        <time>2022-05-16T13:33:27Z</time>
      </trkpt>
      <trkpt lat="46.3367" lon="5.38538">
        <ele>382</ele>
        <time>2022-05-16T13:33:33Z</time>
      </trkpt>
      <trkpt lat="46.33679" lon="5.38525">
        <ele>383.2</ele>
        <time>2022-05-16T13:33:37Z</time>
      </trkpt>
      <trkpt lat="46.33691" lon="5.38502">
        <ele>384.4</ele>
        <time>2022-05-16T13:33:43Z</time>
      </trkpt>
      <trkpt lat="46.33704" lon="5.3848">
        <ele>385.4</ele>
        <time>2022-05-16T13:33:49Z</time>
      </trkpt>
      <trkpt lat="46.33711" lon="5.38467">
        <ele>386</ele>
        <time>2022-05-16T13:33:52Z</time>
      </trkpt>
      <trkpt lat="46.33717" lon="5.38455">
        <ele>386.4</ele>
        <time>2022-05-16T13:33:55Z</time>
      </trkpt>
      <trkpt lat="46.33733" lon="5.38433">
        <ele>387.2</ele>
        <time>2022-05-16T13:34:02Z</time>
      </trkpt>
      <trkpt lat="46.33738" lon="5.38427">
        <ele>387.6</ele>
        <time>2022-05-16T13:34:04Z</time>
      </trkpt>
      <trkpt lat="46.33753" lon="5.38402">
        <ele>388.6</ele>
        <time>2022-05-16T13:34:11Z</time>
      </trkpt>
      <trkpt lat="46.33754" lon="5.38398">
        <ele>388.8</ele>
        <time>2022-05-16T13:34:12Z</time>
      </trkpt>
      <trkpt lat="46.33759" lon="5.38381">
        <ele>390</ele>
        <time>2022-05-16T13:34:16Z</time>
      </trkpt>
      <trkpt lat="46.33761" lon="5.38367">
        <ele>390.6</ele>
        <time>2022-05-16T13:34:19Z</time>
      </trkpt>
      <trkpt lat="46.33763" lon="5.38358">
        <ele>391</ele>
        <time>2022-05-16T13:34:21Z</time>
      </trkpt>
      <trkpt lat="46.33767" lon="5.38336">
        <ele>392</ele>
        <time>2022-05-16T13:34:26Z</time>
      </trkpt>
      <trkpt lat="46.33769" lon="5.38332">
        <ele>392.2</ele>
        <time>2022-05-16T13:34:27Z</time>
      </trkpt>
      <trkpt lat="46.33777" lon="5.38308">
        <ele>393.4</ele>
        <time>2022-05-16T13:34:33Z</time>
      </trkpt>
      <trkpt lat="46.33781" lon="5.38295">
        <ele>394.2</ele>
        <time>2022-05-16T13:34:36Z</time>
      </trkpt>
      <trkpt lat="46.33783" lon="5.38291">
        <ele>394.4</ele>
        <time>2022-05-16T13:34:37Z</time>
      </trkpt>
      <trkpt lat="46.33792" lon="5.38268">
        <ele>395.4</ele>
        <time>2022-05-16T13:34:43Z</time>
      </trkpt>
      <trkpt lat="46.33793" lon="5.38264">
        <ele>395.6</ele>
        <time>2022-05-16T13:34:44Z</time>
      </trkpt>
      <trkpt lat="46.33799" lon="5.38248">
        <ele>396.6</ele>
        <time>2022-05-16T13:34:48Z</time>
      </trkpt>
      <trkpt lat="46.33806" lon="5.38233">
        <ele>397.2</ele>
        <time>2022-05-16T13:34:52Z</time>
      </trkpt>
      <trkpt lat="46.33809" lon="5.38225">
        <ele>397.4</ele>
        <time>2022-05-16T13:34:54Z</time>
      </trkpt>
      <trkpt lat="46.33813" lon="5.38218">
        <ele>397.8</ele>
        <time>2022-05-16T13:34:56Z</time>
      </trkpt>
      <trkpt lat="46.3382" lon="5.38204">
        <ele>399</ele>
        <time>2022-05-16T13:35:00Z</time>
      </trkpt>
      <trkpt lat="46.33825" lon="5.38194">
        <ele>399.6</ele>
        <time>2022-05-16T13:35:03Z</time>
      </trkpt>
      <trkpt lat="46.33835" lon="5.38178">
        <ele>400.2</ele>
        <time>2022-05-16T13:35:08Z</time>
      </trkpt>
      <trkpt lat="46.33838" lon="5.38171">
        <ele>401.4</ele>
        <time>2022-05-16T13:35:10Z</time>
      </trkpt>
      <trkpt lat="46.33844" lon="5.3816">
        <ele>402.2</ele>
        <time>2022-05-16T13:35:13Z</time>
      </trkpt>
      <trkpt lat="46.33845" lon="5.38156">
        <ele>402.4</ele>
        <time>2022-05-16T13:35:14Z</time>
      </trkpt>
      <trkpt lat="46.33857" lon="5.38132">
        <ele>403.4</ele>
        <time>2022-05-16T13:35:20Z</time>
      </trkpt>
      <trkpt lat="46.33862" lon="5.38129">
        <ele>404.4</ele>
        <time>2022-05-16T13:35:22Z</time>
      </trkpt>
      <trkpt lat="46.33865" lon="5.3813">
        <ele>404.8</ele>
        <time>2022-05-16T13:35:23Z</time>
      </trkpt>
      <trkpt lat="46.33869" lon="5.38137">
        <ele>405.2</ele>
        <time>2022-05-16T13:35:25Z</time>
      </trkpt>
      <trkpt lat="46.33869" lon="5.38141">
        <ele>405.4</ele>
        <time>2022-05-16T13:35:26Z</time>
      </trkpt>
      <trkpt lat="46.33862" lon="5.38159">
        <ele>406</ele>
        <time>2022-05-16T13:35:30Z</time>
      </trkpt>
      <trkpt lat="46.33862" lon="5.38163">
        <ele>406.2</ele>
        <time>2022-05-16T13:35:31Z</time>
      </trkpt>
      <trkpt lat="46.33859" lon="5.38182">
        <ele>407.2</ele>
        <time>2022-05-16T13:35:35Z</time>
      </trkpt>
      <trkpt lat="46.33856" lon="5.38202">
        <ele>408</ele>
        <time>2022-05-16T13:35:39Z</time>
      </trkpt>
      <trkpt lat="46.33856" lon="5.38207">
        <ele>408.2</ele>
        <time>2022-05-16T13:35:40Z</time>
      </trkpt>
      <trkpt lat="46.33852" lon="5.38228">
        <ele>409.4</ele>
        <time>2022-05-16T13:35:44Z</time>
      </trkpt>
      <trkpt lat="46.3385" lon="5.38253">
        <ele>410.2</ele>
        <time>2022-05-16T13:35:49Z</time>
      </trkpt>
      <trkpt lat="46.33849" lon="5.38263">
        <ele>410.2</ele>
        <time>2022-05-16T13:35:51Z</time>
      </trkpt>
      <trkpt lat="46.33847" lon="5.38291">
        <ele>411.4</ele>
        <time>2022-05-16T13:35:57Z</time>
      </trkpt>
      <trkpt lat="46.33847" lon="5.38295">
        <ele>411.8</ele>
        <time>2022-05-16T13:35:58Z</time>
      </trkpt>
      <trkpt lat="46.33847" lon="5.3831">
        <ele>412.6</ele>
        <time>2022-05-16T13:36:01Z</time>
      </trkpt>
      <trkpt lat="46.33847" lon="5.38328">
        <ele>413.6</ele>
        <time>2022-05-16T13:36:05Z</time>
      </trkpt>
      <trkpt lat="46.33848" lon="5.38342">
        <ele>414.6</ele>
        <time>2022-05-16T13:36:08Z</time>
      </trkpt>
      <trkpt lat="46.33848" lon="5.38347">
        <ele>414.8</ele>
        <time>2022-05-16T13:36:09Z</time>
      </trkpt>
      <trkpt lat="46.33852" lon="5.38378">
        <ele>415.8</ele>
        <time>2022-05-16T13:36:16Z</time>
      </trkpt>
      <trkpt lat="46.33853" lon="5.38391">
        <ele>416.4</ele>
        <time>2022-05-16T13:36:19Z</time>
      </trkpt>
      <trkpt lat="46.33854" lon="5.384">
        <ele>417.2</ele>
        <time>2022-05-16T13:36:21Z</time>
      </trkpt>
      <trkpt lat="46.33857" lon="5.38422">
        <ele>418.2</ele>
        <time>2022-05-16T13:36:26Z</time>
      </trkpt>
      <trkpt lat="46.33861" lon="5.3844">
        <ele>419</ele>
        <time>2022-05-16T13:36:30Z</time>
      </trkpt>
      <trkpt lat="46.33862" lon="5.38445">
        <ele>419.4</ele>
        <time>2022-05-16T13:36:31Z</time>
      </trkpt>
      <trkpt lat="46.33865" lon="5.38465">
        <ele>420.6</ele>
        <time>2022-05-16T13:36:35Z</time>
      </trkpt>
      <trkpt lat="46.33864" lon="5.3848">
        <ele>421.4</ele>
        <time>2022-05-16T13:36:38Z</time>
      </trkpt>
      <trkpt lat="46.33861" lon="5.38489">
        <ele>421.8</ele>
        <time>2022-05-16T13:36:40Z</time>
      </trkpt>
      <trkpt lat="46.3386" lon="5.38493">
        <ele>422</ele>
        <time>2022-05-16T13:36:41Z</time>
      </trkpt>
      <trkpt lat="46.33851" lon="5.38513">
        <ele>422.8</ele>
        <time>2022-05-16T13:36:46Z</time>
      </trkpt>
      <trkpt lat="46.3385" lon="5.38517">
        <ele>423</ele>
        <time>2022-05-16T13:36:47Z</time>
      </trkpt>
      <trkpt lat="46.33845" lon="5.38529">
        <ele>424.2</ele>
        <time>2022-05-16T13:36:50Z</time>
      </trkpt>
      <trkpt lat="46.33837" lon="5.38549">
        <ele>425.2</ele>
        <time>2022-05-16T13:36:55Z</time>
      </trkpt>
      <trkpt lat="46.33833" lon="5.3856">
        <ele>425.8</ele>
        <time>2022-05-16T13:36:58Z</time>
      </trkpt>
      <trkpt lat="46.3383" lon="5.38569">
        <ele>426.2</ele>
        <time>2022-05-16T13:37:00Z</time>
      </trkpt>
      <trkpt lat="46.33824" lon="5.38588">
        <ele>427.2</ele>
        <time>2022-05-16T13:37:04Z</time>
      </trkpt>
      <trkpt lat="46.33822" lon="5.38603">
        <ele>427.6</ele>
        <time>2022-05-16T13:37:07Z</time>
      </trkpt>
      <trkpt lat="46.33819" lon="5.38634">
        <ele>428.2</ele>
        <time>2022-05-16T13:37:13Z</time>
      </trkpt>
      <trkpt lat="46.3382" lon="5.38644">
        <ele>428.6</ele>
        <time>2022-05-16T13:37:15Z</time>
      </trkpt>
      <trkpt lat="46.33822" lon="5.38659">
        <ele>429.8</ele>
        <time>2022-05-16T13:37:18Z</time>
      </trkpt>
      <trkpt lat="46.33826" lon="5.38669">
        <ele>430.4</ele>
        <time>2022-05-16T13:37:20Z</time>
      </trkpt>
      <trkpt lat="46.33836" lon="5.38684">
        <ele>430.8</ele>
        <time>2022-05-16T13:37:24Z</time>
      </trkpt>
      <trkpt lat="46.33845" lon="5.38693">
        <ele>431.6</ele>
        <time>2022-05-16T13:37:27Z</time>
      </trkpt>
      <trkpt lat="46.33848" lon="5.38696">
        <ele>431.8</ele>
        <time>2022-05-16T13:37:28Z</time>
      </trkpt>
      <trkpt lat="46.33861" lon="5.38703">
        <ele>433</ele>
        <time>2022-05-16T13:37:32Z</time>
      </trkpt>
      <trkpt lat="46.33872" lon="5.38708">
        <ele>433.4</ele>
        <time>2022-05-16T13:37:35Z</time>
      </trkpt>
      <trkpt lat="46.33883" lon="5.38712">
        <ele>434.2</ele>
        <time>2022-05-16T13:37:38Z</time>
      </trkpt>
      <trkpt lat="46.33897" lon="5.38717">
        <ele>435.2</ele>
        <time>2022-05-16T13:37:42Z</time>
      </trkpt>
      <trkpt lat="46.33913" lon="5.38722">
        <ele>436.2</ele>
        <time>2022-05-16T13:37:46Z</time>
      </trkpt>
      <trkpt lat="46.33917" lon="5.38723">
        <ele>436.4</ele>
        <time>2022-05-16T13:37:47Z</time>
      </trkpt>
      <trkpt lat="46.33943" lon="5.38732">
        <ele>437.4</ele>
        <time>2022-05-16T13:37:53Z</time>
      </trkpt>
      <trkpt lat="46.33951" lon="5.38735">
        <ele>437.6</ele>
        <time>2022-05-16T13:37:55Z</time>
      </trkpt>
      <trkpt lat="46.33967" lon="5.3874">
        <ele>438.8</ele>
        <time>2022-05-16T13:37:59Z</time>
      </trkpt>
      <trkpt lat="46.33974" lon="5.38743">
        <ele>439.2</ele>
        <time>2022-05-16T13:38:01Z</time>
      </trkpt>
      <trkpt lat="46.33987" lon="5.38751">
        <ele>440</ele>
        <time>2022-05-16T13:38:05Z</time>
      </trkpt>
      <trkpt lat="46.34004" lon="5.38761">
        <ele>441</ele>
        <time>2022-05-16T13:38:10Z</time>
      </trkpt>
      <trkpt lat="46.34007" lon="5.38764">
        <ele>441.4</ele>
        <time>2022-05-16T13:38:11Z</time>
      </trkpt>
      <trkpt lat="46.34023" lon="5.38774">
        <ele>442.8</ele>
        <time>2022-05-16T13:38:15Z</time>
      </trkpt>
      <trkpt lat="46.34028" lon="5.38777">
        <ele>443</ele>
        <time>2022-05-16T13:38:16Z</time>
      </trkpt>
      <trkpt lat="46.34047" lon="5.38787">
        <ele>443.8</ele>
        <time>2022-05-16T13:38:20Z</time>
      </trkpt>
      <trkpt lat="46.34058" lon="5.38792">
        <ele>443.8</ele>
        <time>2022-05-16T13:38:22Z</time>
      </trkpt>
      <trkpt lat="46.34095" lon="5.38812">
        <ele>444</ele>
        <time>2022-05-16T13:38:29Z</time>
      </trkpt>
      <trkpt lat="46.34133" lon="5.38835">
        <ele>444.2</ele>
        <time>2022-05-16T13:38:37Z</time>
      </trkpt>
      <trkpt lat="46.34143" lon="5.38841">
        <ele>444.2</ele>
        <time>2022-05-16T13:38:39Z</time>
      </trkpt>
      <trkpt lat="46.34167" lon="5.38853">
        <ele>444.2</ele>
        <time>2022-05-16T13:38:43Z</time>
      </trkpt>
      <trkpt lat="46.34199" lon="5.3887">
        <ele>444</ele>
        <time>2022-05-16T13:38:48Z</time>
      </trkpt>
      <trkpt lat="46.34235" lon="5.38889">
        <ele>442.4</ele>
        <time>2022-05-16T13:38:53Z</time>
      </trkpt>
      <trkpt lat="46.3425" lon="5.38898">
        <ele>441.8</ele>
        <time>2022-05-16T13:38:55Z</time>
      </trkpt>
      <trkpt lat="46.34265" lon="5.38907">
        <ele>441</ele>
        <time>2022-05-16T13:38:57Z</time>
      </trkpt>
      <trkpt lat="46.34296" lon="5.38928">
        <ele>440.4</ele>
        <time>2022-05-16T13:39:01Z</time>
      </trkpt>
      <trkpt lat="46.34352" lon="5.38961">
        <ele>439.8</ele>
        <time>2022-05-16T13:39:07Z</time>
      </trkpt>
      <trkpt lat="46.34372" lon="5.38967">
        <ele>438.8</ele>
        <time>2022-05-16T13:39:09Z</time>
      </trkpt>
      <trkpt lat="46.34383" lon="5.38967">
        <ele>438.4</ele>
        <time>2022-05-16T13:39:10Z</time>
      </trkpt>
      <trkpt lat="46.34392" lon="5.38965">
        <ele>437.4</ele>
        <time>2022-05-16T13:39:11Z</time>
      </trkpt>
      <trkpt lat="46.34416" lon="5.38952">
        <ele>436.4</ele>
        <time>2022-05-16T13:39:13Z</time>
      </trkpt>
      <trkpt lat="46.34438" lon="5.38938">
        <ele>435</ele>
        <time>2022-05-16T13:39:15Z</time>
      </trkpt>
      <trkpt lat="46.34447" lon="5.38932">
        <ele>434</ele>
        <time>2022-05-16T13:39:16Z</time>
      </trkpt>
      <trkpt lat="46.34471" lon="5.38916">
        <ele>432.6</ele>
        <time>2022-05-16T13:39:18Z</time>
      </trkpt>
      <trkpt lat="46.34481" lon="5.38908">
        <ele>431.6</ele>
        <time>2022-05-16T13:39:19Z</time>
      </trkpt>
      <trkpt lat="46.34492" lon="5.38901">
        <ele>431</ele>
        <time>2022-05-16T13:39:20Z</time>
      </trkpt>
      <trkpt lat="46.345" lon="5.38895">
        <ele>430.2</ele>
        <time>2022-05-16T13:39:21Z</time>
      </trkpt>
      <trkpt lat="46.34534" lon="5.38874">
        <ele>429</ele>
        <time>2022-05-16T13:39:24Z</time>
      </trkpt>
      <trkpt lat="46.34543" lon="5.38871">
        <ele>428.2</ele>
        <time>2022-05-16T13:39:25Z</time>
      </trkpt>
      <trkpt lat="46.34557" lon="5.38869">
        <ele>427.2</ele>
        <time>2022-05-16T13:39:26Z</time>
      </trkpt>
      <trkpt lat="46.34566" lon="5.3887">
        <ele>426.6</ele>
        <time>2022-05-16T13:39:27Z</time>
      </trkpt>
      <trkpt lat="46.34577" lon="5.38872">
        <ele>425.4</ele>
        <time>2022-05-16T13:39:28Z</time>
      </trkpt>
      <trkpt lat="46.34586" lon="5.38884">
        <ele>425</ele>
        <time>2022-05-16T13:39:29Z</time>
      </trkpt>
      <trkpt lat="46.34595" lon="5.38897">
        <ele>424.4</ele>
        <time>2022-05-16T13:39:30Z</time>
      </trkpt>
      <trkpt lat="46.34613" lon="5.38927">
        <ele>423.2</ele>
        <time>2022-05-16T13:39:32Z</time>
      </trkpt>
      <trkpt lat="46.34622" lon="5.38941">
        <ele>422.2</ele>
        <time>2022-05-16T13:39:33Z</time>
      </trkpt>
      <trkpt lat="46.34644" lon="5.38967">
        <ele>420.8</ele>
        <time>2022-05-16T13:39:35Z</time>
      </trkpt>
      <trkpt lat="46.34657" lon="5.38976">
        <ele>420.2</ele>
        <time>2022-05-16T13:39:36Z</time>
      </trkpt>
      <trkpt lat="46.34669" lon="5.38985">
        <ele>419</ele>
        <time>2022-05-16T13:39:37Z</time>
      </trkpt>
      <trkpt lat="46.34681" lon="5.38995">
        <ele>418.6</ele>
        <time>2022-05-16T13:39:38Z</time>
      </trkpt>
      <trkpt lat="46.34692" lon="5.39007">
        <ele>417.8</ele>
        <time>2022-05-16T13:39:39Z</time>
      </trkpt>
      <trkpt lat="46.34702" lon="5.39021">
        <ele>416.4</ele>
        <time>2022-05-16T13:39:40Z</time>
      </trkpt>
      <trkpt lat="46.34719" lon="5.39054">
        <ele>415.4</ele>
        <time>2022-05-16T13:39:42Z</time>
      </trkpt>
      <trkpt lat="46.34726" lon="5.39072">
        <ele>414.4</ele>
        <time>2022-05-16T13:39:43Z</time>
      </trkpt>
      <trkpt lat="46.34731" lon="5.39089">
        <ele>413.2</ele>
        <time>2022-05-16T13:39:44Z</time>
      </trkpt>
      <trkpt lat="46.34735" lon="5.39108">
        <ele>412.6</ele>
        <time>2022-05-16T13:39:45Z</time>
      </trkpt>
      <trkpt lat="46.34739" lon="5.39127">
        <ele>411</ele>
        <time>2022-05-16T13:39:46Z</time>
      </trkpt>
      <trkpt lat="46.34743" lon="5.39145">
        <ele>410</ele>
        <time>2022-05-16T13:39:47Z</time>
      </trkpt>
      <trkpt lat="46.34751" lon="5.39178">
        <ele>408.6</ele>
        <time>2022-05-16T13:39:49Z</time>
      </trkpt>
      <trkpt lat="46.34755" lon="5.39193">
        <ele>408.2</ele>
        <time>2022-05-16T13:39:50Z</time>
      </trkpt>
      <trkpt lat="46.34758" lon="5.39205">
        <ele>407.2</ele>
        <time>2022-05-16T13:39:51Z</time>
      </trkpt>
      <trkpt lat="46.34764" lon="5.39213">
        <ele>406.8</ele>
        <time>2022-05-16T13:39:52Z</time>
      </trkpt>
      <trkpt lat="46.34772" lon="5.39216">
        <ele>406</ele>
        <time>2022-05-16T13:39:53Z</time>
      </trkpt>
      <trkpt lat="46.3478" lon="5.39214">
        <ele>405.2</ele>
        <time>2022-05-16T13:39:54Z</time>
      </trkpt>
      <trkpt lat="46.34789" lon="5.3921">
        <ele>404.8</ele>
        <time>2022-05-16T13:39:55Z</time>
      </trkpt>
      <trkpt lat="46.34797" lon="5.39203">
        <ele>404.2</ele>
        <time>2022-05-16T13:39:56Z</time>
      </trkpt>
      <trkpt lat="46.34803" lon="5.39187">
        <ele>403.8</ele>
        <time>2022-05-16T13:39:57Z</time>
      </trkpt>
      <trkpt lat="46.34805" lon="5.39172">
        <ele>402</ele>
        <time>2022-05-16T13:39:58Z</time>
      </trkpt>
      <trkpt lat="46.34803" lon="5.39158">
        <ele>401.6</ele>
        <time>2022-05-16T13:39:59Z</time>
      </trkpt>
      <trkpt lat="46.34801" lon="5.39145">
        <ele>400.6</ele>
        <time>2022-05-16T13:40:00Z</time>
      </trkpt>
      <trkpt lat="46.348" lon="5.3913">
        <ele>399.4</ele>
        <time>2022-05-16T13:40:01Z</time>
      </trkpt>
      <trkpt lat="46.34801" lon="5.39102">
        <ele>398.2</ele>
        <time>2022-05-16T13:40:03Z</time>
      </trkpt>
      <trkpt lat="46.34805" lon="5.39058">
        <ele>397</ele>
        <time>2022-05-16T13:40:06Z</time>
      </trkpt>
      <trkpt lat="46.34809" lon="5.39045">
        <ele>396</ele>
        <time>2022-05-16T13:40:07Z</time>
      </trkpt>
      <trkpt lat="46.34817" lon="5.39037">
        <ele>395.6</ele>
        <time>2022-05-16T13:40:08Z</time>
      </trkpt>
      <trkpt lat="46.34826" lon="5.39033">
        <ele>395.4</ele>
        <time>2022-05-16T13:40:09Z</time>
      </trkpt>
      <trkpt lat="46.34859" lon="5.39026">
        <ele>394.2</ele>
        <time>2022-05-16T13:40:12Z</time>
      </trkpt>
      <trkpt lat="46.3487" lon="5.39023">
        <ele>393.8</ele>
        <time>2022-05-16T13:40:13Z</time>
      </trkpt>
      <trkpt lat="46.34882" lon="5.3902">
        <ele>393</ele>
        <time>2022-05-16T13:40:14Z</time>
      </trkpt>
      <trkpt lat="46.34905" lon="5.39013">
        <ele>391.8</ele>
        <time>2022-05-16T13:40:16Z</time>
      </trkpt>
      <trkpt lat="46.34917" lon="5.39009">
        <ele>390.4</ele>
        <time>2022-05-16T13:40:17Z</time>
      </trkpt>
      <trkpt lat="46.3494" lon="5.39001">
        <ele>389</ele>
        <time>2022-05-16T13:40:19Z</time>
      </trkpt>
      <trkpt lat="46.34964" lon="5.38992">
        <ele>387.6</ele>
        <time>2022-05-16T13:40:21Z</time>
      </trkpt>
      <trkpt lat="46.34986" lon="5.38981">
        <ele>385.8</ele>
        <time>2022-05-16T13:40:23Z</time>
      </trkpt>
      <trkpt lat="46.35007" lon="5.38969">
        <ele>384.6</ele>
        <time>2022-05-16T13:40:25Z</time>
      </trkpt>
      <trkpt lat="46.35018" lon="5.38962">
        <ele>384.4</ele>
        <time>2022-05-16T13:40:26Z</time>
      </trkpt>
      <trkpt lat="46.35035" lon="5.38952">
        <ele>383.6</ele>
        <time>2022-05-16T13:40:28Z</time>
      </trkpt>
      <trkpt lat="46.35043" lon="5.3895">
        <ele>383.4</ele>
        <time>2022-05-16T13:40:29Z</time>
      </trkpt>
      <trkpt lat="46.35051" lon="5.3895">
        <ele>382.8</ele>
        <time>2022-05-16T13:40:30Z</time>
      </trkpt>
      <trkpt lat="46.35059" lon="5.38951">
        <ele>382.4</ele>
        <time>2022-05-16T13:40:31Z</time>
      </trkpt>
      <trkpt lat="46.35065" lon="5.38954">
        <ele>382</ele>
        <time>2022-05-16T13:40:32Z</time>
      </trkpt>
      <trkpt lat="46.35077" lon="5.38966">
        <ele>381.4</ele>
        <time>2022-05-16T13:40:34Z</time>
      </trkpt>
      <trkpt lat="46.35081" lon="5.38974">
        <ele>381</ele>
        <time>2022-05-16T13:40:35Z</time>
      </trkpt>
      <trkpt lat="46.35082" lon="5.38985">
        <ele>380.8</ele>
        <time>2022-05-16T13:40:36Z</time>
      </trkpt>
      <trkpt lat="46.35083" lon="5.39012">
        <ele>380.4</ele>
        <time>2022-05-16T13:40:38Z</time>
      </trkpt>
      <trkpt lat="46.35082" lon="5.39026">
        <ele>380.4</ele>
        <time>2022-05-16T13:40:39Z</time>
      </trkpt>
      <trkpt lat="46.35081" lon="5.39056">
        <ele>379.8</ele>
        <time>2022-05-16T13:40:41Z</time>
      </trkpt>
      <trkpt lat="46.3508" lon="5.39072">
        <ele>379.6</ele>
        <time>2022-05-16T13:40:42Z</time>
      </trkpt>
      <trkpt lat="46.35075" lon="5.39121">
        <ele>377.8</ele>
        <time>2022-05-16T13:40:45Z</time>
      </trkpt>
      <trkpt lat="46.35074" lon="5.39157">
        <ele>376.4</ele>
        <time>2022-05-16T13:40:47Z</time>
      </trkpt>
      <trkpt lat="46.35074" lon="5.39187">
        <ele>374.6</ele>
        <time>2022-05-16T13:40:49Z</time>
      </trkpt>
      <trkpt lat="46.35076" lon="5.39219">
        <ele>373.2</ele>
        <time>2022-05-16T13:40:51Z</time>
      </trkpt>
      <trkpt lat="46.3508" lon="5.39267">
        <ele>371.8</ele>
        <time>2022-05-16T13:40:54Z</time>
      </trkpt>
      <trkpt lat="46.35081" lon="5.39283">
        <ele>371.4</ele>
        <time>2022-05-16T13:40:55Z</time>
      </trkpt>
      <trkpt lat="46.35084" lon="5.39315">
        <ele>370.4</ele>
        <time>2022-05-16T13:40:57Z</time>
      </trkpt>
      <trkpt lat="46.35083" lon="5.39378">
        <ele>369.2</ele>
        <time>2022-05-16T13:41:01Z</time>
      </trkpt>
      <trkpt lat="46.3508" lon="5.39408">
        <ele>368.2</ele>
        <time>2022-05-16T13:41:03Z</time>
      </trkpt>
      <trkpt lat="46.35078" lon="5.39464">
        <ele>367.6</ele>
        <time>2022-05-16T13:41:07Z</time>
      </trkpt>
      <trkpt lat="46.35081" lon="5.39542">
        <ele>367.4</ele>
        <time>2022-05-16T13:41:13Z</time>
      </trkpt>
      <trkpt lat="46.35084" lon="5.39596">
        <ele>367</ele>
        <time>2022-05-16T13:41:17Z</time>
      </trkpt>
      <trkpt lat="46.35084" lon="5.39636">
        <ele>366.4</ele>
        <time>2022-05-16T13:41:20Z</time>
      </trkpt>
      <trkpt lat="46.3508" lon="5.39713">
        <ele>365.8</ele>
        <time>2022-05-16T13:41:26Z</time>
      </trkpt>
      <trkpt lat="46.35087" lon="5.3975">
        <ele>365.8</ele>
        <time>2022-05-16T13:41:29Z</time>
      </trkpt>
      <trkpt lat="46.3509" lon="5.39761">
        <ele>365.8</ele>
        <time>2022-05-16T13:41:30Z</time>
      </trkpt>
      <trkpt lat="46.35114" lon="5.39836">
        <ele>365.8</ele>
        <time>2022-05-16T13:41:37Z</time>
      </trkpt>
      <trkpt lat="46.35145" lon="5.39906">
        <ele>365.6</ele>
        <time>2022-05-16T13:41:44Z</time>
      </trkpt>
      <trkpt lat="46.3515" lon="5.39917">
        <ele>365.4</ele>
        <time>2022-05-16T13:41:45Z</time>
      </trkpt>
      <trkpt lat="46.35183" lon="5.39974">
        <ele>365.2</ele>
        <time>2022-05-16T13:41:51Z</time>
      </trkpt>
      <trkpt lat="46.35201" lon="5.40004">
        <ele>364.8</ele>
        <time>2022-05-16T13:41:54Z</time>
      </trkpt>
      <trkpt lat="46.35214" lon="5.40034">
        <ele>364.4</ele>
        <time>2022-05-16T13:41:57Z</time>
      </trkpt>
      <trkpt lat="46.35234" lon="5.40072">
        <ele>364</ele>
        <time>2022-05-16T13:42:01Z</time>
      </trkpt>
      <trkpt lat="46.35246" lon="5.40088">
        <ele>363.8</ele>
        <time>2022-05-16T13:42:03Z</time>
      </trkpt>
      <trkpt lat="46.35262" lon="5.40112">
        <ele>364</ele>
        <time>2022-05-16T13:42:06Z</time>
      </trkpt>
      <trkpt lat="46.3527" lon="5.40131">
        <ele>364</ele>
        <time>2022-05-16T13:42:08Z</time>
      </trkpt>
      <trkpt lat="46.35275" lon="5.40153">
        <ele>364</ele>
        <time>2022-05-16T13:42:10Z</time>
      </trkpt>
      <trkpt lat="46.35277" lon="5.40177">
        <ele>364</ele>
        <time>2022-05-16T13:42:12Z</time>
      </trkpt>
      <trkpt lat="46.35279" lon="5.40251">
        <ele>363.6</ele>
        <time>2022-05-16T13:42:18Z</time>
      </trkpt>
      <trkpt lat="46.3528" lon="5.40277">
        <ele>363.4</ele>
        <time>2022-05-16T13:42:20Z</time>
      </trkpt>
      <trkpt lat="46.35285" lon="5.4033">
        <ele>362.6</ele>
        <time>2022-05-16T13:42:24Z</time>
      </trkpt>
      <trkpt lat="46.3529" lon="5.40353">
        <ele>362.2</ele>
        <time>2022-05-16T13:42:26Z</time>
      </trkpt>
      <trkpt lat="46.35293" lon="5.40362">
        <ele>362</ele>
        <time>2022-05-16T13:42:27Z</time>
      </trkpt>
      <trkpt lat="46.35299" lon="5.40374">
        <ele>362</ele>
        <time>2022-05-16T13:42:28Z</time>
      </trkpt>
      <trkpt lat="46.35313" lon="5.40387">
        <ele>362</ele>
        <time>2022-05-16T13:42:30Z</time>
      </trkpt>
      <trkpt lat="46.35349" lon="5.40402">
        <ele>361.8</ele>
        <time>2022-05-16T13:42:35Z</time>
      </trkpt>
      <trkpt lat="46.35376" lon="5.40413">
        <ele>361.8</ele>
        <time>2022-05-16T13:42:39Z</time>
      </trkpt>
      <trkpt lat="46.35385" lon="5.40422">
        <ele>362</ele>
        <time>2022-05-16T13:42:41Z</time>
      </trkpt>
      <trkpt lat="46.35393" lon="5.40437">
        <ele>362.4</ele>
        <time>2022-05-16T13:42:43Z</time>
      </trkpt>
      <trkpt lat="46.35396" lon="5.40453">
        <ele>363</ele>
        <time>2022-05-16T13:42:45Z</time>
      </trkpt>
      <trkpt lat="46.35399" lon="5.40473">
        <ele>363.6</ele>
        <time>2022-05-16T13:42:47Z</time>
      </trkpt>
      <trkpt lat="46.35406" lon="5.40527">
        <ele>363.8</ele>
        <time>2022-05-16T13:42:52Z</time>
      </trkpt>
      <trkpt lat="46.35406" lon="5.40535">
        <ele>363.8</ele>
        <time>2022-05-16T13:42:53Z</time>
      </trkpt>
      <trkpt lat="46.35403" lon="5.40565">
        <ele>363.8</ele>
        <time>2022-05-16T13:42:56Z</time>
      </trkpt>
      <trkpt lat="46.35395" lon="5.40615">
        <ele>364.2</ele>
        <time>2022-05-16T13:43:02Z</time>
      </trkpt>
      <trkpt lat="46.35393" lon="5.40631">
        <ele>364.6</ele>
        <time>2022-05-16T13:43:04Z</time>
      </trkpt>
      <trkpt lat="46.35389" lon="5.40654">
        <ele>365.2</ele>
        <time>2022-05-16T13:43:07Z</time>
      </trkpt>
      <trkpt lat="46.35387" lon="5.40661">
        <ele>365.2</ele>
        <time>2022-05-16T13:43:08Z</time>
      </trkpt>
      <trkpt lat="46.35382" lon="5.40673">
        <ele>365.4</ele>
        <time>2022-05-16T13:43:10Z</time>
      </trkpt>
      <trkpt lat="46.35375" lon="5.40682">
        <ele>365.6</ele>
        <time>2022-05-16T13:43:12Z</time>
      </trkpt>
      <trkpt lat="46.35371" lon="5.40686">
        <ele>366</ele>
        <time>2022-05-16T13:43:13Z</time>
      </trkpt>
      <trkpt lat="46.3536" lon="5.40695">
        <ele>367</ele>
        <time>2022-05-16T13:43:16Z</time>
      </trkpt>
      <trkpt lat="46.35347" lon="5.40702">
        <ele>367.6</ele>
        <time>2022-05-16T13:43:19Z</time>
      </trkpt>
      <trkpt lat="46.35344" lon="5.40705">
        <ele>368</ele>
        <time>2022-05-16T13:43:20Z</time>
      </trkpt>
      <trkpt lat="46.35332" lon="5.40714">
        <ele>369.2</ele>
        <time>2022-05-16T13:43:23Z</time>
      </trkpt>
      <trkpt lat="46.35325" lon="5.40721">
        <ele>369.4</ele>
        <time>2022-05-16T13:43:25Z</time>
      </trkpt>
      <trkpt lat="46.35322" lon="5.40726">
        <ele>369.6</ele>
        <time>2022-05-16T13:43:26Z</time>
      </trkpt>
      <trkpt lat="46.35318" lon="5.40737">
        <ele>370.2</ele>
        <time>2022-05-16T13:43:28Z</time>
      </trkpt>
      <trkpt lat="46.35308" lon="5.40758">
        <ele>371.2</ele>
        <time>2022-05-16T13:43:32Z</time>
      </trkpt>
      <trkpt lat="46.35305" lon="5.40763">
        <ele>371.4</ele>
        <time>2022-05-16T13:43:33Z</time>
      </trkpt>
      <trkpt lat="46.35298" lon="5.40778">
        <ele>372.6</ele>
        <time>2022-05-16T13:43:36Z</time>
      </trkpt>
      <trkpt lat="46.35284" lon="5.40805">
        <ele>373.2</ele>
        <time>2022-05-16T13:43:40Z</time>
      </trkpt>
      <trkpt lat="46.35261" lon="5.40855">
        <ele>373.4</ele>
        <time>2022-05-16T13:43:47Z</time>
      </trkpt>
      <trkpt lat="46.35245" lon="5.40883">
        <ele>373.4</ele>
        <time>2022-05-16T13:43:51Z</time>
      </trkpt>
      <trkpt lat="46.35235" lon="5.40892">
        <ele>373.2</ele>
        <time>2022-05-16T13:43:53Z</time>
      </trkpt>
      <trkpt lat="46.35221" lon="5.40899">
        <ele>372.8</ele>
        <time>2022-05-16T13:43:55Z</time>
      </trkpt>
      <trkpt lat="46.35207" lon="5.409">
        <ele>372.6</ele>
        <time>2022-05-16T13:43:57Z</time>
      </trkpt>
      <trkpt lat="46.35166" lon="5.40906">
        <ele>371.8</ele>
        <time>2022-05-16T13:44:02Z</time>
      </trkpt>
      <trkpt lat="46.35148" lon="5.40911">
        <ele>371.6</ele>
        <time>2022-05-16T13:44:04Z</time>
      </trkpt>
      <trkpt lat="46.3512" lon="5.40922">
        <ele>370.4</ele>
        <time>2022-05-16T13:44:07Z</time>
      </trkpt>
      <trkpt lat="46.3511" lon="5.40928">
        <ele>370.2</ele>
        <time>2022-05-16T13:44:08Z</time>
      </trkpt>
      <trkpt lat="46.35101" lon="5.40935">
        <ele>368.8</ele>
        <time>2022-05-16T13:44:09Z</time>
      </trkpt>
      <trkpt lat="46.35083" lon="5.40952">
        <ele>368</ele>
        <time>2022-05-16T13:44:11Z</time>
      </trkpt>
      <trkpt lat="46.35074" lon="5.40962">
        <ele>367.4</ele>
        <time>2022-05-16T13:44:12Z</time>
      </trkpt>
      <trkpt lat="46.35058" lon="5.40984">
        <ele>366.4</ele>
        <time>2022-05-16T13:44:14Z</time>
      </trkpt>
      <trkpt lat="46.3505" lon="5.40996">
        <ele>366</ele>
        <time>2022-05-16T13:44:15Z</time>
      </trkpt>
      <trkpt lat="46.35036" lon="5.41019">
        <ele>365.2</ele>
        <time>2022-05-16T13:44:17Z</time>
      </trkpt>
      <trkpt lat="46.35021" lon="5.41051">
        <ele>363.8</ele>
        <time>2022-05-16T13:44:19Z</time>
      </trkpt>
      <trkpt lat="46.35009" lon="5.41081">
        <ele>362.6</ele>
        <time>2022-05-16T13:44:21Z</time>
      </trkpt>
      <trkpt lat="46.34996" lon="5.41111">
        <ele>361.4</ele>
        <time>2022-05-16T13:44:23Z</time>
      </trkpt>
      <trkpt lat="46.34989" lon="5.41126">
        <ele>361.2</ele>
        <time>2022-05-16T13:44:24Z</time>
      </trkpt>
      <trkpt lat="46.34981" lon="5.4114">
        <ele>360.6</ele>
        <time>2022-05-16T13:44:25Z</time>
      </trkpt>
      <trkpt lat="46.34972" lon="5.41153">
        <ele>360.2</ele>
        <time>2022-05-16T13:44:26Z</time>
      </trkpt>
      <trkpt lat="46.34963" lon="5.41165">
        <ele>360.2</ele>
        <time>2022-05-16T13:44:27Z</time>
      </trkpt>
      <trkpt lat="46.34937" lon="5.412">
        <ele>359.2</ele>
        <time>2022-05-16T13:44:30Z</time>
      </trkpt>
      <trkpt lat="46.34913" lon="5.41239">
        <ele>358.4</ele>
        <time>2022-05-16T13:44:33Z</time>
      </trkpt>
      <trkpt lat="46.34898" lon="5.41265">
        <ele>358</ele>
        <time>2022-05-16T13:44:35Z</time>
      </trkpt>
      <trkpt lat="46.34867" lon="5.41314">
        <ele>357.6</ele>
        <time>2022-05-16T13:44:39Z</time>
      </trkpt>
      <trkpt lat="46.34825" lon="5.41365">
        <ele>357.2</ele>
        <time>2022-05-16T13:44:44Z</time>
      </trkpt>
      <trkpt lat="46.34807" lon="5.41384">
        <ele>357</ele>
        <time>2022-05-16T13:44:46Z</time>
      </trkpt>
      <trkpt lat="46.34774" lon="5.41421">
        <ele>357</ele>
        <time>2022-05-16T13:44:50Z</time>
      </trkpt>
      <trkpt lat="46.3473" lon="5.41481">
        <ele>356.8</ele>
        <time>2022-05-16T13:44:56Z</time>
      </trkpt>
      <trkpt lat="46.34692" lon="5.41541">
        <ele>357</ele>
        <time>2022-05-16T13:45:02Z</time>
      </trkpt>
      <trkpt lat="46.34679" lon="5.41561">
        <ele>357</ele>
        <time>2022-05-16T13:45:04Z</time>
      </trkpt>
      <trkpt lat="46.34643" lon="5.41623">
        <ele>357</ele>
        <time>2022-05-16T13:45:10Z</time>
      </trkpt>
      <trkpt lat="46.34631" lon="5.41643">
        <ele>356.8</ele>
        <time>2022-05-16T13:45:12Z</time>
      </trkpt>
      <trkpt lat="46.3461" lon="5.41669">
        <ele>356.8</ele>
        <time>2022-05-16T13:45:15Z</time>
      </trkpt>
      <trkpt lat="46.34594" lon="5.41682">
        <ele>356.6</ele>
        <time>2022-05-16T13:45:17Z</time>
      </trkpt>
      <trkpt lat="46.34549" lon="5.41712">
        <ele>356.2</ele>
        <time>2022-05-16T13:45:22Z</time>
      </trkpt>
      <trkpt lat="46.34499" lon="5.41758">
        <ele>355.6</ele>
        <time>2022-05-16T13:45:28Z</time>
      </trkpt>
      <trkpt lat="46.34492" lon="5.41766">
        <ele>355.6</ele>
        <time>2022-05-16T13:45:29Z</time>
      </trkpt>
      <trkpt lat="46.34441" lon="5.41816">
        <ele>355.2</ele>
        <time>2022-05-16T13:45:36Z</time>
      </trkpt>
      <trkpt lat="46.34388" lon="5.41859">
        <ele>355.2</ele>
        <time>2022-05-16T13:45:43Z</time>
      </trkpt>
      <trkpt lat="46.34373" lon="5.41872">
        <ele>355</ele>
        <time>2022-05-16T13:45:45Z</time>
      </trkpt>
      <trkpt lat="46.34361" lon="5.4189">
        <ele>354.8</ele>
        <time>2022-05-16T13:45:47Z</time>
      </trkpt>
      <trkpt lat="46.34353" lon="5.41912">
        <ele>354.6</ele>
        <time>2022-05-16T13:45:49Z</time>
      </trkpt>
      <trkpt lat="46.3435" lon="5.41924">
        <ele>354.4</ele>
        <time>2022-05-16T13:45:50Z</time>
      </trkpt>
      <trkpt lat="46.34341" lon="5.41972">
        <ele>354.2</ele>
        <time>2022-05-16T13:45:54Z</time>
      </trkpt>
      <trkpt lat="46.34338" lon="5.41983">
        <ele>354.2</ele>
        <time>2022-05-16T13:45:55Z</time>
      </trkpt>
      <trkpt lat="46.34317" lon="5.42021">
        <ele>354.2</ele>
        <time>2022-05-16T13:45:59Z</time>
      </trkpt>
      <trkpt lat="46.34273" lon="5.42081">
        <ele>354</ele>
        <time>2022-05-16T13:46:06Z</time>
      </trkpt>
      <trkpt lat="46.34261" lon="5.42098">
        <ele>353.4</ele>
        <time>2022-05-16T13:46:08Z</time>
      </trkpt>
      <trkpt lat="46.34229" lon="5.42138">
        <ele>353.4</ele>
        <time>2022-05-16T13:46:13Z</time>
      </trkpt>
      <trkpt lat="46.34183" lon="5.42189">
        <ele>353.2</ele>
        <time>2022-05-16T13:46:20Z</time>
      </trkpt>
      <trkpt lat="46.34155" lon="5.42221">
        <ele>352.6</ele>
        <time>2022-05-16T13:46:24Z</time>
      </trkpt>
      <trkpt lat="46.34111" lon="5.42269">
        <ele>352.4</ele>
        <time>2022-05-16T13:46:31Z</time>
      </trkpt>
      <trkpt lat="46.34074" lon="5.42309">
        <ele>353</ele>
        <time>2022-05-16T13:46:37Z</time>
      </trkpt>
      <trkpt lat="46.34048" lon="5.42328">
        <ele>354.6</ele>
        <time>2022-05-16T13:46:41Z</time>
      </trkpt>
      <trkpt lat="46.34034" lon="5.42335">
        <ele>354.8</ele>
        <time>2022-05-16T13:46:43Z</time>
      </trkpt>
      <trkpt lat="46.33981" lon="5.42371">
        <ele>354.8</ele>
        <time>2022-05-16T13:46:50Z</time>
      </trkpt>
      <trkpt lat="46.33932" lon="5.42411">
        <ele>353.6</ele>
        <time>2022-05-16T13:46:57Z</time>
      </trkpt>
      <trkpt lat="46.33916" lon="5.42424">
        <ele>353.2</ele>
        <time>2022-05-16T13:46:59Z</time>
      </trkpt>
      <trkpt lat="46.33879" lon="5.42457">
        <ele>352.4</ele>
        <time>2022-05-16T13:47:04Z</time>
      </trkpt>
      <trkpt lat="46.33859" lon="5.42479">
        <ele>351.8</ele>
        <time>2022-05-16T13:47:07Z</time>
      </trkpt>
      <trkpt lat="46.33852" lon="5.42487">
        <ele>351.4</ele>
        <time>2022-05-16T13:47:08Z</time>
      </trkpt>
      <trkpt lat="46.33804" lon="5.42542">
        <ele>350.4</ele>
        <time>2022-05-16T13:47:15Z</time>
      </trkpt>
      <trkpt lat="46.33791" lon="5.42559">
        <ele>350.4</ele>
        <time>2022-05-16T13:47:17Z</time>
      </trkpt>
      <trkpt lat="46.33784" lon="5.42567">
        <ele>350.4</ele>
        <time>2022-05-16T13:47:18Z</time>
      </trkpt>
      <trkpt lat="46.33755" lon="5.42612">
        <ele>349.4</ele>
        <time>2022-05-16T13:47:23Z</time>
      </trkpt>
      <trkpt lat="46.33746" lon="5.42631">
        <ele>349.2</ele>
        <time>2022-05-16T13:47:25Z</time>
      </trkpt>
      <trkpt lat="46.33731" lon="5.42676">
        <ele>348.2</ele>
        <time>2022-05-16T13:47:29Z</time>
      </trkpt>
      <trkpt lat="46.33728" lon="5.42687">
        <ele>348</ele>
        <time>2022-05-16T13:47:30Z</time>
      </trkpt>
      <trkpt lat="46.33718" lon="5.42719">
        <ele>347.4</ele>
        <time>2022-05-16T13:47:33Z</time>
      </trkpt>
      <trkpt lat="46.33707" lon="5.42738">
        <ele>347.2</ele>
        <time>2022-05-16T13:47:35Z</time>
      </trkpt>
      <trkpt lat="46.33701" lon="5.42747">
        <ele>347.2</ele>
        <time>2022-05-16T13:47:36Z</time>
      </trkpt>
      <trkpt lat="46.33687" lon="5.4276">
        <ele>347</ele>
        <time>2022-05-16T13:47:38Z</time>
      </trkpt>
      <trkpt lat="46.33678" lon="5.42766">
        <ele>347</ele>
        <time>2022-05-16T13:47:39Z</time>
      </trkpt>
      <trkpt lat="46.33629" lon="5.42789">
        <ele>346.4</ele>
        <time>2022-05-16T13:47:45Z</time>
      </trkpt>
      <trkpt lat="46.33599" lon="5.42802">
        <ele>346.2</ele>
        <time>2022-05-16T13:47:49Z</time>
      </trkpt>
      <trkpt lat="46.33585" lon="5.42812">
        <ele>346</ele>
        <time>2022-05-16T13:47:51Z</time>
      </trkpt>
      <trkpt lat="46.33557" lon="5.42837">
        <ele>345.2</ele>
        <time>2022-05-16T13:47:55Z</time>
      </trkpt>
      <trkpt lat="46.33552" lon="5.42843">
        <ele>345.2</ele>
        <time>2022-05-16T13:47:56Z</time>
      </trkpt>
      <trkpt lat="46.33546" lon="5.42853">
        <ele>345</ele>
        <time>2022-05-16T13:47:57Z</time>
      </trkpt>
      <trkpt lat="46.33534" lon="5.42876">
        <ele>345.2</ele>
        <time>2022-05-16T13:48:00Z</time>
      </trkpt>
      <trkpt lat="46.33529" lon="5.42886">
        <ele>345.2</ele>
        <time>2022-05-16T13:48:01Z</time>
      </trkpt>
      <trkpt lat="46.33515" lon="5.42907">
        <ele>345.8</ele>
        <time>2022-05-16T13:48:04Z</time>
      </trkpt>
      <trkpt lat="46.33495" lon="5.42937">
        <ele>346</ele>
        <time>2022-05-16T13:48:08Z</time>
      </trkpt>
      <trkpt lat="46.33487" lon="5.42955">
        <ele>345.8</ele>
        <time>2022-05-16T13:48:10Z</time>
      </trkpt>
      <trkpt lat="46.33482" lon="5.42976">
        <ele>346.4</ele>
        <time>2022-05-16T13:48:12Z</time>
      </trkpt>
      <trkpt lat="46.33478" lon="5.42995">
        <ele>346</ele>
        <time>2022-05-16T13:48:14Z</time>
      </trkpt>
      <trkpt lat="46.33459" lon="5.4306">
        <ele>345.8</ele>
        <time>2022-05-16T13:48:20Z</time>
      </trkpt>
      <trkpt lat="46.33446" lon="5.43101">
        <ele>345.6</ele>
        <time>2022-05-16T13:48:24Z</time>
      </trkpt>
      <trkpt lat="46.33442" lon="5.43123">
        <ele>345.4</ele>
        <time>2022-05-16T13:48:26Z</time>
      </trkpt>
      <trkpt lat="46.33431" lon="5.43182">
        <ele>345.6</ele>
        <time>2022-05-16T13:48:32Z</time>
      </trkpt>
      <trkpt lat="46.33418" lon="5.4323">
        <ele>346</ele>
        <time>2022-05-16T13:48:37Z</time>
      </trkpt>
      <trkpt lat="46.33419" lon="5.43249">
        <ele>346.2</ele>
        <time>2022-05-16T13:48:39Z</time>
      </trkpt>
      <trkpt lat="46.33427" lon="5.43261">
        <ele>346.2</ele>
        <time>2022-05-16T13:48:41Z</time>
      </trkpt>
      <trkpt lat="46.33436" lon="5.43266">
        <ele>346.2</ele>
        <time>2022-05-16T13:48:42Z</time>
      </trkpt>
      <trkpt lat="46.33452" lon="5.43271">
        <ele>346</ele>
        <time>2022-05-16T13:48:44Z</time>
      </trkpt>
      <trkpt lat="46.3346" lon="5.43276">
        <ele>346</ele>
        <time>2022-05-16T13:48:45Z</time>
      </trkpt>
      <trkpt lat="46.33467" lon="5.43283">
        <ele>346</ele>
        <time>2022-05-16T13:48:46Z</time>
      </trkpt>
      <trkpt lat="46.33487" lon="5.43307">
        <ele>345.2</ele>
        <time>2022-05-16T13:48:49Z</time>
      </trkpt>
      <trkpt lat="46.33532" lon="5.43355">
        <ele>344.6</ele>
        <time>2022-05-16T13:48:56Z</time>
      </trkpt>
      <trkpt lat="46.33575" lon="5.43389">
        <ele>344.4</ele>
        <time>2022-05-16T13:49:02Z</time>
      </trkpt>
      <trkpt lat="46.33588" lon="5.43403">
        <ele>344.2</ele>
        <time>2022-05-16T13:49:04Z</time>
      </trkpt>
      <trkpt lat="46.33612" lon="5.43432">
        <ele>344</ele>
        <time>2022-05-16T13:49:08Z</time>
      </trkpt>
      <trkpt lat="46.33622" lon="5.43447">
        <ele>344</ele>
        <time>2022-05-16T13:49:10Z</time>
      </trkpt>
      <trkpt lat="46.33629" lon="5.43464">
        <ele>344</ele>
        <time>2022-05-16T13:49:12Z</time>
      </trkpt>
      <trkpt lat="46.33632" lon="5.43482">
        <ele>344.2</ele>
        <time>2022-05-16T13:49:14Z</time>
      </trkpt>
      <trkpt lat="46.33632" lon="5.435">
        <ele>344.6</ele>
        <time>2022-05-16T13:49:16Z</time>
      </trkpt>
      <trkpt lat="46.33631" lon="5.4352">
        <ele>345.6</ele>
        <time>2022-05-16T13:49:18Z</time>
      </trkpt>
      <trkpt lat="46.33631" lon="5.43562">
        <ele>346.2</ele>
        <time>2022-05-16T13:49:22Z</time>
      </trkpt>
      <trkpt lat="46.33634" lon="5.43615">
        <ele>345.6</ele>
        <time>2022-05-16T13:49:27Z</time>
      </trkpt>
      <trkpt lat="46.33637" lon="5.43659">
        <ele>344.4</ele>
        <time>2022-05-16T13:49:31Z</time>
      </trkpt>
      <trkpt lat="46.33637" lon="5.43667">
        <ele>344</ele>
        <time>2022-05-16T13:49:32Z</time>
      </trkpt>
      <trkpt lat="46.33637" lon="5.43673">
        <ele>343.8</ele>
        <time>2022-05-16T13:49:33Z</time>
      </trkpt>
      <trkpt lat="46.33639" lon="5.43684">
        <ele>343.2</ele>
        <time>2022-05-16T13:49:36Z</time>
      </trkpt>
      <trkpt lat="46.33646" lon="5.43691">
        <ele>342.8</ele>
        <time>2022-05-16T13:49:38Z</time>
      </trkpt>
      <trkpt lat="46.33651" lon="5.43693">
        <ele>343</ele>
        <time>2022-05-16T13:49:39Z</time>
      </trkpt>
      <trkpt lat="46.33679" lon="5.43706">
        <ele>342.4</ele>
        <time>2022-05-16T13:49:44Z</time>
      </trkpt>
      <trkpt lat="46.33715" lon="5.43726">
        <ele>342.4</ele>
        <time>2022-05-16T13:49:50Z</time>
      </trkpt>
      <trkpt lat="46.33766" lon="5.4377">
        <ele>342.2</ele>
        <time>2022-05-16T13:49:59Z</time>
      </trkpt>
      <trkpt lat="46.33772" lon="5.43775">
        <ele>342.2</ele>
        <time>2022-05-16T13:50:00Z</time>
      </trkpt>
      <trkpt lat="46.33818" lon="5.43821">
        <ele>341.8</ele>
        <time>2022-05-16T13:50:08Z</time>
      </trkpt>
      <trkpt lat="46.33829" lon="5.43832">
        <ele>341.8</ele>
        <time>2022-05-16T13:50:10Z</time>
      </trkpt>
      <trkpt lat="46.33875" lon="5.43878">
        <ele>342.2</ele>
        <time>2022-05-16T13:50:18Z</time>
      </trkpt>
      <trkpt lat="46.33923" lon="5.43925">
        <ele>342.2</ele>
        <time>2022-05-16T13:50:26Z</time>
      </trkpt>
      <trkpt lat="46.33928" lon="5.43932">
        <ele>342.2</ele>
        <time>2022-05-16T13:50:27Z</time>
      </trkpt>
      <trkpt lat="46.33951" lon="5.43963">
        <ele>342.6</ele>
        <time>2022-05-16T13:50:32Z</time>
      </trkpt>
      <trkpt lat="46.33965" lon="5.43984">
        <ele>343.4</ele>
        <time>2022-05-16T13:50:36Z</time>
      </trkpt>
      <trkpt lat="46.33969" lon="5.43989">
        <ele>343.6</ele>
        <time>2022-05-16T13:50:37Z</time>
      </trkpt>
      <trkpt lat="46.33979" lon="5.44001">
        <ele>344.4</ele>
        <time>2022-05-16T13:50:40Z</time>
      </trkpt>
      <trkpt lat="46.33992" lon="5.44014">
        <ele>345.4</ele>
        <time>2022-05-16T13:50:44Z</time>
      </trkpt>
      <trkpt lat="46.33995" lon="5.44017">
        <ele>345.8</ele>
        <time>2022-05-16T13:50:45Z</time>
      </trkpt>
      <trkpt lat="46.33998" lon="5.4402">
        <ele>346.2</ele>
        <time>2022-05-16T13:50:46Z</time>
      </trkpt>
      <trkpt lat="46.34008" lon="5.44027">
        <ele>347</ele>
        <time>2022-05-16T13:50:49Z</time>
      </trkpt>
      <trkpt lat="46.34014" lon="5.44031">
        <ele>347.4</ele>
        <time>2022-05-16T13:50:51Z</time>
      </trkpt>
      <trkpt lat="46.34017" lon="5.44033">
        <ele>348</ele>
        <time>2022-05-16T13:50:52Z</time>
      </trkpt>
      <trkpt lat="46.34031" lon="5.4404">
        <ele>349</ele>
        <time>2022-05-16T13:50:56Z</time>
      </trkpt>
      <trkpt lat="46.34052" lon="5.44052">
        <ele>350</ele>
        <time>2022-05-16T13:51:02Z</time>
      </trkpt>
      <trkpt lat="46.34059" lon="5.44057">
        <ele>350.2</ele>
        <time>2022-05-16T13:51:04Z</time>
      </trkpt>
      <trkpt lat="46.34078" lon="5.4407">
        <ele>351.2</ele>
        <time>2022-05-16T13:51:10Z</time>
      </trkpt>
      <trkpt lat="46.34096" lon="5.44087">
        <ele>352.6</ele>
        <time>2022-05-16T13:51:16Z</time>
      </trkpt>
      <trkpt lat="46.34108" lon="5.44103">
        <ele>353.6</ele>
        <time>2022-05-16T13:51:20Z</time>
      </trkpt>
      <trkpt lat="46.34111" lon="5.44107">
        <ele>354</ele>
        <time>2022-05-16T13:51:21Z</time>
      </trkpt>
      <trkpt lat="46.34127" lon="5.44131">
        <ele>354.8</ele>
        <time>2022-05-16T13:51:27Z</time>
      </trkpt>
      <trkpt lat="46.34135" lon="5.44143">
        <ele>355.2</ele>
        <time>2022-05-16T13:51:30Z</time>
      </trkpt>
      <trkpt lat="46.34144" lon="5.44155">
        <ele>355.8</ele>
        <time>2022-05-16T13:51:33Z</time>
      </trkpt>
      <trkpt lat="46.34159" lon="5.44177">
        <ele>356.8</ele>
        <time>2022-05-16T13:51:39Z</time>
      </trkpt>
      <trkpt lat="46.34162" lon="5.4418">
        <ele>357</ele>
        <time>2022-05-16T13:51:40Z</time>
      </trkpt>
      <trkpt lat="46.34173" lon="5.44193">
        <ele>358</ele>
        <time>2022-05-16T13:51:44Z</time>
      </trkpt>
      <trkpt lat="46.34184" lon="5.44204">
        <ele>358.8</ele>
        <time>2022-05-16T13:51:48Z</time>
      </trkpt>
      <trkpt lat="46.3419" lon="5.44208">
        <ele>359.2</ele>
        <time>2022-05-16T13:51:50Z</time>
      </trkpt>
      <trkpt lat="46.342" lon="5.44215">
        <ele>360.2</ele>
        <time>2022-05-16T13:51:53Z</time>
      </trkpt>
      <trkpt lat="46.34209" lon="5.4422">
        <ele>360.6</ele>
        <time>2022-05-16T13:51:56Z</time>
      </trkpt>
      <trkpt lat="46.34219" lon="5.44225">
        <ele>361.4</ele>
        <time>2022-05-16T13:51:59Z</time>
      </trkpt>
      <trkpt lat="46.34236" lon="5.4423">
        <ele>362.4</ele>
        <time>2022-05-16T13:52:04Z</time>
      </trkpt>
      <trkpt lat="46.34253" lon="5.44236">
        <ele>363.6</ele>
        <time>2022-05-16T13:52:09Z</time>
      </trkpt>
      <trkpt lat="46.3426" lon="5.44239">
        <ele>364</ele>
        <time>2022-05-16T13:52:11Z</time>
      </trkpt>
      <trkpt lat="46.34272" lon="5.44246">
        <ele>364.6</ele>
        <time>2022-05-16T13:52:15Z</time>
      </trkpt>
      <trkpt lat="46.34278" lon="5.44251">
        <ele>365.2</ele>
        <time>2022-05-16T13:52:17Z</time>
      </trkpt>
      <trkpt lat="46.34287" lon="5.44261">
        <ele>366</ele>
        <time>2022-05-16T13:52:20Z</time>
      </trkpt>
      <trkpt lat="46.34303" lon="5.44279">
        <ele>367.2</ele>
        <time>2022-05-16T13:52:25Z</time>
      </trkpt>
      <trkpt lat="46.34311" lon="5.44288">
        <ele>367.6</ele>
        <time>2022-05-16T13:52:27Z</time>
      </trkpt>
      <trkpt lat="46.34333" lon="5.44313">
        <ele>368.2</ele>
        <time>2022-05-16T13:52:32Z</time>
      </trkpt>
      <trkpt lat="46.34338" lon="5.44318">
        <ele>368.2</ele>
        <time>2022-05-16T13:52:33Z</time>
      </trkpt>
      <trkpt lat="46.34374" lon="5.44349">
        <ele>368.2</ele>
        <time>2022-05-16T13:52:39Z</time>
      </trkpt>
      <trkpt lat="46.3438" lon="5.44353">
        <ele>368.2</ele>
        <time>2022-05-16T13:52:40Z</time>
      </trkpt>
      <trkpt lat="46.34399" lon="5.44366">
        <ele>368</ele>
        <time>2022-05-16T13:52:43Z</time>
      </trkpt>
      <trkpt lat="46.34413" lon="5.4437">
        <ele>368</ele>
        <time>2022-05-16T13:52:45Z</time>
      </trkpt>
      <trkpt lat="46.34455" lon="5.44378">
        <ele>367</ele>
        <time>2022-05-16T13:52:51Z</time>
      </trkpt>
      <trkpt lat="46.34463" lon="5.4438">
        <ele>367</ele>
        <time>2022-05-16T13:52:52Z</time>
      </trkpt>
      <trkpt lat="46.34485" lon="5.44387">
        <ele>365.8</ele>
        <time>2022-05-16T13:52:55Z</time>
      </trkpt>
      <trkpt lat="46.34507" lon="5.44396">
        <ele>364.6</ele>
        <time>2022-05-16T13:52:58Z</time>
      </trkpt>
      <trkpt lat="46.34515" lon="5.444">
        <ele>364.6</ele>
        <time>2022-05-16T13:52:59Z</time>
      </trkpt>
      <trkpt lat="46.34547" lon="5.44414">
        <ele>363.6</ele>
        <time>2022-05-16T13:53:03Z</time>
      </trkpt>
      <trkpt lat="46.34573" lon="5.44426">
        <ele>362.6</ele>
        <time>2022-05-16T13:53:06Z</time>
      </trkpt>
      <trkpt lat="46.3458" lon="5.44428">
        <ele>362.2</ele>
        <time>2022-05-16T13:53:07Z</time>
      </trkpt>
      <trkpt lat="46.34605" lon="5.44441">
        <ele>360.8</ele>
        <time>2022-05-16T13:53:10Z</time>
      </trkpt>
      <trkpt lat="46.3463" lon="5.44455">
        <ele>360.2</ele>
        <time>2022-05-16T13:53:13Z</time>
      </trkpt>
      <trkpt lat="46.34638" lon="5.4446">
        <ele>359.4</ele>
        <time>2022-05-16T13:53:14Z</time>
      </trkpt>
      <trkpt lat="46.3466" lon="5.44475">
        <ele>358.2</ele>
        <time>2022-05-16T13:53:17Z</time>
      </trkpt>
      <trkpt lat="46.34674" lon="5.44486">
        <ele>358</ele>
        <time>2022-05-16T13:53:19Z</time>
      </trkpt>
      <trkpt lat="46.34711" lon="5.44519">
        <ele>357.2</ele>
        <time>2022-05-16T13:53:25Z</time>
      </trkpt>
      <trkpt lat="46.34745" lon="5.44553">
        <ele>357.4</ele>
        <time>2022-05-16T13:53:31Z</time>
      </trkpt>
      <trkpt lat="46.34757" lon="5.44565">
        <ele>357.2</ele>
        <time>2022-05-16T13:53:33Z</time>
      </trkpt>
      <trkpt lat="46.34779" lon="5.4458">
        <ele>357</ele>
        <time>2022-05-16T13:53:36Z</time>
      </trkpt>
      <trkpt lat="46.34802" lon="5.44594">
        <ele>356</ele>
        <time>2022-05-16T13:53:39Z</time>
      </trkpt>
      <trkpt lat="46.34817" lon="5.44603">
        <ele>355.4</ele>
        <time>2022-05-16T13:53:41Z</time>
      </trkpt>
      <trkpt lat="46.34824" lon="5.44609">
        <ele>355</ele>
        <time>2022-05-16T13:53:42Z</time>
      </trkpt>
      <trkpt lat="46.34831" lon="5.44615">
        <ele>354.8</ele>
        <time>2022-05-16T13:53:43Z</time>
      </trkpt>
      <trkpt lat="46.34856" lon="5.44639">
        <ele>353.4</ele>
        <time>2022-05-16T13:53:47Z</time>
      </trkpt>
      <trkpt lat="46.34861" lon="5.44645">
        <ele>353.2</ele>
        <time>2022-05-16T13:53:48Z</time>
      </trkpt>
      <trkpt lat="46.34892" lon="5.4468">
        <ele>352.6</ele>
        <time>2022-05-16T13:53:54Z</time>
      </trkpt>
      <trkpt lat="46.34903" lon="5.44691">
        <ele>352.2</ele>
        <time>2022-05-16T13:53:56Z</time>
      </trkpt>
      <trkpt lat="46.34937" lon="5.44726">
        <ele>352</ele>
        <time>2022-05-16T13:54:02Z</time>
      </trkpt>
      <trkpt lat="46.34969" lon="5.44761">
        <ele>352</ele>
        <time>2022-05-16T13:54:08Z</time>
      </trkpt>
      <trkpt lat="46.3498" lon="5.44775">
        <ele>352.2</ele>
        <time>2022-05-16T13:54:10Z</time>
      </trkpt>
      <trkpt lat="46.3501" lon="5.44813">
        <ele>352.6</ele>
        <time>2022-05-16T13:54:16Z</time>
      </trkpt>
      <trkpt lat="46.35015" lon="5.44818">
        <ele>352.6</ele>
        <time>2022-05-16T13:54:17Z</time>
      </trkpt>
      <trkpt lat="46.35032" lon="5.44827">
        <ele>352.8</ele>
        <time>2022-05-16T13:54:20Z</time>
      </trkpt>
      <trkpt lat="46.3505" lon="5.44833">
        <ele>353.2</ele>
        <time>2022-05-16T13:54:23Z</time>
      </trkpt>
      <trkpt lat="46.35055" lon="5.44834">
        <ele>353.4</ele>
        <time>2022-05-16T13:54:24Z</time>
      </trkpt>
      <trkpt lat="46.35083" lon="5.44845">
        <ele>354.4</ele>
        <time>2022-05-16T13:54:29Z</time>
      </trkpt>
      <trkpt lat="46.35094" lon="5.4485">
        <ele>354.8</ele>
        <time>2022-05-16T13:54:31Z</time>
      </trkpt>
      <trkpt lat="46.35121" lon="5.44866">
        <ele>355.6</ele>
        <time>2022-05-16T13:54:36Z</time>
      </trkpt>
      <trkpt lat="46.35151" lon="5.44883">
        <ele>356.4</ele>
        <time>2022-05-16T13:54:42Z</time>
      </trkpt>
      <trkpt lat="46.35156" lon="5.44886">
        <ele>356.6</ele>
        <time>2022-05-16T13:54:43Z</time>
      </trkpt>
      <trkpt lat="46.3517" lon="5.44892">
        <ele>357.6</ele>
        <time>2022-05-16T13:54:46Z</time>
      </trkpt>
      <trkpt lat="46.35184" lon="5.44897">
        <ele>358.4</ele>
        <time>2022-05-16T13:54:49Z</time>
      </trkpt>
      <trkpt lat="46.35194" lon="5.44899">
        <ele>358.6</ele>
        <time>2022-05-16T13:54:51Z</time>
      </trkpt>
      <trkpt lat="46.35199" lon="5.449">
        <ele>358.8</ele>
        <time>2022-05-16T13:54:52Z</time>
      </trkpt>
      <trkpt lat="46.35226" lon="5.44898">
        <ele>359.8</ele>
        <time>2022-05-16T13:54:58Z</time>
      </trkpt>
      <trkpt lat="46.3523" lon="5.44897">
        <ele>360</ele>
        <time>2022-05-16T13:54:59Z</time>
      </trkpt>
      <trkpt lat="46.35256" lon="5.44893">
        <ele>361</ele>
        <time>2022-05-16T13:55:05Z</time>
      </trkpt>
      <trkpt lat="46.35265" lon="5.44893">
        <ele>361.2</ele>
        <time>2022-05-16T13:55:07Z</time>
      </trkpt>
      <trkpt lat="46.35278" lon="5.44892">
        <ele>361.4</ele>
        <time>2022-05-16T13:55:10Z</time>
      </trkpt>
      <trkpt lat="46.35296" lon="5.44892">
        <ele>361.8</ele>
        <time>2022-05-16T13:55:14Z</time>
      </trkpt>
      <trkpt lat="46.35304" lon="5.44897">
        <ele>362.2</ele>
        <time>2022-05-16T13:55:16Z</time>
      </trkpt>
      <trkpt lat="46.3531" lon="5.44906">
        <ele>362.6</ele>
        <time>2022-05-16T13:55:18Z</time>
      </trkpt>
      <trkpt lat="46.35317" lon="5.44925">
        <ele>363</ele>
        <time>2022-05-16T13:55:21Z</time>
      </trkpt>
      <trkpt lat="46.35319" lon="5.44931">
        <ele>363.2</ele>
        <time>2022-05-16T13:55:22Z</time>
      </trkpt>
      <trkpt lat="46.35323" lon="5.44945">
        <ele>363.4</ele>
        <time>2022-05-16T13:55:24Z</time>
      </trkpt>
      <trkpt lat="46.35324" lon="5.44952">
        <ele>363.6</ele>
        <time>2022-05-16T13:55:25Z</time>
      </trkpt>
      <trkpt lat="46.35325" lon="5.44968">
        <ele>363.6</ele>
        <time>2022-05-16T13:55:27Z</time>
      </trkpt>
      <trkpt lat="46.35324" lon="5.44985">
        <ele>363.8</ele>
        <time>2022-05-16T13:55:29Z</time>
      </trkpt>
      <trkpt lat="46.35322" lon="5.45034">
        <ele>364.4</ele>
        <time>2022-05-16T13:55:35Z</time>
      </trkpt>
      <trkpt lat="46.35323" lon="5.45052">
        <ele>364.4</ele>
        <time>2022-05-16T13:55:37Z</time>
      </trkpt>
      <trkpt lat="46.35333" lon="5.45103">
        <ele>364.8</ele>
        <time>2022-05-16T13:55:43Z</time>
      </trkpt>
      <trkpt lat="46.35347" lon="5.45161">
        <ele>365</ele>
        <time>2022-05-16T13:55:50Z</time>
      </trkpt>
      <trkpt lat="46.3536" lon="5.45218">
        <ele>365.2</ele>
        <time>2022-05-16T13:55:57Z</time>
      </trkpt>
      <trkpt lat="46.35361" lon="5.45226">
        <ele>365.4</ele>
        <time>2022-05-16T13:55:58Z</time>
      </trkpt>
      <trkpt lat="46.35363" lon="5.45233">
        <ele>365.4</ele>
        <time>2022-05-16T13:55:59Z</time>
      </trkpt>
      <trkpt lat="46.35363" lon="5.45241">
        <ele>365.6</ele>
        <time>2022-05-16T13:56:00Z</time>
      </trkpt>
      <trkpt lat="46.35363" lon="5.45257">
        <ele>366</ele>
        <time>2022-05-16T13:56:02Z</time>
      </trkpt>
      <trkpt lat="46.35361" lon="5.4528">
        <ele>366.6</ele>
        <time>2022-05-16T13:56:05Z</time>
      </trkpt>
      <trkpt lat="46.35358" lon="5.453">
        <ele>367.2</ele>
        <time>2022-05-16T13:56:08Z</time>
      </trkpt>
      <trkpt lat="46.35356" lon="5.45315">
        <ele>368.2</ele>
        <time>2022-05-16T13:56:10Z</time>
      </trkpt>
      <trkpt lat="46.35358" lon="5.45336">
        <ele>369</ele>
        <time>2022-05-16T13:56:13Z</time>
      </trkpt>
      <trkpt lat="46.3536" lon="5.4535">
        <ele>369.2</ele>
        <time>2022-05-16T13:56:15Z</time>
      </trkpt>
      <trkpt lat="46.35361" lon="5.45356">
        <ele>369.2</ele>
        <time>2022-05-16T13:56:16Z</time>
      </trkpt>
      <trkpt lat="46.35364" lon="5.45369">
        <ele>369.8</ele>
        <time>2022-05-16T13:56:18Z</time>
      </trkpt>
      <trkpt lat="46.35366" lon="5.45376">
        <ele>370</ele>
        <time>2022-05-16T13:56:19Z</time>
      </trkpt>
      <trkpt lat="46.35369" lon="5.45382">
        <ele>370.4</ele>
        <time>2022-05-16T13:56:20Z</time>
      </trkpt>
      <trkpt lat="46.3538" lon="5.454">
        <ele>371</ele>
        <time>2022-05-16T13:56:23Z</time>
      </trkpt>
      <trkpt lat="46.35388" lon="5.45411">
        <ele>371.2</ele>
        <time>2022-05-16T13:56:25Z</time>
      </trkpt>
      <trkpt lat="46.35397" lon="5.45421">
        <ele>371.4</ele>
        <time>2022-05-16T13:56:27Z</time>
      </trkpt>
      <trkpt lat="46.35402" lon="5.45424">
        <ele>371.4</ele>
        <time>2022-05-16T13:56:28Z</time>
      </trkpt>
      <trkpt lat="46.35406" lon="5.45427">
        <ele>371.6</ele>
        <time>2022-05-16T13:56:29Z</time>
      </trkpt>
      <trkpt lat="46.35422" lon="5.45437">
        <ele>371.6</ele>
        <time>2022-05-16T13:56:32Z</time>
      </trkpt>
      <trkpt lat="46.35428" lon="5.4544">
        <ele>371.6</ele>
        <time>2022-05-16T13:56:33Z</time>
      </trkpt>
      <trkpt lat="46.35434" lon="5.45442">
        <ele>371.6</ele>
        <time>2022-05-16T13:56:34Z</time>
      </trkpt>
      <trkpt lat="46.35462" lon="5.45445">
        <ele>371.4</ele>
        <time>2022-05-16T13:56:38Z</time>
      </trkpt>
      <trkpt lat="46.35505" lon="5.45445">
        <ele>370.4</ele>
        <time>2022-05-16T13:56:44Z</time>
      </trkpt>
      <trkpt lat="46.35539" lon="5.4545">
        <ele>370.2</ele>
        <time>2022-05-16T13:56:49Z</time>
      </trkpt>
      <trkpt lat="46.35552" lon="5.45452">
        <ele>370</ele>
        <time>2022-05-16T13:56:51Z</time>
      </trkpt>
      <trkpt lat="46.35599" lon="5.45466">
        <ele>369.8</ele>
        <time>2022-05-16T13:56:58Z</time>
      </trkpt>
      <trkpt lat="46.35646" lon="5.45485">
        <ele>369.4</ele>
        <time>2022-05-16T13:57:05Z</time>
      </trkpt>
      <trkpt lat="46.3566" lon="5.45494">
        <ele>369.4</ele>
        <time>2022-05-16T13:57:07Z</time>
      </trkpt>
      <trkpt lat="46.35673" lon="5.45507">
        <ele>369.2</ele>
        <time>2022-05-16T13:57:09Z</time>
      </trkpt>
      <trkpt lat="46.35696" lon="5.45548">
        <ele>368.6</ele>
        <time>2022-05-16T13:57:13Z</time>
      </trkpt>
      <trkpt lat="46.35701" lon="5.45556">
        <ele>368.4</ele>
        <time>2022-05-16T13:57:14Z</time>
      </trkpt>
      <trkpt lat="46.35723" lon="5.4558">
        <ele>367.4</ele>
        <time>2022-05-16T13:57:17Z</time>
      </trkpt>
      <trkpt lat="46.35732" lon="5.4559">
        <ele>366.4</ele>
        <time>2022-05-16T13:57:18Z</time>
      </trkpt>
      <trkpt lat="46.35752" lon="5.45615">
        <ele>365.4</ele>
        <time>2022-05-16T13:57:21Z</time>
      </trkpt>
      <trkpt lat="46.35763" lon="5.45634">
        <ele>364.8</ele>
        <time>2022-05-16T13:57:23Z</time>
      </trkpt>
      <trkpt lat="46.35781" lon="5.45658">
        <ele>364.6</ele>
        <time>2022-05-16T13:57:26Z</time>
      </trkpt>
      <trkpt lat="46.35788" lon="5.45664">
        <ele>364.6</ele>
        <time>2022-05-16T13:57:27Z</time>
      </trkpt>
      <trkpt lat="46.35797" lon="5.45668">
        <ele>364.6</ele>
        <time>2022-05-16T13:57:28Z</time>
      </trkpt>
      <trkpt lat="46.35817" lon="5.45671">
        <ele>364.6</ele>
        <time>2022-05-16T13:57:31Z</time>
      </trkpt>
      <trkpt lat="46.35845" lon="5.45669">
        <ele>365</ele>
        <time>2022-05-16T13:57:35Z</time>
      </trkpt>
      <trkpt lat="46.35851" lon="5.45667">
        <ele>365.2</ele>
        <time>2022-05-16T13:57:36Z</time>
      </trkpt>
      <trkpt lat="46.35877" lon="5.45656">
        <ele>367</ele>
        <time>2022-05-16T13:57:41Z</time>
      </trkpt>
      <trkpt lat="46.35883" lon="5.45653">
        <ele>366.8</ele>
        <time>2022-05-16T13:57:42Z</time>
      </trkpt>
      <trkpt lat="46.35899" lon="5.45647">
        <ele>367.8</ele>
        <time>2022-05-16T13:57:45Z</time>
      </trkpt>
      <trkpt lat="46.35925" lon="5.4564">
        <ele>368.2</ele>
        <time>2022-05-16T13:57:49Z</time>
      </trkpt>
      <trkpt lat="46.35943" lon="5.45637">
        <ele>368.8</ele>
        <time>2022-05-16T13:57:52Z</time>
      </trkpt>
      <trkpt lat="46.35969" lon="5.45636">
        <ele>369.2</ele>
        <time>2022-05-16T13:57:56Z</time>
      </trkpt>
      <trkpt lat="46.36025" lon="5.45642">
        <ele>369.6</ele>
        <time>2022-05-16T13:58:05Z</time>
      </trkpt>
      <trkpt lat="46.36031" lon="5.45643">
        <ele>369.4</ele>
        <time>2022-05-16T13:58:06Z</time>
      </trkpt>
      <trkpt lat="46.36077" lon="5.45645">
        <ele>369.8</ele>
        <time>2022-05-16T13:58:13Z</time>
      </trkpt>
      <trkpt lat="46.36097" lon="5.45645">
        <ele>370.4</ele>
        <time>2022-05-16T13:58:16Z</time>
      </trkpt>
      <trkpt lat="46.36155" lon="5.45646">
        <ele>369.4</ele>
        <time>2022-05-16T13:58:25Z</time>
      </trkpt>
      <trkpt lat="46.36167" lon="5.45645">
        <ele>369.4</ele>
        <time>2022-05-16T13:58:27Z</time>
      </trkpt>
      <trkpt lat="46.36216" lon="5.45645">
        <ele>370</ele>
        <time>2022-05-16T13:58:35Z</time>
      </trkpt>
      <trkpt lat="46.36264" lon="5.45648">
        <ele>371</ele>
        <time>2022-05-16T13:58:43Z</time>
      </trkpt>
      <trkpt lat="46.36289" lon="5.45651">
        <ele>371.4</ele>
        <time>2022-05-16T13:58:47Z</time>
      </trkpt>
      <trkpt lat="46.36332" lon="5.45654">
        <ele>372</ele>
        <time>2022-05-16T13:58:54Z</time>
      </trkpt>
      <trkpt lat="46.36389" lon="5.45649">
        <ele>372.8</ele>
        <time>2022-05-16T13:59:03Z</time>
      </trkpt>
      <trkpt lat="46.36395" lon="5.45646">
        <ele>372.8</ele>
        <time>2022-05-16T13:59:04Z</time>
      </trkpt>
      <trkpt lat="46.36426" lon="5.4563">
        <ele>372.8</ele>
        <time>2022-05-16T13:59:09Z</time>
      </trkpt>
      <trkpt lat="46.36478" lon="5.45615">
        <ele>372.8</ele>
        <time>2022-05-16T13:59:17Z</time>
      </trkpt>
      <trkpt lat="46.36522" lon="5.45614">
        <ele>372.8</ele>
        <time>2022-05-16T13:59:24Z</time>
      </trkpt>
      <trkpt lat="46.36547" lon="5.45617">
        <ele>373.2</ele>
        <time>2022-05-16T13:59:28Z</time>
      </trkpt>
      <trkpt lat="46.36578" lon="5.4562">
        <ele>373.6</ele>
        <time>2022-05-16T13:59:33Z</time>
      </trkpt>
      <trkpt lat="46.36629" lon="5.45614">
        <ele>373.8</ele>
        <time>2022-05-16T13:59:41Z</time>
      </trkpt>
      <trkpt lat="46.36648" lon="5.4561">
        <ele>374.4</ele>
        <time>2022-05-16T13:59:44Z</time>
      </trkpt>
      <trkpt lat="46.36676" lon="5.45606">
        <ele>375.2</ele>
        <time>2022-05-16T13:59:49Z</time>
      </trkpt>
      <trkpt lat="46.36682" lon="5.45605">
        <ele>375.2</ele>
        <time>2022-05-16T13:59:50Z</time>
      </trkpt>
      <trkpt lat="46.36689" lon="5.45604">
        <ele>375.4</ele>
        <time>2022-05-16T13:59:51Z</time>
      </trkpt>
      <trkpt lat="46.36694" lon="5.45604">
        <ele>375.4</ele>
        <time>2022-05-16T13:59:52Z</time>
      </trkpt>
      <trkpt lat="46.36716" lon="5.456">
        <ele>376</ele>
        <time>2022-05-16T13:59:56Z</time>
      </trkpt>
      <trkpt lat="46.36733" lon="5.45596">
        <ele>376.4</ele>
        <time>2022-05-16T13:59:59Z</time>
      </trkpt>
      <trkpt lat="46.36764" lon="5.45595">
        <ele>377.6</ele>
        <time>2022-05-16T14:00:04Z</time>
      </trkpt>
      <trkpt lat="46.36772" lon="5.45594">
        <ele>377.8</ele>
        <time>2022-05-16T14:00:05Z</time>
      </trkpt>
      <trkpt lat="46.36812" lon="5.45593">
        <ele>378.6</ele>
        <time>2022-05-16T14:00:12Z</time>
      </trkpt>
      <trkpt lat="46.36836" lon="5.45594">
        <ele>379.2</ele>
        <time>2022-05-16T14:00:16Z</time>
      </trkpt>
      <trkpt lat="46.36864" lon="5.45597">
        <ele>379.8</ele>
        <time>2022-05-16T14:00:21Z</time>
      </trkpt>
      <trkpt lat="46.36881" lon="5.45599">
        <ele>380.2</ele>
        <time>2022-05-16T14:00:24Z</time>
      </trkpt>
      <trkpt lat="46.36923" lon="5.45604">
        <ele>380.8</ele>
        <time>2022-05-16T14:00:31Z</time>
      </trkpt>
      <trkpt lat="46.36934" lon="5.45606">
        <ele>380.6</ele>
        <time>2022-05-16T14:00:33Z</time>
      </trkpt>
      <trkpt lat="46.36986" lon="5.45621">
        <ele>380</ele>
        <time>2022-05-16T14:00:42Z</time>
      </trkpt>
      <trkpt lat="46.37029" lon="5.45642">
        <ele>380.2</ele>
        <time>2022-05-16T14:00:50Z</time>
      </trkpt>
      <trkpt lat="46.37068" lon="5.4565">
        <ele>380.8</ele>
        <time>2022-05-16T14:00:57Z</time>
      </trkpt>
      <trkpt lat="46.37108" lon="5.4565">
        <ele>381</ele>
        <time>2022-05-16T14:01:04Z</time>
      </trkpt>
      <trkpt lat="46.37146" lon="5.45649">
        <ele>381.8</ele>
        <time>2022-05-16T14:01:11Z</time>
      </trkpt>
      <trkpt lat="46.37196" lon="5.45645">
        <ele>382.6</ele>
        <time>2022-05-16T14:01:20Z</time>
      </trkpt>
      <trkpt lat="46.37201" lon="5.45645">
        <ele>382.8</ele>
        <time>2022-05-16T14:01:21Z</time>
      </trkpt>
      <trkpt lat="46.37245" lon="5.45642">
        <ele>384</ele>
        <time>2022-05-16T14:01:29Z</time>
      </trkpt>
      <trkpt lat="46.37262" lon="5.45641">
        <ele>384.4</ele>
        <time>2022-05-16T14:01:32Z</time>
      </trkpt>
      <trkpt lat="46.37311" lon="5.45638">
        <ele>384.8</ele>
        <time>2022-05-16T14:01:41Z</time>
      </trkpt>
      <trkpt lat="46.37321" lon="5.45638">
        <ele>385.4</ele>
        <time>2022-05-16T14:01:43Z</time>
      </trkpt>
      <trkpt lat="46.37354" lon="5.45638">
        <ele>386.6</ele>
        <time>2022-05-16T14:01:49Z</time>
      </trkpt>
      <trkpt lat="46.37364" lon="5.45638">
        <ele>387.2</ele>
        <time>2022-05-16T14:01:51Z</time>
      </trkpt>
      <trkpt lat="46.37397" lon="5.4564">
        <ele>387.8</ele>
        <time>2022-05-16T14:01:57Z</time>
      </trkpt>
      <trkpt lat="46.37419" lon="5.4564">
        <ele>388.4</ele>
        <time>2022-05-16T14:02:01Z</time>
      </trkpt>
      <trkpt lat="46.37442" lon="5.45638">
        <ele>389</ele>
        <time>2022-05-16T14:02:05Z</time>
      </trkpt>
      <trkpt lat="46.37459" lon="5.45633">
        <ele>389.2</ele>
        <time>2022-05-16T14:02:08Z</time>
      </trkpt>
      <trkpt lat="46.3748" lon="5.45624">
        <ele>390</ele>
        <time>2022-05-16T14:02:12Z</time>
      </trkpt>
      <trkpt lat="46.37492" lon="5.45617">
        <ele>391</ele>
        <time>2022-05-16T14:02:15Z</time>
      </trkpt>
      <trkpt lat="46.37514" lon="5.45605">
        <ele>392.2</ele>
        <time>2022-05-16T14:02:20Z</time>
      </trkpt>
      <trkpt lat="46.37523" lon="5.456">
        <ele>392.6</ele>
        <time>2022-05-16T14:02:22Z</time>
      </trkpt>
      <trkpt lat="46.37527" lon="5.45598">
        <ele>392.8</ele>
        <time>2022-05-16T14:02:23Z</time>
      </trkpt>
      <trkpt lat="46.37541" lon="5.45595">
        <ele>393.2</ele>
        <time>2022-05-16T14:02:26Z</time>
      </trkpt>
      <trkpt lat="46.37559" lon="5.45591">
        <ele>394.4</ele>
        <time>2022-05-16T14:02:30Z</time>
      </trkpt>
      <trkpt lat="46.37568" lon="5.45591">
        <ele>395</ele>
        <time>2022-05-16T14:02:32Z</time>
      </trkpt>
      <trkpt lat="46.37577" lon="5.45591">
        <ele>395.6</ele>
        <time>2022-05-16T14:02:34Z</time>
      </trkpt>
      <trkpt lat="46.37581" lon="5.45591">
        <ele>395.8</ele>
        <time>2022-05-16T14:02:35Z</time>
      </trkpt>
      <trkpt lat="46.37585" lon="5.45591">
        <ele>396</ele>
        <time>2022-05-16T14:02:36Z</time>
      </trkpt>
      <trkpt lat="46.37599" lon="5.45591">
        <ele>396.6</ele>
        <time>2022-05-16T14:02:39Z</time>
      </trkpt>
      <trkpt lat="46.37614" lon="5.4559">
        <ele>397.4</ele>
        <time>2022-05-16T14:02:42Z</time>
      </trkpt>
      <trkpt lat="46.37624" lon="5.4559">
        <ele>397.8</ele>
        <time>2022-05-16T14:02:44Z</time>
      </trkpt>
      <trkpt lat="46.37654" lon="5.45589">
        <ele>399</ele>
        <time>2022-05-16T14:02:50Z</time>
      </trkpt>
      <trkpt lat="46.37674" lon="5.45589">
        <ele>399.4</ele>
        <time>2022-05-16T14:02:54Z</time>
      </trkpt>
      <trkpt lat="46.37693" lon="5.45591">
        <ele>400</ele>
        <time>2022-05-16T14:02:58Z</time>
      </trkpt>
      <trkpt lat="46.37722" lon="5.45592">
        <ele>401.2</ele>
        <time>2022-05-16T14:03:04Z</time>
      </trkpt>
      <trkpt lat="46.37755" lon="5.45594">
        <ele>402.2</ele>
        <time>2022-05-16T14:03:11Z</time>
      </trkpt>
      <trkpt lat="46.37764" lon="5.45594">
        <ele>402.8</ele>
        <time>2022-05-16T14:03:13Z</time>
      </trkpt>
      <trkpt lat="46.37773" lon="5.45594">
        <ele>403.2</ele>
        <time>2022-05-16T14:03:15Z</time>
      </trkpt>
      <trkpt lat="46.37777" lon="5.45595">
        <ele>403.4</ele>
        <time>2022-05-16T14:03:16Z</time>
      </trkpt>
      <trkpt lat="46.37795" lon="5.45595">
        <ele>404.2</ele>
        <time>2022-05-16T14:03:20Z</time>
      </trkpt>
      <trkpt lat="46.378" lon="5.45595">
        <ele>404.4</ele>
        <time>2022-05-16T14:03:21Z</time>
      </trkpt>
      <trkpt lat="46.37818" lon="5.45596">
        <ele>405.6</ele>
        <time>2022-05-16T14:03:25Z</time>
      </trkpt>
      <trkpt lat="46.37833" lon="5.45597">
        <ele>406.8</ele>
        <time>2022-05-16T14:03:28Z</time>
      </trkpt>
      <trkpt lat="46.37857" lon="5.45599">
        <ele>407.8</ele>
        <time>2022-05-16T14:03:33Z</time>
      </trkpt>
      <trkpt lat="46.37871" lon="5.45599">
        <ele>408.4</ele>
        <time>2022-05-16T14:03:36Z</time>
      </trkpt>
      <trkpt lat="46.3788" lon="5.45599">
        <ele>408.8</ele>
        <time>2022-05-16T14:03:38Z</time>
      </trkpt>
      <trkpt lat="46.37905" lon="5.45595">
        <ele>410</ele>
        <time>2022-05-16T14:03:43Z</time>
      </trkpt>
      <trkpt lat="46.37915" lon="5.45592">
        <ele>410.4</ele>
        <time>2022-05-16T14:03:45Z</time>
      </trkpt>
      <trkpt lat="46.37948" lon="5.45584">
        <ele>411</ele>
        <time>2022-05-16T14:03:51Z</time>
      </trkpt>
      <trkpt lat="46.37953" lon="5.45584">
        <ele>411.4</ele>
        <time>2022-05-16T14:03:52Z</time>
      </trkpt>
      <trkpt lat="46.37986" lon="5.45583">
        <ele>411.8</ele>
        <time>2022-05-16T14:03:57Z</time>
      </trkpt>
      <trkpt lat="46.38036" lon="5.45591">
        <ele>411.8</ele>
        <time>2022-05-16T14:04:04Z</time>
      </trkpt>
      <trkpt lat="46.38077" lon="5.45604">
        <ele>412</ele>
        <time>2022-05-16T14:04:10Z</time>
      </trkpt>
      <trkpt lat="46.38105" lon="5.45611">
        <ele>411.8</ele>
        <time>2022-05-16T14:04:14Z</time>
      </trkpt>
      <trkpt lat="46.38145" lon="5.45617">
        <ele>411.4</ele>
        <time>2022-05-16T14:04:19Z</time>
      </trkpt>
      <trkpt lat="46.38164" lon="5.45619">
        <ele>411</ele>
        <time>2022-05-16T14:04:21Z</time>
      </trkpt>
      <trkpt lat="46.38184" lon="5.4562">
        <ele>409.8</ele>
        <time>2022-05-16T14:04:23Z</time>
      </trkpt>
      <trkpt lat="46.38204" lon="5.45622">
        <ele>408.8</ele>
        <time>2022-05-16T14:04:25Z</time>
      </trkpt>
      <trkpt lat="46.38215" lon="5.45622">
        <ele>408.4</ele>
        <time>2022-05-16T14:04:26Z</time>
      </trkpt>
      <trkpt lat="46.38235" lon="5.45624">
        <ele>407.4</ele>
        <time>2022-05-16T14:04:28Z</time>
      </trkpt>
      <trkpt lat="46.38275" lon="5.45627">
        <ele>406.4</ele>
        <time>2022-05-16T14:04:32Z</time>
      </trkpt>
      <trkpt lat="46.38285" lon="5.45629">
        <ele>406.4</ele>
        <time>2022-05-16T14:04:33Z</time>
      </trkpt>
      <trkpt lat="46.38324" lon="5.45635">
        <ele>405.2</ele>
        <time>2022-05-16T14:04:37Z</time>
      </trkpt>
      <trkpt lat="46.38364" lon="5.45641">
        <ele>403.6</ele>
        <time>2022-05-16T14:04:41Z</time>
      </trkpt>
      <trkpt lat="46.38394" lon="5.45647">
        <ele>402.6</ele>
        <time>2022-05-16T14:04:44Z</time>
      </trkpt>
      <trkpt lat="46.38433" lon="5.45656">
        <ele>402.2</ele>
        <time>2022-05-16T14:04:48Z</time>
      </trkpt>
      <trkpt lat="46.38463" lon="5.45659">
        <ele>401.6</ele>
        <time>2022-05-16T14:04:51Z</time>
      </trkpt>
      <trkpt lat="46.38484" lon="5.4566">
        <ele>400.4</ele>
        <time>2022-05-16T14:04:53Z</time>
      </trkpt>
      <trkpt lat="46.38506" lon="5.45661">
        <ele>399.8</ele>
        <time>2022-05-16T14:04:55Z</time>
      </trkpt>
      <trkpt lat="46.38529" lon="5.4566">
        <ele>399.4</ele>
        <time>2022-05-16T14:04:57Z</time>
      </trkpt>
      <trkpt lat="46.38552" lon="5.45657">
        <ele>398.2</ele>
        <time>2022-05-16T14:04:59Z</time>
      </trkpt>
      <trkpt lat="46.38575" lon="5.45652">
        <ele>397.2</ele>
        <time>2022-05-16T14:05:01Z</time>
      </trkpt>
      <trkpt lat="46.38586" lon="5.45649">
        <ele>396.4</ele>
        <time>2022-05-16T14:05:02Z</time>
      </trkpt>
      <trkpt lat="46.38609" lon="5.45645">
        <ele>395.4</ele>
        <time>2022-05-16T14:05:04Z</time>
      </trkpt>
      <trkpt lat="46.3864" lon="5.45639">
        <ele>394.2</ele>
        <time>2022-05-16T14:05:07Z</time>
      </trkpt>
      <trkpt lat="46.38651" lon="5.45637">
        <ele>393.8</ele>
        <time>2022-05-16T14:05:08Z</time>
      </trkpt>
      <trkpt lat="46.38698" lon="5.45638">
        <ele>393.4</ele>
        <time>2022-05-16T14:05:13Z</time>
      </trkpt>
      <trkpt lat="46.38754" lon="5.45642">
        <ele>393.4</ele>
        <time>2022-05-16T14:05:19Z</time>
      </trkpt>
      <trkpt lat="46.38772" lon="5.45644">
        <ele>393</ele>
        <time>2022-05-16T14:05:21Z</time>
      </trkpt>
      <trkpt lat="46.38805" lon="5.45651">
        <ele>392.4</ele>
        <time>2022-05-16T14:05:25Z</time>
      </trkpt>
      <trkpt lat="46.38859" lon="5.45652">
        <ele>392.6</ele>
        <time>2022-05-16T14:05:32Z</time>
      </trkpt>
      <trkpt lat="46.38894" lon="5.45648">
        <ele>393.4</ele>
        <time>2022-05-16T14:05:37Z</time>
      </trkpt>
      <trkpt lat="46.38909" lon="5.45648">
        <ele>393.4</ele>
        <time>2022-05-16T14:05:39Z</time>
      </trkpt>
      <trkpt lat="46.38962" lon="5.45656">
        <ele>393.8</ele>
        <time>2022-05-16T14:05:46Z</time>
      </trkpt>
      <trkpt lat="46.39011" lon="5.45655">
        <ele>393.6</ele>
        <time>2022-05-16T14:05:52Z</time>
      </trkpt>
      <trkpt lat="46.39068" lon="5.45645">
        <ele>392.2</ele>
        <time>2022-05-16T14:05:59Z</time>
      </trkpt>
      <trkpt lat="46.39077" lon="5.45642">
        <ele>392</ele>
        <time>2022-05-16T14:06:00Z</time>
      </trkpt>
      <trkpt lat="46.39085" lon="5.4564">
        <ele>391.8</ele>
        <time>2022-05-16T14:06:01Z</time>
      </trkpt>
      <trkpt lat="46.39126" lon="5.45628">
        <ele>391</ele>
        <time>2022-05-16T14:06:06Z</time>
      </trkpt>
      <trkpt lat="46.39142" lon="5.45622">
        <ele>390.8</ele>
        <time>2022-05-16T14:06:08Z</time>
      </trkpt>
      <trkpt lat="46.39192" lon="5.45606">
        <ele>389.8</ele>
        <time>2022-05-16T14:06:14Z</time>
      </trkpt>
      <trkpt lat="46.39208" lon="5.45603">
        <ele>389.2</ele>
        <time>2022-05-16T14:06:16Z</time>
      </trkpt>
      <trkpt lat="46.39238" lon="5.45591">
        <ele>388.8</ele>
        <time>2022-05-16T14:06:20Z</time>
      </trkpt>
      <trkpt lat="46.39252" lon="5.45584">
        <ele>388.8</ele>
        <time>2022-05-16T14:06:22Z</time>
      </trkpt>
      <trkpt lat="46.393" lon="5.45564">
        <ele>388.6</ele>
        <time>2022-05-16T14:06:29Z</time>
      </trkpt>
      <trkpt lat="46.39317" lon="5.45555">
        <ele>388.6</ele>
        <time>2022-05-16T14:06:32Z</time>
      </trkpt>
      <trkpt lat="46.39322" lon="5.45552">
        <ele>388.6</ele>
        <time>2022-05-16T14:06:33Z</time>
      </trkpt>
      <trkpt lat="46.39326" lon="5.4555">
        <ele>388.6</ele>
        <time>2022-05-16T14:06:34Z</time>
      </trkpt>
      <trkpt lat="46.39332" lon="5.45549">
        <ele>388.6</ele>
        <time>2022-05-16T14:06:36Z</time>
      </trkpt>
      <trkpt lat="46.39333" lon="5.45553">
        <ele>388.6</ele>
        <time>2022-05-16T14:06:37Z</time>
      </trkpt>
      <trkpt lat="46.39333" lon="5.45562">
        <ele>388.4</ele>
        <time>2022-05-16T14:06:38Z</time>
      </trkpt>
      <trkpt lat="46.3933" lon="5.45586">
        <ele>388.2</ele>
        <time>2022-05-16T14:06:40Z</time>
      </trkpt>
      <trkpt lat="46.39328" lon="5.45612">
        <ele>387.6</ele>
        <time>2022-05-16T14:06:42Z</time>
      </trkpt>
      <trkpt lat="46.39326" lon="5.45653">
        <ele>386.4</ele>
        <time>2022-05-16T14:06:45Z</time>
      </trkpt>
      <trkpt lat="46.39325" lon="5.4568">
        <ele>386</ele>
        <time>2022-05-16T14:06:47Z</time>
      </trkpt>
      <trkpt lat="46.3933" lon="5.45705">
        <ele>385.4</ele>
        <time>2022-05-16T14:06:49Z</time>
      </trkpt>
      <trkpt lat="46.3934" lon="5.45724">
        <ele>385</ele>
        <time>2022-05-16T14:06:51Z</time>
      </trkpt>
      <trkpt lat="46.39346" lon="5.45729">
        <ele>384.8</ele>
        <time>2022-05-16T14:06:52Z</time>
      </trkpt>
      <trkpt lat="46.39353" lon="5.45732">
        <ele>384.6</ele>
        <time>2022-05-16T14:06:53Z</time>
      </trkpt>
      <trkpt lat="46.39362" lon="5.45733">
        <ele>384.4</ele>
        <time>2022-05-16T14:06:54Z</time>
      </trkpt>
      <trkpt lat="46.3937" lon="5.45733">
        <ele>384.2</ele>
        <time>2022-05-16T14:06:55Z</time>
      </trkpt>
      <trkpt lat="46.39421" lon="5.45747">
        <ele>384.2</ele>
        <time>2022-05-16T14:07:01Z</time>
      </trkpt>
      <trkpt lat="46.3948" lon="5.45758">
        <ele>384.2</ele>
        <time>2022-05-16T14:07:08Z</time>
      </trkpt>
      <trkpt lat="46.39488" lon="5.4576">
        <ele>384</ele>
        <time>2022-05-16T14:07:09Z</time>
      </trkpt>
      <trkpt lat="46.39524" lon="5.45774">
        <ele>384.2</ele>
        <time>2022-05-16T14:07:14Z</time>
      </trkpt>
      <trkpt lat="46.39564" lon="5.4579">
        <ele>384.6</ele>
        <time>2022-05-16T14:07:20Z</time>
      </trkpt>
      <trkpt lat="46.39614" lon="5.45793">
        <ele>384.6</ele>
        <time>2022-05-16T14:07:26Z</time>
      </trkpt>
      <trkpt lat="46.3965" lon="5.4579">
        <ele>383.4</ele>
        <time>2022-05-16T14:07:30Z</time>
      </trkpt>
      <trkpt lat="46.39668" lon="5.45785">
        <ele>382.8</ele>
        <time>2022-05-16T14:07:32Z</time>
      </trkpt>
      <trkpt lat="46.39686" lon="5.45779">
        <ele>382.2</ele>
        <time>2022-05-16T14:07:34Z</time>
      </trkpt>
      <trkpt lat="46.39713" lon="5.45772">
        <ele>381</ele>
        <time>2022-05-16T14:07:37Z</time>
      </trkpt>
      <trkpt lat="46.39731" lon="5.45767">
        <ele>380.6</ele>
        <time>2022-05-16T14:07:39Z</time>
      </trkpt>
      <trkpt lat="46.39766" lon="5.45754">
        <ele>380</ele>
        <time>2022-05-16T14:07:43Z</time>
      </trkpt>
      <trkpt lat="46.39785" lon="5.45746">
        <ele>378.8</ele>
        <time>2022-05-16T14:07:45Z</time>
      </trkpt>
      <trkpt lat="46.39824" lon="5.45728">
        <ele>377.4</ele>
        <time>2022-05-16T14:07:49Z</time>
      </trkpt>
      <trkpt lat="46.39854" lon="5.4572">
        <ele>375.8</ele>
        <time>2022-05-16T14:07:52Z</time>
      </trkpt>
      <trkpt lat="46.39874" lon="5.45719">
        <ele>375</ele>
        <time>2022-05-16T14:07:54Z</time>
      </trkpt>
      <trkpt lat="46.39884" lon="5.4572">
        <ele>374.6</ele>
        <time>2022-05-16T14:07:55Z</time>
      </trkpt>
      <trkpt lat="46.39913" lon="5.45721">
        <ele>373.6</ele>
        <time>2022-05-16T14:07:58Z</time>
      </trkpt>
      <trkpt lat="46.39932" lon="5.45723">
        <ele>373</ele>
        <time>2022-05-16T14:08:00Z</time>
      </trkpt>
      <trkpt lat="46.39958" lon="5.45725">
        <ele>372.4</ele>
        <time>2022-05-16T14:08:03Z</time>
      </trkpt>
      <trkpt lat="46.39975" lon="5.45728">
        <ele>372.2</ele>
        <time>2022-05-16T14:08:05Z</time>
      </trkpt>
      <trkpt lat="46.39993" lon="5.45728">
        <ele>371.8</ele>
        <time>2022-05-16T14:08:07Z</time>
      </trkpt>
      <trkpt lat="46.4001" lon="5.45723">
        <ele>371.6</ele>
        <time>2022-05-16T14:08:09Z</time>
      </trkpt>
      <trkpt lat="46.40028" lon="5.45717">
        <ele>371.4</ele>
        <time>2022-05-16T14:08:11Z</time>
      </trkpt>
      <trkpt lat="46.40064" lon="5.45708">
        <ele>370.8</ele>
        <time>2022-05-16T14:08:15Z</time>
      </trkpt>
      <trkpt lat="46.40073" lon="5.45709">
        <ele>370.8</ele>
        <time>2022-05-16T14:08:16Z</time>
      </trkpt>
      <trkpt lat="46.40082" lon="5.45711">
        <ele>369.8</ele>
        <time>2022-05-16T14:08:17Z</time>
      </trkpt>
      <trkpt lat="46.40119" lon="5.45726">
        <ele>368.4</ele>
        <time>2022-05-16T14:08:21Z</time>
      </trkpt>
      <trkpt lat="46.40147" lon="5.45734">
        <ele>367.2</ele>
        <time>2022-05-16T14:08:24Z</time>
      </trkpt>
      <trkpt lat="46.40155" lon="5.4573">
        <ele>367</ele>
        <time>2022-05-16T14:08:25Z</time>
      </trkpt>
      <trkpt lat="46.40164" lon="5.45722">
        <ele>366.2</ele>
        <time>2022-05-16T14:08:26Z</time>
      </trkpt>
      <trkpt lat="46.40168" lon="5.45711">
        <ele>365.8</ele>
        <time>2022-05-16T14:08:27Z</time>
      </trkpt>
      <trkpt lat="46.4017" lon="5.45699">
        <ele>365.2</ele>
        <time>2022-05-16T14:08:28Z</time>
      </trkpt>
      <trkpt lat="46.4017" lon="5.45685">
        <ele>364.8</ele>
        <time>2022-05-16T14:08:29Z</time>
      </trkpt>
      <trkpt lat="46.4017" lon="5.45672">
        <ele>364.4</ele>
        <time>2022-05-16T14:08:30Z</time>
      </trkpt>
      <trkpt lat="46.40169" lon="5.45645">
        <ele>363.8</ele>
        <time>2022-05-16T14:08:32Z</time>
      </trkpt>
      <trkpt lat="46.40166" lon="5.45606">
        <ele>362.4</ele>
        <time>2022-05-16T14:08:35Z</time>
      </trkpt>
      <trkpt lat="46.40165" lon="5.45594">
        <ele>362.2</ele>
        <time>2022-05-16T14:08:36Z</time>
      </trkpt>
      <trkpt lat="46.40162" lon="5.45535">
        <ele>361.6</ele>
        <time>2022-05-16T14:08:41Z</time>
      </trkpt>
      <trkpt lat="46.40166" lon="5.45513">
        <ele>361.2</ele>
        <time>2022-05-16T14:08:43Z</time>
      </trkpt>
      <trkpt lat="46.40169" lon="5.45503">
        <ele>361</ele>
        <time>2022-05-16T14:08:44Z</time>
      </trkpt>
      <trkpt lat="46.40172" lon="5.45493">
        <ele>361</ele>
        <time>2022-05-16T14:08:45Z</time>
      </trkpt>
      <trkpt lat="46.40193" lon="5.45451">
        <ele>361</ele>
        <time>2022-05-16T14:08:50Z</time>
      </trkpt>
      <trkpt lat="46.40198" lon="5.45444">
        <ele>361.2</ele>
        <time>2022-05-16T14:08:51Z</time>
      </trkpt>
      <trkpt lat="46.40209" lon="5.45441">
        <ele>361.4</ele>
        <time>2022-05-16T14:08:53Z</time>
      </trkpt>
      <trkpt lat="46.40215" lon="5.45445">
        <ele>361.4</ele>
        <time>2022-05-16T14:08:54Z</time>
      </trkpt>
      <trkpt lat="46.40229" lon="5.45453">
        <ele>361.4</ele>
        <time>2022-05-16T14:08:56Z</time>
      </trkpt>
      <trkpt lat="46.40277" lon="5.45472">
        <ele>361.4</ele>
        <time>2022-05-16T14:09:02Z</time>
      </trkpt>
      <trkpt lat="46.40328" lon="5.45498">
        <ele>361</ele>
        <time>2022-05-16T14:09:09Z</time>
      </trkpt>
      <trkpt lat="46.40343" lon="5.45505">
        <ele>360.8</ele>
        <time>2022-05-16T14:09:11Z</time>
      </trkpt>
      <trkpt lat="46.40387" lon="5.45521">
        <ele>360.6</ele>
        <time>2022-05-16T14:09:17Z</time>
      </trkpt>
      <trkpt lat="46.40439" lon="5.45541">
        <ele>360.4</ele>
        <time>2022-05-16T14:09:24Z</time>
      </trkpt>
      <trkpt lat="46.40494" lon="5.45565">
        <ele>360.4</ele>
        <time>2022-05-16T14:09:32Z</time>
      </trkpt>
      <trkpt lat="46.40516" lon="5.45574">
        <ele>360.4</ele>
        <time>2022-05-16T14:09:35Z</time>
      </trkpt>
      <trkpt lat="46.40551" lon="5.45589">
        <ele>360.2</ele>
        <time>2022-05-16T14:09:40Z</time>
      </trkpt>
      <trkpt lat="46.40594" lon="5.45608">
        <ele>360.2</ele>
        <time>2022-05-16T14:09:46Z</time>
      </trkpt>
      <trkpt lat="46.40649" lon="5.45629">
        <ele>360</ele>
        <time>2022-05-16T14:09:54Z</time>
      </trkpt>
      <trkpt lat="46.40658" lon="5.45632">
        <ele>360</ele>
        <time>2022-05-16T14:09:55Z</time>
      </trkpt>
      <trkpt lat="46.40685" lon="5.45643">
        <ele>359.8</ele>
        <time>2022-05-16T14:09:59Z</time>
      </trkpt>
      <trkpt lat="46.407" lon="5.45653">
        <ele>359.6</ele>
        <time>2022-05-16T14:10:01Z</time>
      </trkpt>
      <trkpt lat="46.40705" lon="5.45658">
        <ele>359.6</ele>
        <time>2022-05-16T14:10:02Z</time>
      </trkpt>
      <trkpt lat="46.40737" lon="5.45702">
        <ele>359.8</ele>
        <time>2022-05-16T14:10:08Z</time>
      </trkpt>
      <trkpt lat="46.40773" lon="5.4576">
        <ele>360.6</ele>
        <time>2022-05-16T14:10:16Z</time>
      </trkpt>
      <trkpt lat="46.40784" lon="5.45769">
        <ele>360.8</ele>
        <time>2022-05-16T14:10:18Z</time>
      </trkpt>
      <trkpt lat="46.40797" lon="5.45773">
        <ele>361.2</ele>
        <time>2022-05-16T14:10:20Z</time>
      </trkpt>
      <trkpt lat="46.40823" lon="5.45778">
        <ele>362</ele>
        <time>2022-05-16T14:10:24Z</time>
      </trkpt>
      <trkpt lat="46.40835" lon="5.45783">
        <ele>362.6</ele>
        <time>2022-05-16T14:10:26Z</time>
      </trkpt>
      <trkpt lat="46.40841" lon="5.45787">
        <ele>362.6</ele>
        <time>2022-05-16T14:10:27Z</time>
      </trkpt>
      <trkpt lat="46.40892" lon="5.45822">
        <ele>363.6</ele>
        <time>2022-05-16T14:10:36Z</time>
      </trkpt>
      <trkpt lat="46.40898" lon="5.45826">
        <ele>363.6</ele>
        <time>2022-05-16T14:10:37Z</time>
      </trkpt>
      <trkpt lat="46.40931" lon="5.45848">
        <ele>364.8</ele>
        <time>2022-05-16T14:10:43Z</time>
      </trkpt>
      <trkpt lat="46.40971" lon="5.45869">
        <ele>365.8</ele>
        <time>2022-05-16T14:10:50Z</time>
      </trkpt>
      <trkpt lat="46.40996" lon="5.4588">
        <ele>366.2</ele>
        <time>2022-05-16T14:10:54Z</time>
      </trkpt>
      <trkpt lat="46.4104" lon="5.45897">
        <ele>367</ele>
        <time>2022-05-16T14:11:01Z</time>
      </trkpt>
      <trkpt lat="46.41052" lon="5.45902">
        <ele>367.2</ele>
        <time>2022-05-16T14:11:03Z</time>
      </trkpt>
      <trkpt lat="46.41097" lon="5.45921">
        <ele>368</ele>
        <time>2022-05-16T14:11:10Z</time>
      </trkpt>
      <trkpt lat="46.41128" lon="5.45936">
        <ele>368.6</ele>
        <time>2022-05-16T14:11:15Z</time>
      </trkpt>
      <trkpt lat="46.41187" lon="5.45956">
        <ele>369</ele>
        <time>2022-05-16T14:11:24Z</time>
      </trkpt>
      <trkpt lat="46.41194" lon="5.45957">
        <ele>369</ele>
        <time>2022-05-16T14:11:25Z</time>
      </trkpt>
      <trkpt lat="46.41201" lon="5.45959">
        <ele>369.2</ele>
        <time>2022-05-16T14:11:26Z</time>
      </trkpt>
      <trkpt lat="46.41241" lon="5.45971">
        <ele>369.8</ele>
        <time>2022-05-16T14:11:32Z</time>
      </trkpt>
      <trkpt lat="46.41287" lon="5.45991">
        <ele>369.6</ele>
        <time>2022-05-16T14:11:39Z</time>
      </trkpt>
      <trkpt lat="46.41334" lon="5.46014">
        <ele>370</ele>
        <time>2022-05-16T14:11:46Z</time>
      </trkpt>
      <trkpt lat="46.41354" lon="5.46029">
        <ele>369.8</ele>
        <time>2022-05-16T14:11:49Z</time>
      </trkpt>
      <trkpt lat="46.4136" lon="5.46036">
        <ele>369.8</ele>
        <time>2022-05-16T14:11:50Z</time>
      </trkpt>
      <trkpt lat="46.41366" lon="5.46044">
        <ele>369.6</ele>
        <time>2022-05-16T14:11:51Z</time>
      </trkpt>
      <trkpt lat="46.41389" lon="5.46087">
        <ele>369.4</ele>
        <time>2022-05-16T14:11:56Z</time>
      </trkpt>
      <trkpt lat="46.4141" lon="5.46124">
        <ele>370</ele>
        <time>2022-05-16T14:12:01Z</time>
      </trkpt>
      <trkpt lat="46.41416" lon="5.4613">
        <ele>370.2</ele>
        <time>2022-05-16T14:12:02Z</time>
      </trkpt>
      <trkpt lat="46.41421" lon="5.46135">
        <ele>370.6</ele>
        <time>2022-05-16T14:12:03Z</time>
      </trkpt>
      <trkpt lat="46.41428" lon="5.46139">
        <ele>370.8</ele>
        <time>2022-05-16T14:12:04Z</time>
      </trkpt>
      <trkpt lat="46.41434" lon="5.46142">
        <ele>370.8</ele>
        <time>2022-05-16T14:12:05Z</time>
      </trkpt>
      <trkpt lat="46.4148" lon="5.46158">
        <ele>370.8</ele>
        <time>2022-05-16T14:12:12Z</time>
      </trkpt>
      <trkpt lat="46.41538" lon="5.46176">
        <ele>370.8</ele>
        <time>2022-05-16T14:12:20Z</time>
      </trkpt>
      <trkpt lat="46.41592" lon="5.46193">
        <ele>370.2</ele>
        <time>2022-05-16T14:12:27Z</time>
      </trkpt>
      <trkpt lat="46.41629" lon="5.46213">
        <ele>370.2</ele>
        <time>2022-05-16T14:12:32Z</time>
      </trkpt>
      <trkpt lat="46.4164" lon="5.46228">
        <ele>370.2</ele>
        <time>2022-05-16T14:12:34Z</time>
      </trkpt>
      <trkpt lat="46.41644" lon="5.46236">
        <ele>370.2</ele>
        <time>2022-05-16T14:12:35Z</time>
      </trkpt>
      <trkpt lat="46.41676" lon="5.46307">
        <ele>371.4</ele>
        <time>2022-05-16T14:12:43Z</time>
      </trkpt>
      <trkpt lat="46.4168" lon="5.46316">
        <ele>371.8</ele>
        <time>2022-05-16T14:12:44Z</time>
      </trkpt>
      <trkpt lat="46.41698" lon="5.46359">
        <ele>372.4</ele>
        <time>2022-05-16T14:12:49Z</time>
      </trkpt>
      <trkpt lat="46.41718" lon="5.46408">
        <ele>373</ele>
        <time>2022-05-16T14:12:55Z</time>
      </trkpt>
      <trkpt lat="46.41725" lon="5.46423">
        <ele>373</ele>
        <time>2022-05-16T14:12:57Z</time>
      </trkpt>
      <trkpt lat="46.41749" lon="5.46476">
        <ele>374</ele>
        <time>2022-05-16T14:13:04Z</time>
      </trkpt>
      <trkpt lat="46.41752" lon="5.46484">
        <ele>374.2</ele>
        <time>2022-05-16T14:13:05Z</time>
      </trkpt>
      <trkpt lat="46.41771" lon="5.46529">
        <ele>374.8</ele>
        <time>2022-05-16T14:13:11Z</time>
      </trkpt>
      <trkpt lat="46.41777" lon="5.46544">
        <ele>375</ele>
        <time>2022-05-16T14:13:13Z</time>
      </trkpt>
      <trkpt lat="46.41801" lon="5.46593">
        <ele>375.8</ele>
        <time>2022-05-16T14:13:20Z</time>
      </trkpt>
      <trkpt lat="46.41805" lon="5.46599">
        <ele>375.8</ele>
        <time>2022-05-16T14:13:21Z</time>
      </trkpt>
      <trkpt lat="46.41814" lon="5.46607">
        <ele>376</ele>
        <time>2022-05-16T14:13:23Z</time>
      </trkpt>
      <trkpt lat="46.4182" lon="5.4661">
        <ele>376</ele>
        <time>2022-05-16T14:13:24Z</time>
      </trkpt>
      <trkpt lat="46.41826" lon="5.46611">
        <ele>376.2</ele>
        <time>2022-05-16T14:13:25Z</time>
      </trkpt>
      <trkpt lat="46.41842" lon="5.46612">
        <ele>376.4</ele>
        <time>2022-05-16T14:13:28Z</time>
      </trkpt>
      <trkpt lat="46.41889" lon="5.46622">
        <ele>376.8</ele>
        <time>2022-05-16T14:13:36Z</time>
      </trkpt>
      <trkpt lat="46.41943" lon="5.46648">
        <ele>376.2</ele>
        <time>2022-05-16T14:13:45Z</time>
      </trkpt>
      <trkpt lat="46.41955" lon="5.46656">
        <ele>376</ele>
        <time>2022-05-16T14:13:47Z</time>
      </trkpt>
      <trkpt lat="46.41996" lon="5.4669">
        <ele>375.6</ele>
        <time>2022-05-16T14:13:54Z</time>
      </trkpt>
      <trkpt lat="46.42014" lon="5.46713">
        <ele>375.4</ele>
        <time>2022-05-16T14:13:58Z</time>
      </trkpt>
      <trkpt lat="46.4202" lon="5.46717">
        <ele>375.4</ele>
        <time>2022-05-16T14:13:59Z</time>
      </trkpt>
      <trkpt lat="46.42026" lon="5.46722">
        <ele>375.2</ele>
        <time>2022-05-16T14:14:00Z</time>
      </trkpt>
      <trkpt lat="46.42032" lon="5.46726">
        <ele>375</ele>
        <time>2022-05-16T14:14:01Z</time>
      </trkpt>
      <trkpt lat="46.42047" lon="5.46733">
        <ele>373.8</ele>
        <time>2022-05-16T14:14:03Z</time>
      </trkpt>
      <trkpt lat="46.42063" lon="5.4674">
        <ele>372.8</ele>
        <time>2022-05-16T14:14:05Z</time>
      </trkpt>
      <trkpt lat="46.4208" lon="5.46747">
        <ele>372.2</ele>
        <time>2022-05-16T14:14:07Z</time>
      </trkpt>
      <trkpt lat="46.42089" lon="5.4675">
        <ele>372.2</ele>
        <time>2022-05-16T14:14:08Z</time>
      </trkpt>
      <trkpt lat="46.42099" lon="5.46755">
        <ele>371.6</ele>
        <time>2022-05-16T14:14:09Z</time>
      </trkpt>
      <trkpt lat="46.42138" lon="5.46776">
        <ele>370.8</ele>
        <time>2022-05-16T14:14:14Z</time>
      </trkpt>
      <trkpt lat="46.42145" lon="5.46781">
        <ele>370.6</ele>
        <time>2022-05-16T14:14:15Z</time>
      </trkpt>
      <trkpt lat="46.42197" lon="5.46818">
        <ele>370.6</ele>
        <time>2022-05-16T14:14:22Z</time>
      </trkpt>
      <trkpt lat="46.42204" lon="5.46822">
        <ele>370.8</ele>
        <time>2022-05-16T14:14:23Z</time>
      </trkpt>
      <trkpt lat="46.42216" lon="5.46825">
        <ele>371</ele>
        <time>2022-05-16T14:14:25Z</time>
      </trkpt>
      <trkpt lat="46.42223" lon="5.46825">
        <ele>371.2</ele>
        <time>2022-05-16T14:14:26Z</time>
      </trkpt>
      <trkpt lat="46.42229" lon="5.46824">
        <ele>371.4</ele>
        <time>2022-05-16T14:14:27Z</time>
      </trkpt>
      <trkpt lat="46.42235" lon="5.46821">
        <ele>371.6</ele>
        <time>2022-05-16T14:14:28Z</time>
      </trkpt>
      <trkpt lat="46.4224" lon="5.46818">
        <ele>371.8</ele>
        <time>2022-05-16T14:14:29Z</time>
      </trkpt>
      <trkpt lat="46.42255" lon="5.46803">
        <ele>372.8</ele>
        <time>2022-05-16T14:14:32Z</time>
      </trkpt>
      <trkpt lat="46.42263" lon="5.46792">
        <ele>373.2</ele>
        <time>2022-05-16T14:14:34Z</time>
      </trkpt>
      <trkpt lat="46.42275" lon="5.4677">
        <ele>373.6</ele>
        <time>2022-05-16T14:14:37Z</time>
      </trkpt>
      <trkpt lat="46.42285" lon="5.46758">
        <ele>374.2</ele>
        <time>2022-05-16T14:14:39Z</time>
      </trkpt>
      <trkpt lat="46.4229" lon="5.46752">
        <ele>374.4</ele>
        <time>2022-05-16T14:14:40Z</time>
      </trkpt>
      <trkpt lat="46.42301" lon="5.46742">
        <ele>374.8</ele>
        <time>2022-05-16T14:14:42Z</time>
      </trkpt>
      <trkpt lat="46.42307" lon="5.4674">
        <ele>374.8</ele>
        <time>2022-05-16T14:14:43Z</time>
      </trkpt>
      <trkpt lat="46.42313" lon="5.46741">
        <ele>374.8</ele>
        <time>2022-05-16T14:14:44Z</time>
      </trkpt>
      <trkpt lat="46.42325" lon="5.46747">
        <ele>375</ele>
        <time>2022-05-16T14:14:46Z</time>
      </trkpt>
      <trkpt lat="46.4235" lon="5.46758">
        <ele>375.2</ele>
        <time>2022-05-16T14:14:50Z</time>
      </trkpt>
      <trkpt lat="46.42387" lon="5.46777">
        <ele>375.4</ele>
        <time>2022-05-16T14:14:56Z</time>
      </trkpt>
      <trkpt lat="46.42442" lon="5.4681">
        <ele>375</ele>
        <time>2022-05-16T14:15:05Z</time>
      </trkpt>
      <trkpt lat="46.42478" lon="5.46834">
        <ele>374.8</ele>
        <time>2022-05-16T14:15:11Z</time>
      </trkpt>
      <trkpt lat="46.4249" lon="5.46842">
        <ele>374.8</ele>
        <time>2022-05-16T14:15:13Z</time>
      </trkpt>
      <trkpt lat="46.42505" lon="5.46855">
        <ele>374.6</ele>
        <time>2022-05-16T14:15:16Z</time>
      </trkpt>
      <trkpt lat="46.42513" lon="5.4686">
        <ele>374.4</ele>
        <time>2022-05-16T14:15:19Z</time>
      </trkpt>
      <trkpt lat="46.42514" lon="5.46861">
        <ele>374.4</ele>
        <time>2022-05-16T14:15:22Z</time>
      </trkpt>
      <trkpt lat="46.42522" lon="5.46858">
        <ele>374</ele>
        <time>2022-05-16T14:16:07Z</time>
      </trkpt>
      <trkpt lat="46.42529" lon="5.46856">
        <ele>374</ele>
        <time>2022-05-16T14:16:09Z</time>
      </trkpt>
      <trkpt lat="46.42538" lon="5.46853">
        <ele>374</ele>
        <time>2022-05-16T14:16:11Z</time>
      </trkpt>
      <trkpt lat="46.42549" lon="5.46845">
        <ele>373.8</ele>
        <time>2022-05-16T14:16:13Z</time>
      </trkpt>
      <trkpt lat="46.42579" lon="5.46818">
        <ele>373.6</ele>
        <time>2022-05-16T14:16:18Z</time>
      </trkpt>
      <trkpt lat="46.42599" lon="5.46799">
        <ele>372.8</ele>
        <time>2022-05-16T14:16:21Z</time>
      </trkpt>
      <trkpt lat="46.42626" lon="5.46772">
        <ele>372.4</ele>
        <time>2022-05-16T14:16:25Z</time>
      </trkpt>
      <trkpt lat="46.42658" lon="5.46742">
        <ele>371.8</ele>
        <time>2022-05-16T14:16:30Z</time>
      </trkpt>
      <trkpt lat="46.42672" lon="5.46732">
        <ele>371.8</ele>
        <time>2022-05-16T14:16:32Z</time>
      </trkpt>
      <trkpt lat="46.42711" lon="5.4672">
        <ele>371.4</ele>
        <time>2022-05-16T14:16:37Z</time>
      </trkpt>
      <trkpt lat="46.42736" lon="5.46715">
        <ele>370.6</ele>
        <time>2022-05-16T14:16:40Z</time>
      </trkpt>
      <trkpt lat="46.42768" lon="5.46704">
        <ele>370.2</ele>
        <time>2022-05-16T14:16:44Z</time>
      </trkpt>
      <trkpt lat="46.42799" lon="5.46694">
        <ele>369.6</ele>
        <time>2022-05-16T14:16:48Z</time>
      </trkpt>
      <trkpt lat="46.42836" lon="5.46683">
        <ele>369.4</ele>
        <time>2022-05-16T14:16:53Z</time>
      </trkpt>
      <trkpt lat="46.42887" lon="5.4667">
        <ele>369.2</ele>
        <time>2022-05-16T14:17:00Z</time>
      </trkpt>
      <trkpt lat="46.42942" lon="5.46666">
        <ele>370</ele>
        <time>2022-05-16T14:17:08Z</time>
      </trkpt>
      <trkpt lat="46.42956" lon="5.46665">
        <ele>370</ele>
        <time>2022-05-16T14:17:10Z</time>
      </trkpt>
      <trkpt lat="46.43008" lon="5.46654">
        <ele>370.2</ele>
        <time>2022-05-16T14:17:18Z</time>
      </trkpt>
      <trkpt lat="46.43053" lon="5.4664">
        <ele>370.8</ele>
        <time>2022-05-16T14:17:26Z</time>
      </trkpt>
      <trkpt lat="46.4308" lon="5.46643">
        <ele>372.2</ele>
        <time>2022-05-16T14:17:31Z</time>
      </trkpt>
      <trkpt lat="46.43086" lon="5.46645">
        <ele>372</ele>
        <time>2022-05-16T14:17:32Z</time>
      </trkpt>
      <trkpt lat="46.43097" lon="5.46649">
        <ele>372.2</ele>
        <time>2022-05-16T14:17:34Z</time>
      </trkpt>
      <trkpt lat="46.43121" lon="5.46652">
        <ele>373</ele>
        <time>2022-05-16T14:17:38Z</time>
      </trkpt>
      <trkpt lat="46.4314" lon="5.4665">
        <ele>373.4</ele>
        <time>2022-05-16T14:17:41Z</time>
      </trkpt>
      <trkpt lat="46.43158" lon="5.46641">
        <ele>373.6</ele>
        <time>2022-05-16T14:17:44Z</time>
      </trkpt>
      <trkpt lat="46.43173" lon="5.4663">
        <ele>374.2</ele>
        <time>2022-05-16T14:17:47Z</time>
      </trkpt>
      <trkpt lat="46.43199" lon="5.46606">
        <ele>374.8</ele>
        <time>2022-05-16T14:17:52Z</time>
      </trkpt>
      <trkpt lat="46.43226" lon="5.46564">
        <ele>375.6</ele>
        <time>2022-05-16T14:17:59Z</time>
      </trkpt>
      <trkpt lat="46.43233" lon="5.46552">
        <ele>376.2</ele>
        <time>2022-05-16T14:18:01Z</time>
      </trkpt>
      <trkpt lat="46.43242" lon="5.4654">
        <ele>376.6</ele>
        <time>2022-05-16T14:18:03Z</time>
      </trkpt>
      <trkpt lat="46.43265" lon="5.46512">
        <ele>377.8</ele>
        <time>2022-05-16T14:18:08Z</time>
      </trkpt>
      <trkpt lat="46.43284" lon="5.46473">
        <ele>378</ele>
        <time>2022-05-16T14:18:13Z</time>
      </trkpt>
      <trkpt lat="46.43291" lon="5.46445">
        <ele>378</ele>
        <time>2022-05-16T14:18:16Z</time>
      </trkpt>
      <trkpt lat="46.43297" lon="5.46416">
        <ele>377.8</ele>
        <time>2022-05-16T14:18:19Z</time>
      </trkpt>
      <trkpt lat="46.43317" lon="5.4634">
        <ele>377.2</ele>
        <time>2022-05-16T14:18:27Z</time>
      </trkpt>
      <trkpt lat="46.43342" lon="5.46281">
        <ele>377.2</ele>
        <time>2022-05-16T14:18:34Z</time>
      </trkpt>
      <trkpt lat="46.43372" lon="5.46224">
        <ele>377</ele>
        <time>2022-05-16T14:18:41Z</time>
      </trkpt>
      <trkpt lat="46.43377" lon="5.46218">
        <ele>377</ele>
        <time>2022-05-16T14:18:42Z</time>
      </trkpt>
      <trkpt lat="46.43398" lon="5.46199">
        <ele>376.6</ele>
        <time>2022-05-16T14:18:45Z</time>
      </trkpt>
      <trkpt lat="46.43413" lon="5.46186">
        <ele>376.2</ele>
        <time>2022-05-16T14:18:47Z</time>
      </trkpt>
      <trkpt lat="46.43438" lon="5.46166">
        <ele>375.4</ele>
        <time>2022-05-16T14:18:50Z</time>
      </trkpt>
      <trkpt lat="46.43467" lon="5.4614">
        <ele>374.2</ele>
        <time>2022-05-16T14:18:54Z</time>
      </trkpt>
      <trkpt lat="46.43516" lon="5.461">
        <ele>373.6</ele>
        <time>2022-05-16T14:19:01Z</time>
      </trkpt>
      <trkpt lat="46.43555" lon="5.46082">
        <ele>373.6</ele>
        <time>2022-05-16T14:19:06Z</time>
      </trkpt>
      <trkpt lat="46.43615" lon="5.46069">
        <ele>373.2</ele>
        <time>2022-05-16T14:19:14Z</time>
      </trkpt>
      <trkpt lat="46.43646" lon="5.46062">
        <ele>373.2</ele>
        <time>2022-05-16T14:19:18Z</time>
      </trkpt>
      <trkpt lat="46.43676" lon="5.46048">
        <ele>373</ele>
        <time>2022-05-16T14:19:22Z</time>
      </trkpt>
      <trkpt lat="46.43689" lon="5.46033">
        <ele>372.8</ele>
        <time>2022-05-16T14:19:24Z</time>
      </trkpt>
      <trkpt lat="46.43695" lon="5.46024">
        <ele>372.6</ele>
        <time>2022-05-16T14:19:25Z</time>
      </trkpt>
      <trkpt lat="46.43712" lon="5.45996">
        <ele>372</ele>
        <time>2022-05-16T14:19:28Z</time>
      </trkpt>
      <trkpt lat="46.4373" lon="5.45972">
        <ele>371.6</ele>
        <time>2022-05-16T14:19:31Z</time>
      </trkpt>
      <trkpt lat="46.43772" lon="5.45923">
        <ele>371.4</ele>
        <time>2022-05-16T14:19:38Z</time>
      </trkpt>
      <trkpt lat="46.43778" lon="5.45917">
        <ele>371.6</ele>
        <time>2022-05-16T14:19:39Z</time>
      </trkpt>
      <trkpt lat="46.43797" lon="5.45904">
        <ele>371.8</ele>
        <time>2022-05-16T14:19:42Z</time>
      </trkpt>
      <trkpt lat="46.4383" lon="5.45886">
        <ele>372.4</ele>
        <time>2022-05-16T14:19:47Z</time>
      </trkpt>
      <trkpt lat="46.43873" lon="5.45867">
        <ele>372.6</ele>
        <time>2022-05-16T14:19:53Z</time>
      </trkpt>
      <trkpt lat="46.4388" lon="5.45862">
        <ele>372.6</ele>
        <time>2022-05-16T14:19:54Z</time>
      </trkpt>
      <trkpt lat="46.43887" lon="5.45856">
        <ele>372.6</ele>
        <time>2022-05-16T14:19:55Z</time>
      </trkpt>
      <trkpt lat="46.43898" lon="5.45841">
        <ele>372.4</ele>
        <time>2022-05-16T14:19:57Z</time>
      </trkpt>
      <trkpt lat="46.43901" lon="5.45831">
        <ele>372</ele>
        <time>2022-05-16T14:19:58Z</time>
      </trkpt>
      <trkpt lat="46.43901" lon="5.4582">
        <ele>371.2</ele>
        <time>2022-05-16T14:19:59Z</time>
      </trkpt>
      <trkpt lat="46.43901" lon="5.45809">
        <ele>371</ele>
        <time>2022-05-16T14:20:00Z</time>
      </trkpt>
      <trkpt lat="46.43899" lon="5.45799">
        <ele>370.8</ele>
        <time>2022-05-16T14:20:01Z</time>
      </trkpt>
      <trkpt lat="46.43885" lon="5.45755">
        <ele>370.6</ele>
        <time>2022-05-16T14:20:06Z</time>
      </trkpt>
      <trkpt lat="46.4388" lon="5.45737">
        <ele>370.6</ele>
        <time>2022-05-16T14:20:08Z</time>
      </trkpt>
      <trkpt lat="46.43879" lon="5.45722">
        <ele>370.6</ele>
        <time>2022-05-16T14:20:10Z</time>
      </trkpt>
      <trkpt lat="46.4388" lon="5.45715">
        <ele>370.6</ele>
        <time>2022-05-16T14:20:11Z</time>
      </trkpt>
      <trkpt lat="46.4388" lon="5.45707">
        <ele>370.6</ele>
        <time>2022-05-16T14:20:12Z</time>
      </trkpt>
      <trkpt lat="46.43886" lon="5.45696">
        <ele>371</ele>
        <time>2022-05-16T14:20:14Z</time>
      </trkpt>
      <trkpt lat="46.43903" lon="5.45692">
        <ele>370.8</ele>
        <time>2022-05-16T14:20:17Z</time>
      </trkpt>
      <trkpt lat="46.43924" lon="5.45689">
        <ele>370.6</ele>
        <time>2022-05-16T14:20:20Z</time>
      </trkpt>
      <trkpt lat="46.43932" lon="5.45687">
        <ele>370.6</ele>
        <time>2022-05-16T14:20:21Z</time>
      </trkpt>
      <trkpt lat="46.43989" lon="5.45678">
        <ele>370.8</ele>
        <time>2022-05-16T14:20:28Z</time>
      </trkpt>
      <trkpt lat="46.44047" lon="5.45668">
        <ele>371.6</ele>
        <time>2022-05-16T14:20:36Z</time>
      </trkpt>
      <trkpt lat="46.44054" lon="5.45667">
        <ele>371.6</ele>
        <time>2022-05-16T14:20:37Z</time>
      </trkpt>
      <trkpt lat="46.44114" lon="5.45656">
        <ele>371.8</ele>
        <time>2022-05-16T14:20:46Z</time>
      </trkpt>
      <trkpt lat="46.44141" lon="5.45651">
        <ele>372.2</ele>
        <time>2022-05-16T14:20:50Z</time>
      </trkpt>
      <trkpt lat="46.44182" lon="5.45643">
        <ele>372.4</ele>
        <time>2022-05-16T14:20:56Z</time>
      </trkpt>
      <trkpt lat="46.44241" lon="5.45632">
        <ele>373</ele>
        <time>2022-05-16T14:21:05Z</time>
      </trkpt>
      <trkpt lat="46.4426" lon="5.45631">
        <ele>373</ele>
        <time>2022-05-16T14:21:08Z</time>
      </trkpt>
      <trkpt lat="46.4428" lon="5.45631">
        <ele>373.2</ele>
        <time>2022-05-16T14:21:11Z</time>
      </trkpt>
      <trkpt lat="46.44319" lon="5.45634">
        <ele>374</ele>
        <time>2022-05-16T14:21:17Z</time>
      </trkpt>
      <trkpt lat="46.44338" lon="5.45636">
        <ele>374.2</ele>
        <time>2022-05-16T14:21:20Z</time>
      </trkpt>
      <trkpt lat="46.44364" lon="5.45639">
        <ele>374.4</ele>
        <time>2022-05-16T14:21:24Z</time>
      </trkpt>
      <trkpt lat="46.44395" lon="5.45642">
        <ele>375.4</ele>
        <time>2022-05-16T14:21:29Z</time>
      </trkpt>
      <trkpt lat="46.44425" lon="5.45646">
        <ele>376.4</ele>
        <time>2022-05-16T14:21:34Z</time>
      </trkpt>
      <trkpt lat="46.44431" lon="5.45647">
        <ele>376.6</ele>
        <time>2022-05-16T14:21:35Z</time>
      </trkpt>
      <trkpt lat="46.4446" lon="5.4565">
        <ele>377.4</ele>
        <time>2022-05-16T14:21:40Z</time>
      </trkpt>
      <trkpt lat="46.44477" lon="5.45652">
        <ele>378</ele>
        <time>2022-05-16T14:21:43Z</time>
      </trkpt>
      <trkpt lat="46.4449" lon="5.45654">
        <ele>378.6</ele>
        <time>2022-05-16T14:21:45Z</time>
      </trkpt>
      <trkpt lat="46.4453" lon="5.45664">
        <ele>379</ele>
        <time>2022-05-16T14:21:51Z</time>
      </trkpt>
      <trkpt lat="46.44568" lon="5.45675">
        <ele>379</ele>
        <time>2022-05-16T14:21:56Z</time>
      </trkpt>
      <trkpt lat="46.4462" lon="5.45693">
        <ele>378.6</ele>
        <time>2022-05-16T14:22:03Z</time>
      </trkpt>
      <trkpt lat="46.44675" lon="5.45711">
        <ele>378.4</ele>
        <time>2022-05-16T14:22:10Z</time>
      </trkpt>
      <trkpt lat="46.44683" lon="5.45714">
        <ele>378.4</ele>
        <time>2022-05-16T14:22:11Z</time>
      </trkpt>
      <trkpt lat="46.44742" lon="5.45741">
        <ele>379</ele>
        <time>2022-05-16T14:22:19Z</time>
      </trkpt>
      <trkpt lat="46.44756" lon="5.45749">
        <ele>379</ele>
        <time>2022-05-16T14:22:21Z</time>
      </trkpt>
      <trkpt lat="46.44809" lon="5.45778">
        <ele>379.2</ele>
        <time>2022-05-16T14:22:29Z</time>
      </trkpt>
      <trkpt lat="46.44816" lon="5.45782">
        <ele>379.4</ele>
        <time>2022-05-16T14:22:30Z</time>
      </trkpt>
      <trkpt lat="46.44842" lon="5.45797">
        <ele>379.6</ele>
        <time>2022-05-16T14:22:34Z</time>
      </trkpt>
      <trkpt lat="46.44883" lon="5.4582">
        <ele>379.8</ele>
        <time>2022-05-16T14:22:40Z</time>
      </trkpt>
      <trkpt lat="46.44939" lon="5.45852">
        <ele>379.8</ele>
        <time>2022-05-16T14:22:48Z</time>
      </trkpt>
      <trkpt lat="46.44953" lon="5.4586">
        <ele>379.6</ele>
        <time>2022-05-16T14:22:50Z</time>
      </trkpt>
      <trkpt lat="46.45006" lon="5.45893">
        <ele>378.6</ele>
        <time>2022-05-16T14:22:57Z</time>
      </trkpt>
      <trkpt lat="46.45014" lon="5.45898">
        <ele>378.4</ele>
        <time>2022-05-16T14:22:58Z</time>
      </trkpt>
      <trkpt lat="46.45062" lon="5.45926">
        <ele>377.2</ele>
        <time>2022-05-16T14:23:04Z</time>
      </trkpt>
      <trkpt lat="46.45087" lon="5.45938">
        <ele>376.8</ele>
        <time>2022-05-16T14:23:07Z</time>
      </trkpt>
      <trkpt lat="46.45139" lon="5.4597">
        <ele>376.4</ele>
        <time>2022-05-16T14:23:14Z</time>
      </trkpt>
      <trkpt lat="46.4517" lon="5.45994">
        <ele>376.6</ele>
        <time>2022-05-16T14:23:19Z</time>
      </trkpt>
      <trkpt lat="46.45175" lon="5.45999">
        <ele>376.6</ele>
        <time>2022-05-16T14:23:20Z</time>
      </trkpt>
      <trkpt lat="46.45187" lon="5.46006">
        <ele>377</ele>
        <time>2022-05-16T14:23:22Z</time>
      </trkpt>
      <trkpt lat="46.45193" lon="5.4601">
        <ele>377.4</ele>
        <time>2022-05-16T14:23:23Z</time>
      </trkpt>
      <trkpt lat="46.45219" lon="5.46031">
        <ele>378.2</ele>
        <time>2022-05-16T14:23:28Z</time>
      </trkpt>
      <trkpt lat="46.45224" lon="5.46036">
        <ele>378.4</ele>
        <time>2022-05-16T14:23:29Z</time>
      </trkpt>
      <trkpt lat="46.4523" lon="5.4604">
        <ele>378.6</ele>
        <time>2022-05-16T14:23:30Z</time>
      </trkpt>
      <trkpt lat="46.45241" lon="5.46046">
        <ele>379.2</ele>
        <time>2022-05-16T14:23:32Z</time>
      </trkpt>
      <trkpt lat="46.45247" lon="5.46047">
        <ele>379.4</ele>
        <time>2022-05-16T14:23:33Z</time>
      </trkpt>
      <trkpt lat="46.45268" lon="5.46053">
        <ele>380.4</ele>
        <time>2022-05-16T14:23:37Z</time>
      </trkpt>
      <trkpt lat="46.45286" lon="5.46057">
        <ele>381</ele>
        <time>2022-05-16T14:23:40Z</time>
      </trkpt>
      <trkpt lat="46.45311" lon="5.46061">
        <ele>381.6</ele>
        <time>2022-05-16T14:23:44Z</time>
      </trkpt>
      <trkpt lat="46.45336" lon="5.46066">
        <ele>381.8</ele>
        <time>2022-05-16T14:23:48Z</time>
      </trkpt>
      <trkpt lat="46.45395" lon="5.46075">
        <ele>381.4</ele>
        <time>2022-05-16T14:23:57Z</time>
      </trkpt>
      <trkpt lat="46.45453" lon="5.46085">
        <ele>381</ele>
        <time>2022-05-16T14:24:05Z</time>
      </trkpt>
      <trkpt lat="46.4546" lon="5.46086">
        <ele>381</ele>
        <time>2022-05-16T14:24:06Z</time>
      </trkpt>
      <trkpt lat="46.45491" lon="5.46093">
        <ele>380.6</ele>
        <time>2022-05-16T14:24:10Z</time>
      </trkpt>
      <trkpt lat="46.45541" lon="5.46102">
        <ele>379.4</ele>
        <time>2022-05-16T14:24:16Z</time>
      </trkpt>
      <trkpt lat="46.45602" lon="5.46113">
        <ele>378.2</ele>
        <time>2022-05-16T14:24:23Z</time>
      </trkpt>
      <trkpt lat="46.45611" lon="5.46114">
        <ele>378.2</ele>
        <time>2022-05-16T14:24:24Z</time>
      </trkpt>
      <trkpt lat="46.45672" lon="5.46125">
        <ele>377.2</ele>
        <time>2022-05-16T14:24:31Z</time>
      </trkpt>
      <trkpt lat="46.45681" lon="5.46126">
        <ele>377</ele>
        <time>2022-05-16T14:24:32Z</time>
      </trkpt>
      <trkpt lat="46.45732" lon="5.46136">
        <ele>376</ele>
        <time>2022-05-16T14:24:38Z</time>
      </trkpt>
      <trkpt lat="46.45764" lon="5.46141">
        <ele>375.6</ele>
        <time>2022-05-16T14:24:42Z</time>
      </trkpt>
      <trkpt lat="46.45824" lon="5.46152">
        <ele>375.2</ele>
        <time>2022-05-16T14:24:49Z</time>
      </trkpt>
      <trkpt lat="46.4584" lon="5.46155">
        <ele>375</ele>
        <time>2022-05-16T14:24:51Z</time>
      </trkpt>
      <trkpt lat="46.45848" lon="5.46156">
        <ele>375</ele>
        <time>2022-05-16T14:24:52Z</time>
      </trkpt>
      <trkpt lat="46.45905" lon="5.46166">
        <ele>374.8</ele>
        <time>2022-05-16T14:24:59Z</time>
      </trkpt>
      <trkpt lat="46.45914" lon="5.46168">
        <ele>374.8</ele>
        <time>2022-05-16T14:25:00Z</time>
      </trkpt>
      <trkpt lat="46.45971" lon="5.46178">
        <ele>374.6</ele>
        <time>2022-05-16T14:25:07Z</time>
      </trkpt>
      <trkpt lat="46.45994" lon="5.46181">
        <ele>374.6</ele>
        <time>2022-05-16T14:25:10Z</time>
      </trkpt>
      <trkpt lat="46.46049" lon="5.46191">
        <ele>374.6</ele>
        <time>2022-05-16T14:25:17Z</time>
      </trkpt>
      <trkpt lat="46.46074" lon="5.46195">
        <ele>374.6</ele>
        <time>2022-05-16T14:25:20Z</time>
      </trkpt>
      <trkpt lat="46.4613" lon="5.46205">
        <ele>374.4</ele>
        <time>2022-05-16T14:25:27Z</time>
      </trkpt>
      <trkpt lat="46.46139" lon="5.46207">
        <ele>374.6</ele>
        <time>2022-05-16T14:25:28Z</time>
      </trkpt>
      <trkpt lat="46.46195" lon="5.46217">
        <ele>374.8</ele>
        <time>2022-05-16T14:25:35Z</time>
      </trkpt>
      <trkpt lat="46.46226" lon="5.46223">
        <ele>374.8</ele>
        <time>2022-05-16T14:25:39Z</time>
      </trkpt>
      <trkpt lat="46.46284" lon="5.46233">
        <ele>374.6</ele>
        <time>2022-05-16T14:25:46Z</time>
      </trkpt>
      <trkpt lat="46.46315" lon="5.46239">
        <ele>374.6</ele>
        <time>2022-05-16T14:25:50Z</time>
      </trkpt>
      <trkpt lat="46.46371" lon="5.46249">
        <ele>374.4</ele>
        <time>2022-05-16T14:25:57Z</time>
      </trkpt>
      <trkpt lat="46.46379" lon="5.4625">
        <ele>374.2</ele>
        <time>2022-05-16T14:25:58Z</time>
      </trkpt>
      <trkpt lat="46.46435" lon="5.4626">
        <ele>374.2</ele>
        <time>2022-05-16T14:26:05Z</time>
      </trkpt>
      <trkpt lat="46.46474" lon="5.46267">
        <ele>374.6</ele>
        <time>2022-05-16T14:26:10Z</time>
      </trkpt>
      <trkpt lat="46.4653" lon="5.46277">
        <ele>374.6</ele>
        <time>2022-05-16T14:26:17Z</time>
      </trkpt>
      <trkpt lat="46.46538" lon="5.46279">
        <ele>374.6</ele>
        <time>2022-05-16T14:26:18Z</time>
      </trkpt>
      <trkpt lat="46.46594" lon="5.46289">
        <ele>374.6</ele>
        <time>2022-05-16T14:26:25Z</time>
      </trkpt>
      <trkpt lat="46.46618" lon="5.46293">
        <ele>374.8</ele>
        <time>2022-05-16T14:26:28Z</time>
      </trkpt>
      <trkpt lat="46.46672" lon="5.46302">
        <ele>375</ele>
        <time>2022-05-16T14:26:35Z</time>
      </trkpt>
      <trkpt lat="46.4668" lon="5.46304">
        <ele>375.2</ele>
        <time>2022-05-16T14:26:36Z</time>
      </trkpt>
      <trkpt lat="46.46719" lon="5.4631">
        <ele>375.6</ele>
        <time>2022-05-16T14:26:41Z</time>
      </trkpt>
      <trkpt lat="46.46773" lon="5.4632">
        <ele>375.6</ele>
        <time>2022-05-16T14:26:48Z</time>
      </trkpt>
      <trkpt lat="46.46789" lon="5.46323">
        <ele>375.6</ele>
        <time>2022-05-16T14:26:50Z</time>
      </trkpt>
      <trkpt lat="46.46843" lon="5.46333">
        <ele>375.8</ele>
        <time>2022-05-16T14:26:57Z</time>
      </trkpt>
      <trkpt lat="46.46897" lon="5.46343">
        <ele>376</ele>
        <time>2022-05-16T14:27:04Z</time>
      </trkpt>
      <trkpt lat="46.46912" lon="5.46345">
        <ele>376</ele>
        <time>2022-05-16T14:27:06Z</time>
      </trkpt>
      <trkpt lat="46.46969" lon="5.46356">
        <ele>376.2</ele>
        <time>2022-05-16T14:27:14Z</time>
      </trkpt>
      <trkpt lat="46.46976" lon="5.46358">
        <ele>376.2</ele>
        <time>2022-05-16T14:27:15Z</time>
      </trkpt>
      <trkpt lat="46.47034" lon="5.46368">
        <ele>376</ele>
        <time>2022-05-16T14:27:23Z</time>
      </trkpt>
      <trkpt lat="46.47092" lon="5.46378">
        <ele>376.4</ele>
        <time>2022-05-16T14:27:31Z</time>
      </trkpt>
      <trkpt lat="46.47107" lon="5.46381">
        <ele>376.4</ele>
        <time>2022-05-16T14:27:33Z</time>
      </trkpt>
      <trkpt lat="46.47164" lon="5.46391">
        <ele>376.8</ele>
        <time>2022-05-16T14:27:41Z</time>
      </trkpt>
      <trkpt lat="46.4722" lon="5.46401">
        <ele>377</ele>
        <time>2022-05-16T14:27:49Z</time>
      </trkpt>
      <trkpt lat="46.47226" lon="5.46402">
        <ele>377</ele>
        <time>2022-05-16T14:27:50Z</time>
      </trkpt>
      <trkpt lat="46.47261" lon="5.46408">
        <ele>377.6</ele>
        <time>2022-05-16T14:27:55Z</time>
      </trkpt>
      <trkpt lat="46.47293" lon="5.46414">
        <ele>378</ele>
        <time>2022-05-16T14:28:00Z</time>
      </trkpt>
      <trkpt lat="46.47346" lon="5.46424">
        <ele>378.6</ele>
        <time>2022-05-16T14:28:09Z</time>
      </trkpt>
      <trkpt lat="46.47394" lon="5.46433">
        <ele>379.4</ele>
        <time>2022-05-16T14:28:17Z</time>
      </trkpt>
      <trkpt lat="46.47444" lon="5.46442">
        <ele>379.6</ele>
        <time>2022-05-16T14:28:25Z</time>
      </trkpt>
      <trkpt lat="46.47456" lon="5.46444">
        <ele>379.6</ele>
        <time>2022-05-16T14:28:27Z</time>
      </trkpt>
      <trkpt lat="46.475" lon="5.46451">
        <ele>380.8</ele>
        <time>2022-05-16T14:28:34Z</time>
      </trkpt>
      <trkpt lat="46.47512" lon="5.46453">
        <ele>381</ele>
        <time>2022-05-16T14:28:36Z</time>
      </trkpt>
      <trkpt lat="46.47543" lon="5.46458">
        <ele>381.8</ele>
        <time>2022-05-16T14:28:41Z</time>
      </trkpt>
      <trkpt lat="46.47568" lon="5.46463">
        <ele>382.2</ele>
        <time>2022-05-16T14:28:45Z</time>
      </trkpt>
      <trkpt lat="46.4762" lon="5.46472">
        <ele>382.8</ele>
        <time>2022-05-16T14:28:54Z</time>
      </trkpt>
      <trkpt lat="46.47673" lon="5.46481">
        <ele>383.8</ele>
        <time>2022-05-16T14:29:03Z</time>
      </trkpt>
      <trkpt lat="46.477" lon="5.46486">
        <ele>383.8</ele>
        <time>2022-05-16T14:29:07Z</time>
      </trkpt>
      <trkpt lat="46.47745" lon="5.46494">
        <ele>384</ele>
        <time>2022-05-16T14:29:14Z</time>
      </trkpt>
      <trkpt lat="46.47801" lon="5.46504">
        <ele>384</ele>
        <time>2022-05-16T14:29:22Z</time>
      </trkpt>
      <trkpt lat="46.47809" lon="5.46506">
        <ele>384</ele>
        <time>2022-05-16T14:29:23Z</time>
      </trkpt>
      <trkpt lat="46.47866" lon="5.46516">
        <ele>384.2</ele>
        <time>2022-05-16T14:29:31Z</time>
      </trkpt>
      <trkpt lat="46.47873" lon="5.46517">
        <ele>384.2</ele>
        <time>2022-05-16T14:29:32Z</time>
      </trkpt>
      <trkpt lat="46.47931" lon="5.46528">
        <ele>384.8</ele>
        <time>2022-05-16T14:29:40Z</time>
      </trkpt>
      <trkpt lat="46.4796" lon="5.46533">
        <ele>384.8</ele>
        <time>2022-05-16T14:29:44Z</time>
      </trkpt>
      <trkpt lat="46.48019" lon="5.46544">
        <ele>384.8</ele>
        <time>2022-05-16T14:29:52Z</time>
      </trkpt>
      <trkpt lat="46.48042" lon="5.46549">
        <ele>384.4</ele>
        <time>2022-05-16T14:29:55Z</time>
      </trkpt>
      <trkpt lat="46.48096" lon="5.46559">
        <ele>384.8</ele>
        <time>2022-05-16T14:30:02Z</time>
      </trkpt>
      <trkpt lat="46.48118" lon="5.46562">
        <ele>384.4</ele>
        <time>2022-05-16T14:30:05Z</time>
      </trkpt>
      <trkpt lat="46.48171" lon="5.46573">
        <ele>384.4</ele>
        <time>2022-05-16T14:30:12Z</time>
      </trkpt>
      <trkpt lat="46.48187" lon="5.46575">
        <ele>384.4</ele>
        <time>2022-05-16T14:30:14Z</time>
      </trkpt>
      <trkpt lat="46.48248" lon="5.46585">
        <ele>384.2</ele>
        <time>2022-05-16T14:30:22Z</time>
      </trkpt>
      <trkpt lat="46.48255" lon="5.46587">
        <ele>384.2</ele>
        <time>2022-05-16T14:30:23Z</time>
      </trkpt>
      <trkpt lat="46.48316" lon="5.46597">
        <ele>383.8</ele>
        <time>2022-05-16T14:30:31Z</time>
      </trkpt>
      <trkpt lat="46.48321" lon="5.46598">
        <ele>383.8</ele>
        <time>2022-05-16T14:30:32Z</time>
      </trkpt>
      <trkpt lat="46.48342" lon="5.46603">
        <ele>383.8</ele>
        <time>2022-05-16T14:30:35Z</time>
      </trkpt>
      <trkpt lat="46.48348" lon="5.46601">
        <ele>383.8</ele>
        <time>2022-05-16T14:30:36Z</time>
      </trkpt>
      <trkpt lat="46.48353" lon="5.46595">
        <ele>383.8</ele>
        <time>2022-05-16T14:30:37Z</time>
      </trkpt>
      <trkpt lat="46.48362" lon="5.46579">
        <ele>383.8</ele>
        <time>2022-05-16T14:30:39Z</time>
      </trkpt>
      <trkpt lat="46.48388" lon="5.465">
        <ele>383.2</ele>
        <time>2022-05-16T14:30:47Z</time>
      </trkpt>
      <trkpt lat="46.48391" lon="5.4648">
        <ele>383.2</ele>
        <time>2022-05-16T14:30:49Z</time>
      </trkpt>
      <trkpt lat="46.48391" lon="5.46468">
        <ele>383.4</ele>
        <time>2022-05-16T14:30:50Z</time>
      </trkpt>
      <trkpt lat="46.48391" lon="5.46445">
        <ele>383.4</ele>
        <time>2022-05-16T14:30:52Z</time>
      </trkpt>
      <trkpt lat="46.48396" lon="5.4641">
        <ele>383.6</ele>
        <time>2022-05-16T14:30:55Z</time>
      </trkpt>
      <trkpt lat="46.48401" lon="5.46391">
        <ele>383.6</ele>
        <time>2022-05-16T14:30:57Z</time>
      </trkpt>
      <trkpt lat="46.48412" lon="5.4636">
        <ele>383.8</ele>
        <time>2022-05-16T14:31:00Z</time>
      </trkpt>
      <trkpt lat="46.48439" lon="5.46303">
        <ele>384</ele>
        <time>2022-05-16T14:31:07Z</time>
      </trkpt>
      <trkpt lat="46.48448" lon="5.4628">
        <ele>384.4</ele>
        <time>2022-05-16T14:31:10Z</time>
      </trkpt>
      <trkpt lat="46.48449" lon="5.46272">
        <ele>384.8</ele>
        <time>2022-05-16T14:31:11Z</time>
      </trkpt>
      <trkpt lat="46.48447" lon="5.46263">
        <ele>384.8</ele>
        <time>2022-05-16T14:31:12Z</time>
      </trkpt>
      <trkpt lat="46.48444" lon="5.46258">
        <ele>385</ele>
        <time>2022-05-16T14:31:13Z</time>
      </trkpt>
      <trkpt lat="46.4844" lon="5.46249">
        <ele>385.6</ele>
        <time>2022-05-16T14:31:14Z</time>
      </trkpt>
      <trkpt lat="46.48435" lon="5.46236">
        <ele>386</ele>
        <time>2022-05-16T14:31:16Z</time>
      </trkpt>
      <trkpt lat="46.48433" lon="5.46228">
        <ele>386.2</ele>
        <time>2022-05-16T14:31:17Z</time>
      </trkpt>
      <trkpt lat="46.48429" lon="5.46206">
        <ele>386.6</ele>
        <time>2022-05-16T14:31:20Z</time>
      </trkpt>
      <trkpt lat="46.48425" lon="5.46187">
        <ele>387</ele>
        <time>2022-05-16T14:31:23Z</time>
      </trkpt>
      <trkpt lat="46.48421" lon="5.46174">
        <ele>387.6</ele>
        <time>2022-05-16T14:31:25Z</time>
      </trkpt>
      <trkpt lat="46.4841" lon="5.46151">
        <ele>388</ele>
        <time>2022-05-16T14:31:29Z</time>
      </trkpt>
      <trkpt lat="46.48407" lon="5.46145">
        <ele>388.4</ele>
        <time>2022-05-16T14:31:30Z</time>
      </trkpt>
      <trkpt lat="46.4839" lon="5.46113">
        <ele>389.6</ele>
        <time>2022-05-16T14:31:35Z</time>
      </trkpt>
      <trkpt lat="46.48384" lon="5.461">
        <ele>390</ele>
        <time>2022-05-16T14:31:37Z</time>
      </trkpt>
      <trkpt lat="46.48355" lon="5.46044">
        <ele>390.6</ele>
        <time>2022-05-16T14:31:45Z</time>
      </trkpt>
      <trkpt lat="46.48352" lon="5.46037">
        <ele>390.6</ele>
        <time>2022-05-16T14:31:46Z</time>
      </trkpt>
      <trkpt lat="46.48332" lon="5.46001">
        <ele>390.6</ele>
        <time>2022-05-16T14:31:51Z</time>
      </trkpt>
      <trkpt lat="46.48294" lon="5.4594">
        <ele>390.6</ele>
        <time>2022-05-16T14:32:00Z</time>
      </trkpt>
      <trkpt lat="46.48263" lon="5.45894">
        <ele>390.6</ele>
        <time>2022-05-16T14:32:06Z</time>
      </trkpt>
      <trkpt lat="46.48228" lon="5.45848">
        <ele>389.8</ele>
        <time>2022-05-16T14:32:12Z</time>
      </trkpt>
      <trkpt lat="46.48222" lon="5.45841">
        <ele>389.6</ele>
        <time>2022-05-16T14:32:13Z</time>
      </trkpt>
      <trkpt lat="46.48198" lon="5.4581">
        <ele>388.6</ele>
        <time>2022-05-16T14:32:17Z</time>
      </trkpt>
      <trkpt lat="46.48174" lon="5.45779">
        <ele>387.2</ele>
        <time>2022-05-16T14:32:21Z</time>
      </trkpt>
      <trkpt lat="46.48168" lon="5.45771">
        <ele>387</ele>
        <time>2022-05-16T14:32:22Z</time>
      </trkpt>
      <trkpt lat="46.48155" lon="5.45755">
        <ele>386</ele>
        <time>2022-05-16T14:32:24Z</time>
      </trkpt>
      <trkpt lat="46.48128" lon="5.45722">
        <ele>385</ele>
        <time>2022-05-16T14:32:28Z</time>
      </trkpt>
      <trkpt lat="46.48108" lon="5.45699">
        <ele>384.4</ele>
        <time>2022-05-16T14:32:31Z</time>
      </trkpt>
      <trkpt lat="46.48081" lon="5.45671">
        <ele>383.8</ele>
        <time>2022-05-16T14:32:35Z</time>
      </trkpt>
      <trkpt lat="46.4806" lon="5.45655">
        <ele>383.4</ele>
        <time>2022-05-16T14:32:38Z</time>
      </trkpt>
      <trkpt lat="46.48017" lon="5.45634">
        <ele>383</ele>
        <time>2022-05-16T14:32:44Z</time>
      </trkpt>
      <trkpt lat="46.47981" lon="5.4562">
        <ele>383.6</ele>
        <time>2022-05-16T14:32:50Z</time>
      </trkpt>
      <trkpt lat="46.47948" lon="5.45606">
        <ele>384.2</ele>
        <time>2022-05-16T14:32:56Z</time>
      </trkpt>
      <trkpt lat="46.47915" lon="5.45594">
        <ele>385</ele>
        <time>2022-05-16T14:33:02Z</time>
      </trkpt>
      <trkpt lat="46.47898" lon="5.45588">
        <ele>385.4</ele>
        <time>2022-05-16T14:33:05Z</time>
      </trkpt>
      <trkpt lat="46.47867" lon="5.45575">
        <ele>386</ele>
        <time>2022-05-16T14:33:11Z</time>
      </trkpt>
      <trkpt lat="46.47848" lon="5.45568">
        <ele>387</ele>
        <time>2022-05-16T14:33:15Z</time>
      </trkpt>
      <trkpt lat="46.47843" lon="5.45567">
        <ele>387</ele>
        <time>2022-05-16T14:33:16Z</time>
      </trkpt>
      <trkpt lat="46.47819" lon="5.45559">
        <ele>388.2</ele>
        <time>2022-05-16T14:33:21Z</time>
      </trkpt>
      <trkpt lat="46.47787" lon="5.45552">
        <ele>389.2</ele>
        <time>2022-05-16T14:33:27Z</time>
      </trkpt>
      <trkpt lat="46.47776" lon="5.4555">
        <ele>389.2</ele>
        <time>2022-05-16T14:33:29Z</time>
      </trkpt>
      <trkpt lat="46.4776" lon="5.45544">
        <ele>389.4</ele>
        <time>2022-05-16T14:33:32Z</time>
      </trkpt>
      <trkpt lat="46.47749" lon="5.45536">
        <ele>389.6</ele>
        <time>2022-05-16T14:33:34Z</time>
      </trkpt>
      <trkpt lat="46.47722" lon="5.45511">
        <ele>389.2</ele>
        <time>2022-05-16T14:33:39Z</time>
      </trkpt>
      <trkpt lat="46.47716" lon="5.45506">
        <ele>389</ele>
        <time>2022-05-16T14:33:40Z</time>
      </trkpt>
      <trkpt lat="46.47712" lon="5.45501">
        <ele>389</ele>
        <time>2022-05-16T14:33:41Z</time>
      </trkpt>
      <trkpt lat="46.47709" lon="5.45486">
        <ele>389</ele>
        <time>2022-05-16T14:33:43Z</time>
      </trkpt>
      <trkpt lat="46.47713" lon="5.45453">
        <ele>388.4</ele>
        <time>2022-05-16T14:33:47Z</time>
      </trkpt>
      <trkpt lat="46.47715" lon="5.45445">
        <ele>388.4</ele>
        <time>2022-05-16T14:33:48Z</time>
      </trkpt>
      <trkpt lat="46.4772" lon="5.45431">
        <ele>388.2</ele>
        <time>2022-05-16T14:33:50Z</time>
      </trkpt>
      <trkpt lat="46.47724" lon="5.45426">
        <ele>388.4</ele>
        <time>2022-05-16T14:33:51Z</time>
      </trkpt>
      <trkpt lat="46.47728" lon="5.45423">
        <ele>388.6</ele>
        <time>2022-05-16T14:33:52Z</time>
      </trkpt>
      <trkpt lat="46.47746" lon="5.45412">
        <ele>389</ele>
        <time>2022-05-16T14:33:56Z</time>
      </trkpt>
      <trkpt lat="46.47771" lon="5.45399">
        <ele>390.4</ele>
        <time>2022-05-16T14:34:02Z</time>
      </trkpt>
      <trkpt lat="46.47776" lon="5.45397">
        <ele>390.6</ele>
        <time>2022-05-16T14:34:03Z</time>
      </trkpt>
      <trkpt lat="46.47785" lon="5.45395">
        <ele>391</ele>
        <time>2022-05-16T14:34:05Z</time>
      </trkpt>
      <trkpt lat="46.47794" lon="5.45393">
        <ele>391.2</ele>
        <time>2022-05-16T14:34:07Z</time>
      </trkpt>
      <trkpt lat="46.47799" lon="5.45392">
        <ele>391.4</ele>
        <time>2022-05-16T14:34:08Z</time>
      </trkpt>
      <trkpt lat="46.47803" lon="5.45389">
        <ele>391.6</ele>
        <time>2022-05-16T14:34:09Z</time>
      </trkpt>
      <trkpt lat="46.47811" lon="5.45382">
        <ele>392</ele>
        <time>2022-05-16T14:34:11Z</time>
      </trkpt>
      <trkpt lat="46.47819" lon="5.45373">
        <ele>392.6</ele>
        <time>2022-05-16T14:34:13Z</time>
      </trkpt>
      <trkpt lat="46.47823" lon="5.45368">
        <ele>392.8</ele>
        <time>2022-05-16T14:34:14Z</time>
      </trkpt>
      <trkpt lat="46.47856" lon="5.45324">
        <ele>393.2</ele>
        <time>2022-05-16T14:34:22Z</time>
      </trkpt>
      <trkpt lat="46.4789" lon="5.45283">
        <ele>393.6</ele>
        <time>2022-05-16T14:34:30Z</time>
      </trkpt>
      <trkpt lat="46.47895" lon="5.45278">
        <ele>393.6</ele>
        <time>2022-05-16T14:34:31Z</time>
      </trkpt>
      <trkpt lat="46.47917" lon="5.4525">
        <ele>394.8</ele>
        <time>2022-05-16T14:34:37Z</time>
      </trkpt>
      <trkpt lat="46.47921" lon="5.45244">
        <ele>395.2</ele>
        <time>2022-05-16T14:34:38Z</time>
      </trkpt>
      <trkpt lat="46.47925" lon="5.45241">
        <ele>395.2</ele>
        <time>2022-05-16T14:34:39Z</time>
      </trkpt>
      <trkpt lat="46.4794" lon="5.45222">
        <ele>395.8</ele>
        <time>2022-05-16T14:34:43Z</time>
      </trkpt>
      <trkpt lat="46.47943" lon="5.45217">
        <ele>395.8</ele>
        <time>2022-05-16T14:34:44Z</time>
      </trkpt>
      <trkpt lat="46.47946" lon="5.45214">
        <ele>396</ele>
        <time>2022-05-16T14:34:45Z</time>
      </trkpt>
      <trkpt lat="46.4797" lon="5.45185">
        <ele>397</ele>
        <time>2022-05-16T14:34:52Z</time>
      </trkpt>
      <trkpt lat="46.47973" lon="5.45181">
        <ele>397</ele>
        <time>2022-05-16T14:34:53Z</time>
      </trkpt>
      <trkpt lat="46.47987" lon="5.45164">
        <ele>398</ele>
        <time>2022-05-16T14:34:58Z</time>
      </trkpt>
      <trkpt lat="46.47994" lon="5.45154">
        <ele>398.8</ele>
        <time>2022-05-16T14:35:01Z</time>
      </trkpt>
      <trkpt lat="46.47999" lon="5.45148">
        <ele>399.4</ele>
        <time>2022-05-16T14:35:03Z</time>
      </trkpt>
      <trkpt lat="46.48006" lon="5.45138">
        <ele>400.4</ele>
        <time>2022-05-16T14:35:06Z</time>
      </trkpt>
      <trkpt lat="46.48012" lon="5.45126">
        <ele>401</ele>
        <time>2022-05-16T14:35:09Z</time>
      </trkpt>
      <trkpt lat="46.48016" lon="5.45118">
        <ele>401.4</ele>
        <time>2022-05-16T14:35:11Z</time>
      </trkpt>
      <trkpt lat="46.48023" lon="5.45096">
        <ele>402.4</ele>
        <time>2022-05-16T14:35:16Z</time>
      </trkpt>
      <trkpt lat="46.48024" lon="5.45091">
        <ele>403</ele>
        <time>2022-05-16T14:35:17Z</time>
      </trkpt>
      <trkpt lat="46.48025" lon="5.45071">
        <ele>404</ele>
        <time>2022-05-16T14:35:21Z</time>
      </trkpt>
      <trkpt lat="46.48025" lon="5.45052">
        <ele>405</ele>
        <time>2022-05-16T14:35:25Z</time>
      </trkpt>
      <trkpt lat="46.48023" lon="5.45032">
        <ele>406.2</ele>
        <time>2022-05-16T14:35:29Z</time>
      </trkpt>
      <trkpt lat="46.48018" lon="5.4501">
        <ele>407.4</ele>
        <time>2022-05-16T14:35:34Z</time>
      </trkpt>
      <trkpt lat="46.48011" lon="5.44983">
        <ele>408.8</ele>
        <time>2022-05-16T14:35:40Z</time>
      </trkpt>
      <trkpt lat="46.48007" lon="5.44975">
        <ele>409.4</ele>
        <time>2022-05-16T14:35:42Z</time>
      </trkpt>
      <trkpt lat="46.48006" lon="5.4497">
        <ele>409.8</ele>
        <time>2022-05-16T14:35:43Z</time>
      </trkpt>
      <trkpt lat="46.47996" lon="5.44948">
        <ele>411</ele>
        <time>2022-05-16T14:35:48Z</time>
      </trkpt>
      <trkpt lat="46.47985" lon="5.44927">
        <ele>411.8</ele>
        <time>2022-05-16T14:35:53Z</time>
      </trkpt>
      <trkpt lat="46.47975" lon="5.44914">
        <ele>412.2</ele>
        <time>2022-05-16T14:35:57Z</time>
      </trkpt>
      <trkpt lat="46.4797" lon="5.44908">
        <ele>412.8</ele>
        <time>2022-05-16T14:35:59Z</time>
      </trkpt>
      <trkpt lat="46.47961" lon="5.449">
        <ele>414</ele>
        <time>2022-05-16T14:36:02Z</time>
      </trkpt>
      <trkpt lat="46.47947" lon="5.44888">
        <ele>415.2</ele>
        <time>2022-05-16T14:36:07Z</time>
      </trkpt>
      <trkpt lat="46.47931" lon="5.44876">
        <ele>416.2</ele>
        <time>2022-05-16T14:36:12Z</time>
      </trkpt>
      <trkpt lat="46.47919" lon="5.44866">
        <ele>417.2</ele>
        <time>2022-05-16T14:36:16Z</time>
      </trkpt>
      <trkpt lat="46.47916" lon="5.44864">
        <ele>417.6</ele>
        <time>2022-05-16T14:36:17Z</time>
      </trkpt>
      <trkpt lat="46.47901" lon="5.44852">
        <ele>418.6</ele>
        <time>2022-05-16T14:36:22Z</time>
      </trkpt>
      <trkpt lat="46.47895" lon="5.44846">
        <ele>418.8</ele>
        <time>2022-05-16T14:36:24Z</time>
      </trkpt>
      <trkpt lat="46.47886" lon="5.44839">
        <ele>419.8</ele>
        <time>2022-05-16T14:36:27Z</time>
      </trkpt>
      <trkpt lat="46.47873" lon="5.44829">
        <ele>421</ele>
        <time>2022-05-16T14:36:31Z</time>
      </trkpt>
      <trkpt lat="46.4787" lon="5.44827">
        <ele>421.4</ele>
        <time>2022-05-16T14:36:32Z</time>
      </trkpt>
      <trkpt lat="46.47861" lon="5.44818">
        <ele>421.8</ele>
        <time>2022-05-16T14:36:35Z</time>
      </trkpt>
      <trkpt lat="46.47849" lon="5.44807">
        <ele>423</ele>
        <time>2022-05-16T14:36:39Z</time>
      </trkpt>
      <trkpt lat="46.47846" lon="5.44804">
        <ele>423.2</ele>
        <time>2022-05-16T14:36:40Z</time>
      </trkpt>
      <trkpt lat="46.47836" lon="5.44795">
        <ele>424.2</ele>
        <time>2022-05-16T14:36:43Z</time>
      </trkpt>
      <trkpt lat="46.47814" lon="5.44775">
        <ele>425.4</ele>
        <time>2022-05-16T14:36:50Z</time>
      </trkpt>
      <trkpt lat="46.47811" lon="5.44772">
        <ele>425.4</ele>
        <time>2022-05-16T14:36:51Z</time>
      </trkpt>
      <trkpt lat="46.47796" lon="5.44758">
        <ele>426.4</ele>
        <time>2022-05-16T14:36:56Z</time>
      </trkpt>
      <trkpt lat="46.47784" lon="5.44746">
        <ele>427.6</ele>
        <time>2022-05-16T14:37:00Z</time>
      </trkpt>
      <trkpt lat="46.47772" lon="5.44734">
        <ele>428.6</ele>
        <time>2022-05-16T14:37:04Z</time>
      </trkpt>
      <trkpt lat="46.47764" lon="5.44725">
        <ele>429.2</ele>
        <time>2022-05-16T14:37:07Z</time>
      </trkpt>
      <trkpt lat="46.47762" lon="5.44722">
        <ele>429.6</ele>
        <time>2022-05-16T14:37:08Z</time>
      </trkpt>
      <trkpt lat="46.47748" lon="5.44706">
        <ele>430.8</ele>
        <time>2022-05-16T14:37:13Z</time>
      </trkpt>
      <trkpt lat="46.47734" lon="5.44691">
        <ele>431.8</ele>
        <time>2022-05-16T14:37:18Z</time>
      </trkpt>
      <trkpt lat="46.47725" lon="5.44682">
        <ele>432.6</ele>
        <time>2022-05-16T14:37:21Z</time>
      </trkpt>
      <trkpt lat="46.47722" lon="5.44679">
        <ele>433</ele>
        <time>2022-05-16T14:37:22Z</time>
      </trkpt>
      <trkpt lat="46.47708" lon="5.44664">
        <ele>434</ele>
        <time>2022-05-16T14:37:27Z</time>
      </trkpt>
      <trkpt lat="46.47702" lon="5.44658">
        <ele>434.6</ele>
        <time>2022-05-16T14:37:29Z</time>
      </trkpt>
      <trkpt lat="46.47697" lon="5.44651">
        <ele>435</ele>
        <time>2022-05-16T14:37:31Z</time>
      </trkpt>
      <trkpt lat="46.4768" lon="5.44633">
        <ele>436.2</ele>
        <time>2022-05-16T14:37:37Z</time>
      </trkpt>
      <trkpt lat="46.47671" lon="5.44623">
        <ele>436.8</ele>
        <time>2022-05-16T14:37:40Z</time>
      </trkpt>
      <trkpt lat="46.47666" lon="5.44617">
        <ele>437.2</ele>
        <time>2022-05-16T14:37:42Z</time>
      </trkpt>
      <trkpt lat="46.47654" lon="5.44603">
        <ele>438.4</ele>
        <time>2022-05-16T14:37:46Z</time>
      </trkpt>
      <trkpt lat="46.47646" lon="5.44593">
        <ele>438.8</ele>
        <time>2022-05-16T14:37:49Z</time>
      </trkpt>
      <trkpt lat="46.47638" lon="5.44583">
        <ele>439.4</ele>
        <time>2022-05-16T14:37:52Z</time>
      </trkpt>
      <trkpt lat="46.47623" lon="5.44565">
        <ele>440.6</ele>
        <time>2022-05-16T14:37:57Z</time>
      </trkpt>
      <trkpt lat="46.4762" lon="5.44562">
        <ele>441</ele>
        <time>2022-05-16T14:37:58Z</time>
      </trkpt>
      <trkpt lat="46.47611" lon="5.44552">
        <ele>441.8</ele>
        <time>2022-05-16T14:38:01Z</time>
      </trkpt>
      <trkpt lat="46.47609" lon="5.44549">
        <ele>442</ele>
        <time>2022-05-16T14:38:02Z</time>
      </trkpt>
      <trkpt lat="46.47603" lon="5.44542">
        <ele>442.4</ele>
        <time>2022-05-16T14:38:04Z</time>
      </trkpt>
      <trkpt lat="46.47597" lon="5.44533">
        <ele>442.8</ele>
        <time>2022-05-16T14:38:06Z</time>
      </trkpt>
      <trkpt lat="46.47581" lon="5.44514">
        <ele>443.8</ele>
        <time>2022-05-16T14:38:11Z</time>
      </trkpt>
      <trkpt lat="46.47572" lon="5.44504">
        <ele>444.8</ele>
        <time>2022-05-16T14:38:14Z</time>
      </trkpt>
      <trkpt lat="46.4756" lon="5.44492">
        <ele>446</ele>
        <time>2022-05-16T14:38:18Z</time>
      </trkpt>
      <trkpt lat="46.47558" lon="5.44489">
        <ele>446.2</ele>
        <time>2022-05-16T14:38:19Z</time>
      </trkpt>
      <trkpt lat="46.47549" lon="5.44479">
        <ele>447</ele>
        <time>2022-05-16T14:38:22Z</time>
      </trkpt>
      <trkpt lat="46.4754" lon="5.4447">
        <ele>447.6</ele>
        <time>2022-05-16T14:38:25Z</time>
      </trkpt>
      <trkpt lat="46.47532" lon="5.4446">
        <ele>448.2</ele>
        <time>2022-05-16T14:38:28Z</time>
      </trkpt>
      <trkpt lat="46.47517" lon="5.44445">
        <ele>449</ele>
        <time>2022-05-16T14:38:33Z</time>
      </trkpt>
      <trkpt lat="46.47503" lon="5.44432">
        <ele>450.2</ele>
        <time>2022-05-16T14:38:38Z</time>
      </trkpt>
      <trkpt lat="46.47498" lon="5.44427">
        <ele>450.8</ele>
        <time>2022-05-16T14:38:40Z</time>
      </trkpt>
      <trkpt lat="46.4749" lon="5.44421">
        <ele>451.2</ele>
        <time>2022-05-16T14:38:42Z</time>
      </trkpt>
      <trkpt lat="46.47487" lon="5.44419">
        <ele>451.2</ele>
        <time>2022-05-16T14:38:43Z</time>
      </trkpt>
      <trkpt lat="46.47471" lon="5.44406">
        <ele>452</ele>
        <time>2022-05-16T14:38:48Z</time>
      </trkpt>
      <trkpt lat="46.47472" lon="5.44395">
        <ele>452</ele>
        <time>2022-05-16T14:38:50Z</time>
      </trkpt>
      <trkpt lat="46.47473" lon="5.44391">
        <ele>452</ele>
        <time>2022-05-16T14:38:51Z</time>
      </trkpt>
      <trkpt lat="46.47476" lon="5.4439">
        <ele>452.2</ele>
        <time>2022-05-16T14:38:52Z</time>
      </trkpt>
      <trkpt lat="46.47479" lon="5.44391">
        <ele>452.4</ele>
        <time>2022-05-16T14:38:53Z</time>
      </trkpt>
      <trkpt lat="46.47483" lon="5.44393">
        <ele>452.4</ele>
        <time>2022-05-16T14:38:54Z</time>
      </trkpt>
      <trkpt lat="46.47491" lon="5.44406">
        <ele>453.4</ele>
        <time>2022-05-16T14:38:57Z</time>
      </trkpt>
      <trkpt lat="46.47495" lon="5.44409">
        <ele>453.6</ele>
        <time>2022-05-16T14:38:58Z</time>
      </trkpt>
      <trkpt lat="46.47514" lon="5.44425">
        <ele>454.8</ele>
        <time>2022-05-16T14:39:03Z</time>
      </trkpt>
      <trkpt lat="46.47538" lon="5.44442">
        <ele>455.8</ele>
        <time>2022-05-16T14:39:09Z</time>
      </trkpt>
      <trkpt lat="46.4755" lon="5.44449">
        <ele>456.4</ele>
        <time>2022-05-16T14:39:12Z</time>
      </trkpt>
      <trkpt lat="46.47565" lon="5.44457">
        <ele>456.8</ele>
        <time>2022-05-16T14:39:16Z</time>
      </trkpt>
      <trkpt lat="46.47572" lon="5.44461">
        <ele>457.2</ele>
        <time>2022-05-16T14:39:18Z</time>
      </trkpt>
      <trkpt lat="46.47583" lon="5.44469">
        <ele>458</ele>
        <time>2022-05-16T14:39:21Z</time>
      </trkpt>
      <trkpt lat="46.47594" lon="5.44477">
        <ele>458.6</ele>
        <time>2022-05-16T14:39:24Z</time>
      </trkpt>
      <trkpt lat="46.47601" lon="5.44483">
        <ele>458.8</ele>
        <time>2022-05-16T14:39:26Z</time>
      </trkpt>
      <trkpt lat="46.47617" lon="5.44494">
        <ele>459.8</ele>
        <time>2022-05-16T14:39:30Z</time>
      </trkpt>
      <trkpt lat="46.4762" lon="5.44496">
        <ele>460</ele>
        <time>2022-05-16T14:39:31Z</time>
      </trkpt>
      <trkpt lat="46.47624" lon="5.44499">
        <ele>460.4</ele>
        <time>2022-05-16T14:39:32Z</time>
      </trkpt>
      <trkpt lat="46.47639" lon="5.4451">
        <ele>461.2</ele>
        <time>2022-05-16T14:39:36Z</time>
      </trkpt>
      <trkpt lat="46.47653" lon="5.44521">
        <ele>462.4</ele>
        <time>2022-05-16T14:39:40Z</time>
      </trkpt>
      <trkpt lat="46.47657" lon="5.44523">
        <ele>462.6</ele>
        <time>2022-05-16T14:39:41Z</time>
      </trkpt>
      <trkpt lat="46.47667" lon="5.4453">
        <ele>463.4</ele>
        <time>2022-05-16T14:39:44Z</time>
      </trkpt>
      <trkpt lat="46.47683" lon="5.44544">
        <ele>464.4</ele>
        <time>2022-05-16T14:39:49Z</time>
      </trkpt>
      <trkpt lat="46.47698" lon="5.44554">
        <ele>465.6</ele>
        <time>2022-05-16T14:39:53Z</time>
      </trkpt>
      <trkpt lat="46.47705" lon="5.44559">
        <ele>466.2</ele>
        <time>2022-05-16T14:39:55Z</time>
      </trkpt>
      <trkpt lat="46.47717" lon="5.44567">
        <ele>466.8</ele>
        <time>2022-05-16T14:39:58Z</time>
      </trkpt>
      <trkpt lat="46.47735" lon="5.4458">
        <ele>467.8</ele>
        <time>2022-05-16T14:40:03Z</time>
      </trkpt>
      <trkpt lat="46.47742" lon="5.44584">
        <ele>468.4</ele>
        <time>2022-05-16T14:40:05Z</time>
      </trkpt>
      <trkpt lat="46.47751" lon="5.4459">
        <ele>469</ele>
        <time>2022-05-16T14:40:07Z</time>
      </trkpt>
      <trkpt lat="46.47766" lon="5.44599">
        <ele>469.8</ele>
        <time>2022-05-16T14:40:11Z</time>
      </trkpt>
      <trkpt lat="46.47769" lon="5.44601">
        <ele>469.8</ele>
        <time>2022-05-16T14:40:12Z</time>
      </trkpt>
      <trkpt lat="46.47776" lon="5.44606">
        <ele>470</ele>
        <time>2022-05-16T14:40:14Z</time>
      </trkpt>
      <trkpt lat="46.47788" lon="5.44615">
        <ele>470.4</ele>
        <time>2022-05-16T14:40:17Z</time>
      </trkpt>
      <trkpt lat="46.47792" lon="5.44617">
        <ele>470.8</ele>
        <time>2022-05-16T14:40:18Z</time>
      </trkpt>
      <trkpt lat="46.47803" lon="5.44627">
        <ele>472</ele>
        <time>2022-05-16T14:40:21Z</time>
      </trkpt>
      <trkpt lat="46.47815" lon="5.44634">
        <ele>472.6</ele>
        <time>2022-05-16T14:40:24Z</time>
      </trkpt>
      <trkpt lat="46.47823" lon="5.44639">
        <ele>473.2</ele>
        <time>2022-05-16T14:40:26Z</time>
      </trkpt>
      <trkpt lat="46.47835" lon="5.44647">
        <ele>474.4</ele>
        <time>2022-05-16T14:40:30Z</time>
      </trkpt>
      <trkpt lat="46.47849" lon="5.44655">
        <ele>475.6</ele>
        <time>2022-05-16T14:40:35Z</time>
      </trkpt>
      <trkpt lat="46.47861" lon="5.44662">
        <ele>476.8</ele>
        <time>2022-05-16T14:40:39Z</time>
      </trkpt>
      <trkpt lat="46.47873" lon="5.44668">
        <ele>477.6</ele>
        <time>2022-05-16T14:40:43Z</time>
      </trkpt>
      <trkpt lat="46.47888" lon="5.44675">
        <ele>478.6</ele>
        <time>2022-05-16T14:40:48Z</time>
      </trkpt>
      <trkpt lat="46.47892" lon="5.44677">
        <ele>478.8</ele>
        <time>2022-05-16T14:40:49Z</time>
      </trkpt>
      <trkpt lat="46.4791" lon="5.44684">
        <ele>480</ele>
        <time>2022-05-16T14:40:55Z</time>
      </trkpt>
      <trkpt lat="46.47922" lon="5.44687">
        <ele>481.2</ele>
        <time>2022-05-16T14:40:59Z</time>
      </trkpt>
      <trkpt lat="46.47925" lon="5.44688">
        <ele>481.6</ele>
        <time>2022-05-16T14:41:00Z</time>
      </trkpt>
      <trkpt lat="46.47936" lon="5.44692">
        <ele>482.4</ele>
        <time>2022-05-16T14:41:03Z</time>
      </trkpt>
      <trkpt lat="46.47959" lon="5.447">
        <ele>483.8</ele>
        <time>2022-05-16T14:41:09Z</time>
      </trkpt>
      <trkpt lat="46.4798" lon="5.44707">
        <ele>485</ele>
        <time>2022-05-16T14:41:14Z</time>
      </trkpt>
      <trkpt lat="46.47986" lon="5.44709">
        <ele>485.4</ele>
        <time>2022-05-16T14:41:16Z</time>
      </trkpt>
      <trkpt lat="46.48009" lon="5.44709">
        <ele>486.2</ele>
        <time>2022-05-16T14:41:21Z</time>
      </trkpt>
      <trkpt lat="46.48029" lon="5.44697">
        <ele>487.2</ele>
        <time>2022-05-16T14:41:26Z</time>
      </trkpt>
      <trkpt lat="46.48036" lon="5.44677">
        <ele>488.2</ele>
        <time>2022-05-16T14:41:31Z</time>
      </trkpt>
      <trkpt lat="46.4804" lon="5.4467">
        <ele>489</ele>
        <time>2022-05-16T14:41:33Z</time>
      </trkpt>
      <trkpt lat="46.48043" lon="5.44667">
        <ele>489</ele>
        <time>2022-05-16T14:41:34Z</time>
      </trkpt>
      <trkpt lat="46.48046" lon="5.44664">
        <ele>489.6</ele>
        <time>2022-05-16T14:41:35Z</time>
      </trkpt>
      <trkpt lat="46.48054" lon="5.44654">
        <ele>490.8</ele>
        <time>2022-05-16T14:41:38Z</time>
      </trkpt>
      <trkpt lat="46.4806" lon="5.44647">
        <ele>491.6</ele>
        <time>2022-05-16T14:41:40Z</time>
      </trkpt>
      <trkpt lat="46.48062" lon="5.44644">
        <ele>491.8</ele>
        <time>2022-05-16T14:41:41Z</time>
      </trkpt>
      <trkpt lat="46.48071" lon="5.44624">
        <ele>493</ele>
        <time>2022-05-16T14:41:46Z</time>
      </trkpt>
      <trkpt lat="46.48069" lon="5.44602">
        <ele>493.8</ele>
        <time>2022-05-16T14:41:50Z</time>
      </trkpt>
      <trkpt lat="46.48067" lon="5.44596">
        <ele>494</ele>
        <time>2022-05-16T14:41:51Z</time>
      </trkpt>
      <trkpt lat="46.48063" lon="5.44568">
        <ele>494.8</ele>
        <time>2022-05-16T14:41:55Z</time>
      </trkpt>
      <trkpt lat="46.48048" lon="5.44533">
        <ele>494.6</ele>
        <time>2022-05-16T14:41:59Z</time>
      </trkpt>
      <trkpt lat="46.4804" lon="5.44512">
        <ele>494.6</ele>
        <time>2022-05-16T14:42:01Z</time>
      </trkpt>
      <trkpt lat="46.48038" lon="5.44502">
        <ele>494.4</ele>
        <time>2022-05-16T14:42:02Z</time>
      </trkpt>
      <trkpt lat="46.48035" lon="5.44491">
        <ele>494.2</ele>
        <time>2022-05-16T14:42:03Z</time>
      </trkpt>
      <trkpt lat="46.48032" lon="5.44469">
        <ele>494</ele>
        <time>2022-05-16T14:42:05Z</time>
      </trkpt>
      <trkpt lat="46.4803" lon="5.44459">
        <ele>493.6</ele>
        <time>2022-05-16T14:42:06Z</time>
      </trkpt>
      <trkpt lat="46.48026" lon="5.4443">
        <ele>492.8</ele>
        <time>2022-05-16T14:42:09Z</time>
      </trkpt>
      <trkpt lat="46.48024" lon="5.4442">
        <ele>492.8</ele>
        <time>2022-05-16T14:42:10Z</time>
      </trkpt>
      <trkpt lat="46.48021" lon="5.4441">
        <ele>492.8</ele>
        <time>2022-05-16T14:42:11Z</time>
      </trkpt>
      <trkpt lat="46.48018" lon="5.4439">
        <ele>492.6</ele>
        <time>2022-05-16T14:42:13Z</time>
      </trkpt>
      <trkpt lat="46.4801" lon="5.44372">
        <ele>492.8</ele>
        <time>2022-05-16T14:42:15Z</time>
      </trkpt>
      <trkpt lat="46.48004" lon="5.44364">
        <ele>492.8</ele>
        <time>2022-05-16T14:42:16Z</time>
      </trkpt>
      <trkpt lat="46.47999" lon="5.44356">
        <ele>492.8</ele>
        <time>2022-05-16T14:42:17Z</time>
      </trkpt>
      <trkpt lat="46.47997" lon="5.44338">
        <ele>492.8</ele>
        <time>2022-05-16T14:42:19Z</time>
      </trkpt>
      <trkpt lat="46.47993" lon="5.44319">
        <ele>493</ele>
        <time>2022-05-16T14:42:21Z</time>
      </trkpt>
      <trkpt lat="46.4799" lon="5.44309">
        <ele>493</ele>
        <time>2022-05-16T14:42:22Z</time>
      </trkpt>
      <trkpt lat="46.47986" lon="5.443">
        <ele>493</ele>
        <time>2022-05-16T14:42:23Z</time>
      </trkpt>
      <trkpt lat="46.47976" lon="5.44278">
        <ele>493</ele>
        <time>2022-05-16T14:42:25Z</time>
      </trkpt>
      <trkpt lat="46.47957" lon="5.44219">
        <ele>492.2</ele>
        <time>2022-05-16T14:42:30Z</time>
      </trkpt>
      <trkpt lat="46.47955" lon="5.44207">
        <ele>492</ele>
        <time>2022-05-16T14:42:31Z</time>
      </trkpt>
      <trkpt lat="46.47951" lon="5.44196">
        <ele>491.4</ele>
        <time>2022-05-16T14:42:32Z</time>
      </trkpt>
      <trkpt lat="46.47944" lon="5.44172">
        <ele>491</ele>
        <time>2022-05-16T14:42:34Z</time>
      </trkpt>
      <trkpt lat="46.47943" lon="5.44159">
        <ele>490.4</ele>
        <time>2022-05-16T14:42:35Z</time>
      </trkpt>
      <trkpt lat="46.47939" lon="5.44145">
        <ele>490.2</ele>
        <time>2022-05-16T14:42:36Z</time>
      </trkpt>
      <trkpt lat="46.47934" lon="5.44117">
        <ele>489.2</ele>
        <time>2022-05-16T14:42:38Z</time>
      </trkpt>
      <trkpt lat="46.47933" lon="5.44091">
        <ele>487.4</ele>
        <time>2022-05-16T14:42:40Z</time>
      </trkpt>
      <trkpt lat="46.47933" lon="5.44043">
        <ele>486.4</ele>
        <time>2022-05-16T14:42:44Z</time>
      </trkpt>
      <trkpt lat="46.47935" lon="5.43987">
        <ele>486</ele>
        <time>2022-05-16T14:42:49Z</time>
      </trkpt>
      <trkpt lat="46.47939" lon="5.43917">
        <ele>486.2</ele>
        <time>2022-05-16T14:42:56Z</time>
      </trkpt>
      <trkpt lat="46.47941" lon="5.43855">
        <ele>487.2</ele>
        <time>2022-05-16T14:43:03Z</time>
      </trkpt>
      <trkpt lat="46.47942" lon="5.43817">
        <ele>487.6</ele>
        <time>2022-05-16T14:43:07Z</time>
      </trkpt>
      <trkpt lat="46.47941" lon="5.43798">
        <ele>487.8</ele>
        <time>2022-05-16T14:43:09Z</time>
      </trkpt>
      <trkpt lat="46.47941" lon="5.43726">
        <ele>488.6</ele>
        <time>2022-05-16T14:43:17Z</time>
      </trkpt>
      <trkpt lat="46.47941" lon="5.43709">
        <ele>488.6</ele>
        <time>2022-05-16T14:43:19Z</time>
      </trkpt>
      <trkpt lat="46.47939" lon="5.4368">
        <ele>489</ele>
        <time>2022-05-16T14:43:23Z</time>
      </trkpt>
      <trkpt lat="46.47937" lon="5.43659">
        <ele>489.6</ele>
        <time>2022-05-16T14:43:26Z</time>
      </trkpt>
      <trkpt lat="46.47935" lon="5.43628">
        <ele>491</ele>
        <time>2022-05-16T14:43:31Z</time>
      </trkpt>
      <trkpt lat="46.47934" lon="5.43622">
        <ele>491.2</ele>
        <time>2022-05-16T14:43:32Z</time>
      </trkpt>
      <trkpt lat="46.47932" lon="5.43606">
        <ele>492.2</ele>
        <time>2022-05-16T14:43:35Z</time>
      </trkpt>
      <trkpt lat="46.47932" lon="5.43594">
        <ele>493.2</ele>
        <time>2022-05-16T14:43:37Z</time>
      </trkpt>
      <trkpt lat="46.47931" lon="5.43588">
        <ele>493.6</ele>
        <time>2022-05-16T14:43:38Z</time>
      </trkpt>
      <trkpt lat="46.4793" lon="5.43576">
        <ele>494.4</ele>
        <time>2022-05-16T14:43:40Z</time>
      </trkpt>
      <trkpt lat="46.47929" lon="5.43553">
        <ele>495.8</ele>
        <time>2022-05-16T14:43:44Z</time>
      </trkpt>
      <trkpt lat="46.4793" lon="5.43547">
        <ele>496</ele>
        <time>2022-05-16T14:43:45Z</time>
      </trkpt>
      <trkpt lat="46.4793" lon="5.43528">
        <ele>497</ele>
        <time>2022-05-16T14:43:48Z</time>
      </trkpt>
      <trkpt lat="46.4793" lon="5.43521">
        <ele>497.4</ele>
        <time>2022-05-16T14:43:49Z</time>
      </trkpt>
      <trkpt lat="46.47929" lon="5.43501">
        <ele>498</ele>
        <time>2022-05-16T14:43:52Z</time>
      </trkpt>
      <trkpt lat="46.47929" lon="5.43474">
        <ele>498.4</ele>
        <time>2022-05-16T14:43:56Z</time>
      </trkpt>
      <trkpt lat="46.4793" lon="5.43454">
        <ele>498.8</ele>
        <time>2022-05-16T14:43:59Z</time>
      </trkpt>
      <trkpt lat="46.47932" lon="5.43441">
        <ele>499</ele>
        <time>2022-05-16T14:44:01Z</time>
      </trkpt>
      <trkpt lat="46.47932" lon="5.43425">
        <ele>499</ele>
        <time>2022-05-16T14:44:03Z</time>
      </trkpt>
      <trkpt lat="46.47932" lon="5.43407">
        <ele>499.2</ele>
        <time>2022-05-16T14:44:05Z</time>
      </trkpt>
      <trkpt lat="46.47932" lon="5.43389">
        <ele>499.2</ele>
        <time>2022-05-16T14:44:07Z</time>
      </trkpt>
      <trkpt lat="46.47929" lon="5.4337">
        <ele>499.4</ele>
        <time>2022-05-16T14:44:09Z</time>
      </trkpt>
      <trkpt lat="46.47927" lon="5.43361">
        <ele>499.4</ele>
        <time>2022-05-16T14:44:10Z</time>
      </trkpt>
      <trkpt lat="46.47922" lon="5.43346">
        <ele>499.4</ele>
        <time>2022-05-16T14:44:12Z</time>
      </trkpt>
      <trkpt lat="46.47915" lon="5.43333">
        <ele>499.4</ele>
        <time>2022-05-16T14:44:14Z</time>
      </trkpt>
      <trkpt lat="46.47911" lon="5.43327">
        <ele>499.4</ele>
        <time>2022-05-16T14:44:15Z</time>
      </trkpt>
      <trkpt lat="46.47888" lon="5.43295">
        <ele>499.6</ele>
        <time>2022-05-16T14:44:21Z</time>
      </trkpt>
      <trkpt lat="46.47883" lon="5.43285">
        <ele>500</ele>
        <time>2022-05-16T14:44:23Z</time>
      </trkpt>
      <trkpt lat="46.47877" lon="5.43263">
        <ele>501.2</ele>
        <time>2022-05-16T14:44:27Z</time>
      </trkpt>
      <trkpt lat="46.47873" lon="5.43248">
        <ele>502.2</ele>
        <time>2022-05-16T14:44:30Z</time>
      </trkpt>
      <trkpt lat="46.47867" lon="5.43223">
        <ele>503.4</ele>
        <time>2022-05-16T14:44:35Z</time>
      </trkpt>
      <trkpt lat="46.47866" lon="5.43218">
        <ele>503.8</ele>
        <time>2022-05-16T14:44:36Z</time>
      </trkpt>
      <trkpt lat="46.47863" lon="5.43209">
        <ele>504.4</ele>
        <time>2022-05-16T14:44:38Z</time>
      </trkpt>
      <trkpt lat="46.47857" lon="5.43191">
        <ele>505.6</ele>
        <time>2022-05-16T14:44:42Z</time>
      </trkpt>
      <trkpt lat="46.47853" lon="5.43181">
        <ele>506</ele>
        <time>2022-05-16T14:44:44Z</time>
      </trkpt>
      <trkpt lat="46.47844" lon="5.43164">
        <ele>506.6</ele>
        <time>2022-05-16T14:44:48Z</time>
      </trkpt>
      <trkpt lat="46.47833" lon="5.43147">
        <ele>507.2</ele>
        <time>2022-05-16T14:44:52Z</time>
      </trkpt>
      <trkpt lat="46.47828" lon="5.43138">
        <ele>507.6</ele>
        <time>2022-05-16T14:44:54Z</time>
      </trkpt>
      <trkpt lat="46.47814" lon="5.4312">
        <ele>508.4</ele>
        <time>2022-05-16T14:44:59Z</time>
      </trkpt>
      <trkpt lat="46.47811" lon="5.43117">
        <ele>508.8</ele>
        <time>2022-05-16T14:45:00Z</time>
      </trkpt>
      <trkpt lat="46.47802" lon="5.43107">
        <ele>509.2</ele>
        <time>2022-05-16T14:45:03Z</time>
      </trkpt>
      <trkpt lat="46.47793" lon="5.431">
        <ele>509.8</ele>
        <time>2022-05-16T14:45:06Z</time>
      </trkpt>
      <trkpt lat="46.47788" lon="5.43094">
        <ele>510.6</ele>
        <time>2022-05-16T14:45:08Z</time>
      </trkpt>
      <trkpt lat="46.47785" lon="5.43091">
        <ele>510.8</ele>
        <time>2022-05-16T14:45:09Z</time>
      </trkpt>
      <trkpt lat="46.47773" lon="5.43077">
        <ele>512</ele>
        <time>2022-05-16T14:45:13Z</time>
      </trkpt>
      <trkpt lat="46.47771" lon="5.43073">
        <ele>512.4</ele>
        <time>2022-05-16T14:45:14Z</time>
      </trkpt>
      <trkpt lat="46.47768" lon="5.43058">
        <ele>513</ele>
        <time>2022-05-16T14:45:17Z</time>
      </trkpt>
      <trkpt lat="46.47768" lon="5.43047">
        <ele>513.6</ele>
        <time>2022-05-16T14:45:19Z</time>
      </trkpt>
      <trkpt lat="46.4777" lon="5.43032">
        <ele>514.4</ele>
        <time>2022-05-16T14:45:22Z</time>
      </trkpt>
      <trkpt lat="46.47771" lon="5.43006">
        <ele>515.4</ele>
        <time>2022-05-16T14:45:27Z</time>
      </trkpt>
      <trkpt lat="46.47769" lon="5.42986">
        <ele>516.4</ele>
        <time>2022-05-16T14:45:31Z</time>
      </trkpt>
      <trkpt lat="46.47766" lon="5.42972">
        <ele>517</ele>
        <time>2022-05-16T14:45:34Z</time>
      </trkpt>
      <trkpt lat="46.47763" lon="5.42964">
        <ele>517.6</ele>
        <time>2022-05-16T14:45:36Z</time>
      </trkpt>
      <trkpt lat="46.47757" lon="5.42951">
        <ele>518.6</ele>
        <time>2022-05-16T14:45:39Z</time>
      </trkpt>
      <trkpt lat="46.47754" lon="5.42943">
        <ele>519.2</ele>
        <time>2022-05-16T14:45:41Z</time>
      </trkpt>
      <trkpt lat="46.47746" lon="5.42932">
        <ele>520</ele>
        <time>2022-05-16T14:45:44Z</time>
      </trkpt>
      <trkpt lat="46.47737" lon="5.42922">
        <ele>520.8</ele>
        <time>2022-05-16T14:45:47Z</time>
      </trkpt>
      <trkpt lat="46.47734" lon="5.4292">
        <ele>521</ele>
        <time>2022-05-16T14:45:48Z</time>
      </trkpt>
      <trkpt lat="46.4773" lon="5.42918">
        <ele>521.2</ele>
        <time>2022-05-16T14:45:49Z</time>
      </trkpt>
      <trkpt lat="46.47719" lon="5.42915">
        <ele>522.2</ele>
        <time>2022-05-16T14:45:52Z</time>
      </trkpt>
      <trkpt lat="46.47716" lon="5.42914">
        <ele>522.2</ele>
        <time>2022-05-16T14:45:53Z</time>
      </trkpt>
      <trkpt lat="46.47695" lon="5.42913">
        <ele>523.2</ele>
        <time>2022-05-16T14:45:59Z</time>
      </trkpt>
      <trkpt lat="46.47684" lon="5.42913">
        <ele>524</ele>
        <time>2022-05-16T14:46:02Z</time>
      </trkpt>
      <trkpt lat="46.47676" lon="5.42913">
        <ele>524.4</ele>
        <time>2022-05-16T14:46:04Z</time>
      </trkpt>
      <trkpt lat="46.47658" lon="5.42914">
        <ele>525.4</ele>
        <time>2022-05-16T14:46:09Z</time>
      </trkpt>
      <trkpt lat="46.47648" lon="5.42914">
        <ele>525.8</ele>
        <time>2022-05-16T14:46:12Z</time>
      </trkpt>
      <trkpt lat="46.47637" lon="5.42913">
        <ele>526.4</ele>
        <time>2022-05-16T14:46:15Z</time>
      </trkpt>
      <trkpt lat="46.4762" lon="5.42903">
        <ele>527.4</ele>
        <time>2022-05-16T14:46:20Z</time>
      </trkpt>
      <trkpt lat="46.47615" lon="5.42888">
        <ele>528</ele>
        <time>2022-05-16T14:46:23Z</time>
      </trkpt>
      <trkpt lat="46.47617" lon="5.42871">
        <ele>528.6</ele>
        <time>2022-05-16T14:46:26Z</time>
      </trkpt>
      <trkpt lat="46.47619" lon="5.42866">
        <ele>528.8</ele>
        <time>2022-05-16T14:46:27Z</time>
      </trkpt>
      <trkpt lat="46.47625" lon="5.42853">
        <ele>530</ele>
        <time>2022-05-16T14:46:30Z</time>
      </trkpt>
      <trkpt lat="46.47633" lon="5.42841">
        <ele>531</ele>
        <time>2022-05-16T14:46:33Z</time>
      </trkpt>
      <trkpt lat="46.47636" lon="5.42837">
        <ele>531.2</ele>
        <time>2022-05-16T14:46:34Z</time>
      </trkpt>
      <trkpt lat="46.47646" lon="5.42827">
        <ele>532.2</ele>
        <time>2022-05-16T14:46:37Z</time>
      </trkpt>
      <trkpt lat="46.47656" lon="5.42817">
        <ele>532.6</ele>
        <time>2022-05-16T14:46:40Z</time>
      </trkpt>
      <trkpt lat="46.47663" lon="5.42811">
        <ele>533.2</ele>
        <time>2022-05-16T14:46:42Z</time>
      </trkpt>
      <trkpt lat="46.47666" lon="5.42806">
        <ele>533.6</ele>
        <time>2022-05-16T14:46:44Z</time>
      </trkpt>
      <trkpt lat="46.47668" lon="5.42803">
        <ele>534</ele>
        <time>2022-05-16T14:46:45Z</time>
      </trkpt>
      <trkpt lat="46.47677" lon="5.42797">
        <ele>534.4</ele>
        <time>2022-05-16T14:46:47Z</time>
      </trkpt>
      <trkpt lat="46.47681" lon="5.42796">
        <ele>534.4</ele>
        <time>2022-05-16T14:46:48Z</time>
      </trkpt>
      <trkpt lat="46.47697" lon="5.42791">
        <ele>535.6</ele>
        <time>2022-05-16T14:46:52Z</time>
      </trkpt>
      <trkpt lat="46.47705" lon="5.42789">
        <ele>535.8</ele>
        <time>2022-05-16T14:46:54Z</time>
      </trkpt>
      <trkpt lat="46.47712" lon="5.42787">
        <ele>536.6</ele>
        <time>2022-05-16T14:46:56Z</time>
      </trkpt>
      <trkpt lat="46.47724" lon="5.42786">
        <ele>537.6</ele>
        <time>2022-05-16T14:47:00Z</time>
      </trkpt>
      <trkpt lat="46.47728" lon="5.42786">
        <ele>538</ele>
        <time>2022-05-16T14:47:01Z</time>
      </trkpt>
      <trkpt lat="46.47745" lon="5.42785">
        <ele>538.8</ele>
        <time>2022-05-16T14:47:05Z</time>
      </trkpt>
      <trkpt lat="46.47751" lon="5.42784">
        <ele>539</ele>
        <time>2022-05-16T14:47:06Z</time>
      </trkpt>
      <trkpt lat="46.47772" lon="5.42776">
        <ele>539.6</ele>
        <time>2022-05-16T14:47:10Z</time>
      </trkpt>
      <trkpt lat="46.47786" lon="5.42767">
        <ele>539.6</ele>
        <time>2022-05-16T14:47:12Z</time>
      </trkpt>
      <trkpt lat="46.47793" lon="5.42754">
        <ele>539.4</ele>
        <time>2022-05-16T14:47:14Z</time>
      </trkpt>
      <trkpt lat="46.47799" lon="5.42739">
        <ele>539.4</ele>
        <time>2022-05-16T14:47:16Z</time>
      </trkpt>
      <trkpt lat="46.47807" lon="5.42713">
        <ele>539</ele>
        <time>2022-05-16T14:47:19Z</time>
      </trkpt>
      <trkpt lat="46.47812" lon="5.42681">
        <ele>538.6</ele>
        <time>2022-05-16T14:47:22Z</time>
      </trkpt>
      <trkpt lat="46.47813" lon="5.42669">
        <ele>538.2</ele>
        <time>2022-05-16T14:47:23Z</time>
      </trkpt>
      <trkpt lat="46.47813" lon="5.42632">
        <ele>537.4</ele>
        <time>2022-05-16T14:47:26Z</time>
      </trkpt>
      <trkpt lat="46.47812" lon="5.42603">
        <ele>536.4</ele>
        <time>2022-05-16T14:47:28Z</time>
      </trkpt>
      <trkpt lat="46.47812" lon="5.42588">
        <ele>536</ele>
        <time>2022-05-16T14:47:29Z</time>
      </trkpt>
      <trkpt lat="46.4781" lon="5.42554">
        <ele>534.6</ele>
        <time>2022-05-16T14:47:31Z</time>
      </trkpt>
      <trkpt lat="46.47806" lon="5.42521">
        <ele>533.4</ele>
        <time>2022-05-16T14:47:33Z</time>
      </trkpt>
      <trkpt lat="46.47804" lon="5.42503">
        <ele>533</ele>
        <time>2022-05-16T14:47:34Z</time>
      </trkpt>
      <trkpt lat="46.47801" lon="5.42485">
        <ele>532.4</ele>
        <time>2022-05-16T14:47:35Z</time>
      </trkpt>
      <trkpt lat="46.47798" lon="5.42466">
        <ele>531</ele>
        <time>2022-05-16T14:47:36Z</time>
      </trkpt>
      <trkpt lat="46.47792" lon="5.42427">
        <ele>529.4</ele>
        <time>2022-05-16T14:47:38Z</time>
      </trkpt>
      <trkpt lat="46.47787" lon="5.42407">
        <ele>529.2</ele>
        <time>2022-05-16T14:47:39Z</time>
      </trkpt>
      <trkpt lat="46.47778" lon="5.42367">
        <ele>526.2</ele>
        <time>2022-05-16T14:47:41Z</time>
      </trkpt>
      <trkpt lat="46.47773" lon="5.42347">
        <ele>523.6</ele>
        <time>2022-05-16T14:47:42Z</time>
      </trkpt>
      <trkpt lat="46.47768" lon="5.42326">
        <ele>521.4</ele>
        <time>2022-05-16T14:47:43Z</time>
      </trkpt>
      <trkpt lat="46.47763" lon="5.42307">
        <ele>520.2</ele>
        <time>2022-05-16T14:47:44Z</time>
      </trkpt>
      <trkpt lat="46.47758" lon="5.42287">
        <ele>518.2</ele>
        <time>2022-05-16T14:47:45Z</time>
      </trkpt>
      <trkpt lat="46.47752" lon="5.42267">
        <ele>516.8</ele>
        <time>2022-05-16T14:47:46Z</time>
      </trkpt>
      <trkpt lat="46.47746" lon="5.42249">
        <ele>515</ele>
        <time>2022-05-16T14:47:47Z</time>
      </trkpt>
      <trkpt lat="46.47733" lon="5.42214">
        <ele>513</ele>
        <time>2022-05-16T14:47:49Z</time>
      </trkpt>
      <trkpt lat="46.47727" lon="5.42197">
        <ele>512.2</ele>
        <time>2022-05-16T14:47:50Z</time>
      </trkpt>
      <trkpt lat="46.4772" lon="5.4218">
        <ele>512</ele>
        <time>2022-05-16T14:47:51Z</time>
      </trkpt>
      <trkpt lat="46.47703" lon="5.42133">
        <ele>510.8</ele>
        <time>2022-05-16T14:47:54Z</time>
      </trkpt>
      <trkpt lat="46.47693" lon="5.42103">
        <ele>509.4</ele>
        <time>2022-05-16T14:47:56Z</time>
      </trkpt>
      <trkpt lat="46.47676" lon="5.42029">
        <ele>508.6</ele>
        <time>2022-05-16T14:48:01Z</time>
      </trkpt>
      <trkpt lat="46.47663" lon="5.41945">
        <ele>508.6</ele>
        <time>2022-05-16T14:48:07Z</time>
      </trkpt>
      <trkpt lat="46.47648" lon="5.41889">
        <ele>509</ele>
        <time>2022-05-16T14:48:11Z</time>
      </trkpt>
      <trkpt lat="46.47627" lon="5.41835">
        <ele>508.4</ele>
        <time>2022-05-16T14:48:15Z</time>
      </trkpt>
      <trkpt lat="46.47617" lon="5.41809">
        <ele>507.6</ele>
        <time>2022-05-16T14:48:17Z</time>
      </trkpt>
      <trkpt lat="46.47608" lon="5.41784">
        <ele>507.2</ele>
        <time>2022-05-16T14:48:19Z</time>
      </trkpt>
      <trkpt lat="46.47592" lon="5.41752">
        <ele>506.8</ele>
        <time>2022-05-16T14:48:22Z</time>
      </trkpt>
      <trkpt lat="46.4757" lon="5.41721">
        <ele>507</ele>
        <time>2022-05-16T14:48:26Z</time>
      </trkpt>
      <trkpt lat="46.47537" lon="5.41696">
        <ele>507.4</ele>
        <time>2022-05-16T14:48:31Z</time>
      </trkpt>
      <trkpt lat="46.47512" lon="5.4168">
        <ele>508.6</ele>
        <time>2022-05-16T14:48:36Z</time>
      </trkpt>
      <trkpt lat="46.47494" lon="5.41666">
        <ele>509.6</ele>
        <time>2022-05-16T14:48:40Z</time>
      </trkpt>
      <trkpt lat="46.47471" lon="5.41645">
        <ele>510.8</ele>
        <time>2022-05-16T14:48:45Z</time>
      </trkpt>
      <trkpt lat="46.47443" lon="5.41625">
        <ele>511.6</ele>
        <time>2022-05-16T14:48:51Z</time>
      </trkpt>
      <trkpt lat="46.47434" lon="5.4162">
        <ele>511.8</ele>
        <time>2022-05-16T14:48:53Z</time>
      </trkpt>
      <trkpt lat="46.47416" lon="5.41609">
        <ele>512.8</ele>
        <time>2022-05-16T14:48:57Z</time>
      </trkpt>
      <trkpt lat="46.47395" lon="5.41597">
        <ele>513.4</ele>
        <time>2022-05-16T14:49:01Z</time>
      </trkpt>
      <trkpt lat="46.47368" lon="5.41584">
        <ele>513.8</ele>
        <time>2022-05-16T14:49:06Z</time>
      </trkpt>
      <trkpt lat="46.47349" lon="5.41573">
        <ele>514.4</ele>
        <time>2022-05-16T14:49:10Z</time>
      </trkpt>
      <trkpt lat="46.47341" lon="5.41567">
        <ele>515</ele>
        <time>2022-05-16T14:49:12Z</time>
      </trkpt>
      <trkpt lat="46.47328" lon="5.41556">
        <ele>516</ele>
        <time>2022-05-16T14:49:15Z</time>
      </trkpt>
      <trkpt lat="46.47325" lon="5.41552">
        <ele>516.2</ele>
        <time>2022-05-16T14:49:16Z</time>
      </trkpt>
      <trkpt lat="46.47321" lon="5.41548">
        <ele>516.6</ele>
        <time>2022-05-16T14:49:17Z</time>
      </trkpt>
      <trkpt lat="46.47314" lon="5.41541">
        <ele>517</ele>
        <time>2022-05-16T14:49:19Z</time>
      </trkpt>
      <trkpt lat="46.47301" lon="5.41526">
        <ele>518.2</ele>
        <time>2022-05-16T14:49:23Z</time>
      </trkpt>
      <trkpt lat="46.47296" lon="5.41518">
        <ele>518.6</ele>
        <time>2022-05-16T14:49:25Z</time>
      </trkpt>
      <trkpt lat="46.47287" lon="5.41504">
        <ele>519.6</ele>
        <time>2022-05-16T14:49:28Z</time>
      </trkpt>
      <trkpt lat="46.47274" lon="5.41481">
        <ele>521</ele>
        <time>2022-05-16T14:49:33Z</time>
      </trkpt>
      <trkpt lat="46.47271" lon="5.41477">
        <ele>521.2</ele>
        <time>2022-05-16T14:49:34Z</time>
      </trkpt>
      <trkpt lat="46.47266" lon="5.41467">
        <ele>522</ele>
        <time>2022-05-16T14:49:36Z</time>
      </trkpt>
      <trkpt lat="46.47253" lon="5.41445">
        <ele>523.2</ele>
        <time>2022-05-16T14:49:41Z</time>
      </trkpt>
      <trkpt lat="46.47246" lon="5.41433">
        <ele>524</ele>
        <time>2022-05-16T14:49:44Z</time>
      </trkpt>
      <trkpt lat="46.47243" lon="5.41429">
        <ele>524.4</ele>
        <time>2022-05-16T14:49:45Z</time>
      </trkpt>
      <trkpt lat="46.47231" lon="5.41407">
        <ele>525.4</ele>
        <time>2022-05-16T14:49:50Z</time>
      </trkpt>
      <trkpt lat="46.47221" lon="5.4139">
        <ele>526.8</ele>
        <time>2022-05-16T14:49:54Z</time>
      </trkpt>
      <trkpt lat="46.47213" lon="5.41378">
        <ele>528.2</ele>
        <time>2022-05-16T14:49:57Z</time>
      </trkpt>
      <trkpt lat="46.47207" lon="5.41369">
        <ele>528.8</ele>
        <time>2022-05-16T14:49:59Z</time>
      </trkpt>
      <trkpt lat="46.47198" lon="5.41355">
        <ele>529.2</ele>
        <time>2022-05-16T14:50:02Z</time>
      </trkpt>
      <trkpt lat="46.47195" lon="5.41349">
        <ele>529.4</ele>
        <time>2022-05-16T14:50:03Z</time>
      </trkpt>
      <trkpt lat="46.47187" lon="5.41331">
        <ele>529.8</ele>
        <time>2022-05-16T14:50:06Z</time>
      </trkpt>
      <trkpt lat="46.47177" lon="5.41299">
        <ele>530.4</ele>
        <time>2022-05-16T14:50:11Z</time>
      </trkpt>
      <trkpt lat="46.47174" lon="5.41286">
        <ele>530.6</ele>
        <time>2022-05-16T14:50:13Z</time>
      </trkpt>
      <trkpt lat="46.47167" lon="5.41242">
        <ele>531</ele>
        <time>2022-05-16T14:50:19Z</time>
      </trkpt>
      <trkpt lat="46.47156" lon="5.41187">
        <ele>531</ele>
        <time>2022-05-16T14:50:25Z</time>
      </trkpt>
      <trkpt lat="46.4714" lon="5.41142">
        <ele>530.8</ele>
        <time>2022-05-16T14:50:30Z</time>
      </trkpt>
      <trkpt lat="46.47109" lon="5.41081">
        <ele>530.6</ele>
        <time>2022-05-16T14:50:37Z</time>
      </trkpt>
      <trkpt lat="46.47094" lon="5.4106">
        <ele>530.4</ele>
        <time>2022-05-16T14:50:40Z</time>
      </trkpt>
      <trkpt lat="46.47077" lon="5.41043">
        <ele>530.4</ele>
        <time>2022-05-16T14:50:43Z</time>
      </trkpt>
      <trkpt lat="46.47046" lon="5.41016">
        <ele>531.4</ele>
        <time>2022-05-16T14:50:49Z</time>
      </trkpt>
      <trkpt lat="46.4704" lon="5.41011">
        <ele>531.8</ele>
        <time>2022-05-16T14:50:50Z</time>
      </trkpt>
      <trkpt lat="46.47024" lon="5.40992">
        <ele>533</ele>
        <time>2022-05-16T14:50:53Z</time>
      </trkpt>
      <trkpt lat="46.47014" lon="5.40978">
        <ele>533.4</ele>
        <time>2022-05-16T14:50:55Z</time>
      </trkpt>
      <trkpt lat="46.47001" lon="5.40957">
        <ele>534</ele>
        <time>2022-05-16T14:50:58Z</time>
      </trkpt>
      <trkpt lat="46.46994" lon="5.40941">
        <ele>534.2</ele>
        <time>2022-05-16T14:51:00Z</time>
      </trkpt>
      <trkpt lat="46.46988" lon="5.40918">
        <ele>535</ele>
        <time>2022-05-16T14:51:03Z</time>
      </trkpt>
      <trkpt lat="46.46985" lon="5.40903">
        <ele>535.4</ele>
        <time>2022-05-16T14:51:05Z</time>
      </trkpt>
      <trkpt lat="46.46983" lon="5.4088">
        <ele>536</ele>
        <time>2022-05-16T14:51:08Z</time>
      </trkpt>
      <trkpt lat="46.46979" lon="5.40847">
        <ele>536.8</ele>
        <time>2022-05-16T14:51:12Z</time>
      </trkpt>
      <trkpt lat="46.46976" lon="5.40831">
        <ele>537.2</ele>
        <time>2022-05-16T14:51:14Z</time>
      </trkpt>
      <trkpt lat="46.46969" lon="5.40782">
        <ele>537.8</ele>
        <time>2022-05-16T14:51:20Z</time>
      </trkpt>
      <trkpt lat="46.46964" lon="5.4074">
        <ele>538</ele>
        <time>2022-05-16T14:51:24Z</time>
      </trkpt>
      <trkpt lat="46.46954" lon="5.40663">
        <ele>536</ele>
        <time>2022-05-16T14:51:30Z</time>
      </trkpt>
      <trkpt lat="46.46949" lon="5.40624">
        <ele>534.6</ele>
        <time>2022-05-16T14:51:33Z</time>
      </trkpt>
      <trkpt lat="46.46944" lon="5.40575">
        <ele>533.4</ele>
        <time>2022-05-16T14:51:37Z</time>
      </trkpt>
      <trkpt lat="46.46938" lon="5.40516">
        <ele>532.2</ele>
        <time>2022-05-16T14:51:42Z</time>
      </trkpt>
      <trkpt lat="46.46936" lon="5.40504">
        <ele>532</ele>
        <time>2022-05-16T14:51:43Z</time>
      </trkpt>
      <trkpt lat="46.4693" lon="5.40457">
        <ele>531.2</ele>
        <time>2022-05-16T14:51:47Z</time>
      </trkpt>
      <trkpt lat="46.46927" lon="5.40433">
        <ele>530.8</ele>
        <time>2022-05-16T14:51:49Z</time>
      </trkpt>
      <trkpt lat="46.46921" lon="5.40368">
        <ele>530.2</ele>
        <time>2022-05-16T14:51:54Z</time>
      </trkpt>
      <trkpt lat="46.4692" lon="5.40355">
        <ele>529.6</ele>
        <time>2022-05-16T14:51:55Z</time>
      </trkpt>
      <trkpt lat="46.46915" lon="5.40305">
        <ele>528.4</ele>
        <time>2022-05-16T14:51:59Z</time>
      </trkpt>
      <trkpt lat="46.46914" lon="5.40295">
        <ele>528.4</ele>
        <time>2022-05-16T14:52:00Z</time>
      </trkpt>
      <trkpt lat="46.46914" lon="5.40278">
        <ele>527.8</ele>
        <time>2022-05-16T14:52:02Z</time>
      </trkpt>
      <trkpt lat="46.46915" lon="5.40273">
        <ele>527.6</ele>
        <time>2022-05-16T14:52:04Z</time>
      </trkpt>
      <trkpt lat="46.46916" lon="5.40274">
        <ele>527.6</ele>
        <time>2022-05-16T14:52:06Z</time>
      </trkpt>
      <trkpt lat="46.46925" lon="5.40279">
        <ele>527.6</ele>
        <time>2022-05-16T14:52:07Z</time>
      </trkpt>
      <trkpt lat="46.46949" lon="5.40293">
        <ele>528</ele>
        <time>2022-05-16T14:52:10Z</time>
      </trkpt>
      <trkpt lat="46.46955" lon="5.40297">
        <ele>528.2</ele>
        <time>2022-05-16T14:52:11Z</time>
      </trkpt>
      <trkpt lat="46.46987" lon="5.40313">
        <ele>529.6</ele>
        <time>2022-05-16T14:52:16Z</time>
      </trkpt>
      <trkpt lat="46.47002" lon="5.40318">
        <ele>530.4</ele>
        <time>2022-05-16T14:52:18Z</time>
      </trkpt>
      <trkpt lat="46.47009" lon="5.40319">
        <ele>530.6</ele>
        <time>2022-05-16T14:52:19Z</time>
      </trkpt>
      <trkpt lat="46.47047" lon="5.40324">
        <ele>531.6</ele>
        <time>2022-05-16T14:52:24Z</time>
      </trkpt>
      <trkpt lat="46.47097" lon="5.40329">
        <ele>531.6</ele>
        <time>2022-05-16T14:52:30Z</time>
      </trkpt>
      <trkpt lat="46.47126" lon="5.40334">
        <ele>530.4</ele>
        <time>2022-05-16T14:52:33Z</time>
      </trkpt>
      <trkpt lat="46.47158" lon="5.40344">
        <ele>529.4</ele>
        <time>2022-05-16T14:52:36Z</time>
      </trkpt>
      <trkpt lat="46.47169" lon="5.40348">
        <ele>529.2</ele>
        <time>2022-05-16T14:52:37Z</time>
      </trkpt>
      <trkpt lat="46.47187" lon="5.4036">
        <ele>527.8</ele>
        <time>2022-05-16T14:52:39Z</time>
      </trkpt>
      <trkpt lat="46.47196" lon="5.40367">
        <ele>527.4</ele>
        <time>2022-05-16T14:52:40Z</time>
      </trkpt>
      <trkpt lat="46.47205" lon="5.40375">
        <ele>526.8</ele>
        <time>2022-05-16T14:52:41Z</time>
      </trkpt>
      <trkpt lat="46.4722" lon="5.40398">
        <ele>525.6</ele>
        <time>2022-05-16T14:52:43Z</time>
      </trkpt>
      <trkpt lat="46.47235" lon="5.40418">
        <ele>524.8</ele>
        <time>2022-05-16T14:52:45Z</time>
      </trkpt>
      <trkpt lat="46.47244" lon="5.40426">
        <ele>524.6</ele>
        <time>2022-05-16T14:52:46Z</time>
      </trkpt>
      <trkpt lat="46.47254" lon="5.40432">
        <ele>524</ele>
        <time>2022-05-16T14:52:47Z</time>
      </trkpt>
      <trkpt lat="46.47265" lon="5.40437">
        <ele>523.4</ele>
        <time>2022-05-16T14:52:48Z</time>
      </trkpt>
      <trkpt lat="46.47298" lon="5.40445">
        <ele>522.2</ele>
        <time>2022-05-16T14:52:51Z</time>
      </trkpt>
      <trkpt lat="46.47308" lon="5.40447">
        <ele>521</ele>
        <time>2022-05-16T14:52:52Z</time>
      </trkpt>
      <trkpt lat="46.4733" lon="5.4045">
        <ele>520</ele>
        <time>2022-05-16T14:52:54Z</time>
      </trkpt>
      <trkpt lat="46.47342" lon="5.40451">
        <ele>519.4</ele>
        <time>2022-05-16T14:52:55Z</time>
      </trkpt>
      <trkpt lat="46.47366" lon="5.40452">
        <ele>518.6</ele>
        <time>2022-05-16T14:52:57Z</time>
      </trkpt>
      <trkpt lat="46.47392" lon="5.40451">
        <ele>517.4</ele>
        <time>2022-05-16T14:52:59Z</time>
      </trkpt>
      <trkpt lat="46.47404" lon="5.4045">
        <ele>517</ele>
        <time>2022-05-16T14:53:00Z</time>
      </trkpt>
      <trkpt lat="46.47427" lon="5.40449">
        <ele>516</ele>
        <time>2022-05-16T14:53:02Z</time>
      </trkpt>
      <trkpt lat="46.4745" lon="5.4045">
        <ele>514.4</ele>
        <time>2022-05-16T14:53:04Z</time>
      </trkpt>
      <trkpt lat="46.47474" lon="5.40453">
        <ele>513.4</ele>
        <time>2022-05-16T14:53:06Z</time>
      </trkpt>
      <trkpt lat="46.47484" lon="5.40457">
        <ele>513.2</ele>
        <time>2022-05-16T14:53:07Z</time>
      </trkpt>
      <trkpt lat="46.47504" lon="5.4047">
        <ele>511.4</ele>
        <time>2022-05-16T14:53:09Z</time>
      </trkpt>
      <trkpt lat="46.47524" lon="5.40488">
        <ele>510.2</ele>
        <time>2022-05-16T14:53:11Z</time>
      </trkpt>
      <trkpt lat="46.47537" lon="5.40491">
        <ele>509.6</ele>
        <time>2022-05-16T14:53:12Z</time>
      </trkpt>
      <trkpt lat="46.4755" lon="5.40481">
        <ele>509</ele>
        <time>2022-05-16T14:53:13Z</time>
      </trkpt>
      <trkpt lat="46.47551" lon="5.40466">
        <ele>508.8</ele>
        <time>2022-05-16T14:53:14Z</time>
      </trkpt>
      <trkpt lat="46.47552" lon="5.40447">
        <ele>508</ele>
        <time>2022-05-16T14:53:15Z</time>
      </trkpt>
      <trkpt lat="46.4755" lon="5.40431">
        <ele>506.8</ele>
        <time>2022-05-16T14:53:16Z</time>
      </trkpt>
      <trkpt lat="46.47547" lon="5.40414">
        <ele>506.4</ele>
        <time>2022-05-16T14:53:17Z</time>
      </trkpt>
      <trkpt lat="46.47537" lon="5.40383">
        <ele>505.2</ele>
        <time>2022-05-16T14:53:19Z</time>
      </trkpt>
      <trkpt lat="46.47526" lon="5.40354">
        <ele>504.4</ele>
        <time>2022-05-16T14:53:21Z</time>
      </trkpt>
      <trkpt lat="46.47525" lon="5.40338">
        <ele>503.4</ele>
        <time>2022-05-16T14:53:22Z</time>
      </trkpt>
      <trkpt lat="46.47526" lon="5.40321">
        <ele>503</ele>
        <time>2022-05-16T14:53:23Z</time>
      </trkpt>
      <trkpt lat="46.4753" lon="5.40305">
        <ele>502.6</ele>
        <time>2022-05-16T14:53:24Z</time>
      </trkpt>
      <trkpt lat="46.47536" lon="5.40294">
        <ele>502</ele>
        <time>2022-05-16T14:53:25Z</time>
      </trkpt>
      <trkpt lat="46.47556" lon="5.40273">
        <ele>500.2</ele>
        <time>2022-05-16T14:53:27Z</time>
      </trkpt>
      <trkpt lat="46.47566" lon="5.40265">
        <ele>499.8</ele>
        <time>2022-05-16T14:53:28Z</time>
      </trkpt>
      <trkpt lat="46.47577" lon="5.40259">
        <ele>499</ele>
        <time>2022-05-16T14:53:29Z</time>
      </trkpt>
      <trkpt lat="46.47589" lon="5.40255">
        <ele>498.6</ele>
        <time>2022-05-16T14:53:30Z</time>
      </trkpt>
      <trkpt lat="46.47601" lon="5.40253">
        <ele>497.8</ele>
        <time>2022-05-16T14:53:31Z</time>
      </trkpt>
      <trkpt lat="46.47623" lon="5.40248">
        <ele>496.8</ele>
        <time>2022-05-16T14:53:33Z</time>
      </trkpt>
      <trkpt lat="46.47646" lon="5.40246">
        <ele>496</ele>
        <time>2022-05-16T14:53:35Z</time>
      </trkpt>
      <trkpt lat="46.47658" lon="5.40246">
        <ele>495.2</ele>
        <time>2022-05-16T14:53:36Z</time>
      </trkpt>
      <trkpt lat="46.47669" lon="5.40245">
        <ele>495</ele>
        <time>2022-05-16T14:53:37Z</time>
      </trkpt>
      <trkpt lat="46.4769" lon="5.40235">
        <ele>493.8</ele>
        <time>2022-05-16T14:53:39Z</time>
      </trkpt>
      <trkpt lat="46.47716" lon="5.40204">
        <ele>492.8</ele>
        <time>2022-05-16T14:53:42Z</time>
      </trkpt>
      <trkpt lat="46.47733" lon="5.40179">
        <ele>491.8</ele>
        <time>2022-05-16T14:53:44Z</time>
      </trkpt>
      <trkpt lat="46.47738" lon="5.40167">
        <ele>491</ele>
        <time>2022-05-16T14:53:45Z</time>
      </trkpt>
      <trkpt lat="46.47745" lon="5.40155">
        <ele>489.8</ele>
        <time>2022-05-16T14:53:46Z</time>
      </trkpt>
      <trkpt lat="46.47758" lon="5.40126">
        <ele>488.2</ele>
        <time>2022-05-16T14:53:48Z</time>
      </trkpt>
      <trkpt lat="46.47766" lon="5.40094">
        <ele>487</ele>
        <time>2022-05-16T14:53:50Z</time>
      </trkpt>
      <trkpt lat="46.47768" lon="5.40078">
        <ele>486.8</ele>
        <time>2022-05-16T14:53:51Z</time>
      </trkpt>
      <trkpt lat="46.47765" lon="5.40045">
        <ele>486</ele>
        <time>2022-05-16T14:53:53Z</time>
      </trkpt>
      <trkpt lat="46.47766" lon="5.40027">
        <ele>485.6</ele>
        <time>2022-05-16T14:53:54Z</time>
      </trkpt>
      <trkpt lat="46.47769" lon="5.40014">
        <ele>484.6</ele>
        <time>2022-05-16T14:53:55Z</time>
      </trkpt>
      <trkpt lat="46.47773" lon="5.40005">
        <ele>484.2</ele>
        <time>2022-05-16T14:53:56Z</time>
      </trkpt>
      <trkpt lat="46.47777" lon="5.39999">
        <ele>483</ele>
        <time>2022-05-16T14:53:57Z</time>
      </trkpt>
      <trkpt lat="46.47785" lon="5.39995">
        <ele>482.6</ele>
        <time>2022-05-16T14:53:58Z</time>
      </trkpt>
      <trkpt lat="46.47794" lon="5.3999">
        <ele>481.8</ele>
        <time>2022-05-16T14:53:59Z</time>
      </trkpt>
      <trkpt lat="46.47816" lon="5.39977">
        <ele>481</ele>
        <time>2022-05-16T14:54:01Z</time>
      </trkpt>
      <trkpt lat="46.4783" lon="5.39971">
        <ele>480</ele>
        <time>2022-05-16T14:54:02Z</time>
      </trkpt>
      <trkpt lat="46.47855" lon="5.39958">
        <ele>478.8</ele>
        <time>2022-05-16T14:54:04Z</time>
      </trkpt>
      <trkpt lat="46.4788" lon="5.39945">
        <ele>477.4</ele>
        <time>2022-05-16T14:54:06Z</time>
      </trkpt>
      <trkpt lat="46.47904" lon="5.39931">
        <ele>476.4</ele>
        <time>2022-05-16T14:54:08Z</time>
      </trkpt>
      <trkpt lat="46.47929" lon="5.39918">
        <ele>475.2</ele>
        <time>2022-05-16T14:54:10Z</time>
      </trkpt>
      <trkpt lat="46.47953" lon="5.39905">
        <ele>474.2</ele>
        <time>2022-05-16T14:54:12Z</time>
      </trkpt>
      <trkpt lat="46.47977" lon="5.39895">
        <ele>473</ele>
        <time>2022-05-16T14:54:14Z</time>
      </trkpt>
      <trkpt lat="46.47999" lon="5.39886">
        <ele>471.8</ele>
        <time>2022-05-16T14:54:16Z</time>
      </trkpt>
      <trkpt lat="46.48021" lon="5.39886">
        <ele>471</ele>
        <time>2022-05-16T14:54:18Z</time>
      </trkpt>
      <trkpt lat="46.48031" lon="5.3989">
        <ele>470.8</ele>
        <time>2022-05-16T14:54:19Z</time>
      </trkpt>
      <trkpt lat="46.48049" lon="5.39901">
        <ele>470.4</ele>
        <time>2022-05-16T14:54:21Z</time>
      </trkpt>
      <trkpt lat="46.48058" lon="5.39906">
        <ele>470.4</ele>
        <time>2022-05-16T14:54:22Z</time>
      </trkpt>
      <trkpt lat="46.48077" lon="5.3991">
        <ele>470.2</ele>
        <time>2022-05-16T14:54:24Z</time>
      </trkpt>
      <trkpt lat="46.48106" lon="5.39908">
        <ele>469.8</ele>
        <time>2022-05-16T14:54:27Z</time>
      </trkpt>
      <trkpt lat="46.48115" lon="5.39906">
        <ele>469.6</ele>
        <time>2022-05-16T14:54:28Z</time>
      </trkpt>
      <trkpt lat="46.48154" lon="5.39889">
        <ele>469.4</ele>
        <time>2022-05-16T14:54:32Z</time>
      </trkpt>
      <trkpt lat="46.48191" lon="5.39861">
        <ele>469.6</ele>
        <time>2022-05-16T14:54:36Z</time>
      </trkpt>
      <trkpt lat="46.48201" lon="5.3984">
        <ele>469.4</ele>
        <time>2022-05-16T14:54:38Z</time>
      </trkpt>
      <trkpt lat="46.48201" lon="5.39828">
        <ele>469.4</ele>
        <time>2022-05-16T14:54:39Z</time>
      </trkpt>
      <trkpt lat="46.48198" lon="5.39815">
        <ele>469.2</ele>
        <time>2022-05-16T14:54:40Z</time>
      </trkpt>
      <trkpt lat="46.4819" lon="5.39788">
        <ele>469</ele>
        <time>2022-05-16T14:54:42Z</time>
      </trkpt>
      <trkpt lat="46.48188" lon="5.39777">
        <ele>468.8</ele>
        <time>2022-05-16T14:54:43Z</time>
      </trkpt>
      <trkpt lat="46.48184" lon="5.3976">
        <ele>468.8</ele>
        <time>2022-05-16T14:54:44Z</time>
      </trkpt>
      <trkpt lat="46.48179" lon="5.39718">
        <ele>468.4</ele>
        <time>2022-05-16T14:54:47Z</time>
      </trkpt>
      <trkpt lat="46.48178" lon="5.39659">
        <ele>467.8</ele>
        <time>2022-05-16T14:54:51Z</time>
      </trkpt>
      <trkpt lat="46.4818" lon="5.39644">
        <ele>467.6</ele>
        <time>2022-05-16T14:54:52Z</time>
      </trkpt>
      <trkpt lat="46.48189" lon="5.39616">
        <ele>467</ele>
        <time>2022-05-16T14:54:54Z</time>
      </trkpt>
      <trkpt lat="46.48195" lon="5.39602">
        <ele>466</ele>
        <time>2022-05-16T14:54:55Z</time>
      </trkpt>
      <trkpt lat="46.48207" lon="5.39573">
        <ele>464.6</ele>
        <time>2022-05-16T14:54:57Z</time>
      </trkpt>
      <trkpt lat="46.48211" lon="5.39557">
        <ele>464.4</ele>
        <time>2022-05-16T14:54:58Z</time>
      </trkpt>
      <trkpt lat="46.48218" lon="5.39523">
        <ele>463.2</ele>
        <time>2022-05-16T14:55:00Z</time>
      </trkpt>
      <trkpt lat="46.48222" lon="5.39511">
        <ele>462.4</ele>
        <time>2022-05-16T14:55:01Z</time>
      </trkpt>
      <trkpt lat="46.4823" lon="5.39496">
        <ele>461.2</ele>
        <time>2022-05-16T14:55:02Z</time>
      </trkpt>
      <trkpt lat="46.48236" lon="5.39485">
        <ele>460.8</ele>
        <time>2022-05-16T14:55:03Z</time>
      </trkpt>
      <trkpt lat="46.48244" lon="5.39477">
        <ele>460</ele>
        <time>2022-05-16T14:55:04Z</time>
      </trkpt>
      <trkpt lat="46.48251" lon="5.39471">
        <ele>459.6</ele>
        <time>2022-05-16T14:55:05Z</time>
      </trkpt>
      <trkpt lat="46.48256" lon="5.39468">
        <ele>458.8</ele>
        <time>2022-05-16T14:55:06Z</time>
      </trkpt>
      <trkpt lat="46.48262" lon="5.39466">
        <ele>457.2</ele>
        <time>2022-05-16T14:55:07Z</time>
      </trkpt>
      <trkpt lat="46.48277" lon="5.39463">
        <ele>454.8</ele>
        <time>2022-05-16T14:55:09Z</time>
      </trkpt>
      <trkpt lat="46.48292" lon="5.39452">
        <ele>452.8</ele>
        <time>2022-05-16T14:55:11Z</time>
      </trkpt>
      <trkpt lat="46.48307" lon="5.39436">
        <ele>451.6</ele>
        <time>2022-05-16T14:55:13Z</time>
      </trkpt>
      <trkpt lat="46.48315" lon="5.39422">
        <ele>451</ele>
        <time>2022-05-16T14:55:14Z</time>
      </trkpt>
      <trkpt lat="46.48317" lon="5.39404">
        <ele>450.4</ele>
        <time>2022-05-16T14:55:15Z</time>
      </trkpt>
      <trkpt lat="46.48331" lon="5.39375">
        <ele>449.4</ele>
        <time>2022-05-16T14:55:17Z</time>
      </trkpt>
      <trkpt lat="46.48345" lon="5.39347">
        <ele>447.8</ele>
        <time>2022-05-16T14:55:19Z</time>
      </trkpt>
      <trkpt lat="46.48374" lon="5.39323">
        <ele>445.4</ele>
        <time>2022-05-16T14:55:22Z</time>
      </trkpt>
      <trkpt lat="46.48386" lon="5.39319">
        <ele>444.4</ele>
        <time>2022-05-16T14:55:23Z</time>
      </trkpt>
      <trkpt lat="46.48395" lon="5.39317">
        <ele>444.2</ele>
        <time>2022-05-16T14:55:24Z</time>
      </trkpt>
      <trkpt lat="46.48416" lon="5.39318">
        <ele>443.2</ele>
        <time>2022-05-16T14:55:26Z</time>
      </trkpt>
      <trkpt lat="46.4844" lon="5.39319">
        <ele>441.6</ele>
        <time>2022-05-16T14:55:28Z</time>
      </trkpt>
      <trkpt lat="46.48452" lon="5.39316">
        <ele>440</ele>
        <time>2022-05-16T14:55:29Z</time>
      </trkpt>
      <trkpt lat="46.48464" lon="5.39312">
        <ele>438.2</ele>
        <time>2022-05-16T14:55:30Z</time>
      </trkpt>
      <trkpt lat="46.48487" lon="5.39307">
        <ele>436.2</ele>
        <time>2022-05-16T14:55:32Z</time>
      </trkpt>
      <trkpt lat="46.48516" lon="5.39301">
        <ele>434.6</ele>
        <time>2022-05-16T14:55:34Z</time>
      </trkpt>
      <trkpt lat="46.48542" lon="5.39294">
        <ele>432.8</ele>
        <time>2022-05-16T14:55:36Z</time>
      </trkpt>
      <trkpt lat="46.48555" lon="5.39291">
        <ele>431.4</ele>
        <time>2022-05-16T14:55:37Z</time>
      </trkpt>
      <trkpt lat="46.48583" lon="5.39286">
        <ele>430.4</ele>
        <time>2022-05-16T14:55:39Z</time>
      </trkpt>
      <trkpt lat="46.48611" lon="5.39281">
        <ele>428.8</ele>
        <time>2022-05-16T14:55:41Z</time>
      </trkpt>
      <trkpt lat="46.48638" lon="5.39277">
        <ele>427</ele>
        <time>2022-05-16T14:55:43Z</time>
      </trkpt>
      <trkpt lat="46.4865" lon="5.39277">
        <ele>425.8</ele>
        <time>2022-05-16T14:55:44Z</time>
      </trkpt>
      <trkpt lat="46.48662" lon="5.39278">
        <ele>425.4</ele>
        <time>2022-05-16T14:55:45Z</time>
      </trkpt>
      <trkpt lat="46.48672" lon="5.3928">
        <ele>423</ele>
        <time>2022-05-16T14:55:46Z</time>
      </trkpt>
      <trkpt lat="46.48685" lon="5.39284">
        <ele>421.8</ele>
        <time>2022-05-16T14:55:47Z</time>
      </trkpt>
      <trkpt lat="46.48695" lon="5.39289">
        <ele>420.4</ele>
        <time>2022-05-16T14:55:48Z</time>
      </trkpt>
      <trkpt lat="46.48712" lon="5.39301">
        <ele>418.4</ele>
        <time>2022-05-16T14:55:50Z</time>
      </trkpt>
      <trkpt lat="46.4872" lon="5.39305">
        <ele>418</ele>
        <time>2022-05-16T14:55:51Z</time>
      </trkpt>
      <trkpt lat="46.48728" lon="5.39305">
        <ele>417.4</ele>
        <time>2022-05-16T14:55:52Z</time>
      </trkpt>
      <trkpt lat="46.48736" lon="5.39302">
        <ele>415.6</ele>
        <time>2022-05-16T14:55:53Z</time>
      </trkpt>
      <trkpt lat="46.48738" lon="5.39294">
        <ele>414.8</ele>
        <time>2022-05-16T14:55:54Z</time>
      </trkpt>
      <trkpt lat="46.48736" lon="5.39282">
        <ele>413.8</ele>
        <time>2022-05-16T14:55:55Z</time>
      </trkpt>
      <trkpt lat="46.48733" lon="5.3927">
        <ele>413.4</ele>
        <time>2022-05-16T14:55:56Z</time>
      </trkpt>
      <trkpt lat="46.48728" lon="5.3926">
        <ele>411.8</ele>
        <time>2022-05-16T14:55:57Z</time>
      </trkpt>
      <trkpt lat="46.48715" lon="5.39236">
        <ele>409.8</ele>
        <time>2022-05-16T14:55:59Z</time>
      </trkpt>
      <trkpt lat="46.48696" lon="5.39211">
        <ele>408.2</ele>
        <time>2022-05-16T14:56:01Z</time>
      </trkpt>
      <trkpt lat="46.48685" lon="5.39198">
        <ele>407.2</ele>
        <time>2022-05-16T14:56:02Z</time>
      </trkpt>
      <trkpt lat="46.48666" lon="5.39171">
        <ele>405.8</ele>
        <time>2022-05-16T14:56:04Z</time>
      </trkpt>
      <trkpt lat="46.48646" lon="5.39145">
        <ele>404.4</ele>
        <time>2022-05-16T14:56:06Z</time>
      </trkpt>
      <trkpt lat="46.48621" lon="5.39124">
        <ele>403.2</ele>
        <time>2022-05-16T14:56:08Z</time>
      </trkpt>
      <trkpt lat="46.48608" lon="5.39115">
        <ele>402.2</ele>
        <time>2022-05-16T14:56:09Z</time>
      </trkpt>
      <trkpt lat="46.48582" lon="5.39096">
        <ele>399.6</ele>
        <time>2022-05-16T14:56:11Z</time>
      </trkpt>
      <trkpt lat="46.48555" lon="5.39078">
        <ele>397.4</ele>
        <time>2022-05-16T14:56:13Z</time>
      </trkpt>
      <trkpt lat="46.48526" lon="5.39061">
        <ele>395</ele>
        <time>2022-05-16T14:56:15Z</time>
      </trkpt>
      <trkpt lat="46.48513" lon="5.39049">
        <ele>393.6</ele>
        <time>2022-05-16T14:56:16Z</time>
      </trkpt>
      <trkpt lat="46.485" lon="5.39033">
        <ele>392.8</ele>
        <time>2022-05-16T14:56:17Z</time>
      </trkpt>
      <trkpt lat="46.48491" lon="5.39015">
        <ele>391.2</ele>
        <time>2022-05-16T14:56:18Z</time>
      </trkpt>
      <trkpt lat="46.48487" lon="5.38996">
        <ele>390.4</ele>
        <time>2022-05-16T14:56:19Z</time>
      </trkpt>
      <trkpt lat="46.48482" lon="5.38976">
        <ele>389.2</ele>
        <time>2022-05-16T14:56:20Z</time>
      </trkpt>
      <trkpt lat="46.48477" lon="5.38958">
        <ele>387.6</ele>
        <time>2022-05-16T14:56:21Z</time>
      </trkpt>
      <trkpt lat="46.4847" lon="5.38942">
        <ele>387</ele>
        <time>2022-05-16T14:56:22Z</time>
      </trkpt>
      <trkpt lat="46.48462" lon="5.38927">
        <ele>385.8</ele>
        <time>2022-05-16T14:56:23Z</time>
      </trkpt>
      <trkpt lat="46.48456" lon="5.38912">
        <ele>385.6</ele>
        <time>2022-05-16T14:56:24Z</time>
      </trkpt>
      <trkpt lat="46.48452" lon="5.38897">
        <ele>384.6</ele>
        <time>2022-05-16T14:56:25Z</time>
      </trkpt>
      <trkpt lat="46.4845" lon="5.38881">
        <ele>384</ele>
        <time>2022-05-16T14:56:26Z</time>
      </trkpt>
      <trkpt lat="46.48454" lon="5.38867">
        <ele>382.4</ele>
        <time>2022-05-16T14:56:27Z</time>
      </trkpt>
      <trkpt lat="46.4846" lon="5.38855">
        <ele>382</ele>
        <time>2022-05-16T14:56:28Z</time>
      </trkpt>
      <trkpt lat="46.48468" lon="5.38846">
        <ele>380.4</ele>
        <time>2022-05-16T14:56:29Z</time>
      </trkpt>
      <trkpt lat="46.48479" lon="5.38839">
        <ele>379.6</ele>
        <time>2022-05-16T14:56:30Z</time>
      </trkpt>
      <trkpt lat="46.4849" lon="5.38833">
        <ele>379.2</ele>
        <time>2022-05-16T14:56:31Z</time>
      </trkpt>
      <trkpt lat="46.48511" lon="5.38821">
        <ele>377.8</ele>
        <time>2022-05-16T14:56:33Z</time>
      </trkpt>
      <trkpt lat="46.48545" lon="5.38801">
        <ele>376</ele>
        <time>2022-05-16T14:56:36Z</time>
      </trkpt>
      <trkpt lat="46.48556" lon="5.38794">
        <ele>374.4</ele>
        <time>2022-05-16T14:56:37Z</time>
      </trkpt>
      <trkpt lat="46.48576" lon="5.38781">
        <ele>372.6</ele>
        <time>2022-05-16T14:56:39Z</time>
      </trkpt>
      <trkpt lat="46.48583" lon="5.38778">
        <ele>372.2</ele>
        <time>2022-05-16T14:56:40Z</time>
      </trkpt>
      <trkpt lat="46.48593" lon="5.38776">
        <ele>371.8</ele>
        <time>2022-05-16T14:56:41Z</time>
      </trkpt>
      <trkpt lat="46.486" lon="5.38778">
        <ele>370.8</ele>
        <time>2022-05-16T14:56:42Z</time>
      </trkpt>
      <trkpt lat="46.48606" lon="5.3878">
        <ele>369.4</ele>
        <time>2022-05-16T14:56:43Z</time>
      </trkpt>
      <trkpt lat="46.48612" lon="5.38778">
        <ele>368.6</ele>
        <time>2022-05-16T14:56:44Z</time>
      </trkpt>
      <trkpt lat="46.48618" lon="5.38773">
        <ele>368.2</ele>
        <time>2022-05-16T14:56:45Z</time>
      </trkpt>
      <trkpt lat="46.48625" lon="5.38764">
        <ele>367.4</ele>
        <time>2022-05-16T14:56:46Z</time>
      </trkpt>
      <trkpt lat="46.4863" lon="5.38754">
        <ele>367</ele>
        <time>2022-05-16T14:56:47Z</time>
      </trkpt>
      <trkpt lat="46.48639" lon="5.3873">
        <ele>365.8</ele>
        <time>2022-05-16T14:56:49Z</time>
      </trkpt>
      <trkpt lat="46.48643" lon="5.38716">
        <ele>364.6</ele>
        <time>2022-05-16T14:56:50Z</time>
      </trkpt>
      <trkpt lat="46.48645" lon="5.38702">
        <ele>363.4</ele>
        <time>2022-05-16T14:56:51Z</time>
      </trkpt>
      <trkpt lat="46.48646" lon="5.38687">
        <ele>363</ele>
        <time>2022-05-16T14:56:52Z</time>
      </trkpt>
      <trkpt lat="46.48645" lon="5.38672">
        <ele>361.8</ele>
        <time>2022-05-16T14:56:53Z</time>
      </trkpt>
      <trkpt lat="46.48641" lon="5.38641">
        <ele>360.6</ele>
        <time>2022-05-16T14:56:55Z</time>
      </trkpt>
      <trkpt lat="46.48633" lon="5.38611">
        <ele>359.4</ele>
        <time>2022-05-16T14:56:57Z</time>
      </trkpt>
      <trkpt lat="46.48624" lon="5.3858">
        <ele>358</ele>
        <time>2022-05-16T14:56:59Z</time>
      </trkpt>
      <trkpt lat="46.4862" lon="5.38564">
        <ele>357.4</ele>
        <time>2022-05-16T14:57:00Z</time>
      </trkpt>
      <trkpt lat="46.48615" lon="5.38548">
        <ele>357.2</ele>
        <time>2022-05-16T14:57:01Z</time>
      </trkpt>
      <trkpt lat="46.48601" lon="5.38501">
        <ele>356</ele>
        <time>2022-05-16T14:57:04Z</time>
      </trkpt>
    </trkseg>
  </trk>
</gpx>